<?xml version="1.0" encoding="UTF-8" standalone="no" ?>
<gpx xmlns="http://www.topografix.com/GPX/1/1" xmlns:xsi="http://www.w3.org/2001/XMLSchema-instance" xsi:schemaLocation="http://www.topografix.com/GPX/1/1 http://www.topografix.com/GPX/1/1/gpx.xsd" version="1.1" creator="VisuGPX - https://www.visugpx.com">
  <metadata>
    <name>Course des Cimes - Auron</name>
    <desc><![CDATA[15 Août 2010
Vainqueur en 59'20"]]></desc>
  </metadata>
  <trk>
    <name><![CDATA[45]]></name>
    <trkseg>
      <trkpt lat="44.22494" lon="6.93149">
        <ele>1583</ele>
        <time>2010-08-15T07:19:06Z</time>
      </trkpt>
      <trkpt lat="44.22494" lon="6.93149">
        <ele>1583</ele>
        <time>2010-08-15T07:19:07Z</time>
      </trkpt>
      <trkpt lat="44.22495" lon="6.93149">
        <ele>1583</ele>
        <time>2010-08-15T07:19:08Z</time>
      </trkpt>
      <trkpt lat="44.22497" lon="6.93147">
        <ele>1583</ele>
        <time>2010-08-15T07:19:09Z</time>
      </trkpt>
      <trkpt lat="44.225" lon="6.93144">
        <ele>1582</ele>
        <time>2010-08-15T07:19:10Z</time>
      </trkpt>
      <trkpt lat="44.22503" lon="6.93141">
        <ele>1594</ele>
        <time>2010-08-15T07:19:11Z</time>
      </trkpt>
      <trkpt lat="44.22506" lon="6.93137">
        <ele>1594</ele>
        <time>2010-08-15T07:19:12Z</time>
      </trkpt>
      <trkpt lat="44.22508" lon="6.93133">
        <ele>1595</ele>
        <time>2010-08-15T07:19:13Z</time>
      </trkpt>
      <trkpt lat="44.22511" lon="6.93128">
        <ele>1595</ele>
        <time>2010-08-15T07:19:14Z</time>
      </trkpt>
      <trkpt lat="44.22514" lon="6.93124">
        <ele>1595</ele>
        <time>2010-08-15T07:19:15Z</time>
      </trkpt>
      <trkpt lat="44.22516" lon="6.9312">
        <ele>1595</ele>
        <time>2010-08-15T07:19:16Z</time>
      </trkpt>
      <trkpt lat="44.22519" lon="6.93118">
        <ele>1595</ele>
        <time>2010-08-15T07:19:17Z</time>
      </trkpt>
      <trkpt lat="44.22521" lon="6.93114">
        <ele>1595</ele>
        <time>2010-08-15T07:19:18Z</time>
      </trkpt>
      <trkpt lat="44.22524" lon="6.9311">
        <ele>1595</ele>
        <time>2010-08-15T07:19:19Z</time>
      </trkpt>
      <trkpt lat="44.22526" lon="6.93105">
        <ele>1595</ele>
        <time>2010-08-15T07:19:20Z</time>
      </trkpt>
      <trkpt lat="44.22527" lon="6.931">
        <ele>1595</ele>
        <time>2010-08-15T07:19:21Z</time>
      </trkpt>
      <trkpt lat="44.22529" lon="6.93096">
        <ele>1595</ele>
        <time>2010-08-15T07:19:22Z</time>
      </trkpt>
      <trkpt lat="44.2253" lon="6.93091">
        <ele>1595</ele>
        <time>2010-08-15T07:19:23Z</time>
      </trkpt>
      <trkpt lat="44.22531" lon="6.93086">
        <ele>1595</ele>
        <time>2010-08-15T07:19:24Z</time>
      </trkpt>
      <trkpt lat="44.22533" lon="6.93081">
        <ele>1593</ele>
        <time>2010-08-15T07:19:25Z</time>
      </trkpt>
      <trkpt lat="44.22535" lon="6.93076">
        <ele>1593</ele>
        <time>2010-08-15T07:19:26Z</time>
      </trkpt>
      <trkpt lat="44.22537" lon="6.93071">
        <ele>1593</ele>
        <time>2010-08-15T07:19:27Z</time>
      </trkpt>
      <trkpt lat="44.22539" lon="6.93067">
        <ele>1593</ele>
        <time>2010-08-15T07:19:28Z</time>
      </trkpt>
      <trkpt lat="44.2254" lon="6.93062">
        <ele>1593</ele>
        <time>2010-08-15T07:19:29Z</time>
      </trkpt>
      <trkpt lat="44.22542" lon="6.93056">
        <ele>1593</ele>
        <time>2010-08-15T07:19:30Z</time>
      </trkpt>
      <trkpt lat="44.22543" lon="6.93051">
        <ele>1593</ele>
        <time>2010-08-15T07:19:31Z</time>
      </trkpt>
      <trkpt lat="44.22544" lon="6.93047">
        <ele>1593</ele>
        <time>2010-08-15T07:19:32Z</time>
      </trkpt>
      <trkpt lat="44.22546" lon="6.93042">
        <ele>1593</ele>
        <time>2010-08-15T07:19:33Z</time>
      </trkpt>
      <trkpt lat="44.22547" lon="6.93037">
        <ele>1593</ele>
        <time>2010-08-15T07:19:34Z</time>
      </trkpt>
      <trkpt lat="44.22549" lon="6.93033">
        <ele>1593</ele>
        <time>2010-08-15T07:19:35Z</time>
      </trkpt>
      <trkpt lat="44.2255" lon="6.93028">
        <ele>1593</ele>
        <time>2010-08-15T07:19:36Z</time>
      </trkpt>
      <trkpt lat="44.22551" lon="6.93024">
        <ele>1593</ele>
        <time>2010-08-15T07:19:37Z</time>
      </trkpt>
      <trkpt lat="44.22553" lon="6.9302">
        <ele>1594</ele>
        <time>2010-08-15T07:19:38Z</time>
      </trkpt>
      <trkpt lat="44.22555" lon="6.93016">
        <ele>1594</ele>
        <time>2010-08-15T07:19:39Z</time>
      </trkpt>
      <trkpt lat="44.22556" lon="6.93012">
        <ele>1594</ele>
        <time>2010-08-15T07:19:40Z</time>
      </trkpt>
      <trkpt lat="44.22558" lon="6.93008">
        <ele>1595</ele>
        <time>2010-08-15T07:19:41Z</time>
      </trkpt>
      <trkpt lat="44.2256" lon="6.93005">
        <ele>1595</ele>
        <time>2010-08-15T07:19:42Z</time>
      </trkpt>
      <trkpt lat="44.22561" lon="6.93001">
        <ele>1595</ele>
        <time>2010-08-15T07:19:43Z</time>
      </trkpt>
      <trkpt lat="44.22563" lon="6.92997">
        <ele>1592</ele>
        <time>2010-08-15T07:19:44Z</time>
      </trkpt>
      <trkpt lat="44.22565" lon="6.92993">
        <ele>1593</ele>
        <time>2010-08-15T07:19:45Z</time>
      </trkpt>
      <trkpt lat="44.22567" lon="6.92989">
        <ele>1593</ele>
        <time>2010-08-15T07:19:46Z</time>
      </trkpt>
      <trkpt lat="44.22569" lon="6.92985">
        <ele>1592</ele>
        <time>2010-08-15T07:19:47Z</time>
      </trkpt>
      <trkpt lat="44.2257" lon="6.9298">
        <ele>1592</ele>
        <time>2010-08-15T07:19:48Z</time>
      </trkpt>
      <trkpt lat="44.22572" lon="6.92975">
        <ele>1591</ele>
        <time>2010-08-15T07:19:49Z</time>
      </trkpt>
      <trkpt lat="44.22574" lon="6.9297">
        <ele>1591</ele>
        <time>2010-08-15T07:19:50Z</time>
      </trkpt>
      <trkpt lat="44.22576" lon="6.92965">
        <ele>1590</ele>
        <time>2010-08-15T07:19:51Z</time>
      </trkpt>
      <trkpt lat="44.22578" lon="6.92961">
        <ele>1590</ele>
        <time>2010-08-15T07:19:52Z</time>
      </trkpt>
      <trkpt lat="44.22579" lon="6.92957">
        <ele>1590</ele>
        <time>2010-08-15T07:19:53Z</time>
      </trkpt>
      <trkpt lat="44.22582" lon="6.92953">
        <ele>1590</ele>
        <time>2010-08-15T07:19:54Z</time>
      </trkpt>
      <trkpt lat="44.22584" lon="6.9295">
        <ele>1601</ele>
        <time>2010-08-15T07:19:55Z</time>
      </trkpt>
      <trkpt lat="44.22586" lon="6.92946">
        <ele>1600</ele>
        <time>2010-08-15T07:19:56Z</time>
      </trkpt>
      <trkpt lat="44.22587" lon="6.92943">
        <ele>1600</ele>
        <time>2010-08-15T07:19:57Z</time>
      </trkpt>
      <trkpt lat="44.22589" lon="6.92939">
        <ele>1600</ele>
        <time>2010-08-15T07:19:58Z</time>
      </trkpt>
      <trkpt lat="44.22591" lon="6.92935">
        <ele>1599</ele>
        <time>2010-08-15T07:19:59Z</time>
      </trkpt>
      <trkpt lat="44.22594" lon="6.92931">
        <ele>1599</ele>
        <time>2010-08-15T07:20:00Z</time>
      </trkpt>
      <trkpt lat="44.22597" lon="6.92928">
        <ele>1599</ele>
        <time>2010-08-15T07:20:01Z</time>
      </trkpt>
      <trkpt lat="44.226" lon="6.92925">
        <ele>1599</ele>
        <time>2010-08-15T07:20:02Z</time>
      </trkpt>
      <trkpt lat="44.22604" lon="6.92924">
        <ele>1600</ele>
        <time>2010-08-15T07:20:03Z</time>
      </trkpt>
      <trkpt lat="44.22607" lon="6.92924">
        <ele>1600</ele>
        <time>2010-08-15T07:20:04Z</time>
      </trkpt>
      <trkpt lat="44.2261" lon="6.92923">
        <ele>1601</ele>
        <time>2010-08-15T07:20:05Z</time>
      </trkpt>
      <trkpt lat="44.22614" lon="6.92923">
        <ele>1601</ele>
        <time>2010-08-15T07:20:06Z</time>
      </trkpt>
      <trkpt lat="44.22617" lon="6.92923">
        <ele>1601</ele>
        <time>2010-08-15T07:20:07Z</time>
      </trkpt>
      <trkpt lat="44.2262" lon="6.92924">
        <ele>1602</ele>
        <time>2010-08-15T07:20:08Z</time>
      </trkpt>
      <trkpt lat="44.22623" lon="6.92927">
        <ele>1602</ele>
        <time>2010-08-15T07:20:09Z</time>
      </trkpt>
      <trkpt lat="44.22627" lon="6.9293">
        <ele>1602</ele>
        <time>2010-08-15T07:20:10Z</time>
      </trkpt>
      <trkpt lat="44.2263" lon="6.92932">
        <ele>1603</ele>
        <time>2010-08-15T07:20:11Z</time>
      </trkpt>
      <trkpt lat="44.22632" lon="6.92935">
        <ele>1603</ele>
        <time>2010-08-15T07:20:12Z</time>
      </trkpt>
      <trkpt lat="44.22635" lon="6.92938">
        <ele>1603</ele>
        <time>2010-08-15T07:20:13Z</time>
      </trkpt>
      <trkpt lat="44.22637" lon="6.92942">
        <ele>1603</ele>
        <time>2010-08-15T07:20:14Z</time>
      </trkpt>
      <trkpt lat="44.22639" lon="6.92945">
        <ele>1603</ele>
        <time>2010-08-15T07:20:15Z</time>
      </trkpt>
      <trkpt lat="44.22641" lon="6.92949">
        <ele>1604</ele>
        <time>2010-08-15T07:20:16Z</time>
      </trkpt>
      <trkpt lat="44.22644" lon="6.92953">
        <ele>1604</ele>
        <time>2010-08-15T07:20:17Z</time>
      </trkpt>
      <trkpt lat="44.22647" lon="6.92957">
        <ele>1604</ele>
        <time>2010-08-15T07:20:18Z</time>
      </trkpt>
      <trkpt lat="44.22649" lon="6.9296">
        <ele>1604</ele>
        <time>2010-08-15T07:20:19Z</time>
      </trkpt>
      <trkpt lat="44.22651" lon="6.92964">
        <ele>1604</ele>
        <time>2010-08-15T07:20:20Z</time>
      </trkpt>
      <trkpt lat="44.22653" lon="6.92968">
        <ele>1605</ele>
        <time>2010-08-15T07:20:21Z</time>
      </trkpt>
      <trkpt lat="44.22654" lon="6.92971">
        <ele>1605</ele>
        <time>2010-08-15T07:20:22Z</time>
      </trkpt>
      <trkpt lat="44.22655" lon="6.92975">
        <ele>1605</ele>
        <time>2010-08-15T07:20:23Z</time>
      </trkpt>
      <trkpt lat="44.22657" lon="6.92979">
        <ele>1606</ele>
        <time>2010-08-15T07:20:24Z</time>
      </trkpt>
      <trkpt lat="44.22659" lon="6.92983">
        <ele>1606</ele>
        <time>2010-08-15T07:20:25Z</time>
      </trkpt>
      <trkpt lat="44.22661" lon="6.92987">
        <ele>1607</ele>
        <time>2010-08-15T07:20:26Z</time>
      </trkpt>
      <trkpt lat="44.22663" lon="6.92991">
        <ele>1607</ele>
        <time>2010-08-15T07:20:27Z</time>
      </trkpt>
      <trkpt lat="44.22664" lon="6.92995">
        <ele>1608</ele>
        <time>2010-08-15T07:20:28Z</time>
      </trkpt>
      <trkpt lat="44.22665" lon="6.92999">
        <ele>1609</ele>
        <time>2010-08-15T07:20:29Z</time>
      </trkpt>
      <trkpt lat="44.22667" lon="6.93003">
        <ele>1610</ele>
        <time>2010-08-15T07:20:30Z</time>
      </trkpt>
      <trkpt lat="44.22668" lon="6.93007">
        <ele>1611</ele>
        <time>2010-08-15T07:20:31Z</time>
      </trkpt>
      <trkpt lat="44.2267" lon="6.93011">
        <ele>1611</ele>
        <time>2010-08-15T07:20:32Z</time>
      </trkpt>
      <trkpt lat="44.22671" lon="6.93016">
        <ele>1612</ele>
        <time>2010-08-15T07:20:33Z</time>
      </trkpt>
      <trkpt lat="44.22672" lon="6.93021">
        <ele>1612</ele>
        <time>2010-08-15T07:20:34Z</time>
      </trkpt>
      <trkpt lat="44.22672" lon="6.93026">
        <ele>1613</ele>
        <time>2010-08-15T07:20:35Z</time>
      </trkpt>
      <trkpt lat="44.22673" lon="6.93031">
        <ele>1613</ele>
        <time>2010-08-15T07:20:36Z</time>
      </trkpt>
      <trkpt lat="44.22674" lon="6.93037">
        <ele>1613</ele>
        <time>2010-08-15T07:20:37Z</time>
      </trkpt>
      <trkpt lat="44.22675" lon="6.93041">
        <ele>1613</ele>
        <time>2010-08-15T07:20:38Z</time>
      </trkpt>
      <trkpt lat="44.22675" lon="6.93046">
        <ele>1613</ele>
        <time>2010-08-15T07:20:39Z</time>
      </trkpt>
      <trkpt lat="44.22677" lon="6.93051">
        <ele>1613</ele>
        <time>2010-08-15T07:20:40Z</time>
      </trkpt>
      <trkpt lat="44.22677" lon="6.93056">
        <ele>1613</ele>
        <time>2010-08-15T07:20:41Z</time>
      </trkpt>
      <trkpt lat="44.22677" lon="6.93061">
        <ele>1612</ele>
        <time>2010-08-15T07:20:42Z</time>
      </trkpt>
      <trkpt lat="44.22677" lon="6.93065">
        <ele>1612</ele>
        <time>2010-08-15T07:20:43Z</time>
      </trkpt>
      <trkpt lat="44.22677" lon="6.9307">
        <ele>1612</ele>
        <time>2010-08-15T07:20:44Z</time>
      </trkpt>
      <trkpt lat="44.22678" lon="6.93075">
        <ele>1611</ele>
        <time>2010-08-15T07:20:45Z</time>
      </trkpt>
      <trkpt lat="44.22678" lon="6.93079">
        <ele>1611</ele>
        <time>2010-08-15T07:20:46Z</time>
      </trkpt>
      <trkpt lat="44.22679" lon="6.93084">
        <ele>1610</ele>
        <time>2010-08-15T07:20:47Z</time>
      </trkpt>
      <trkpt lat="44.22679" lon="6.93088">
        <ele>1610</ele>
        <time>2010-08-15T07:20:48Z</time>
      </trkpt>
      <trkpt lat="44.22679" lon="6.93092">
        <ele>1610</ele>
        <time>2010-08-15T07:20:49Z</time>
      </trkpt>
      <trkpt lat="44.22678" lon="6.93095">
        <ele>1610</ele>
        <time>2010-08-15T07:20:50Z</time>
      </trkpt>
      <trkpt lat="44.22679" lon="6.931">
        <ele>1611</ele>
        <time>2010-08-15T07:20:51Z</time>
      </trkpt>
      <trkpt lat="44.22679" lon="6.93105">
        <ele>1611</ele>
        <time>2010-08-15T07:20:52Z</time>
      </trkpt>
      <trkpt lat="44.2268" lon="6.9311">
        <ele>1611</ele>
        <time>2010-08-15T07:20:53Z</time>
      </trkpt>
      <trkpt lat="44.2268" lon="6.93115">
        <ele>1611</ele>
        <time>2010-08-15T07:20:54Z</time>
      </trkpt>
      <trkpt lat="44.22681" lon="6.9312">
        <ele>1611</ele>
        <time>2010-08-15T07:20:55Z</time>
      </trkpt>
      <trkpt lat="44.22681" lon="6.93125">
        <ele>1611</ele>
        <time>2010-08-15T07:20:56Z</time>
      </trkpt>
      <trkpt lat="44.22681" lon="6.9313">
        <ele>1610</ele>
        <time>2010-08-15T07:20:57Z</time>
      </trkpt>
      <trkpt lat="44.22681" lon="6.93136">
        <ele>1610</ele>
        <time>2010-08-15T07:20:58Z</time>
      </trkpt>
      <trkpt lat="44.22681" lon="6.93141">
        <ele>1610</ele>
        <time>2010-08-15T07:20:59Z</time>
      </trkpt>
      <trkpt lat="44.22682" lon="6.93146">
        <ele>1609</ele>
        <time>2010-08-15T07:21:00Z</time>
      </trkpt>
      <trkpt lat="44.22683" lon="6.93151">
        <ele>1609</ele>
        <time>2010-08-15T07:21:01Z</time>
      </trkpt>
      <trkpt lat="44.22683" lon="6.93156">
        <ele>1609</ele>
        <time>2010-08-15T07:21:02Z</time>
      </trkpt>
      <trkpt lat="44.22683" lon="6.9316">
        <ele>1609</ele>
        <time>2010-08-15T07:21:03Z</time>
      </trkpt>
      <trkpt lat="44.22684" lon="6.93164">
        <ele>1609</ele>
        <time>2010-08-15T07:21:04Z</time>
      </trkpt>
      <trkpt lat="44.22684" lon="6.93168">
        <ele>1607</ele>
        <time>2010-08-15T07:21:05Z</time>
      </trkpt>
      <trkpt lat="44.22685" lon="6.93173">
        <ele>1607</ele>
        <time>2010-08-15T07:21:06Z</time>
      </trkpt>
      <trkpt lat="44.22685" lon="6.93177">
        <ele>1607</ele>
        <time>2010-08-15T07:21:07Z</time>
      </trkpt>
      <trkpt lat="44.22685" lon="6.93181">
        <ele>1607</ele>
        <time>2010-08-15T07:21:08Z</time>
      </trkpt>
      <trkpt lat="44.22685" lon="6.93185">
        <ele>1607</ele>
        <time>2010-08-15T07:21:09Z</time>
      </trkpt>
      <trkpt lat="44.22685" lon="6.9319">
        <ele>1608</ele>
        <time>2010-08-15T07:21:10Z</time>
      </trkpt>
      <trkpt lat="44.22686" lon="6.93194">
        <ele>1608</ele>
        <time>2010-08-15T07:21:11Z</time>
      </trkpt>
      <trkpt lat="44.22686" lon="6.93198">
        <ele>1608</ele>
        <time>2010-08-15T07:21:12Z</time>
      </trkpt>
      <trkpt lat="44.22686" lon="6.93203">
        <ele>1608</ele>
        <time>2010-08-15T07:21:13Z</time>
      </trkpt>
      <trkpt lat="44.22686" lon="6.93207">
        <ele>1607</ele>
        <time>2010-08-15T07:21:14Z</time>
      </trkpt>
      <trkpt lat="44.22686" lon="6.93212">
        <ele>1607</ele>
        <time>2010-08-15T07:21:15Z</time>
      </trkpt>
      <trkpt lat="44.22686" lon="6.93217">
        <ele>1607</ele>
        <time>2010-08-15T07:21:16Z</time>
      </trkpt>
      <trkpt lat="44.22687" lon="6.93221">
        <ele>1607</ele>
        <time>2010-08-15T07:21:17Z</time>
      </trkpt>
      <trkpt lat="44.22687" lon="6.93226">
        <ele>1607</ele>
        <time>2010-08-15T07:21:18Z</time>
      </trkpt>
      <trkpt lat="44.22688" lon="6.93231">
        <ele>1607</ele>
        <time>2010-08-15T07:21:19Z</time>
      </trkpt>
      <trkpt lat="44.22689" lon="6.93236">
        <ele>1607</ele>
        <time>2010-08-15T07:21:20Z</time>
      </trkpt>
      <trkpt lat="44.2269" lon="6.93241">
        <ele>1606</ele>
        <time>2010-08-15T07:21:21Z</time>
      </trkpt>
      <trkpt lat="44.2269" lon="6.93245">
        <ele>1606</ele>
        <time>2010-08-15T07:21:22Z</time>
      </trkpt>
      <trkpt lat="44.2269" lon="6.9325">
        <ele>1604</ele>
        <time>2010-08-15T07:21:23Z</time>
      </trkpt>
      <trkpt lat="44.2269" lon="6.93255">
        <ele>1604</ele>
        <time>2010-08-15T07:21:24Z</time>
      </trkpt>
      <trkpt lat="44.2269" lon="6.93259">
        <ele>1604</ele>
        <time>2010-08-15T07:21:25Z</time>
      </trkpt>
      <trkpt lat="44.22691" lon="6.93263">
        <ele>1604</ele>
        <time>2010-08-15T07:21:26Z</time>
      </trkpt>
      <trkpt lat="44.2269" lon="6.93268">
        <ele>1604</ele>
        <time>2010-08-15T07:21:27Z</time>
      </trkpt>
      <trkpt lat="44.2269" lon="6.93273">
        <ele>1605</ele>
        <time>2010-08-15T07:21:28Z</time>
      </trkpt>
      <trkpt lat="44.22691" lon="6.93278">
        <ele>1605</ele>
        <time>2010-08-15T07:21:29Z</time>
      </trkpt>
      <trkpt lat="44.22691" lon="6.93282">
        <ele>1605</ele>
        <time>2010-08-15T07:21:30Z</time>
      </trkpt>
      <trkpt lat="44.22691" lon="6.93288">
        <ele>1604</ele>
        <time>2010-08-15T07:21:31Z</time>
      </trkpt>
      <trkpt lat="44.2269" lon="6.93292">
        <ele>1604</ele>
        <time>2010-08-15T07:21:32Z</time>
      </trkpt>
      <trkpt lat="44.2269" lon="6.93297">
        <ele>1604</ele>
        <time>2010-08-15T07:21:33Z</time>
      </trkpt>
      <trkpt lat="44.22691" lon="6.93302">
        <ele>1604</ele>
        <time>2010-08-15T07:21:34Z</time>
      </trkpt>
      <trkpt lat="44.22692" lon="6.93306">
        <ele>1604</ele>
        <time>2010-08-15T07:21:35Z</time>
      </trkpt>
      <trkpt lat="44.22694" lon="6.93311">
        <ele>1604</ele>
        <time>2010-08-15T07:21:36Z</time>
      </trkpt>
      <trkpt lat="44.22696" lon="6.93315">
        <ele>1604</ele>
        <time>2010-08-15T07:21:37Z</time>
      </trkpt>
      <trkpt lat="44.22697" lon="6.93319">
        <ele>1604</ele>
        <time>2010-08-15T07:21:38Z</time>
      </trkpt>
      <trkpt lat="44.22699" lon="6.93323">
        <ele>1604</ele>
        <time>2010-08-15T07:21:39Z</time>
      </trkpt>
      <trkpt lat="44.22701" lon="6.93326">
        <ele>1604</ele>
        <time>2010-08-15T07:21:40Z</time>
      </trkpt>
      <trkpt lat="44.22703" lon="6.93331">
        <ele>1604</ele>
        <time>2010-08-15T07:21:41Z</time>
      </trkpt>
      <trkpt lat="44.22704" lon="6.93335">
        <ele>1603</ele>
        <time>2010-08-15T07:21:42Z</time>
      </trkpt>
      <trkpt lat="44.22707" lon="6.93338">
        <ele>1603</ele>
        <time>2010-08-15T07:21:43Z</time>
      </trkpt>
      <trkpt lat="44.22711" lon="6.93339">
        <ele>1603</ele>
        <time>2010-08-15T07:21:44Z</time>
      </trkpt>
      <trkpt lat="44.22715" lon="6.9334">
        <ele>1604</ele>
        <time>2010-08-15T07:21:45Z</time>
      </trkpt>
      <trkpt lat="44.22718" lon="6.9334">
        <ele>1604</ele>
        <time>2010-08-15T07:21:46Z</time>
      </trkpt>
      <trkpt lat="44.22721" lon="6.9334">
        <ele>1604</ele>
        <time>2010-08-15T07:21:47Z</time>
      </trkpt>
      <trkpt lat="44.22725" lon="6.93341">
        <ele>1604</ele>
        <time>2010-08-15T07:21:48Z</time>
      </trkpt>
      <trkpt lat="44.22728" lon="6.9334">
        <ele>1605</ele>
        <time>2010-08-15T07:21:49Z</time>
      </trkpt>
      <trkpt lat="44.22731" lon="6.93339">
        <ele>1605</ele>
        <time>2010-08-15T07:21:50Z</time>
      </trkpt>
      <trkpt lat="44.22735" lon="6.93339">
        <ele>1605</ele>
        <time>2010-08-15T07:21:51Z</time>
      </trkpt>
      <trkpt lat="44.22738" lon="6.93339">
        <ele>1605</ele>
        <time>2010-08-15T07:21:52Z</time>
      </trkpt>
      <trkpt lat="44.22741" lon="6.93339">
        <ele>1606</ele>
        <time>2010-08-15T07:21:53Z</time>
      </trkpt>
      <trkpt lat="44.22744" lon="6.93338">
        <ele>1606</ele>
        <time>2010-08-15T07:21:54Z</time>
      </trkpt>
      <trkpt lat="44.22746" lon="6.93336">
        <ele>1606</ele>
        <time>2010-08-15T07:21:55Z</time>
      </trkpt>
      <trkpt lat="44.22749" lon="6.93335">
        <ele>1607</ele>
        <time>2010-08-15T07:21:56Z</time>
      </trkpt>
      <trkpt lat="44.22752" lon="6.93334">
        <ele>1608</ele>
        <time>2010-08-15T07:21:57Z</time>
      </trkpt>
      <trkpt lat="44.22755" lon="6.93333">
        <ele>1608</ele>
        <time>2010-08-15T07:21:58Z</time>
      </trkpt>
      <trkpt lat="44.22757" lon="6.93332">
        <ele>1609</ele>
        <time>2010-08-15T07:21:59Z</time>
      </trkpt>
      <trkpt lat="44.2276" lon="6.93331">
        <ele>1609</ele>
        <time>2010-08-15T07:22:00Z</time>
      </trkpt>
      <trkpt lat="44.22763" lon="6.9333">
        <ele>1610</ele>
        <time>2010-08-15T07:22:01Z</time>
      </trkpt>
      <trkpt lat="44.22765" lon="6.93327">
        <ele>1610</ele>
        <time>2010-08-15T07:22:02Z</time>
      </trkpt>
      <trkpt lat="44.22767" lon="6.93324">
        <ele>1611</ele>
        <time>2010-08-15T07:22:03Z</time>
      </trkpt>
      <trkpt lat="44.22768" lon="6.93322">
        <ele>1611</ele>
        <time>2010-08-15T07:22:04Z</time>
      </trkpt>
      <trkpt lat="44.2277" lon="6.93319">
        <ele>1612</ele>
        <time>2010-08-15T07:22:05Z</time>
      </trkpt>
      <trkpt lat="44.22772" lon="6.93317">
        <ele>1612</ele>
        <time>2010-08-15T07:22:06Z</time>
      </trkpt>
      <trkpt lat="44.22775" lon="6.93314">
        <ele>1612</ele>
        <time>2010-08-15T07:22:07Z</time>
      </trkpt>
      <trkpt lat="44.22778" lon="6.93312">
        <ele>1613</ele>
        <time>2010-08-15T07:22:08Z</time>
      </trkpt>
      <trkpt lat="44.2278" lon="6.9331">
        <ele>1613</ele>
        <time>2010-08-15T07:22:09Z</time>
      </trkpt>
      <trkpt lat="44.22783" lon="6.93307">
        <ele>1613</ele>
        <time>2010-08-15T07:22:10Z</time>
      </trkpt>
      <trkpt lat="44.22785" lon="6.93305">
        <ele>1613</ele>
        <time>2010-08-15T07:22:11Z</time>
      </trkpt>
      <trkpt lat="44.22787" lon="6.93303">
        <ele>1613</ele>
        <time>2010-08-15T07:22:12Z</time>
      </trkpt>
      <trkpt lat="44.22789" lon="6.93301">
        <ele>1614</ele>
        <time>2010-08-15T07:22:13Z</time>
      </trkpt>
      <trkpt lat="44.22792" lon="6.93299">
        <ele>1614</ele>
        <time>2010-08-15T07:22:14Z</time>
      </trkpt>
      <trkpt lat="44.22794" lon="6.93297">
        <ele>1614</ele>
        <time>2010-08-15T07:22:15Z</time>
      </trkpt>
      <trkpt lat="44.22797" lon="6.93295">
        <ele>1614</ele>
        <time>2010-08-15T07:22:16Z</time>
      </trkpt>
      <trkpt lat="44.22799" lon="6.93293">
        <ele>1614</ele>
        <time>2010-08-15T07:22:17Z</time>
      </trkpt>
      <trkpt lat="44.22802" lon="6.9329">
        <ele>1615</ele>
        <time>2010-08-15T07:22:18Z</time>
      </trkpt>
      <trkpt lat="44.22804" lon="6.93288">
        <ele>1615</ele>
        <time>2010-08-15T07:22:19Z</time>
      </trkpt>
      <trkpt lat="44.22806" lon="6.93285">
        <ele>1615</ele>
        <time>2010-08-15T07:22:20Z</time>
      </trkpt>
      <trkpt lat="44.22808" lon="6.93284">
        <ele>1615</ele>
        <time>2010-08-15T07:22:21Z</time>
      </trkpt>
      <trkpt lat="44.2281" lon="6.93282">
        <ele>1615</ele>
        <time>2010-08-15T07:22:22Z</time>
      </trkpt>
      <trkpt lat="44.22813" lon="6.9328">
        <ele>1615</ele>
        <time>2010-08-15T07:22:23Z</time>
      </trkpt>
      <trkpt lat="44.22815" lon="6.93278">
        <ele>1616</ele>
        <time>2010-08-15T07:22:24Z</time>
      </trkpt>
      <trkpt lat="44.22817" lon="6.93277">
        <ele>1616</ele>
        <time>2010-08-15T07:22:25Z</time>
      </trkpt>
      <trkpt lat="44.22818" lon="6.93275">
        <ele>1616</ele>
        <time>2010-08-15T07:22:26Z</time>
      </trkpt>
      <trkpt lat="44.2282" lon="6.93274">
        <ele>1616</ele>
        <time>2010-08-15T07:22:27Z</time>
      </trkpt>
      <trkpt lat="44.22822" lon="6.93273">
        <ele>1616</ele>
        <time>2010-08-15T07:22:28Z</time>
      </trkpt>
      <trkpt lat="44.22824" lon="6.93272">
        <ele>1616</ele>
        <time>2010-08-15T07:22:29Z</time>
      </trkpt>
      <trkpt lat="44.22826" lon="6.93272">
        <ele>1617</ele>
        <time>2010-08-15T07:22:30Z</time>
      </trkpt>
      <trkpt lat="44.22827" lon="6.93271">
        <ele>1617</ele>
        <time>2010-08-15T07:22:31Z</time>
      </trkpt>
      <trkpt lat="44.22829" lon="6.93269">
        <ele>1617</ele>
        <time>2010-08-15T07:22:32Z</time>
      </trkpt>
      <trkpt lat="44.22831" lon="6.93267">
        <ele>1617</ele>
        <time>2010-08-15T07:22:33Z</time>
      </trkpt>
      <trkpt lat="44.22832" lon="6.93266">
        <ele>1617</ele>
        <time>2010-08-15T07:22:34Z</time>
      </trkpt>
      <trkpt lat="44.22833" lon="6.93265">
        <ele>1623</ele>
        <time>2010-08-15T07:22:35Z</time>
      </trkpt>
      <trkpt lat="44.22835" lon="6.93264">
        <ele>1623</ele>
        <time>2010-08-15T07:22:36Z</time>
      </trkpt>
      <trkpt lat="44.22836" lon="6.93262">
        <ele>1623</ele>
        <time>2010-08-15T07:22:37Z</time>
      </trkpt>
      <trkpt lat="44.22838" lon="6.93261">
        <ele>1623</ele>
        <time>2010-08-15T07:22:38Z</time>
      </trkpt>
      <trkpt lat="44.2284" lon="6.93261">
        <ele>1623</ele>
        <time>2010-08-15T07:22:39Z</time>
      </trkpt>
      <trkpt lat="44.22842" lon="6.93261">
        <ele>1623</ele>
        <time>2010-08-15T07:22:40Z</time>
      </trkpt>
      <trkpt lat="44.22844" lon="6.93262">
        <ele>1624</ele>
        <time>2010-08-15T07:22:41Z</time>
      </trkpt>
      <trkpt lat="44.22846" lon="6.93264">
        <ele>1624</ele>
        <time>2010-08-15T07:22:42Z</time>
      </trkpt>
      <trkpt lat="44.22848" lon="6.93265">
        <ele>1625</ele>
        <time>2010-08-15T07:22:43Z</time>
      </trkpt>
      <trkpt lat="44.22851" lon="6.93267">
        <ele>1625</ele>
        <time>2010-08-15T07:22:44Z</time>
      </trkpt>
      <trkpt lat="44.22853" lon="6.93268">
        <ele>1625</ele>
        <time>2010-08-15T07:22:45Z</time>
      </trkpt>
      <trkpt lat="44.22855" lon="6.9327">
        <ele>1626</ele>
        <time>2010-08-15T07:22:46Z</time>
      </trkpt>
      <trkpt lat="44.22856" lon="6.93272">
        <ele>1626</ele>
        <time>2010-08-15T07:22:47Z</time>
      </trkpt>
      <trkpt lat="44.22858" lon="6.93274">
        <ele>1626</ele>
        <time>2010-08-15T07:22:48Z</time>
      </trkpt>
      <trkpt lat="44.22859" lon="6.93277">
        <ele>1626</ele>
        <time>2010-08-15T07:22:49Z</time>
      </trkpt>
      <trkpt lat="44.22861" lon="6.9328">
        <ele>1627</ele>
        <time>2010-08-15T07:22:50Z</time>
      </trkpt>
      <trkpt lat="44.22862" lon="6.93283">
        <ele>1627</ele>
        <time>2010-08-15T07:22:51Z</time>
      </trkpt>
      <trkpt lat="44.22865" lon="6.93285">
        <ele>1627</ele>
        <time>2010-08-15T07:22:52Z</time>
      </trkpt>
      <trkpt lat="44.22868" lon="6.93285">
        <ele>1627</ele>
        <time>2010-08-15T07:22:53Z</time>
      </trkpt>
      <trkpt lat="44.22871" lon="6.93285">
        <ele>1628</ele>
        <time>2010-08-15T07:22:54Z</time>
      </trkpt>
      <trkpt lat="44.22874" lon="6.93285">
        <ele>1628</ele>
        <time>2010-08-15T07:22:55Z</time>
      </trkpt>
      <trkpt lat="44.22876" lon="6.93285">
        <ele>1628</ele>
        <time>2010-08-15T07:22:56Z</time>
      </trkpt>
      <trkpt lat="44.22878" lon="6.93285">
        <ele>1628</ele>
        <time>2010-08-15T07:22:57Z</time>
      </trkpt>
      <trkpt lat="44.2288" lon="6.93285">
        <ele>1629</ele>
        <time>2010-08-15T07:22:58Z</time>
      </trkpt>
      <trkpt lat="44.22883" lon="6.93285">
        <ele>1629</ele>
        <time>2010-08-15T07:22:59Z</time>
      </trkpt>
      <trkpt lat="44.22885" lon="6.93284">
        <ele>1629</ele>
        <time>2010-08-15T07:23:00Z</time>
      </trkpt>
      <trkpt lat="44.22887" lon="6.93284">
        <ele>1630</ele>
        <time>2010-08-15T07:23:01Z</time>
      </trkpt>
      <trkpt lat="44.22888" lon="6.93285">
        <ele>1630</ele>
        <time>2010-08-15T07:23:02Z</time>
      </trkpt>
      <trkpt lat="44.2289" lon="6.93286">
        <ele>1630</ele>
        <time>2010-08-15T07:23:03Z</time>
      </trkpt>
      <trkpt lat="44.22891" lon="6.93287">
        <ele>1630</ele>
        <time>2010-08-15T07:23:04Z</time>
      </trkpt>
      <trkpt lat="44.22893" lon="6.93289">
        <ele>1630</ele>
        <time>2010-08-15T07:23:05Z</time>
      </trkpt>
      <trkpt lat="44.22895" lon="6.9329">
        <ele>1630</ele>
        <time>2010-08-15T07:23:06Z</time>
      </trkpt>
      <trkpt lat="44.22896" lon="6.93291">
        <ele>1630</ele>
        <time>2010-08-15T07:23:07Z</time>
      </trkpt>
      <trkpt lat="44.22898" lon="6.93292">
        <ele>1630</ele>
        <time>2010-08-15T07:23:08Z</time>
      </trkpt>
      <trkpt lat="44.229" lon="6.93293">
        <ele>1630</ele>
        <time>2010-08-15T07:23:09Z</time>
      </trkpt>
      <trkpt lat="44.22903" lon="6.93294">
        <ele>1630</ele>
        <time>2010-08-15T07:23:10Z</time>
      </trkpt>
      <trkpt lat="44.22905" lon="6.93295">
        <ele>1630</ele>
        <time>2010-08-15T07:23:11Z</time>
      </trkpt>
      <trkpt lat="44.22907" lon="6.93296">
        <ele>1630</ele>
        <time>2010-08-15T07:23:12Z</time>
      </trkpt>
      <trkpt lat="44.22909" lon="6.93297">
        <ele>1630</ele>
        <time>2010-08-15T07:23:13Z</time>
      </trkpt>
      <trkpt lat="44.22911" lon="6.93297">
        <ele>1630</ele>
        <time>2010-08-15T07:23:14Z</time>
      </trkpt>
      <trkpt lat="44.22914" lon="6.93297">
        <ele>1631</ele>
        <time>2010-08-15T07:23:15Z</time>
      </trkpt>
      <trkpt lat="44.22916" lon="6.93297">
        <ele>1631</ele>
        <time>2010-08-15T07:23:16Z</time>
      </trkpt>
      <trkpt lat="44.22918" lon="6.93297">
        <ele>1638</ele>
        <time>2010-08-15T07:23:17Z</time>
      </trkpt>
      <trkpt lat="44.2292" lon="6.93297">
        <ele>1638</ele>
        <time>2010-08-15T07:23:18Z</time>
      </trkpt>
      <trkpt lat="44.22922" lon="6.93297">
        <ele>1638</ele>
        <time>2010-08-15T07:23:19Z</time>
      </trkpt>
      <trkpt lat="44.22924" lon="6.93297">
        <ele>1638</ele>
        <time>2010-08-15T07:23:20Z</time>
      </trkpt>
      <trkpt lat="44.22926" lon="6.93296">
        <ele>1638</ele>
        <time>2010-08-15T07:23:21Z</time>
      </trkpt>
      <trkpt lat="44.22927" lon="6.93295">
        <ele>1638</ele>
        <time>2010-08-15T07:23:22Z</time>
      </trkpt>
      <trkpt lat="44.22929" lon="6.93294">
        <ele>1638</ele>
        <time>2010-08-15T07:23:23Z</time>
      </trkpt>
      <trkpt lat="44.2293" lon="6.93293">
        <ele>1639</ele>
        <time>2010-08-15T07:23:24Z</time>
      </trkpt>
      <trkpt lat="44.22932" lon="6.93292">
        <ele>1639</ele>
        <time>2010-08-15T07:23:25Z</time>
      </trkpt>
      <trkpt lat="44.22933" lon="6.9329">
        <ele>1639</ele>
        <time>2010-08-15T07:23:26Z</time>
      </trkpt>
      <trkpt lat="44.22935" lon="6.93289">
        <ele>1639</ele>
        <time>2010-08-15T07:23:27Z</time>
      </trkpt>
      <trkpt lat="44.22936" lon="6.93288">
        <ele>1639</ele>
        <time>2010-08-15T07:23:28Z</time>
      </trkpt>
      <trkpt lat="44.22938" lon="6.93287">
        <ele>1639</ele>
        <time>2010-08-15T07:23:29Z</time>
      </trkpt>
      <trkpt lat="44.2294" lon="6.93287">
        <ele>1640</ele>
        <time>2010-08-15T07:23:30Z</time>
      </trkpt>
      <trkpt lat="44.22941" lon="6.93287">
        <ele>1640</ele>
        <time>2010-08-15T07:23:31Z</time>
      </trkpt>
      <trkpt lat="44.22943" lon="6.93287">
        <ele>1640</ele>
        <time>2010-08-15T07:23:32Z</time>
      </trkpt>
      <trkpt lat="44.22945" lon="6.93286">
        <ele>1640</ele>
        <time>2010-08-15T07:23:33Z</time>
      </trkpt>
      <trkpt lat="44.22947" lon="6.93286">
        <ele>1640</ele>
        <time>2010-08-15T07:23:34Z</time>
      </trkpt>
      <trkpt lat="44.2295" lon="6.93285">
        <ele>1640</ele>
        <time>2010-08-15T07:23:35Z</time>
      </trkpt>
      <trkpt lat="44.22952" lon="6.93284">
        <ele>1640</ele>
        <time>2010-08-15T07:23:36Z</time>
      </trkpt>
      <trkpt lat="44.22954" lon="6.93284">
        <ele>1640</ele>
        <time>2010-08-15T07:23:37Z</time>
      </trkpt>
      <trkpt lat="44.22957" lon="6.93281">
        <ele>1641</ele>
        <time>2010-08-15T07:23:38Z</time>
      </trkpt>
      <trkpt lat="44.22959" lon="6.93279">
        <ele>1641</ele>
        <time>2010-08-15T07:23:39Z</time>
      </trkpt>
      <trkpt lat="44.22961" lon="6.93279">
        <ele>1641</ele>
        <time>2010-08-15T07:23:40Z</time>
      </trkpt>
      <trkpt lat="44.22963" lon="6.93279">
        <ele>1641</ele>
        <time>2010-08-15T07:23:41Z</time>
      </trkpt>
      <trkpt lat="44.22965" lon="6.93279">
        <ele>1641</ele>
        <time>2010-08-15T07:23:42Z</time>
      </trkpt>
      <trkpt lat="44.22968" lon="6.93279">
        <ele>1641</ele>
        <time>2010-08-15T07:23:43Z</time>
      </trkpt>
      <trkpt lat="44.22969" lon="6.93278">
        <ele>1641</ele>
        <time>2010-08-15T07:23:44Z</time>
      </trkpt>
      <trkpt lat="44.22971" lon="6.93278">
        <ele>1642</ele>
        <time>2010-08-15T07:23:45Z</time>
      </trkpt>
      <trkpt lat="44.22973" lon="6.93277">
        <ele>1642</ele>
        <time>2010-08-15T07:23:46Z</time>
      </trkpt>
      <trkpt lat="44.22974" lon="6.93277">
        <ele>1642</ele>
        <time>2010-08-15T07:23:47Z</time>
      </trkpt>
      <trkpt lat="44.22975" lon="6.93276">
        <ele>1642</ele>
        <time>2010-08-15T07:23:48Z</time>
      </trkpt>
      <trkpt lat="44.22977" lon="6.93275">
        <ele>1642</ele>
        <time>2010-08-15T07:23:49Z</time>
      </trkpt>
      <trkpt lat="44.22979" lon="6.93275">
        <ele>1643</ele>
        <time>2010-08-15T07:23:50Z</time>
      </trkpt>
      <trkpt lat="44.22981" lon="6.93275">
        <ele>1643</ele>
        <time>2010-08-15T07:23:51Z</time>
      </trkpt>
      <trkpt lat="44.22983" lon="6.93273">
        <ele>1643</ele>
        <time>2010-08-15T07:23:52Z</time>
      </trkpt>
      <trkpt lat="44.22985" lon="6.93272">
        <ele>1644</ele>
        <time>2010-08-15T07:23:53Z</time>
      </trkpt>
      <trkpt lat="44.22987" lon="6.93271">
        <ele>1644</ele>
        <time>2010-08-15T07:23:54Z</time>
      </trkpt>
      <trkpt lat="44.22989" lon="6.9327">
        <ele>1645</ele>
        <time>2010-08-15T07:23:55Z</time>
      </trkpt>
      <trkpt lat="44.22991" lon="6.93269">
        <ele>1645</ele>
        <time>2010-08-15T07:23:56Z</time>
      </trkpt>
      <trkpt lat="44.22991" lon="6.93268">
        <ele>1645</ele>
        <time>2010-08-15T07:23:57Z</time>
      </trkpt>
      <trkpt lat="44.22993" lon="6.93267">
        <ele>1646</ele>
        <time>2010-08-15T07:23:58Z</time>
      </trkpt>
      <trkpt lat="44.22995" lon="6.93265">
        <ele>1647</ele>
        <time>2010-08-15T07:23:59Z</time>
      </trkpt>
      <trkpt lat="44.22997" lon="6.93263">
        <ele>1647</ele>
        <time>2010-08-15T07:24:00Z</time>
      </trkpt>
      <trkpt lat="44.22999" lon="6.93262">
        <ele>1648</ele>
        <time>2010-08-15T07:24:01Z</time>
      </trkpt>
      <trkpt lat="44.23001" lon="6.93261">
        <ele>1648</ele>
        <time>2010-08-15T07:24:02Z</time>
      </trkpt>
      <trkpt lat="44.23003" lon="6.9326">
        <ele>1648</ele>
        <time>2010-08-15T07:24:03Z</time>
      </trkpt>
      <trkpt lat="44.23006" lon="6.93259">
        <ele>1648</ele>
        <time>2010-08-15T07:24:04Z</time>
      </trkpt>
      <trkpt lat="44.23008" lon="6.93258">
        <ele>1648</ele>
        <time>2010-08-15T07:24:05Z</time>
      </trkpt>
      <trkpt lat="44.2301" lon="6.93257">
        <ele>1647</ele>
        <time>2010-08-15T07:24:06Z</time>
      </trkpt>
      <trkpt lat="44.23012" lon="6.93256">
        <ele>1647</ele>
        <time>2010-08-15T07:24:07Z</time>
      </trkpt>
      <trkpt lat="44.23013" lon="6.93255">
        <ele>1647</ele>
        <time>2010-08-15T07:24:08Z</time>
      </trkpt>
      <trkpt lat="44.23013" lon="6.93253">
        <ele>1647</ele>
        <time>2010-08-15T07:24:09Z</time>
      </trkpt>
      <trkpt lat="44.23014" lon="6.93252">
        <ele>1647</ele>
        <time>2010-08-15T07:24:10Z</time>
      </trkpt>
      <trkpt lat="44.23015" lon="6.9325">
        <ele>1647</ele>
        <time>2010-08-15T07:24:11Z</time>
      </trkpt>
      <trkpt lat="44.23016" lon="6.93249">
        <ele>1656</ele>
        <time>2010-08-15T07:24:12Z</time>
      </trkpt>
      <trkpt lat="44.23017" lon="6.93247">
        <ele>1656</ele>
        <time>2010-08-15T07:24:13Z</time>
      </trkpt>
      <trkpt lat="44.23017" lon="6.93246">
        <ele>1657</ele>
        <time>2010-08-15T07:24:14Z</time>
      </trkpt>
      <trkpt lat="44.23018" lon="6.93245">
        <ele>1657</ele>
        <time>2010-08-15T07:24:15Z</time>
      </trkpt>
      <trkpt lat="44.23019" lon="6.93244">
        <ele>1657</ele>
        <time>2010-08-15T07:24:16Z</time>
      </trkpt>
      <trkpt lat="44.2302" lon="6.93243">
        <ele>1657</ele>
        <time>2010-08-15T07:24:17Z</time>
      </trkpt>
      <trkpt lat="44.23021" lon="6.93242">
        <ele>1657</ele>
        <time>2010-08-15T07:24:18Z</time>
      </trkpt>
      <trkpt lat="44.23022" lon="6.93241">
        <ele>1657</ele>
        <time>2010-08-15T07:24:19Z</time>
      </trkpt>
      <trkpt lat="44.23023" lon="6.9324">
        <ele>1657</ele>
        <time>2010-08-15T07:24:20Z</time>
      </trkpt>
      <trkpt lat="44.23024" lon="6.93239">
        <ele>1658</ele>
        <time>2010-08-15T07:24:21Z</time>
      </trkpt>
      <trkpt lat="44.23025" lon="6.93238">
        <ele>1658</ele>
        <time>2010-08-15T07:24:22Z</time>
      </trkpt>
      <trkpt lat="44.23026" lon="6.93237">
        <ele>1658</ele>
        <time>2010-08-15T07:24:23Z</time>
      </trkpt>
      <trkpt lat="44.23026" lon="6.93236">
        <ele>1658</ele>
        <time>2010-08-15T07:24:24Z</time>
      </trkpt>
      <trkpt lat="44.23027" lon="6.93235">
        <ele>1658</ele>
        <time>2010-08-15T07:24:25Z</time>
      </trkpt>
      <trkpt lat="44.23028" lon="6.93233">
        <ele>1658</ele>
        <time>2010-08-15T07:24:26Z</time>
      </trkpt>
      <trkpt lat="44.23028" lon="6.93232">
        <ele>1658</ele>
        <time>2010-08-15T07:24:27Z</time>
      </trkpt>
      <trkpt lat="44.23029" lon="6.93231">
        <ele>1659</ele>
        <time>2010-08-15T07:24:28Z</time>
      </trkpt>
      <trkpt lat="44.23029" lon="6.93229">
        <ele>1659</ele>
        <time>2010-08-15T07:24:29Z</time>
      </trkpt>
      <trkpt lat="44.2303" lon="6.93228">
        <ele>1659</ele>
        <time>2010-08-15T07:24:30Z</time>
      </trkpt>
      <trkpt lat="44.23031" lon="6.93227">
        <ele>1659</ele>
        <time>2010-08-15T07:24:31Z</time>
      </trkpt>
      <trkpt lat="44.23032" lon="6.93226">
        <ele>1659</ele>
        <time>2010-08-15T07:24:32Z</time>
      </trkpt>
      <trkpt lat="44.23032" lon="6.93225">
        <ele>1659</ele>
        <time>2010-08-15T07:24:33Z</time>
      </trkpt>
      <trkpt lat="44.23033" lon="6.93224">
        <ele>1659</ele>
        <time>2010-08-15T07:24:34Z</time>
      </trkpt>
      <trkpt lat="44.23034" lon="6.93222">
        <ele>1660</ele>
        <time>2010-08-15T07:24:35Z</time>
      </trkpt>
      <trkpt lat="44.23034" lon="6.93221">
        <ele>1660</ele>
        <time>2010-08-15T07:24:36Z</time>
      </trkpt>
      <trkpt lat="44.23035" lon="6.9322">
        <ele>1660</ele>
        <time>2010-08-15T07:24:37Z</time>
      </trkpt>
      <trkpt lat="44.23035" lon="6.93219">
        <ele>1660</ele>
        <time>2010-08-15T07:24:38Z</time>
      </trkpt>
      <trkpt lat="44.23036" lon="6.93218">
        <ele>1660</ele>
        <time>2010-08-15T07:24:39Z</time>
      </trkpt>
      <trkpt lat="44.23037" lon="6.93217">
        <ele>1660</ele>
        <time>2010-08-15T07:24:40Z</time>
      </trkpt>
      <trkpt lat="44.23037" lon="6.93215">
        <ele>1660</ele>
        <time>2010-08-15T07:24:41Z</time>
      </trkpt>
      <trkpt lat="44.23037" lon="6.93214">
        <ele>1660</ele>
        <time>2010-08-15T07:24:42Z</time>
      </trkpt>
      <trkpt lat="44.23038" lon="6.93213">
        <ele>1661</ele>
        <time>2010-08-15T07:24:43Z</time>
      </trkpt>
      <trkpt lat="44.23038" lon="6.93211">
        <ele>1661</ele>
        <time>2010-08-15T07:24:44Z</time>
      </trkpt>
      <trkpt lat="44.23038" lon="6.9321">
        <ele>1661</ele>
        <time>2010-08-15T07:24:45Z</time>
      </trkpt>
      <trkpt lat="44.23038" lon="6.93208">
        <ele>1661</ele>
        <time>2010-08-15T07:24:46Z</time>
      </trkpt>
      <trkpt lat="44.23038" lon="6.93206">
        <ele>1661</ele>
        <time>2010-08-15T07:24:47Z</time>
      </trkpt>
      <trkpt lat="44.23038" lon="6.93205">
        <ele>1662</ele>
        <time>2010-08-15T07:24:48Z</time>
      </trkpt>
      <trkpt lat="44.23038" lon="6.93203">
        <ele>1662</ele>
        <time>2010-08-15T07:24:49Z</time>
      </trkpt>
      <trkpt lat="44.23038" lon="6.93201">
        <ele>1662</ele>
        <time>2010-08-15T07:24:50Z</time>
      </trkpt>
      <trkpt lat="44.23039" lon="6.93199">
        <ele>1662</ele>
        <time>2010-08-15T07:24:51Z</time>
      </trkpt>
      <trkpt lat="44.23039" lon="6.93198">
        <ele>1662</ele>
        <time>2010-08-15T07:24:52Z</time>
      </trkpt>
      <trkpt lat="44.23039" lon="6.93196">
        <ele>1663</ele>
        <time>2010-08-15T07:24:53Z</time>
      </trkpt>
      <trkpt lat="44.2304" lon="6.93194">
        <ele>1663</ele>
        <time>2010-08-15T07:24:54Z</time>
      </trkpt>
      <trkpt lat="44.23041" lon="6.93193">
        <ele>1663</ele>
        <time>2010-08-15T07:24:55Z</time>
      </trkpt>
      <trkpt lat="44.23042" lon="6.93191">
        <ele>1663</ele>
        <time>2010-08-15T07:24:56Z</time>
      </trkpt>
      <trkpt lat="44.23042" lon="6.93188">
        <ele>1664</ele>
        <time>2010-08-15T07:24:57Z</time>
      </trkpt>
      <trkpt lat="44.23043" lon="6.93185">
        <ele>1664</ele>
        <time>2010-08-15T07:24:58Z</time>
      </trkpt>
      <trkpt lat="44.23043" lon="6.93182">
        <ele>1664</ele>
        <time>2010-08-15T07:24:59Z</time>
      </trkpt>
      <trkpt lat="44.23043" lon="6.93179">
        <ele>1665</ele>
        <time>2010-08-15T07:25:00Z</time>
      </trkpt>
      <trkpt lat="44.23044" lon="6.93175">
        <ele>1665</ele>
        <time>2010-08-15T07:25:01Z</time>
      </trkpt>
      <trkpt lat="44.23044" lon="6.93172">
        <ele>1665</ele>
        <time>2010-08-15T07:25:02Z</time>
      </trkpt>
      <trkpt lat="44.23044" lon="6.93169">
        <ele>1665</ele>
        <time>2010-08-15T07:25:03Z</time>
      </trkpt>
      <trkpt lat="44.23044" lon="6.93165">
        <ele>1672</ele>
        <time>2010-08-15T07:25:04Z</time>
      </trkpt>
      <trkpt lat="44.23045" lon="6.93161">
        <ele>1672</ele>
        <time>2010-08-15T07:25:05Z</time>
      </trkpt>
      <trkpt lat="44.23045" lon="6.93158">
        <ele>1672</ele>
        <time>2010-08-15T07:25:06Z</time>
      </trkpt>
      <trkpt lat="44.23046" lon="6.93156">
        <ele>1672</ele>
        <time>2010-08-15T07:25:07Z</time>
      </trkpt>
      <trkpt lat="44.23046" lon="6.93154">
        <ele>1672</ele>
        <time>2010-08-15T07:25:08Z</time>
      </trkpt>
      <trkpt lat="44.23047" lon="6.93151">
        <ele>1672</ele>
        <time>2010-08-15T07:25:09Z</time>
      </trkpt>
      <trkpt lat="44.23047" lon="6.93149">
        <ele>1672</ele>
        <time>2010-08-15T07:25:10Z</time>
      </trkpt>
      <trkpt lat="44.23047" lon="6.93147">
        <ele>1672</ele>
        <time>2010-08-15T07:25:11Z</time>
      </trkpt>
      <trkpt lat="44.23047" lon="6.93144">
        <ele>1672</ele>
        <time>2010-08-15T07:25:12Z</time>
      </trkpt>
      <trkpt lat="44.23047" lon="6.93141">
        <ele>1672</ele>
        <time>2010-08-15T07:25:13Z</time>
      </trkpt>
      <trkpt lat="44.23046" lon="6.93138">
        <ele>1672</ele>
        <time>2010-08-15T07:25:14Z</time>
      </trkpt>
      <trkpt lat="44.23046" lon="6.93134">
        <ele>1672</ele>
        <time>2010-08-15T07:25:15Z</time>
      </trkpt>
      <trkpt lat="44.23045" lon="6.93131">
        <ele>1672</ele>
        <time>2010-08-15T07:25:16Z</time>
      </trkpt>
      <trkpt lat="44.23045" lon="6.93128">
        <ele>1672</ele>
        <time>2010-08-15T07:25:17Z</time>
      </trkpt>
      <trkpt lat="44.23045" lon="6.93125">
        <ele>1672</ele>
        <time>2010-08-15T07:25:18Z</time>
      </trkpt>
      <trkpt lat="44.23045" lon="6.93123">
        <ele>1672</ele>
        <time>2010-08-15T07:25:19Z</time>
      </trkpt>
      <trkpt lat="44.23044" lon="6.93121">
        <ele>1672</ele>
        <time>2010-08-15T07:25:20Z</time>
      </trkpt>
      <trkpt lat="44.23045" lon="6.93118">
        <ele>1672</ele>
        <time>2010-08-15T07:25:21Z</time>
      </trkpt>
      <trkpt lat="44.23044" lon="6.93115">
        <ele>1672</ele>
        <time>2010-08-15T07:25:22Z</time>
      </trkpt>
      <trkpt lat="44.23045" lon="6.93112">
        <ele>1673</ele>
        <time>2010-08-15T07:25:23Z</time>
      </trkpt>
      <trkpt lat="44.23045" lon="6.93109">
        <ele>1673</ele>
        <time>2010-08-15T07:25:24Z</time>
      </trkpt>
      <trkpt lat="44.23045" lon="6.93106">
        <ele>1673</ele>
        <time>2010-08-15T07:25:25Z</time>
      </trkpt>
      <trkpt lat="44.23045" lon="6.93103">
        <ele>1673</ele>
        <time>2010-08-15T07:25:26Z</time>
      </trkpt>
      <trkpt lat="44.23046" lon="6.931">
        <ele>1673</ele>
        <time>2010-08-15T07:25:27Z</time>
      </trkpt>
      <trkpt lat="44.23046" lon="6.93097">
        <ele>1673</ele>
        <time>2010-08-15T07:25:28Z</time>
      </trkpt>
      <trkpt lat="44.23047" lon="6.93095">
        <ele>1673</ele>
        <time>2010-08-15T07:25:29Z</time>
      </trkpt>
      <trkpt lat="44.23047" lon="6.93092">
        <ele>1673</ele>
        <time>2010-08-15T07:25:30Z</time>
      </trkpt>
      <trkpt lat="44.23048" lon="6.9309">
        <ele>1674</ele>
        <time>2010-08-15T07:25:31Z</time>
      </trkpt>
      <trkpt lat="44.23049" lon="6.93087">
        <ele>1674</ele>
        <time>2010-08-15T07:25:32Z</time>
      </trkpt>
      <trkpt lat="44.23049" lon="6.93085">
        <ele>1674</ele>
        <time>2010-08-15T07:25:33Z</time>
      </trkpt>
      <trkpt lat="44.23049" lon="6.93082">
        <ele>1673</ele>
        <time>2010-08-15T07:25:34Z</time>
      </trkpt>
      <trkpt lat="44.23049" lon="6.93079">
        <ele>1673</ele>
        <time>2010-08-15T07:25:35Z</time>
      </trkpt>
      <trkpt lat="44.23049" lon="6.93076">
        <ele>1672</ele>
        <time>2010-08-15T07:25:36Z</time>
      </trkpt>
      <trkpt lat="44.23049" lon="6.93074">
        <ele>1672</ele>
        <time>2010-08-15T07:25:37Z</time>
      </trkpt>
      <trkpt lat="44.23049" lon="6.93071">
        <ele>1672</ele>
        <time>2010-08-15T07:25:38Z</time>
      </trkpt>
      <trkpt lat="44.23049" lon="6.93068">
        <ele>1672</ele>
        <time>2010-08-15T07:25:39Z</time>
      </trkpt>
      <trkpt lat="44.23049" lon="6.93066">
        <ele>1672</ele>
        <time>2010-08-15T07:25:40Z</time>
      </trkpt>
      <trkpt lat="44.23049" lon="6.93063">
        <ele>1672</ele>
        <time>2010-08-15T07:25:41Z</time>
      </trkpt>
      <trkpt lat="44.2305" lon="6.9306">
        <ele>1672</ele>
        <time>2010-08-15T07:25:42Z</time>
      </trkpt>
      <trkpt lat="44.2305" lon="6.93057">
        <ele>1672</ele>
        <time>2010-08-15T07:25:43Z</time>
      </trkpt>
      <trkpt lat="44.2305" lon="6.93053">
        <ele>1672</ele>
        <time>2010-08-15T07:25:44Z</time>
      </trkpt>
      <trkpt lat="44.2305" lon="6.9305">
        <ele>1671</ele>
        <time>2010-08-15T07:25:45Z</time>
      </trkpt>
      <trkpt lat="44.2305" lon="6.93046">
        <ele>1671</ele>
        <time>2010-08-15T07:25:46Z</time>
      </trkpt>
      <trkpt lat="44.2305" lon="6.93043">
        <ele>1671</ele>
        <time>2010-08-15T07:25:47Z</time>
      </trkpt>
      <trkpt lat="44.2305" lon="6.9304">
        <ele>1671</ele>
        <time>2010-08-15T07:25:48Z</time>
      </trkpt>
      <trkpt lat="44.2305" lon="6.93036">
        <ele>1671</ele>
        <time>2010-08-15T07:25:49Z</time>
      </trkpt>
      <trkpt lat="44.23051" lon="6.93034">
        <ele>1671</ele>
        <time>2010-08-15T07:25:50Z</time>
      </trkpt>
      <trkpt lat="44.23051" lon="6.93032">
        <ele>1671</ele>
        <time>2010-08-15T07:25:51Z</time>
      </trkpt>
      <trkpt lat="44.23052" lon="6.9303">
        <ele>1671</ele>
        <time>2010-08-15T07:25:52Z</time>
      </trkpt>
      <trkpt lat="44.23053" lon="6.93028">
        <ele>1671</ele>
        <time>2010-08-15T07:25:53Z</time>
      </trkpt>
      <trkpt lat="44.23054" lon="6.93026">
        <ele>1672</ele>
        <time>2010-08-15T07:25:54Z</time>
      </trkpt>
      <trkpt lat="44.23055" lon="6.93023">
        <ele>1672</ele>
        <time>2010-08-15T07:25:55Z</time>
      </trkpt>
      <trkpt lat="44.23055" lon="6.9302">
        <ele>1672</ele>
        <time>2010-08-15T07:25:56Z</time>
      </trkpt>
      <trkpt lat="44.23057" lon="6.93018">
        <ele>1672</ele>
        <time>2010-08-15T07:25:57Z</time>
      </trkpt>
      <trkpt lat="44.23059" lon="6.93017">
        <ele>1673</ele>
        <time>2010-08-15T07:25:58Z</time>
      </trkpt>
      <trkpt lat="44.23061" lon="6.93018">
        <ele>1673</ele>
        <time>2010-08-15T07:25:59Z</time>
      </trkpt>
      <trkpt lat="44.23062" lon="6.9302">
        <ele>1673</ele>
        <time>2010-08-15T07:26:00Z</time>
      </trkpt>
      <trkpt lat="44.23063" lon="6.93022">
        <ele>1673</ele>
        <time>2010-08-15T07:26:01Z</time>
      </trkpt>
      <trkpt lat="44.23063" lon="6.93026">
        <ele>1673</ele>
        <time>2010-08-15T07:26:02Z</time>
      </trkpt>
      <trkpt lat="44.23062" lon="6.9303">
        <ele>1673</ele>
        <time>2010-08-15T07:26:03Z</time>
      </trkpt>
      <trkpt lat="44.23062" lon="6.93034">
        <ele>1673</ele>
        <time>2010-08-15T07:26:04Z</time>
      </trkpt>
      <trkpt lat="44.23061" lon="6.93039">
        <ele>1673</ele>
        <time>2010-08-15T07:26:05Z</time>
      </trkpt>
      <trkpt lat="44.2306" lon="6.93043">
        <ele>1673</ele>
        <time>2010-08-15T07:26:06Z</time>
      </trkpt>
      <trkpt lat="44.23059" lon="6.93047">
        <ele>1673</ele>
        <time>2010-08-15T07:26:07Z</time>
      </trkpt>
      <trkpt lat="44.23058" lon="6.93051">
        <ele>1673</ele>
        <time>2010-08-15T07:26:08Z</time>
      </trkpt>
      <trkpt lat="44.23059" lon="6.93055">
        <ele>1673</ele>
        <time>2010-08-15T07:26:09Z</time>
      </trkpt>
      <trkpt lat="44.2306" lon="6.93058">
        <ele>1674</ele>
        <time>2010-08-15T07:26:10Z</time>
      </trkpt>
      <trkpt lat="44.23061" lon="6.93062">
        <ele>1674</ele>
        <time>2010-08-15T07:26:11Z</time>
      </trkpt>
      <trkpt lat="44.23061" lon="6.93065">
        <ele>1675</ele>
        <time>2010-08-15T07:26:12Z</time>
      </trkpt>
      <trkpt lat="44.23062" lon="6.93069">
        <ele>1675</ele>
        <time>2010-08-15T07:26:13Z</time>
      </trkpt>
      <trkpt lat="44.23063" lon="6.93072">
        <ele>1676</ele>
        <time>2010-08-15T07:26:14Z</time>
      </trkpt>
      <trkpt lat="44.23065" lon="6.93075">
        <ele>1677</ele>
        <time>2010-08-15T07:26:15Z</time>
      </trkpt>
      <trkpt lat="44.23067" lon="6.93079">
        <ele>1678</ele>
        <time>2010-08-15T07:26:16Z</time>
      </trkpt>
      <trkpt lat="44.23067" lon="6.93082">
        <ele>1678</ele>
        <time>2010-08-15T07:26:17Z</time>
      </trkpt>
      <trkpt lat="44.23068" lon="6.93085">
        <ele>1679</ele>
        <time>2010-08-15T07:26:18Z</time>
      </trkpt>
      <trkpt lat="44.23068" lon="6.93089">
        <ele>1679</ele>
        <time>2010-08-15T07:26:19Z</time>
      </trkpt>
      <trkpt lat="44.23069" lon="6.93092">
        <ele>1679</ele>
        <time>2010-08-15T07:26:20Z</time>
      </trkpt>
      <trkpt lat="44.2307" lon="6.93095">
        <ele>1678</ele>
        <time>2010-08-15T07:26:21Z</time>
      </trkpt>
      <trkpt lat="44.2307" lon="6.93099">
        <ele>1678</ele>
        <time>2010-08-15T07:26:22Z</time>
      </trkpt>
      <trkpt lat="44.23071" lon="6.93102">
        <ele>1677</ele>
        <time>2010-08-15T07:26:23Z</time>
      </trkpt>
      <trkpt lat="44.23072" lon="6.93105">
        <ele>1677</ele>
        <time>2010-08-15T07:26:24Z</time>
      </trkpt>
      <trkpt lat="44.23072" lon="6.93108">
        <ele>1677</ele>
        <time>2010-08-15T07:26:25Z</time>
      </trkpt>
      <trkpt lat="44.23073" lon="6.93112">
        <ele>1676</ele>
        <time>2010-08-15T07:26:26Z</time>
      </trkpt>
      <trkpt lat="44.23073" lon="6.93115">
        <ele>1676</ele>
        <time>2010-08-15T07:26:27Z</time>
      </trkpt>
      <trkpt lat="44.23074" lon="6.93119">
        <ele>1676</ele>
        <time>2010-08-15T07:26:28Z</time>
      </trkpt>
      <trkpt lat="44.23075" lon="6.93122">
        <ele>1675</ele>
        <time>2010-08-15T07:26:29Z</time>
      </trkpt>
      <trkpt lat="44.23076" lon="6.93126">
        <ele>1675</ele>
        <time>2010-08-15T07:26:30Z</time>
      </trkpt>
      <trkpt lat="44.23078" lon="6.93128">
        <ele>1675</ele>
        <time>2010-08-15T07:26:31Z</time>
      </trkpt>
      <trkpt lat="44.2308" lon="6.93131">
        <ele>1675</ele>
        <time>2010-08-15T07:26:32Z</time>
      </trkpt>
      <trkpt lat="44.23082" lon="6.93133">
        <ele>1675</ele>
        <time>2010-08-15T07:26:33Z</time>
      </trkpt>
      <trkpt lat="44.23084" lon="6.93134">
        <ele>1684</ele>
        <time>2010-08-15T07:26:34Z</time>
      </trkpt>
      <trkpt lat="44.23086" lon="6.93135">
        <ele>1684</ele>
        <time>2010-08-15T07:26:35Z</time>
      </trkpt>
      <trkpt lat="44.23088" lon="6.93135">
        <ele>1684</ele>
        <time>2010-08-15T07:26:36Z</time>
      </trkpt>
      <trkpt lat="44.2309" lon="6.93135">
        <ele>1684</ele>
        <time>2010-08-15T07:26:37Z</time>
      </trkpt>
      <trkpt lat="44.23092" lon="6.93135">
        <ele>1684</ele>
        <time>2010-08-15T07:26:38Z</time>
      </trkpt>
      <trkpt lat="44.23095" lon="6.93135">
        <ele>1685</ele>
        <time>2010-08-15T07:26:39Z</time>
      </trkpt>
      <trkpt lat="44.23097" lon="6.93135">
        <ele>1685</ele>
        <time>2010-08-15T07:26:40Z</time>
      </trkpt>
      <trkpt lat="44.23099" lon="6.93135">
        <ele>1685</ele>
        <time>2010-08-15T07:26:41Z</time>
      </trkpt>
      <trkpt lat="44.23101" lon="6.93134">
        <ele>1685</ele>
        <time>2010-08-15T07:26:42Z</time>
      </trkpt>
      <trkpt lat="44.23103" lon="6.93134">
        <ele>1685</ele>
        <time>2010-08-15T07:26:43Z</time>
      </trkpt>
      <trkpt lat="44.23106" lon="6.93133">
        <ele>1685</ele>
        <time>2010-08-15T07:26:44Z</time>
      </trkpt>
      <trkpt lat="44.23108" lon="6.93133">
        <ele>1686</ele>
        <time>2010-08-15T07:26:45Z</time>
      </trkpt>
      <trkpt lat="44.23111" lon="6.93133">
        <ele>1686</ele>
        <time>2010-08-15T07:26:46Z</time>
      </trkpt>
      <trkpt lat="44.23114" lon="6.93133">
        <ele>1686</ele>
        <time>2010-08-15T07:26:47Z</time>
      </trkpt>
      <trkpt lat="44.23116" lon="6.93134">
        <ele>1686</ele>
        <time>2010-08-15T07:26:48Z</time>
      </trkpt>
      <trkpt lat="44.23118" lon="6.93135">
        <ele>1686</ele>
        <time>2010-08-15T07:26:49Z</time>
      </trkpt>
      <trkpt lat="44.23121" lon="6.93136">
        <ele>1686</ele>
        <time>2010-08-15T07:26:50Z</time>
      </trkpt>
      <trkpt lat="44.23124" lon="6.93138">
        <ele>1686</ele>
        <time>2010-08-15T07:26:51Z</time>
      </trkpt>
      <trkpt lat="44.23126" lon="6.9314">
        <ele>1686</ele>
        <time>2010-08-15T07:26:52Z</time>
      </trkpt>
      <trkpt lat="44.23128" lon="6.93142">
        <ele>1686</ele>
        <time>2010-08-15T07:26:53Z</time>
      </trkpt>
      <trkpt lat="44.23131" lon="6.93145">
        <ele>1686</ele>
        <time>2010-08-15T07:26:54Z</time>
      </trkpt>
      <trkpt lat="44.23133" lon="6.93148">
        <ele>1686</ele>
        <time>2010-08-15T07:26:55Z</time>
      </trkpt>
      <trkpt lat="44.23134" lon="6.93151">
        <ele>1685</ele>
        <time>2010-08-15T07:26:56Z</time>
      </trkpt>
      <trkpt lat="44.23136" lon="6.93153">
        <ele>1685</ele>
        <time>2010-08-15T07:26:57Z</time>
      </trkpt>
      <trkpt lat="44.23139" lon="6.93156">
        <ele>1685</ele>
        <time>2010-08-15T07:26:58Z</time>
      </trkpt>
      <trkpt lat="44.23141" lon="6.93158">
        <ele>1685</ele>
        <time>2010-08-15T07:26:59Z</time>
      </trkpt>
      <trkpt lat="44.23143" lon="6.93159">
        <ele>1685</ele>
        <time>2010-08-15T07:27:00Z</time>
      </trkpt>
      <trkpt lat="44.23145" lon="6.9316">
        <ele>1685</ele>
        <time>2010-08-15T07:27:01Z</time>
      </trkpt>
      <trkpt lat="44.23147" lon="6.93161">
        <ele>1684</ele>
        <time>2010-08-15T07:27:02Z</time>
      </trkpt>
      <trkpt lat="44.2315" lon="6.9316">
        <ele>1684</ele>
        <time>2010-08-15T07:27:03Z</time>
      </trkpt>
      <trkpt lat="44.23152" lon="6.9316">
        <ele>1684</ele>
        <time>2010-08-15T07:27:04Z</time>
      </trkpt>
      <trkpt lat="44.23155" lon="6.9316">
        <ele>1684</ele>
        <time>2010-08-15T07:27:05Z</time>
      </trkpt>
      <trkpt lat="44.23158" lon="6.93158">
        <ele>1684</ele>
        <time>2010-08-15T07:27:06Z</time>
      </trkpt>
      <trkpt lat="44.2316" lon="6.93156">
        <ele>1684</ele>
        <time>2010-08-15T07:27:07Z</time>
      </trkpt>
      <trkpt lat="44.23162" lon="6.93154">
        <ele>1684</ele>
        <time>2010-08-15T07:27:08Z</time>
      </trkpt>
      <trkpt lat="44.23164" lon="6.93151">
        <ele>1685</ele>
        <time>2010-08-15T07:27:09Z</time>
      </trkpt>
      <trkpt lat="44.23166" lon="6.93148">
        <ele>1685</ele>
        <time>2010-08-15T07:27:10Z</time>
      </trkpt>
      <trkpt lat="44.23167" lon="6.93145">
        <ele>1682</ele>
        <time>2010-08-15T07:27:11Z</time>
      </trkpt>
      <trkpt lat="44.23169" lon="6.93142">
        <ele>1683</ele>
        <time>2010-08-15T07:27:12Z</time>
      </trkpt>
      <trkpt lat="44.23171" lon="6.93139">
        <ele>1683</ele>
        <time>2010-08-15T07:27:13Z</time>
      </trkpt>
      <trkpt lat="44.23172" lon="6.93136">
        <ele>1683</ele>
        <time>2010-08-15T07:27:14Z</time>
      </trkpt>
      <trkpt lat="44.23173" lon="6.93132">
        <ele>1684</ele>
        <time>2010-08-15T07:27:15Z</time>
      </trkpt>
      <trkpt lat="44.23175" lon="6.93128">
        <ele>1685</ele>
        <time>2010-08-15T07:27:16Z</time>
      </trkpt>
      <trkpt lat="44.23177" lon="6.93124">
        <ele>1685</ele>
        <time>2010-08-15T07:27:17Z</time>
      </trkpt>
      <trkpt lat="44.23178" lon="6.9312">
        <ele>1686</ele>
        <time>2010-08-15T07:27:18Z</time>
      </trkpt>
      <trkpt lat="44.23179" lon="6.93117">
        <ele>1687</ele>
        <time>2010-08-15T07:27:19Z</time>
      </trkpt>
      <trkpt lat="44.23181" lon="6.93115">
        <ele>1687</ele>
        <time>2010-08-15T07:27:20Z</time>
      </trkpt>
      <trkpt lat="44.23182" lon="6.93112">
        <ele>1688</ele>
        <time>2010-08-15T07:27:21Z</time>
      </trkpt>
      <trkpt lat="44.23184" lon="6.9311">
        <ele>1688</ele>
        <time>2010-08-15T07:27:22Z</time>
      </trkpt>
      <trkpt lat="44.23186" lon="6.93107">
        <ele>1689</ele>
        <time>2010-08-15T07:27:23Z</time>
      </trkpt>
      <trkpt lat="44.23188" lon="6.93104">
        <ele>1689</ele>
        <time>2010-08-15T07:27:24Z</time>
      </trkpt>
      <trkpt lat="44.2319" lon="6.93102">
        <ele>1689</ele>
        <time>2010-08-15T07:27:25Z</time>
      </trkpt>
      <trkpt lat="44.23193" lon="6.93101">
        <ele>1689</ele>
        <time>2010-08-15T07:27:26Z</time>
      </trkpt>
      <trkpt lat="44.23195" lon="6.931">
        <ele>1688</ele>
        <time>2010-08-15T07:27:27Z</time>
      </trkpt>
      <trkpt lat="44.23197" lon="6.93099">
        <ele>1688</ele>
        <time>2010-08-15T07:27:28Z</time>
      </trkpt>
      <trkpt lat="44.232" lon="6.93097">
        <ele>1688</ele>
        <time>2010-08-15T07:27:29Z</time>
      </trkpt>
      <trkpt lat="44.23202" lon="6.93095">
        <ele>1688</ele>
        <time>2010-08-15T07:27:30Z</time>
      </trkpt>
      <trkpt lat="44.23204" lon="6.93092">
        <ele>1688</ele>
        <time>2010-08-15T07:27:31Z</time>
      </trkpt>
      <trkpt lat="44.23206" lon="6.9309">
        <ele>1688</ele>
        <time>2010-08-15T07:27:32Z</time>
      </trkpt>
      <trkpt lat="44.23208" lon="6.93087">
        <ele>1688</ele>
        <time>2010-08-15T07:27:33Z</time>
      </trkpt>
      <trkpt lat="44.23211" lon="6.93084">
        <ele>1687</ele>
        <time>2010-08-15T07:27:34Z</time>
      </trkpt>
      <trkpt lat="44.23213" lon="6.93082">
        <ele>1705</ele>
        <time>2010-08-15T07:27:35Z</time>
      </trkpt>
      <trkpt lat="44.23215" lon="6.9308">
        <ele>1704</ele>
        <time>2010-08-15T07:27:36Z</time>
      </trkpt>
      <trkpt lat="44.23217" lon="6.93078">
        <ele>1704</ele>
        <time>2010-08-15T07:27:37Z</time>
      </trkpt>
      <trkpt lat="44.23219" lon="6.93078">
        <ele>1704</ele>
        <time>2010-08-15T07:27:38Z</time>
      </trkpt>
      <trkpt lat="44.23222" lon="6.93079">
        <ele>1703</ele>
        <time>2010-08-15T07:27:39Z</time>
      </trkpt>
      <trkpt lat="44.23224" lon="6.93078">
        <ele>1703</ele>
        <time>2010-08-15T07:27:40Z</time>
      </trkpt>
      <trkpt lat="44.23226" lon="6.93077">
        <ele>1702</ele>
        <time>2010-08-15T07:27:41Z</time>
      </trkpt>
      <trkpt lat="44.23229" lon="6.93077">
        <ele>1702</ele>
        <time>2010-08-15T07:27:42Z</time>
      </trkpt>
      <trkpt lat="44.23232" lon="6.93076">
        <ele>1701</ele>
        <time>2010-08-15T07:27:43Z</time>
      </trkpt>
      <trkpt lat="44.23234" lon="6.93074">
        <ele>1701</ele>
        <time>2010-08-15T07:27:44Z</time>
      </trkpt>
      <trkpt lat="44.23236" lon="6.93071">
        <ele>1701</ele>
        <time>2010-08-15T07:27:45Z</time>
      </trkpt>
      <trkpt lat="44.23238" lon="6.93068">
        <ele>1701</ele>
        <time>2010-08-15T07:27:46Z</time>
      </trkpt>
      <trkpt lat="44.2324" lon="6.93065">
        <ele>1702</ele>
        <time>2010-08-15T07:27:47Z</time>
      </trkpt>
      <trkpt lat="44.23242" lon="6.93062">
        <ele>1703</ele>
        <time>2010-08-15T07:27:48Z</time>
      </trkpt>
      <trkpt lat="44.23244" lon="6.93061">
        <ele>1703</ele>
        <time>2010-08-15T07:27:49Z</time>
      </trkpt>
      <trkpt lat="44.23247" lon="6.93058">
        <ele>1704</ele>
        <time>2010-08-15T07:27:50Z</time>
      </trkpt>
      <trkpt lat="44.23249" lon="6.93055">
        <ele>1705</ele>
        <time>2010-08-15T07:27:51Z</time>
      </trkpt>
      <trkpt lat="44.2325" lon="6.93053">
        <ele>1692</ele>
        <time>2010-08-15T07:27:52Z</time>
      </trkpt>
      <trkpt lat="44.23252" lon="6.9305">
        <ele>1692</ele>
        <time>2010-08-15T07:27:53Z</time>
      </trkpt>
      <trkpt lat="44.23254" lon="6.93047">
        <ele>1693</ele>
        <time>2010-08-15T07:27:54Z</time>
      </trkpt>
      <trkpt lat="44.23256" lon="6.93044">
        <ele>1693</ele>
        <time>2010-08-15T07:27:55Z</time>
      </trkpt>
      <trkpt lat="44.23258" lon="6.93041">
        <ele>1694</ele>
        <time>2010-08-15T07:27:56Z</time>
      </trkpt>
      <trkpt lat="44.2326" lon="6.93039">
        <ele>1694</ele>
        <time>2010-08-15T07:27:57Z</time>
      </trkpt>
      <trkpt lat="44.23262" lon="6.93035">
        <ele>1695</ele>
        <time>2010-08-15T07:27:58Z</time>
      </trkpt>
      <trkpt lat="44.23263" lon="6.93031">
        <ele>1696</ele>
        <time>2010-08-15T07:27:59Z</time>
      </trkpt>
      <trkpt lat="44.23265" lon="6.93028">
        <ele>1698</ele>
        <time>2010-08-15T07:28:00Z</time>
      </trkpt>
      <trkpt lat="44.23267" lon="6.93025">
        <ele>1698</ele>
        <time>2010-08-15T07:28:01Z</time>
      </trkpt>
      <trkpt lat="44.23268" lon="6.93022">
        <ele>1699</ele>
        <time>2010-08-15T07:28:02Z</time>
      </trkpt>
      <trkpt lat="44.2327" lon="6.93019">
        <ele>1700</ele>
        <time>2010-08-15T07:28:03Z</time>
      </trkpt>
      <trkpt lat="44.23271" lon="6.93016">
        <ele>1700</ele>
        <time>2010-08-15T07:28:04Z</time>
      </trkpt>
      <trkpt lat="44.23273" lon="6.93014">
        <ele>1700</ele>
        <time>2010-08-15T07:28:05Z</time>
      </trkpt>
      <trkpt lat="44.23276" lon="6.93012">
        <ele>1699</ele>
        <time>2010-08-15T07:28:06Z</time>
      </trkpt>
      <trkpt lat="44.23278" lon="6.9301">
        <ele>1699</ele>
        <time>2010-08-15T07:28:07Z</time>
      </trkpt>
      <trkpt lat="44.2328" lon="6.93008">
        <ele>1698</ele>
        <time>2010-08-15T07:28:08Z</time>
      </trkpt>
      <trkpt lat="44.23282" lon="6.93006">
        <ele>1697</ele>
        <time>2010-08-15T07:28:09Z</time>
      </trkpt>
      <trkpt lat="44.23283" lon="6.93004">
        <ele>1697</ele>
        <time>2010-08-15T07:28:10Z</time>
      </trkpt>
      <trkpt lat="44.23286" lon="6.93003">
        <ele>1696</ele>
        <time>2010-08-15T07:28:11Z</time>
      </trkpt>
      <trkpt lat="44.23288" lon="6.93001">
        <ele>1695</ele>
        <time>2010-08-15T07:28:12Z</time>
      </trkpt>
      <trkpt lat="44.2329" lon="6.92999">
        <ele>1721</ele>
        <time>2010-08-15T07:28:13Z</time>
      </trkpt>
      <trkpt lat="44.23292" lon="6.92998">
        <ele>1720</ele>
        <time>2010-08-15T07:28:14Z</time>
      </trkpt>
      <trkpt lat="44.23294" lon="6.92997">
        <ele>1720</ele>
        <time>2010-08-15T07:28:15Z</time>
      </trkpt>
      <trkpt lat="44.23296" lon="6.92995">
        <ele>1719</ele>
        <time>2010-08-15T07:28:16Z</time>
      </trkpt>
      <trkpt lat="44.23299" lon="6.92993">
        <ele>1719</ele>
        <time>2010-08-15T07:28:17Z</time>
      </trkpt>
      <trkpt lat="44.23301" lon="6.92992">
        <ele>1718</ele>
        <time>2010-08-15T07:28:18Z</time>
      </trkpt>
      <trkpt lat="44.23303" lon="6.92989">
        <ele>1718</ele>
        <time>2010-08-15T07:28:19Z</time>
      </trkpt>
      <trkpt lat="44.23304" lon="6.92988">
        <ele>1717</ele>
        <time>2010-08-15T07:28:20Z</time>
      </trkpt>
      <trkpt lat="44.23306" lon="6.92986">
        <ele>1717</ele>
        <time>2010-08-15T07:28:21Z</time>
      </trkpt>
      <trkpt lat="44.23309" lon="6.92984">
        <ele>1716</ele>
        <time>2010-08-15T07:28:22Z</time>
      </trkpt>
      <trkpt lat="44.23312" lon="6.92981">
        <ele>1716</ele>
        <time>2010-08-15T07:28:23Z</time>
      </trkpt>
      <trkpt lat="44.23314" lon="6.92979">
        <ele>1716</ele>
        <time>2010-08-15T07:28:24Z</time>
      </trkpt>
      <trkpt lat="44.23317" lon="6.92977">
        <ele>1716</ele>
        <time>2010-08-15T07:28:25Z</time>
      </trkpt>
      <trkpt lat="44.23319" lon="6.92976">
        <ele>1716</ele>
        <time>2010-08-15T07:28:26Z</time>
      </trkpt>
      <trkpt lat="44.23322" lon="6.92973">
        <ele>1717</ele>
        <time>2010-08-15T07:28:27Z</time>
      </trkpt>
      <trkpt lat="44.23324" lon="6.92972">
        <ele>1717</ele>
        <time>2010-08-15T07:28:28Z</time>
      </trkpt>
      <trkpt lat="44.23326" lon="6.9297">
        <ele>1718</ele>
        <time>2010-08-15T07:28:29Z</time>
      </trkpt>
      <trkpt lat="44.23328" lon="6.92968">
        <ele>1719</ele>
        <time>2010-08-15T07:28:30Z</time>
      </trkpt>
      <trkpt lat="44.2333" lon="6.92965">
        <ele>1720</ele>
        <time>2010-08-15T07:28:31Z</time>
      </trkpt>
      <trkpt lat="44.23332" lon="6.92964">
        <ele>1721</ele>
        <time>2010-08-15T07:28:32Z</time>
      </trkpt>
      <trkpt lat="44.23335" lon="6.92962">
        <ele>1705</ele>
        <time>2010-08-15T07:28:33Z</time>
      </trkpt>
      <trkpt lat="44.23338" lon="6.92961">
        <ele>1706</ele>
        <time>2010-08-15T07:28:34Z</time>
      </trkpt>
      <trkpt lat="44.2334" lon="6.92959">
        <ele>1706</ele>
        <time>2010-08-15T07:28:35Z</time>
      </trkpt>
      <trkpt lat="44.23342" lon="6.92958">
        <ele>1707</ele>
        <time>2010-08-15T07:28:36Z</time>
      </trkpt>
      <trkpt lat="44.23343" lon="6.92957">
        <ele>1707</ele>
        <time>2010-08-15T07:28:37Z</time>
      </trkpt>
      <trkpt lat="44.23346" lon="6.92956">
        <ele>1708</ele>
        <time>2010-08-15T07:28:38Z</time>
      </trkpt>
      <trkpt lat="44.23349" lon="6.92954">
        <ele>1708</ele>
        <time>2010-08-15T07:28:39Z</time>
      </trkpt>
      <trkpt lat="44.23351" lon="6.92953">
        <ele>1708</ele>
        <time>2010-08-15T07:28:40Z</time>
      </trkpt>
      <trkpt lat="44.23354" lon="6.92952">
        <ele>1708</ele>
        <time>2010-08-15T07:28:41Z</time>
      </trkpt>
      <trkpt lat="44.23356" lon="6.92949">
        <ele>1709</ele>
        <time>2010-08-15T07:28:42Z</time>
      </trkpt>
      <trkpt lat="44.23358" lon="6.92947">
        <ele>1709</ele>
        <time>2010-08-15T07:28:43Z</time>
      </trkpt>
      <trkpt lat="44.2336" lon="6.92946">
        <ele>1709</ele>
        <time>2010-08-15T07:28:44Z</time>
      </trkpt>
      <trkpt lat="44.23363" lon="6.92944">
        <ele>1709</ele>
        <time>2010-08-15T07:28:45Z</time>
      </trkpt>
      <trkpt lat="44.23366" lon="6.92943">
        <ele>1709</ele>
        <time>2010-08-15T07:28:46Z</time>
      </trkpt>
      <trkpt lat="44.23368" lon="6.92942">
        <ele>1709</ele>
        <time>2010-08-15T07:28:47Z</time>
      </trkpt>
      <trkpt lat="44.23371" lon="6.9294">
        <ele>1709</ele>
        <time>2010-08-15T07:28:48Z</time>
      </trkpt>
      <trkpt lat="44.23374" lon="6.92938">
        <ele>1709</ele>
        <time>2010-08-15T07:28:49Z</time>
      </trkpt>
      <trkpt lat="44.23377" lon="6.92936">
        <ele>1709</ele>
        <time>2010-08-15T07:28:50Z</time>
      </trkpt>
      <trkpt lat="44.2338" lon="6.92933">
        <ele>1709</ele>
        <time>2010-08-15T07:28:51Z</time>
      </trkpt>
      <trkpt lat="44.23382" lon="6.92931">
        <ele>1709</ele>
        <time>2010-08-15T07:28:52Z</time>
      </trkpt>
      <trkpt lat="44.23384" lon="6.92928">
        <ele>1709</ele>
        <time>2010-08-15T07:28:53Z</time>
      </trkpt>
      <trkpt lat="44.23386" lon="6.92925">
        <ele>1709</ele>
        <time>2010-08-15T07:28:54Z</time>
      </trkpt>
      <trkpt lat="44.23388" lon="6.92923">
        <ele>1710</ele>
        <time>2010-08-15T07:28:55Z</time>
      </trkpt>
      <trkpt lat="44.2339" lon="6.92922">
        <ele>1710</ele>
        <time>2010-08-15T07:28:56Z</time>
      </trkpt>
      <trkpt lat="44.23393" lon="6.9292">
        <ele>1710</ele>
        <time>2010-08-15T07:28:57Z</time>
      </trkpt>
      <trkpt lat="44.23396" lon="6.92918">
        <ele>1710</ele>
        <time>2010-08-15T07:28:58Z</time>
      </trkpt>
      <trkpt lat="44.23397" lon="6.92916">
        <ele>1732</ele>
        <time>2010-08-15T07:28:59Z</time>
      </trkpt>
      <trkpt lat="44.23399" lon="6.92914">
        <ele>1731</ele>
        <time>2010-08-15T07:29:00Z</time>
      </trkpt>
      <trkpt lat="44.23401" lon="6.92912">
        <ele>1731</ele>
        <time>2010-08-15T07:29:01Z</time>
      </trkpt>
      <trkpt lat="44.23403" lon="6.9291">
        <ele>1730</ele>
        <time>2010-08-15T07:29:02Z</time>
      </trkpt>
      <trkpt lat="44.23405" lon="6.92908">
        <ele>1730</ele>
        <time>2010-08-15T07:29:03Z</time>
      </trkpt>
      <trkpt lat="44.23408" lon="6.92906">
        <ele>1729</ele>
        <time>2010-08-15T07:29:04Z</time>
      </trkpt>
      <trkpt lat="44.23411" lon="6.92903">
        <ele>1729</ele>
        <time>2010-08-15T07:29:05Z</time>
      </trkpt>
      <trkpt lat="44.23413" lon="6.92901">
        <ele>1730</ele>
        <time>2010-08-15T07:29:06Z</time>
      </trkpt>
      <trkpt lat="44.23416" lon="6.92899">
        <ele>1731</ele>
        <time>2010-08-15T07:29:07Z</time>
      </trkpt>
      <trkpt lat="44.23418" lon="6.92896">
        <ele>1717</ele>
        <time>2010-08-15T07:29:08Z</time>
      </trkpt>
      <trkpt lat="44.23422" lon="6.92894">
        <ele>1718</ele>
        <time>2010-08-15T07:29:09Z</time>
      </trkpt>
      <trkpt lat="44.23424" lon="6.92892">
        <ele>1718</ele>
        <time>2010-08-15T07:29:10Z</time>
      </trkpt>
      <trkpt lat="44.23425" lon="6.92888">
        <ele>1719</ele>
        <time>2010-08-15T07:29:11Z</time>
      </trkpt>
      <trkpt lat="44.23426" lon="6.92886">
        <ele>1719</ele>
        <time>2010-08-15T07:29:12Z</time>
      </trkpt>
      <trkpt lat="44.23427" lon="6.92884">
        <ele>1720</ele>
        <time>2010-08-15T07:29:13Z</time>
      </trkpt>
      <trkpt lat="44.23428" lon="6.92881">
        <ele>1720</ele>
        <time>2010-08-15T07:29:14Z</time>
      </trkpt>
      <trkpt lat="44.23429" lon="6.92878">
        <ele>1721</ele>
        <time>2010-08-15T07:29:15Z</time>
      </trkpt>
      <trkpt lat="44.23431" lon="6.92876">
        <ele>1721</ele>
        <time>2010-08-15T07:29:16Z</time>
      </trkpt>
      <trkpt lat="44.23433" lon="6.92874">
        <ele>1722</ele>
        <time>2010-08-15T07:29:17Z</time>
      </trkpt>
      <trkpt lat="44.23435" lon="6.92872">
        <ele>1722</ele>
        <time>2010-08-15T07:29:18Z</time>
      </trkpt>
      <trkpt lat="44.23437" lon="6.92871">
        <ele>1722</ele>
        <time>2010-08-15T07:29:19Z</time>
      </trkpt>
      <trkpt lat="44.2344" lon="6.92869">
        <ele>1722</ele>
        <time>2010-08-15T07:29:20Z</time>
      </trkpt>
      <trkpt lat="44.23444" lon="6.92867">
        <ele>1722</ele>
        <time>2010-08-15T07:29:21Z</time>
      </trkpt>
      <trkpt lat="44.23446" lon="6.92865">
        <ele>1722</ele>
        <time>2010-08-15T07:29:22Z</time>
      </trkpt>
      <trkpt lat="44.23448" lon="6.92863">
        <ele>1722</ele>
        <time>2010-08-15T07:29:23Z</time>
      </trkpt>
      <trkpt lat="44.2345" lon="6.92861">
        <ele>1722</ele>
        <time>2010-08-15T07:29:24Z</time>
      </trkpt>
      <trkpt lat="44.23452" lon="6.92859">
        <ele>1722</ele>
        <time>2010-08-15T07:29:25Z</time>
      </trkpt>
      <trkpt lat="44.23455" lon="6.92857">
        <ele>1722</ele>
        <time>2010-08-15T07:29:26Z</time>
      </trkpt>
      <trkpt lat="44.23457" lon="6.92854">
        <ele>1722</ele>
        <time>2010-08-15T07:29:27Z</time>
      </trkpt>
      <trkpt lat="44.2346" lon="6.92851">
        <ele>1721</ele>
        <time>2010-08-15T07:29:28Z</time>
      </trkpt>
      <trkpt lat="44.23462" lon="6.92849">
        <ele>1721</ele>
        <time>2010-08-15T07:29:29Z</time>
      </trkpt>
      <trkpt lat="44.23464" lon="6.92848">
        <ele>1721</ele>
        <time>2010-08-15T07:29:30Z</time>
      </trkpt>
      <trkpt lat="44.23466" lon="6.92846">
        <ele>1721</ele>
        <time>2010-08-15T07:29:31Z</time>
      </trkpt>
      <trkpt lat="44.23468" lon="6.92844">
        <ele>1721</ele>
        <time>2010-08-15T07:29:32Z</time>
      </trkpt>
      <trkpt lat="44.2347" lon="6.92842">
        <ele>1720</ele>
        <time>2010-08-15T07:29:33Z</time>
      </trkpt>
      <trkpt lat="44.23473" lon="6.92841">
        <ele>1720</ele>
        <time>2010-08-15T07:29:34Z</time>
      </trkpt>
      <trkpt lat="44.23475" lon="6.92838">
        <ele>1720</ele>
        <time>2010-08-15T07:29:35Z</time>
      </trkpt>
      <trkpt lat="44.23476" lon="6.92836">
        <ele>1720</ele>
        <time>2010-08-15T07:29:36Z</time>
      </trkpt>
      <trkpt lat="44.23478" lon="6.92834">
        <ele>1720</ele>
        <time>2010-08-15T07:29:37Z</time>
      </trkpt>
      <trkpt lat="44.23481" lon="6.92832">
        <ele>1738</ele>
        <time>2010-08-15T07:29:38Z</time>
      </trkpt>
      <trkpt lat="44.23483" lon="6.92831">
        <ele>1737</ele>
        <time>2010-08-15T07:29:39Z</time>
      </trkpt>
      <trkpt lat="44.23485" lon="6.92829">
        <ele>1736</ele>
        <time>2010-08-15T07:29:40Z</time>
      </trkpt>
      <trkpt lat="44.23487" lon="6.92828">
        <ele>1735</ele>
        <time>2010-08-15T07:29:41Z</time>
      </trkpt>
      <trkpt lat="44.23489" lon="6.92827">
        <ele>1734</ele>
        <time>2010-08-15T07:29:42Z</time>
      </trkpt>
      <trkpt lat="44.23491" lon="6.92825">
        <ele>1733</ele>
        <time>2010-08-15T07:29:43Z</time>
      </trkpt>
      <trkpt lat="44.23493" lon="6.92824">
        <ele>1733</ele>
        <time>2010-08-15T07:29:44Z</time>
      </trkpt>
      <trkpt lat="44.23495" lon="6.92823">
        <ele>1733</ele>
        <time>2010-08-15T07:29:45Z</time>
      </trkpt>
      <trkpt lat="44.23497" lon="6.92822">
        <ele>1733</ele>
        <time>2010-08-15T07:29:46Z</time>
      </trkpt>
      <trkpt lat="44.23499" lon="6.92821">
        <ele>1734</ele>
        <time>2010-08-15T07:29:47Z</time>
      </trkpt>
      <trkpt lat="44.23501" lon="6.92819">
        <ele>1727</ele>
        <time>2010-08-15T07:29:48Z</time>
      </trkpt>
      <trkpt lat="44.23503" lon="6.92818">
        <ele>1727</ele>
        <time>2010-08-15T07:29:49Z</time>
      </trkpt>
      <trkpt lat="44.23505" lon="6.92817">
        <ele>1728</ele>
        <time>2010-08-15T07:29:50Z</time>
      </trkpt>
      <trkpt lat="44.23507" lon="6.92817">
        <ele>1728</ele>
        <time>2010-08-15T07:29:51Z</time>
      </trkpt>
      <trkpt lat="44.23509" lon="6.92817">
        <ele>1728</ele>
        <time>2010-08-15T07:29:52Z</time>
      </trkpt>
      <trkpt lat="44.23512" lon="6.92816">
        <ele>1728</ele>
        <time>2010-08-15T07:29:53Z</time>
      </trkpt>
      <trkpt lat="44.23515" lon="6.92817">
        <ele>1729</ele>
        <time>2010-08-15T07:29:54Z</time>
      </trkpt>
      <trkpt lat="44.23517" lon="6.92817">
        <ele>1729</ele>
        <time>2010-08-15T07:29:55Z</time>
      </trkpt>
      <trkpt lat="44.23519" lon="6.92818">
        <ele>1729</ele>
        <time>2010-08-15T07:29:56Z</time>
      </trkpt>
      <trkpt lat="44.23521" lon="6.92819">
        <ele>1729</ele>
        <time>2010-08-15T07:29:57Z</time>
      </trkpt>
      <trkpt lat="44.23524" lon="6.9282">
        <ele>1729</ele>
        <time>2010-08-15T07:29:58Z</time>
      </trkpt>
      <trkpt lat="44.23526" lon="6.92821">
        <ele>1729</ele>
        <time>2010-08-15T07:29:59Z</time>
      </trkpt>
      <trkpt lat="44.23528" lon="6.92822">
        <ele>1728</ele>
        <time>2010-08-15T07:30:00Z</time>
      </trkpt>
      <trkpt lat="44.23531" lon="6.92823">
        <ele>1728</ele>
        <time>2010-08-15T07:30:01Z</time>
      </trkpt>
      <trkpt lat="44.23534" lon="6.92824">
        <ele>1728</ele>
        <time>2010-08-15T07:30:02Z</time>
      </trkpt>
      <trkpt lat="44.23536" lon="6.92826">
        <ele>1728</ele>
        <time>2010-08-15T07:30:03Z</time>
      </trkpt>
      <trkpt lat="44.23539" lon="6.92828">
        <ele>1727</ele>
        <time>2010-08-15T07:30:04Z</time>
      </trkpt>
      <trkpt lat="44.23542" lon="6.9283">
        <ele>1727</ele>
        <time>2010-08-15T07:30:05Z</time>
      </trkpt>
      <trkpt lat="44.23544" lon="6.92831">
        <ele>1727</ele>
        <time>2010-08-15T07:30:06Z</time>
      </trkpt>
      <trkpt lat="44.23547" lon="6.92832">
        <ele>1726</ele>
        <time>2010-08-15T07:30:07Z</time>
      </trkpt>
      <trkpt lat="44.2355" lon="6.92832">
        <ele>1726</ele>
        <time>2010-08-15T07:30:08Z</time>
      </trkpt>
      <trkpt lat="44.23552" lon="6.92833">
        <ele>1725</ele>
        <time>2010-08-15T07:30:09Z</time>
      </trkpt>
      <trkpt lat="44.23555" lon="6.92832">
        <ele>1725</ele>
        <time>2010-08-15T07:30:10Z</time>
      </trkpt>
      <trkpt lat="44.23557" lon="6.92832">
        <ele>1724</ele>
        <time>2010-08-15T07:30:11Z</time>
      </trkpt>
      <trkpt lat="44.2356" lon="6.92832">
        <ele>1723</ele>
        <time>2010-08-15T07:30:12Z</time>
      </trkpt>
      <trkpt lat="44.23563" lon="6.92831">
        <ele>1723</ele>
        <time>2010-08-15T07:30:13Z</time>
      </trkpt>
      <trkpt lat="44.23565" lon="6.9283">
        <ele>1722</ele>
        <time>2010-08-15T07:30:14Z</time>
      </trkpt>
      <trkpt lat="44.23568" lon="6.9283">
        <ele>1721</ele>
        <time>2010-08-15T07:30:15Z</time>
      </trkpt>
      <trkpt lat="44.2357" lon="6.92829">
        <ele>1720</ele>
        <time>2010-08-15T07:30:16Z</time>
      </trkpt>
      <trkpt lat="44.23573" lon="6.92828">
        <ele>1719</ele>
        <time>2010-08-15T07:30:17Z</time>
      </trkpt>
      <trkpt lat="44.23575" lon="6.92827">
        <ele>1718</ele>
        <time>2010-08-15T07:30:18Z</time>
      </trkpt>
      <trkpt lat="44.23578" lon="6.92826">
        <ele>1717</ele>
        <time>2010-08-15T07:30:19Z</time>
      </trkpt>
      <trkpt lat="44.23581" lon="6.92825">
        <ele>1717</ele>
        <time>2010-08-15T07:30:20Z</time>
      </trkpt>
      <trkpt lat="44.23584" lon="6.92823">
        <ele>1714</ele>
        <time>2010-08-15T07:30:21Z</time>
      </trkpt>
      <trkpt lat="44.23586" lon="6.92821">
        <ele>1714</ele>
        <time>2010-08-15T07:30:22Z</time>
      </trkpt>
      <trkpt lat="44.23589" lon="6.92819">
        <ele>1715</ele>
        <time>2010-08-15T07:30:23Z</time>
      </trkpt>
      <trkpt lat="44.23591" lon="6.92816">
        <ele>1716</ele>
        <time>2010-08-15T07:30:24Z</time>
      </trkpt>
      <trkpt lat="44.23593" lon="6.92814">
        <ele>1717</ele>
        <time>2010-08-15T07:30:25Z</time>
      </trkpt>
      <trkpt lat="44.23596" lon="6.92812">
        <ele>1717</ele>
        <time>2010-08-15T07:30:26Z</time>
      </trkpt>
      <trkpt lat="44.23598" lon="6.92811">
        <ele>1717</ele>
        <time>2010-08-15T07:30:27Z</time>
      </trkpt>
      <trkpt lat="44.236" lon="6.92809">
        <ele>1718</ele>
        <time>2010-08-15T07:30:28Z</time>
      </trkpt>
      <trkpt lat="44.23602" lon="6.92808">
        <ele>1718</ele>
        <time>2010-08-15T07:30:29Z</time>
      </trkpt>
      <trkpt lat="44.23605" lon="6.92807">
        <ele>1718</ele>
        <time>2010-08-15T07:30:30Z</time>
      </trkpt>
      <trkpt lat="44.23607" lon="6.92807">
        <ele>1718</ele>
        <time>2010-08-15T07:30:31Z</time>
      </trkpt>
      <trkpt lat="44.2361" lon="6.92805">
        <ele>1718</ele>
        <time>2010-08-15T07:30:32Z</time>
      </trkpt>
      <trkpt lat="44.23612" lon="6.92802">
        <ele>1719</ele>
        <time>2010-08-15T07:30:33Z</time>
      </trkpt>
      <trkpt lat="44.23614" lon="6.928">
        <ele>1719</ele>
        <time>2010-08-15T07:30:34Z</time>
      </trkpt>
      <trkpt lat="44.23617" lon="6.92798">
        <ele>1719</ele>
        <time>2010-08-15T07:30:35Z</time>
      </trkpt>
      <trkpt lat="44.23619" lon="6.92796">
        <ele>1719</ele>
        <time>2010-08-15T07:30:36Z</time>
      </trkpt>
      <trkpt lat="44.23621" lon="6.92795">
        <ele>1719</ele>
        <time>2010-08-15T07:30:37Z</time>
      </trkpt>
      <trkpt lat="44.23624" lon="6.92793">
        <ele>1719</ele>
        <time>2010-08-15T07:30:38Z</time>
      </trkpt>
      <trkpt lat="44.23626" lon="6.92791">
        <ele>1719</ele>
        <time>2010-08-15T07:30:39Z</time>
      </trkpt>
      <trkpt lat="44.23628" lon="6.92789">
        <ele>1719</ele>
        <time>2010-08-15T07:30:40Z</time>
      </trkpt>
      <trkpt lat="44.23631" lon="6.92787">
        <ele>1720</ele>
        <time>2010-08-15T07:30:41Z</time>
      </trkpt>
      <trkpt lat="44.23633" lon="6.92785">
        <ele>1720</ele>
        <time>2010-08-15T07:30:42Z</time>
      </trkpt>
      <trkpt lat="44.23635" lon="6.92782">
        <ele>1720</ele>
        <time>2010-08-15T07:30:43Z</time>
      </trkpt>
      <trkpt lat="44.23637" lon="6.9278">
        <ele>1720</ele>
        <time>2010-08-15T07:30:44Z</time>
      </trkpt>
      <trkpt lat="44.23639" lon="6.92777">
        <ele>1720</ele>
        <time>2010-08-15T07:30:45Z</time>
      </trkpt>
      <trkpt lat="44.2364" lon="6.92776">
        <ele>1720</ele>
        <time>2010-08-15T07:30:46Z</time>
      </trkpt>
      <trkpt lat="44.23642" lon="6.92774">
        <ele>1720</ele>
        <time>2010-08-15T07:30:47Z</time>
      </trkpt>
      <trkpt lat="44.23644" lon="6.92771">
        <ele>1720</ele>
        <time>2010-08-15T07:30:48Z</time>
      </trkpt>
      <trkpt lat="44.23645" lon="6.92768">
        <ele>1720</ele>
        <time>2010-08-15T07:30:49Z</time>
      </trkpt>
      <trkpt lat="44.23646" lon="6.92765">
        <ele>1720</ele>
        <time>2010-08-15T07:30:50Z</time>
      </trkpt>
      <trkpt lat="44.23647" lon="6.92762">
        <ele>1720</ele>
        <time>2010-08-15T07:30:51Z</time>
      </trkpt>
      <trkpt lat="44.23648" lon="6.92759">
        <ele>1720</ele>
        <time>2010-08-15T07:30:52Z</time>
      </trkpt>
      <trkpt lat="44.2365" lon="6.92756">
        <ele>1720</ele>
        <time>2010-08-15T07:30:53Z</time>
      </trkpt>
      <trkpt lat="44.2365" lon="6.92754">
        <ele>1720</ele>
        <time>2010-08-15T07:30:54Z</time>
      </trkpt>
      <trkpt lat="44.23651" lon="6.92751">
        <ele>1720</ele>
        <time>2010-08-15T07:30:55Z</time>
      </trkpt>
      <trkpt lat="44.23652" lon="6.92749">
        <ele>1729</ele>
        <time>2010-08-15T07:30:56Z</time>
      </trkpt>
      <trkpt lat="44.23653" lon="6.92747">
        <ele>1729</ele>
        <time>2010-08-15T07:30:57Z</time>
      </trkpt>
      <trkpt lat="44.23654" lon="6.92744">
        <ele>1729</ele>
        <time>2010-08-15T07:30:58Z</time>
      </trkpt>
      <trkpt lat="44.23656" lon="6.92742">
        <ele>1729</ele>
        <time>2010-08-15T07:30:59Z</time>
      </trkpt>
      <trkpt lat="44.23657" lon="6.9274">
        <ele>1729</ele>
        <time>2010-08-15T07:31:00Z</time>
      </trkpt>
      <trkpt lat="44.23658" lon="6.92738">
        <ele>1729</ele>
        <time>2010-08-15T07:31:01Z</time>
      </trkpt>
      <trkpt lat="44.2366" lon="6.92735">
        <ele>1730</ele>
        <time>2010-08-15T07:31:02Z</time>
      </trkpt>
      <trkpt lat="44.23661" lon="6.92733">
        <ele>1731</ele>
        <time>2010-08-15T07:31:03Z</time>
      </trkpt>
      <trkpt lat="44.23662" lon="6.9273">
        <ele>1732</ele>
        <time>2010-08-15T07:31:04Z</time>
      </trkpt>
      <trkpt lat="44.23664" lon="6.92727">
        <ele>1733</ele>
        <time>2010-08-15T07:31:05Z</time>
      </trkpt>
      <trkpt lat="44.23665" lon="6.92724">
        <ele>1734</ele>
        <time>2010-08-15T07:31:06Z</time>
      </trkpt>
      <trkpt lat="44.23666" lon="6.92721">
        <ele>1735</ele>
        <time>2010-08-15T07:31:07Z</time>
      </trkpt>
      <trkpt lat="44.23668" lon="6.92718">
        <ele>1708</ele>
        <time>2010-08-15T07:31:08Z</time>
      </trkpt>
      <trkpt lat="44.23669" lon="6.92714">
        <ele>1708</ele>
        <time>2010-08-15T07:31:09Z</time>
      </trkpt>
      <trkpt lat="44.2367" lon="6.92711">
        <ele>1708</ele>
        <time>2010-08-15T07:31:10Z</time>
      </trkpt>
      <trkpt lat="44.2367" lon="6.92708">
        <ele>1708</ele>
        <time>2010-08-15T07:31:11Z</time>
      </trkpt>
      <trkpt lat="44.23671" lon="6.92705">
        <ele>1709</ele>
        <time>2010-08-15T07:31:12Z</time>
      </trkpt>
      <trkpt lat="44.23672" lon="6.92702">
        <ele>1709</ele>
        <time>2010-08-15T07:31:13Z</time>
      </trkpt>
      <trkpt lat="44.23672" lon="6.92698">
        <ele>1710</ele>
        <time>2010-08-15T07:31:14Z</time>
      </trkpt>
      <trkpt lat="44.23672" lon="6.92696">
        <ele>1711</ele>
        <time>2010-08-15T07:31:15Z</time>
      </trkpt>
      <trkpt lat="44.23673" lon="6.92692">
        <ele>1712</ele>
        <time>2010-08-15T07:31:16Z</time>
      </trkpt>
      <trkpt lat="44.23673" lon="6.92689">
        <ele>1714</ele>
        <time>2010-08-15T07:31:17Z</time>
      </trkpt>
      <trkpt lat="44.23674" lon="6.92685">
        <ele>1715</ele>
        <time>2010-08-15T07:31:18Z</time>
      </trkpt>
      <trkpt lat="44.23675" lon="6.92682">
        <ele>1717</ele>
        <time>2010-08-15T07:31:19Z</time>
      </trkpt>
      <trkpt lat="44.23675" lon="6.92679">
        <ele>1718</ele>
        <time>2010-08-15T07:31:20Z</time>
      </trkpt>
      <trkpt lat="44.23676" lon="6.92675">
        <ele>1720</ele>
        <time>2010-08-15T07:31:21Z</time>
      </trkpt>
      <trkpt lat="44.23676" lon="6.92673">
        <ele>1721</ele>
        <time>2010-08-15T07:31:22Z</time>
      </trkpt>
      <trkpt lat="44.23676" lon="6.9267">
        <ele>1722</ele>
        <time>2010-08-15T07:31:23Z</time>
      </trkpt>
      <trkpt lat="44.23677" lon="6.92666">
        <ele>1728</ele>
        <time>2010-08-15T07:31:24Z</time>
      </trkpt>
      <trkpt lat="44.23676" lon="6.92663">
        <ele>1727</ele>
        <time>2010-08-15T07:31:25Z</time>
      </trkpt>
      <trkpt lat="44.23676" lon="6.9266">
        <ele>1727</ele>
        <time>2010-08-15T07:31:26Z</time>
      </trkpt>
      <trkpt lat="44.23676" lon="6.92657">
        <ele>1726</ele>
        <time>2010-08-15T07:31:27Z</time>
      </trkpt>
      <trkpt lat="44.23676" lon="6.92654">
        <ele>1725</ele>
        <time>2010-08-15T07:31:28Z</time>
      </trkpt>
      <trkpt lat="44.23677" lon="6.92652">
        <ele>1725</ele>
        <time>2010-08-15T07:31:29Z</time>
      </trkpt>
      <trkpt lat="44.23677" lon="6.9265">
        <ele>1724</ele>
        <time>2010-08-15T07:31:30Z</time>
      </trkpt>
      <trkpt lat="44.23678" lon="6.92647">
        <ele>1723</ele>
        <time>2010-08-15T07:31:31Z</time>
      </trkpt>
      <trkpt lat="44.23679" lon="6.92644">
        <ele>1723</ele>
        <time>2010-08-15T07:31:32Z</time>
      </trkpt>
      <trkpt lat="44.2368" lon="6.9264">
        <ele>1722</ele>
        <time>2010-08-15T07:31:33Z</time>
      </trkpt>
      <trkpt lat="44.2368" lon="6.92637">
        <ele>1722</ele>
        <time>2010-08-15T07:31:34Z</time>
      </trkpt>
      <trkpt lat="44.23681" lon="6.92633">
        <ele>1722</ele>
        <time>2010-08-15T07:31:35Z</time>
      </trkpt>
      <trkpt lat="44.23682" lon="6.9263">
        <ele>1722</ele>
        <time>2010-08-15T07:31:36Z</time>
      </trkpt>
      <trkpt lat="44.23684" lon="6.92626">
        <ele>1722</ele>
        <time>2010-08-15T07:31:37Z</time>
      </trkpt>
      <trkpt lat="44.23685" lon="6.92622">
        <ele>1722</ele>
        <time>2010-08-15T07:31:38Z</time>
      </trkpt>
      <trkpt lat="44.23687" lon="6.92618">
        <ele>1723</ele>
        <time>2010-08-15T07:31:39Z</time>
      </trkpt>
      <trkpt lat="44.23688" lon="6.92614">
        <ele>1723</ele>
        <time>2010-08-15T07:31:40Z</time>
      </trkpt>
      <trkpt lat="44.23689" lon="6.92611">
        <ele>1723</ele>
        <time>2010-08-15T07:31:41Z</time>
      </trkpt>
      <trkpt lat="44.2369" lon="6.92607">
        <ele>1724</ele>
        <time>2010-08-15T07:31:42Z</time>
      </trkpt>
      <trkpt lat="44.23691" lon="6.92604">
        <ele>1724</ele>
        <time>2010-08-15T07:31:43Z</time>
      </trkpt>
      <trkpt lat="44.23693" lon="6.926">
        <ele>1724</ele>
        <time>2010-08-15T07:31:44Z</time>
      </trkpt>
      <trkpt lat="44.23694" lon="6.92598">
        <ele>1724</ele>
        <time>2010-08-15T07:31:45Z</time>
      </trkpt>
      <trkpt lat="44.23695" lon="6.92594">
        <ele>1724</ele>
        <time>2010-08-15T07:31:46Z</time>
      </trkpt>
      <trkpt lat="44.23696" lon="6.9259">
        <ele>1724</ele>
        <time>2010-08-15T07:31:47Z</time>
      </trkpt>
      <trkpt lat="44.23697" lon="6.92587">
        <ele>1724</ele>
        <time>2010-08-15T07:31:48Z</time>
      </trkpt>
      <trkpt lat="44.23698" lon="6.92583">
        <ele>1724</ele>
        <time>2010-08-15T07:31:49Z</time>
      </trkpt>
      <trkpt lat="44.23699" lon="6.9258">
        <ele>1734</ele>
        <time>2010-08-15T07:31:50Z</time>
      </trkpt>
      <trkpt lat="44.237" lon="6.92577">
        <ele>1733</ele>
        <time>2010-08-15T07:31:51Z</time>
      </trkpt>
      <trkpt lat="44.23701" lon="6.92574">
        <ele>1733</ele>
        <time>2010-08-15T07:31:52Z</time>
      </trkpt>
      <trkpt lat="44.23702" lon="6.9257">
        <ele>1733</ele>
        <time>2010-08-15T07:31:53Z</time>
      </trkpt>
      <trkpt lat="44.23703" lon="6.92567">
        <ele>1732</ele>
        <time>2010-08-15T07:31:54Z</time>
      </trkpt>
      <trkpt lat="44.23704" lon="6.92563">
        <ele>1732</ele>
        <time>2010-08-15T07:31:55Z</time>
      </trkpt>
      <trkpt lat="44.23704" lon="6.9256">
        <ele>1732</ele>
        <time>2010-08-15T07:31:56Z</time>
      </trkpt>
      <trkpt lat="44.23705" lon="6.92556">
        <ele>1732</ele>
        <time>2010-08-15T07:31:57Z</time>
      </trkpt>
      <trkpt lat="44.23706" lon="6.92552">
        <ele>1732</ele>
        <time>2010-08-15T07:31:58Z</time>
      </trkpt>
      <trkpt lat="44.23706" lon="6.92549">
        <ele>1732</ele>
        <time>2010-08-15T07:31:59Z</time>
      </trkpt>
      <trkpt lat="44.23706" lon="6.92545">
        <ele>1732</ele>
        <time>2010-08-15T07:32:00Z</time>
      </trkpt>
      <trkpt lat="44.23706" lon="6.92541">
        <ele>1733</ele>
        <time>2010-08-15T07:32:01Z</time>
      </trkpt>
      <trkpt lat="44.23707" lon="6.92537">
        <ele>1733</ele>
        <time>2010-08-15T07:32:02Z</time>
      </trkpt>
      <trkpt lat="44.23707" lon="6.92534">
        <ele>1733</ele>
        <time>2010-08-15T07:32:03Z</time>
      </trkpt>
      <trkpt lat="44.23707" lon="6.9253">
        <ele>1733</ele>
        <time>2010-08-15T07:32:04Z</time>
      </trkpt>
      <trkpt lat="44.23707" lon="6.92527">
        <ele>1734</ele>
        <time>2010-08-15T07:32:05Z</time>
      </trkpt>
      <trkpt lat="44.23708" lon="6.92523">
        <ele>1734</ele>
        <time>2010-08-15T07:32:06Z</time>
      </trkpt>
      <trkpt lat="44.23709" lon="6.92519">
        <ele>1734</ele>
        <time>2010-08-15T07:32:07Z</time>
      </trkpt>
      <trkpt lat="44.23708" lon="6.92515">
        <ele>1734</ele>
        <time>2010-08-15T07:32:08Z</time>
      </trkpt>
      <trkpt lat="44.23708" lon="6.92511">
        <ele>1735</ele>
        <time>2010-08-15T07:32:09Z</time>
      </trkpt>
      <trkpt lat="44.23709" lon="6.92507">
        <ele>1735</ele>
        <time>2010-08-15T07:32:10Z</time>
      </trkpt>
      <trkpt lat="44.23709" lon="6.92503">
        <ele>1734</ele>
        <time>2010-08-15T07:32:11Z</time>
      </trkpt>
      <trkpt lat="44.2371" lon="6.92499">
        <ele>1743</ele>
        <time>2010-08-15T07:32:12Z</time>
      </trkpt>
      <trkpt lat="44.23711" lon="6.92494">
        <ele>1742</ele>
        <time>2010-08-15T07:32:13Z</time>
      </trkpt>
      <trkpt lat="44.23712" lon="6.9249">
        <ele>1742</ele>
        <time>2010-08-15T07:32:14Z</time>
      </trkpt>
      <trkpt lat="44.23713" lon="6.92486">
        <ele>1742</ele>
        <time>2010-08-15T07:32:15Z</time>
      </trkpt>
      <trkpt lat="44.23714" lon="6.92483">
        <ele>1742</ele>
        <time>2010-08-15T07:32:16Z</time>
      </trkpt>
      <trkpt lat="44.23716" lon="6.9248">
        <ele>1741</ele>
        <time>2010-08-15T07:32:17Z</time>
      </trkpt>
      <trkpt lat="44.23717" lon="6.92477">
        <ele>1741</ele>
        <time>2010-08-15T07:32:18Z</time>
      </trkpt>
      <trkpt lat="44.23719" lon="6.92474">
        <ele>1741</ele>
        <time>2010-08-15T07:32:19Z</time>
      </trkpt>
      <trkpt lat="44.2372" lon="6.92471">
        <ele>1741</ele>
        <time>2010-08-15T07:32:20Z</time>
      </trkpt>
      <trkpt lat="44.23722" lon="6.92468">
        <ele>1741</ele>
        <time>2010-08-15T07:32:21Z</time>
      </trkpt>
      <trkpt lat="44.23723" lon="6.92465">
        <ele>1741</ele>
        <time>2010-08-15T07:32:22Z</time>
      </trkpt>
      <trkpt lat="44.23724" lon="6.92462">
        <ele>1741</ele>
        <time>2010-08-15T07:32:23Z</time>
      </trkpt>
      <trkpt lat="44.23725" lon="6.92459">
        <ele>1741</ele>
        <time>2010-08-15T07:32:24Z</time>
      </trkpt>
      <trkpt lat="44.23727" lon="6.92456">
        <ele>1741</ele>
        <time>2010-08-15T07:32:25Z</time>
      </trkpt>
      <trkpt lat="44.23728" lon="6.92453">
        <ele>1741</ele>
        <time>2010-08-15T07:32:26Z</time>
      </trkpt>
      <trkpt lat="44.23729" lon="6.9245">
        <ele>1741</ele>
        <time>2010-08-15T07:32:27Z</time>
      </trkpt>
      <trkpt lat="44.23731" lon="6.92447">
        <ele>1740</ele>
        <time>2010-08-15T07:32:28Z</time>
      </trkpt>
      <trkpt lat="44.23732" lon="6.92444">
        <ele>1740</ele>
        <time>2010-08-15T07:32:29Z</time>
      </trkpt>
      <trkpt lat="44.23734" lon="6.92441">
        <ele>1740</ele>
        <time>2010-08-15T07:32:30Z</time>
      </trkpt>
      <trkpt lat="44.23736" lon="6.92438">
        <ele>1739</ele>
        <time>2010-08-15T07:32:31Z</time>
      </trkpt>
      <trkpt lat="44.23737" lon="6.92434">
        <ele>1738</ele>
        <time>2010-08-15T07:32:32Z</time>
      </trkpt>
      <trkpt lat="44.23739" lon="6.9243">
        <ele>1738</ele>
        <time>2010-08-15T07:32:33Z</time>
      </trkpt>
      <trkpt lat="44.2374" lon="6.92427">
        <ele>1737</ele>
        <time>2010-08-15T07:32:34Z</time>
      </trkpt>
      <trkpt lat="44.23742" lon="6.92423">
        <ele>1735</ele>
        <time>2010-08-15T07:32:35Z</time>
      </trkpt>
      <trkpt lat="44.23743" lon="6.9242">
        <ele>1734</ele>
        <time>2010-08-15T07:32:36Z</time>
      </trkpt>
      <trkpt lat="44.23744" lon="6.92417">
        <ele>1733</ele>
        <time>2010-08-15T07:32:37Z</time>
      </trkpt>
      <trkpt lat="44.23745" lon="6.92414">
        <ele>1735</ele>
        <time>2010-08-15T07:32:38Z</time>
      </trkpt>
      <trkpt lat="44.23746" lon="6.92411">
        <ele>1736</ele>
        <time>2010-08-15T07:32:39Z</time>
      </trkpt>
      <trkpt lat="44.23747" lon="6.92408">
        <ele>1737</ele>
        <time>2010-08-15T07:32:40Z</time>
      </trkpt>
      <trkpt lat="44.23747" lon="6.92405">
        <ele>1738</ele>
        <time>2010-08-15T07:32:41Z</time>
      </trkpt>
      <trkpt lat="44.23748" lon="6.92402">
        <ele>1740</ele>
        <time>2010-08-15T07:32:42Z</time>
      </trkpt>
      <trkpt lat="44.23748" lon="6.92399">
        <ele>1741</ele>
        <time>2010-08-15T07:32:43Z</time>
      </trkpt>
      <trkpt lat="44.23749" lon="6.92396">
        <ele>1742</ele>
        <time>2010-08-15T07:32:44Z</time>
      </trkpt>
      <trkpt lat="44.23749" lon="6.92393">
        <ele>1743</ele>
        <time>2010-08-15T07:32:45Z</time>
      </trkpt>
      <trkpt lat="44.23749" lon="6.9239">
        <ele>1743</ele>
        <time>2010-08-15T07:32:46Z</time>
      </trkpt>
      <trkpt lat="44.23749" lon="6.92387">
        <ele>1744</ele>
        <time>2010-08-15T07:32:47Z</time>
      </trkpt>
      <trkpt lat="44.23749" lon="6.92383">
        <ele>1745</ele>
        <time>2010-08-15T07:32:48Z</time>
      </trkpt>
      <trkpt lat="44.23748" lon="6.92379">
        <ele>1745</ele>
        <time>2010-08-15T07:32:49Z</time>
      </trkpt>
      <trkpt lat="44.23749" lon="6.92375">
        <ele>1745</ele>
        <time>2010-08-15T07:32:50Z</time>
      </trkpt>
      <trkpt lat="44.23749" lon="6.92372">
        <ele>1745</ele>
        <time>2010-08-15T07:32:51Z</time>
      </trkpt>
      <trkpt lat="44.23749" lon="6.92368">
        <ele>1745</ele>
        <time>2010-08-15T07:32:52Z</time>
      </trkpt>
      <trkpt lat="44.23749" lon="6.92365">
        <ele>1745</ele>
        <time>2010-08-15T07:32:53Z</time>
      </trkpt>
      <trkpt lat="44.23748" lon="6.92361">
        <ele>1744</ele>
        <time>2010-08-15T07:32:54Z</time>
      </trkpt>
      <trkpt lat="44.23748" lon="6.92358">
        <ele>1744</ele>
        <time>2010-08-15T07:32:55Z</time>
      </trkpt>
      <trkpt lat="44.23747" lon="6.92354">
        <ele>1743</ele>
        <time>2010-08-15T07:32:56Z</time>
      </trkpt>
      <trkpt lat="44.23747" lon="6.9235">
        <ele>1742</ele>
        <time>2010-08-15T07:32:57Z</time>
      </trkpt>
      <trkpt lat="44.23747" lon="6.92346">
        <ele>1740</ele>
        <time>2010-08-15T07:32:58Z</time>
      </trkpt>
      <trkpt lat="44.23746" lon="6.92343">
        <ele>1738</ele>
        <time>2010-08-15T07:32:59Z</time>
      </trkpt>
      <trkpt lat="44.23746" lon="6.92339">
        <ele>1737</ele>
        <time>2010-08-15T07:33:00Z</time>
      </trkpt>
      <trkpt lat="44.23745" lon="6.92336">
        <ele>1735</ele>
        <time>2010-08-15T07:33:01Z</time>
      </trkpt>
      <trkpt lat="44.23744" lon="6.92333">
        <ele>1735</ele>
        <time>2010-08-15T07:33:02Z</time>
      </trkpt>
      <trkpt lat="44.23744" lon="6.92329">
        <ele>1736</ele>
        <time>2010-08-15T07:33:03Z</time>
      </trkpt>
      <trkpt lat="44.23743" lon="6.92326">
        <ele>1738</ele>
        <time>2010-08-15T07:33:04Z</time>
      </trkpt>
      <trkpt lat="44.23742" lon="6.92322">
        <ele>1740</ele>
        <time>2010-08-15T07:33:05Z</time>
      </trkpt>
      <trkpt lat="44.23741" lon="6.92319">
        <ele>1741</ele>
        <time>2010-08-15T07:33:06Z</time>
      </trkpt>
      <trkpt lat="44.23739" lon="6.92315">
        <ele>1742</ele>
        <time>2010-08-15T07:33:07Z</time>
      </trkpt>
      <trkpt lat="44.23737" lon="6.92312">
        <ele>1743</ele>
        <time>2010-08-15T07:33:08Z</time>
      </trkpt>
      <trkpt lat="44.23736" lon="6.92308">
        <ele>1744</ele>
        <time>2010-08-15T07:33:09Z</time>
      </trkpt>
      <trkpt lat="44.23734" lon="6.92305">
        <ele>1745</ele>
        <time>2010-08-15T07:33:10Z</time>
      </trkpt>
      <trkpt lat="44.23733" lon="6.92302">
        <ele>1745</ele>
        <time>2010-08-15T07:33:11Z</time>
      </trkpt>
      <trkpt lat="44.23732" lon="6.92299">
        <ele>1745</ele>
        <time>2010-08-15T07:33:12Z</time>
      </trkpt>
      <trkpt lat="44.2373" lon="6.92296">
        <ele>1746</ele>
        <time>2010-08-15T07:33:13Z</time>
      </trkpt>
      <trkpt lat="44.23729" lon="6.92292">
        <ele>1746</ele>
        <time>2010-08-15T07:33:14Z</time>
      </trkpt>
      <trkpt lat="44.23728" lon="6.92289">
        <ele>1746</ele>
        <time>2010-08-15T07:33:15Z</time>
      </trkpt>
      <trkpt lat="44.23727" lon="6.92286">
        <ele>1746</ele>
        <time>2010-08-15T07:33:16Z</time>
      </trkpt>
      <trkpt lat="44.23726" lon="6.92283">
        <ele>1745</ele>
        <time>2010-08-15T07:33:17Z</time>
      </trkpt>
      <trkpt lat="44.23726" lon="6.92279">
        <ele>1745</ele>
        <time>2010-08-15T07:33:18Z</time>
      </trkpt>
      <trkpt lat="44.23724" lon="6.92276">
        <ele>1745</ele>
        <time>2010-08-15T07:33:19Z</time>
      </trkpt>
      <trkpt lat="44.23723" lon="6.92272">
        <ele>1745</ele>
        <time>2010-08-15T07:33:20Z</time>
      </trkpt>
      <trkpt lat="44.23722" lon="6.92269">
        <ele>1745</ele>
        <time>2010-08-15T07:33:21Z</time>
      </trkpt>
      <trkpt lat="44.23721" lon="6.92265">
        <ele>1745</ele>
        <time>2010-08-15T07:33:22Z</time>
      </trkpt>
      <trkpt lat="44.2372" lon="6.92262">
        <ele>1745</ele>
        <time>2010-08-15T07:33:23Z</time>
      </trkpt>
      <trkpt lat="44.23719" lon="6.92259">
        <ele>1745</ele>
        <time>2010-08-15T07:33:24Z</time>
      </trkpt>
      <trkpt lat="44.23718" lon="6.92255">
        <ele>1745</ele>
        <time>2010-08-15T07:33:25Z</time>
      </trkpt>
      <trkpt lat="44.23717" lon="6.92252">
        <ele>1746</ele>
        <time>2010-08-15T07:33:26Z</time>
      </trkpt>
      <trkpt lat="44.23717" lon="6.92249">
        <ele>1744</ele>
        <time>2010-08-15T07:33:27Z</time>
      </trkpt>
      <trkpt lat="44.23716" lon="6.92246">
        <ele>1744</ele>
        <time>2010-08-15T07:33:28Z</time>
      </trkpt>
      <trkpt lat="44.23715" lon="6.92243">
        <ele>1745</ele>
        <time>2010-08-15T07:33:29Z</time>
      </trkpt>
      <trkpt lat="44.23714" lon="6.92239">
        <ele>1745</ele>
        <time>2010-08-15T07:33:30Z</time>
      </trkpt>
      <trkpt lat="44.23712" lon="6.92237">
        <ele>1746</ele>
        <time>2010-08-15T07:33:31Z</time>
      </trkpt>
      <trkpt lat="44.23711" lon="6.92235">
        <ele>1747</ele>
        <time>2010-08-15T07:33:32Z</time>
      </trkpt>
      <trkpt lat="44.23709" lon="6.92233">
        <ele>1748</ele>
        <time>2010-08-15T07:33:33Z</time>
      </trkpt>
      <trkpt lat="44.23707" lon="6.9223">
        <ele>1749</ele>
        <time>2010-08-15T07:33:34Z</time>
      </trkpt>
      <trkpt lat="44.23706" lon="6.92227">
        <ele>1749</ele>
        <time>2010-08-15T07:33:35Z</time>
      </trkpt>
      <trkpt lat="44.23704" lon="6.92224">
        <ele>1750</ele>
        <time>2010-08-15T07:33:36Z</time>
      </trkpt>
      <trkpt lat="44.23703" lon="6.92222">
        <ele>1750</ele>
        <time>2010-08-15T07:33:37Z</time>
      </trkpt>
      <trkpt lat="44.23701" lon="6.9222">
        <ele>1751</ele>
        <time>2010-08-15T07:33:38Z</time>
      </trkpt>
      <trkpt lat="44.23699" lon="6.92219">
        <ele>1752</ele>
        <time>2010-08-15T07:33:39Z</time>
      </trkpt>
      <trkpt lat="44.23698" lon="6.9222">
        <ele>1752</ele>
        <time>2010-08-15T07:33:40Z</time>
      </trkpt>
      <trkpt lat="44.23699" lon="6.92223">
        <ele>1752</ele>
        <time>2010-08-15T07:33:41Z</time>
      </trkpt>
      <trkpt lat="44.23701" lon="6.92226">
        <ele>1751</ele>
        <time>2010-08-15T07:33:42Z</time>
      </trkpt>
      <trkpt lat="44.23702" lon="6.92229">
        <ele>1751</ele>
        <time>2010-08-15T07:33:43Z</time>
      </trkpt>
      <trkpt lat="44.23703" lon="6.92232">
        <ele>1750</ele>
        <time>2010-08-15T07:33:44Z</time>
      </trkpt>
      <trkpt lat="44.23704" lon="6.92236">
        <ele>1750</ele>
        <time>2010-08-15T07:33:45Z</time>
      </trkpt>
      <trkpt lat="44.23705" lon="6.92239">
        <ele>1750</ele>
        <time>2010-08-15T07:33:46Z</time>
      </trkpt>
      <trkpt lat="44.23706" lon="6.92241">
        <ele>1749</ele>
        <time>2010-08-15T07:33:47Z</time>
      </trkpt>
      <trkpt lat="44.23707" lon="6.92245">
        <ele>1749</ele>
        <time>2010-08-15T07:33:48Z</time>
      </trkpt>
      <trkpt lat="44.23708" lon="6.92248">
        <ele>1748</ele>
        <time>2010-08-15T07:33:49Z</time>
      </trkpt>
      <trkpt lat="44.23709" lon="6.92251">
        <ele>1751</ele>
        <time>2010-08-15T07:33:50Z</time>
      </trkpt>
      <trkpt lat="44.23709" lon="6.92254">
        <ele>1750</ele>
        <time>2010-08-15T07:33:51Z</time>
      </trkpt>
      <trkpt lat="44.23709" lon="6.92258">
        <ele>1750</ele>
        <time>2010-08-15T07:33:52Z</time>
      </trkpt>
      <trkpt lat="44.2371" lon="6.92261">
        <ele>1750</ele>
        <time>2010-08-15T07:33:53Z</time>
      </trkpt>
      <trkpt lat="44.23711" lon="6.92264">
        <ele>1750</ele>
        <time>2010-08-15T07:33:54Z</time>
      </trkpt>
      <trkpt lat="44.23712" lon="6.92268">
        <ele>1749</ele>
        <time>2010-08-15T07:33:55Z</time>
      </trkpt>
      <trkpt lat="44.23713" lon="6.92271">
        <ele>1749</ele>
        <time>2010-08-15T07:33:56Z</time>
      </trkpt>
      <trkpt lat="44.23714" lon="6.92274">
        <ele>1749</ele>
        <time>2010-08-15T07:33:57Z</time>
      </trkpt>
      <trkpt lat="44.23715" lon="6.92277">
        <ele>1749</ele>
        <time>2010-08-15T07:33:58Z</time>
      </trkpt>
      <trkpt lat="44.23716" lon="6.92281">
        <ele>1749</ele>
        <time>2010-08-15T07:33:59Z</time>
      </trkpt>
      <trkpt lat="44.23716" lon="6.92284">
        <ele>1749</ele>
        <time>2010-08-15T07:34:00Z</time>
      </trkpt>
      <trkpt lat="44.23717" lon="6.92288">
        <ele>1749</ele>
        <time>2010-08-15T07:34:01Z</time>
      </trkpt>
      <trkpt lat="44.23718" lon="6.92292">
        <ele>1749</ele>
        <time>2010-08-15T07:34:02Z</time>
      </trkpt>
      <trkpt lat="44.23719" lon="6.92295">
        <ele>1749</ele>
        <time>2010-08-15T07:34:03Z</time>
      </trkpt>
      <trkpt lat="44.2372" lon="6.92299">
        <ele>1749</ele>
        <time>2010-08-15T07:34:04Z</time>
      </trkpt>
      <trkpt lat="44.23721" lon="6.92302">
        <ele>1749</ele>
        <time>2010-08-15T07:34:05Z</time>
      </trkpt>
      <trkpt lat="44.23722" lon="6.92306">
        <ele>1748</ele>
        <time>2010-08-15T07:34:06Z</time>
      </trkpt>
      <trkpt lat="44.23723" lon="6.9231">
        <ele>1748</ele>
        <time>2010-08-15T07:34:07Z</time>
      </trkpt>
      <trkpt lat="44.23724" lon="6.92314">
        <ele>1748</ele>
        <time>2010-08-15T07:34:08Z</time>
      </trkpt>
      <trkpt lat="44.23724" lon="6.92317">
        <ele>1747</ele>
        <time>2010-08-15T07:34:09Z</time>
      </trkpt>
      <trkpt lat="44.23725" lon="6.92321">
        <ele>1746</ele>
        <time>2010-08-15T07:34:10Z</time>
      </trkpt>
      <trkpt lat="44.23727" lon="6.92325">
        <ele>1746</ele>
        <time>2010-08-15T07:34:11Z</time>
      </trkpt>
      <trkpt lat="44.23727" lon="6.92329">
        <ele>1745</ele>
        <time>2010-08-15T07:34:12Z</time>
      </trkpt>
      <trkpt lat="44.23728" lon="6.92333">
        <ele>1745</ele>
        <time>2010-08-15T07:34:13Z</time>
      </trkpt>
      <trkpt lat="44.23729" lon="6.92336">
        <ele>1746</ele>
        <time>2010-08-15T07:34:14Z</time>
      </trkpt>
      <trkpt lat="44.23729" lon="6.9234">
        <ele>1746</ele>
        <time>2010-08-15T07:34:15Z</time>
      </trkpt>
      <trkpt lat="44.23729" lon="6.92344">
        <ele>1746</ele>
        <time>2010-08-15T07:34:16Z</time>
      </trkpt>
      <trkpt lat="44.2373" lon="6.92347">
        <ele>1746</ele>
        <time>2010-08-15T07:34:17Z</time>
      </trkpt>
      <trkpt lat="44.2373" lon="6.9235">
        <ele>1746</ele>
        <time>2010-08-15T07:34:18Z</time>
      </trkpt>
      <trkpt lat="44.2373" lon="6.92354">
        <ele>1747</ele>
        <time>2010-08-15T07:34:19Z</time>
      </trkpt>
      <trkpt lat="44.2373" lon="6.92357">
        <ele>1748</ele>
        <time>2010-08-15T07:34:20Z</time>
      </trkpt>
      <trkpt lat="44.23729" lon="6.92361">
        <ele>1748</ele>
        <time>2010-08-15T07:34:21Z</time>
      </trkpt>
      <trkpt lat="44.23728" lon="6.92364">
        <ele>1749</ele>
        <time>2010-08-15T07:34:22Z</time>
      </trkpt>
      <trkpt lat="44.23728" lon="6.92368">
        <ele>1749</ele>
        <time>2010-08-15T07:34:23Z</time>
      </trkpt>
      <trkpt lat="44.23728" lon="6.92372">
        <ele>1749</ele>
        <time>2010-08-15T07:34:24Z</time>
      </trkpt>
      <trkpt lat="44.23728" lon="6.92375">
        <ele>1749</ele>
        <time>2010-08-15T07:34:25Z</time>
      </trkpt>
      <trkpt lat="44.23727" lon="6.92378">
        <ele>1749</ele>
        <time>2010-08-15T07:34:26Z</time>
      </trkpt>
      <trkpt lat="44.23727" lon="6.92381">
        <ele>1749</ele>
        <time>2010-08-15T07:34:27Z</time>
      </trkpt>
      <trkpt lat="44.23726" lon="6.92385">
        <ele>1749</ele>
        <time>2010-08-15T07:34:28Z</time>
      </trkpt>
      <trkpt lat="44.23726" lon="6.92387">
        <ele>1748</ele>
        <time>2010-08-15T07:34:29Z</time>
      </trkpt>
      <trkpt lat="44.23726" lon="6.9239">
        <ele>1748</ele>
        <time>2010-08-15T07:34:30Z</time>
      </trkpt>
      <trkpt lat="44.23724" lon="6.92393">
        <ele>1748</ele>
        <time>2010-08-15T07:34:31Z</time>
      </trkpt>
      <trkpt lat="44.23724" lon="6.92396">
        <ele>1748</ele>
        <time>2010-08-15T07:34:32Z</time>
      </trkpt>
      <trkpt lat="44.23723" lon="6.92399">
        <ele>1748</ele>
        <time>2010-08-15T07:34:33Z</time>
      </trkpt>
      <trkpt lat="44.23722" lon="6.92402">
        <ele>1748</ele>
        <time>2010-08-15T07:34:34Z</time>
      </trkpt>
      <trkpt lat="44.23722" lon="6.92405">
        <ele>1748</ele>
        <time>2010-08-15T07:34:35Z</time>
      </trkpt>
      <trkpt lat="44.23721" lon="6.92408">
        <ele>1748</ele>
        <time>2010-08-15T07:34:36Z</time>
      </trkpt>
      <trkpt lat="44.2372" lon="6.92411">
        <ele>1748</ele>
        <time>2010-08-15T07:34:37Z</time>
      </trkpt>
      <trkpt lat="44.23719" lon="6.92414">
        <ele>1749</ele>
        <time>2010-08-15T07:34:38Z</time>
      </trkpt>
      <trkpt lat="44.23717" lon="6.92417">
        <ele>1745</ele>
        <time>2010-08-15T07:34:39Z</time>
      </trkpt>
      <trkpt lat="44.23716" lon="6.9242">
        <ele>1745</ele>
        <time>2010-08-15T07:34:40Z</time>
      </trkpt>
      <trkpt lat="44.23715" lon="6.92422">
        <ele>1745</ele>
        <time>2010-08-15T07:34:41Z</time>
      </trkpt>
      <trkpt lat="44.23713" lon="6.92424">
        <ele>1746</ele>
        <time>2010-08-15T07:34:42Z</time>
      </trkpt>
      <trkpt lat="44.2371" lon="6.92427">
        <ele>1747</ele>
        <time>2010-08-15T07:34:43Z</time>
      </trkpt>
      <trkpt lat="44.23709" lon="6.9243">
        <ele>1747</ele>
        <time>2010-08-15T07:34:44Z</time>
      </trkpt>
      <trkpt lat="44.23707" lon="6.92432">
        <ele>1748</ele>
        <time>2010-08-15T07:34:45Z</time>
      </trkpt>
      <trkpt lat="44.23705" lon="6.92434">
        <ele>1748</ele>
        <time>2010-08-15T07:34:46Z</time>
      </trkpt>
      <trkpt lat="44.23704" lon="6.92437">
        <ele>1749</ele>
        <time>2010-08-15T07:34:47Z</time>
      </trkpt>
      <trkpt lat="44.23703" lon="6.92441">
        <ele>1749</ele>
        <time>2010-08-15T07:34:48Z</time>
      </trkpt>
      <trkpt lat="44.23702" lon="6.92444">
        <ele>1749</ele>
        <time>2010-08-15T07:34:49Z</time>
      </trkpt>
      <trkpt lat="44.237" lon="6.92446">
        <ele>1749</ele>
        <time>2010-08-15T07:34:50Z</time>
      </trkpt>
      <trkpt lat="44.23699" lon="6.9245">
        <ele>1749</ele>
        <time>2010-08-15T07:34:51Z</time>
      </trkpt>
      <trkpt lat="44.23697" lon="6.92453">
        <ele>1749</ele>
        <time>2010-08-15T07:34:52Z</time>
      </trkpt>
      <trkpt lat="44.23696" lon="6.92456">
        <ele>1750</ele>
        <time>2010-08-15T07:34:53Z</time>
      </trkpt>
      <trkpt lat="44.23695" lon="6.9246">
        <ele>1750</ele>
        <time>2010-08-15T07:34:54Z</time>
      </trkpt>
      <trkpt lat="44.23694" lon="6.92463">
        <ele>1750</ele>
        <time>2010-08-15T07:34:55Z</time>
      </trkpt>
      <trkpt lat="44.23694" lon="6.92467">
        <ele>1750</ele>
        <time>2010-08-15T07:34:56Z</time>
      </trkpt>
      <trkpt lat="44.23692" lon="6.92471">
        <ele>1750</ele>
        <time>2010-08-15T07:34:57Z</time>
      </trkpt>
      <trkpt lat="44.23691" lon="6.92474">
        <ele>1751</ele>
        <time>2010-08-15T07:34:58Z</time>
      </trkpt>
      <trkpt lat="44.2369" lon="6.92478">
        <ele>1751</ele>
        <time>2010-08-15T07:34:59Z</time>
      </trkpt>
      <trkpt lat="44.2369" lon="6.92481">
        <ele>1752</ele>
        <time>2010-08-15T07:35:00Z</time>
      </trkpt>
      <trkpt lat="44.23689" lon="6.92484">
        <ele>1752</ele>
        <time>2010-08-15T07:35:01Z</time>
      </trkpt>
      <trkpt lat="44.23689" lon="6.92488">
        <ele>1753</ele>
        <time>2010-08-15T07:35:02Z</time>
      </trkpt>
      <trkpt lat="44.23688" lon="6.92492">
        <ele>1753</ele>
        <time>2010-08-15T07:35:03Z</time>
      </trkpt>
      <trkpt lat="44.23688" lon="6.92495">
        <ele>1754</ele>
        <time>2010-08-15T07:35:04Z</time>
      </trkpt>
      <trkpt lat="44.23687" lon="6.92498">
        <ele>1754</ele>
        <time>2010-08-15T07:35:05Z</time>
      </trkpt>
      <trkpt lat="44.23686" lon="6.92502">
        <ele>1748</ele>
        <time>2010-08-15T07:35:06Z</time>
      </trkpt>
      <trkpt lat="44.23685" lon="6.92506">
        <ele>1748</ele>
        <time>2010-08-15T07:35:07Z</time>
      </trkpt>
      <trkpt lat="44.23684" lon="6.92509">
        <ele>1748</ele>
        <time>2010-08-15T07:35:08Z</time>
      </trkpt>
      <trkpt lat="44.23683" lon="6.92513">
        <ele>1747</ele>
        <time>2010-08-15T07:35:09Z</time>
      </trkpt>
      <trkpt lat="44.23683" lon="6.92517">
        <ele>1746</ele>
        <time>2010-08-15T07:35:10Z</time>
      </trkpt>
      <trkpt lat="44.23682" lon="6.92521">
        <ele>1745</ele>
        <time>2010-08-15T07:35:11Z</time>
      </trkpt>
      <trkpt lat="44.23681" lon="6.92525">
        <ele>1744</ele>
        <time>2010-08-15T07:35:12Z</time>
      </trkpt>
      <trkpt lat="44.2368" lon="6.92529">
        <ele>1743</ele>
        <time>2010-08-15T07:35:13Z</time>
      </trkpt>
      <trkpt lat="44.2368" lon="6.92533">
        <ele>1742</ele>
        <time>2010-08-15T07:35:14Z</time>
      </trkpt>
      <trkpt lat="44.23679" lon="6.92536">
        <ele>1742</ele>
        <time>2010-08-15T07:35:15Z</time>
      </trkpt>
      <trkpt lat="44.23679" lon="6.9254">
        <ele>1741</ele>
        <time>2010-08-15T07:35:16Z</time>
      </trkpt>
      <trkpt lat="44.2368" lon="6.92544">
        <ele>1740</ele>
        <time>2010-08-15T07:35:17Z</time>
      </trkpt>
      <trkpt lat="44.23681" lon="6.92548">
        <ele>1740</ele>
        <time>2010-08-15T07:35:18Z</time>
      </trkpt>
      <trkpt lat="44.23681" lon="6.92552">
        <ele>1740</ele>
        <time>2010-08-15T07:35:19Z</time>
      </trkpt>
      <trkpt lat="44.23681" lon="6.92555">
        <ele>1740</ele>
        <time>2010-08-15T07:35:20Z</time>
      </trkpt>
      <trkpt lat="44.23681" lon="6.92558">
        <ele>1740</ele>
        <time>2010-08-15T07:35:21Z</time>
      </trkpt>
      <trkpt lat="44.23679" lon="6.92561">
        <ele>1741</ele>
        <time>2010-08-15T07:35:22Z</time>
      </trkpt>
      <trkpt lat="44.23678" lon="6.92564">
        <ele>1742</ele>
        <time>2010-08-15T07:35:23Z</time>
      </trkpt>
      <trkpt lat="44.23677" lon="6.92568">
        <ele>1743</ele>
        <time>2010-08-15T07:35:24Z</time>
      </trkpt>
      <trkpt lat="44.23676" lon="6.92572">
        <ele>1744</ele>
        <time>2010-08-15T07:35:25Z</time>
      </trkpt>
      <trkpt lat="44.23673" lon="6.92574">
        <ele>1746</ele>
        <time>2010-08-15T07:35:26Z</time>
      </trkpt>
      <trkpt lat="44.23672" lon="6.92577">
        <ele>1748</ele>
        <time>2010-08-15T07:35:27Z</time>
      </trkpt>
      <trkpt lat="44.2367" lon="6.92579">
        <ele>1749</ele>
        <time>2010-08-15T07:35:28Z</time>
      </trkpt>
      <trkpt lat="44.23669" lon="6.92581">
        <ele>1751</ele>
        <time>2010-08-15T07:35:29Z</time>
      </trkpt>
      <trkpt lat="44.23668" lon="6.92584">
        <ele>1752</ele>
        <time>2010-08-15T07:35:30Z</time>
      </trkpt>
      <trkpt lat="44.23667" lon="6.92586">
        <ele>1750</ele>
        <time>2010-08-15T07:35:31Z</time>
      </trkpt>
      <trkpt lat="44.23666" lon="6.92588">
        <ele>1756</ele>
        <time>2010-08-15T07:35:32Z</time>
      </trkpt>
      <trkpt lat="44.23665" lon="6.9259">
        <ele>1757</ele>
        <time>2010-08-15T07:35:33Z</time>
      </trkpt>
      <trkpt lat="44.23664" lon="6.92593">
        <ele>1758</ele>
        <time>2010-08-15T07:35:34Z</time>
      </trkpt>
      <trkpt lat="44.23663" lon="6.92596">
        <ele>1758</ele>
        <time>2010-08-15T07:35:35Z</time>
      </trkpt>
      <trkpt lat="44.23662" lon="6.92599">
        <ele>1759</ele>
        <time>2010-08-15T07:35:36Z</time>
      </trkpt>
      <trkpt lat="44.23661" lon="6.92601">
        <ele>1759</ele>
        <time>2010-08-15T07:35:37Z</time>
      </trkpt>
      <trkpt lat="44.23659" lon="6.92604">
        <ele>1760</ele>
        <time>2010-08-15T07:35:38Z</time>
      </trkpt>
      <trkpt lat="44.23657" lon="6.92606">
        <ele>1760</ele>
        <time>2010-08-15T07:35:39Z</time>
      </trkpt>
      <trkpt lat="44.23657" lon="6.92608">
        <ele>1760</ele>
        <time>2010-08-15T07:35:40Z</time>
      </trkpt>
      <trkpt lat="44.23655" lon="6.92611">
        <ele>1760</ele>
        <time>2010-08-15T07:35:41Z</time>
      </trkpt>
      <trkpt lat="44.23654" lon="6.92614">
        <ele>1760</ele>
        <time>2010-08-15T07:35:42Z</time>
      </trkpt>
      <trkpt lat="44.23654" lon="6.92617">
        <ele>1760</ele>
        <time>2010-08-15T07:35:43Z</time>
      </trkpt>
      <trkpt lat="44.23653" lon="6.9262">
        <ele>1760</ele>
        <time>2010-08-15T07:35:44Z</time>
      </trkpt>
      <trkpt lat="44.23652" lon="6.92622">
        <ele>1760</ele>
        <time>2010-08-15T07:35:45Z</time>
      </trkpt>
      <trkpt lat="44.23651" lon="6.92626">
        <ele>1760</ele>
        <time>2010-08-15T07:35:46Z</time>
      </trkpt>
      <trkpt lat="44.2365" lon="6.92629">
        <ele>1759</ele>
        <time>2010-08-15T07:35:47Z</time>
      </trkpt>
      <trkpt lat="44.23649" lon="6.92632">
        <ele>1759</ele>
        <time>2010-08-15T07:35:48Z</time>
      </trkpt>
      <trkpt lat="44.23648" lon="6.92635">
        <ele>1759</ele>
        <time>2010-08-15T07:35:49Z</time>
      </trkpt>
      <trkpt lat="44.23647" lon="6.92638">
        <ele>1758</ele>
        <time>2010-08-15T07:35:50Z</time>
      </trkpt>
      <trkpt lat="44.23646" lon="6.9264">
        <ele>1758</ele>
        <time>2010-08-15T07:35:51Z</time>
      </trkpt>
      <trkpt lat="44.23644" lon="6.92643">
        <ele>1758</ele>
        <time>2010-08-15T07:35:52Z</time>
      </trkpt>
      <trkpt lat="44.23642" lon="6.92645">
        <ele>1758</ele>
        <time>2010-08-15T07:35:53Z</time>
      </trkpt>
      <trkpt lat="44.23641" lon="6.92648">
        <ele>1758</ele>
        <time>2010-08-15T07:35:54Z</time>
      </trkpt>
      <trkpt lat="44.23641" lon="6.92651">
        <ele>1757</ele>
        <time>2010-08-15T07:35:55Z</time>
      </trkpt>
      <trkpt lat="44.2364" lon="6.92653">
        <ele>1758</ele>
        <time>2010-08-15T07:35:56Z</time>
      </trkpt>
      <trkpt lat="44.23638" lon="6.92656">
        <ele>1758</ele>
        <time>2010-08-15T07:35:57Z</time>
      </trkpt>
      <trkpt lat="44.23635" lon="6.92659">
        <ele>1759</ele>
        <time>2010-08-15T07:35:58Z</time>
      </trkpt>
      <trkpt lat="44.23633" lon="6.92661">
        <ele>1760</ele>
        <time>2010-08-15T07:35:59Z</time>
      </trkpt>
      <trkpt lat="44.23632" lon="6.92662">
        <ele>1760</ele>
        <time>2010-08-15T07:36:00Z</time>
      </trkpt>
      <trkpt lat="44.2363" lon="6.92664">
        <ele>1761</ele>
        <time>2010-08-15T07:36:01Z</time>
      </trkpt>
      <trkpt lat="44.23627" lon="6.92667">
        <ele>1749</ele>
        <time>2010-08-15T07:36:02Z</time>
      </trkpt>
      <trkpt lat="44.23625" lon="6.92669">
        <ele>1749</ele>
        <time>2010-08-15T07:36:03Z</time>
      </trkpt>
      <trkpt lat="44.23623" lon="6.92671">
        <ele>1750</ele>
        <time>2010-08-15T07:36:04Z</time>
      </trkpt>
      <trkpt lat="44.23621" lon="6.92673">
        <ele>1750</ele>
        <time>2010-08-15T07:36:05Z</time>
      </trkpt>
      <trkpt lat="44.23619" lon="6.92675">
        <ele>1751</ele>
        <time>2010-08-15T07:36:06Z</time>
      </trkpt>
      <trkpt lat="44.23617" lon="6.92677">
        <ele>1752</ele>
        <time>2010-08-15T07:36:07Z</time>
      </trkpt>
      <trkpt lat="44.23615" lon="6.92679">
        <ele>1752</ele>
        <time>2010-08-15T07:36:08Z</time>
      </trkpt>
      <trkpt lat="44.23613" lon="6.9268">
        <ele>1753</ele>
        <time>2010-08-15T07:36:09Z</time>
      </trkpt>
      <trkpt lat="44.23612" lon="6.92682">
        <ele>1753</ele>
        <time>2010-08-15T07:36:10Z</time>
      </trkpt>
      <trkpt lat="44.2361" lon="6.92684">
        <ele>1753</ele>
        <time>2010-08-15T07:36:11Z</time>
      </trkpt>
      <trkpt lat="44.23607" lon="6.92687">
        <ele>1754</ele>
        <time>2010-08-15T07:36:12Z</time>
      </trkpt>
      <trkpt lat="44.23604" lon="6.92688">
        <ele>1754</ele>
        <time>2010-08-15T07:36:13Z</time>
      </trkpt>
      <trkpt lat="44.23602" lon="6.9269">
        <ele>1755</ele>
        <time>2010-08-15T07:36:14Z</time>
      </trkpt>
      <trkpt lat="44.23601" lon="6.92692">
        <ele>1754</ele>
        <time>2010-08-15T07:36:15Z</time>
      </trkpt>
      <trkpt lat="44.23598" lon="6.92693">
        <ele>1754</ele>
        <time>2010-08-15T07:36:16Z</time>
      </trkpt>
      <trkpt lat="44.23597" lon="6.92694">
        <ele>1755</ele>
        <time>2010-08-15T07:36:17Z</time>
      </trkpt>
      <trkpt lat="44.23595" lon="6.92695">
        <ele>1755</ele>
        <time>2010-08-15T07:36:18Z</time>
      </trkpt>
      <trkpt lat="44.23592" lon="6.92696">
        <ele>1755</ele>
        <time>2010-08-15T07:36:19Z</time>
      </trkpt>
      <trkpt lat="44.2359" lon="6.92696">
        <ele>1755</ele>
        <time>2010-08-15T07:36:20Z</time>
      </trkpt>
      <trkpt lat="44.23587" lon="6.92696">
        <ele>1755</ele>
        <time>2010-08-15T07:36:21Z</time>
      </trkpt>
      <trkpt lat="44.23584" lon="6.92698">
        <ele>1755</ele>
        <time>2010-08-15T07:36:22Z</time>
      </trkpt>
      <trkpt lat="44.23581" lon="6.92699">
        <ele>1769</ele>
        <time>2010-08-15T07:36:23Z</time>
      </trkpt>
      <trkpt lat="44.23579" lon="6.927">
        <ele>1769</ele>
        <time>2010-08-15T07:36:24Z</time>
      </trkpt>
      <trkpt lat="44.23576" lon="6.92702">
        <ele>1768</ele>
        <time>2010-08-15T07:36:25Z</time>
      </trkpt>
      <trkpt lat="44.23574" lon="6.92703">
        <ele>1768</ele>
        <time>2010-08-15T07:36:26Z</time>
      </trkpt>
      <trkpt lat="44.23571" lon="6.92705">
        <ele>1767</ele>
        <time>2010-08-15T07:36:27Z</time>
      </trkpt>
      <trkpt lat="44.23569" lon="6.92707">
        <ele>1767</ele>
        <time>2010-08-15T07:36:28Z</time>
      </trkpt>
      <trkpt lat="44.23566" lon="6.92709">
        <ele>1767</ele>
        <time>2010-08-15T07:36:29Z</time>
      </trkpt>
      <trkpt lat="44.23563" lon="6.9271">
        <ele>1766</ele>
        <time>2010-08-15T07:36:30Z</time>
      </trkpt>
      <trkpt lat="44.23561" lon="6.92711">
        <ele>1766</ele>
        <time>2010-08-15T07:36:31Z</time>
      </trkpt>
      <trkpt lat="44.23558" lon="6.92712">
        <ele>1766</ele>
        <time>2010-08-15T07:36:32Z</time>
      </trkpt>
      <trkpt lat="44.23556" lon="6.92712">
        <ele>1766</ele>
        <time>2010-08-15T07:36:33Z</time>
      </trkpt>
      <trkpt lat="44.23553" lon="6.92713">
        <ele>1766</ele>
        <time>2010-08-15T07:36:34Z</time>
      </trkpt>
      <trkpt lat="44.2355" lon="6.92715">
        <ele>1766</ele>
        <time>2010-08-15T07:36:35Z</time>
      </trkpt>
      <trkpt lat="44.23547" lon="6.92716">
        <ele>1766</ele>
        <time>2010-08-15T07:36:36Z</time>
      </trkpt>
      <trkpt lat="44.23544" lon="6.92718">
        <ele>1766</ele>
        <time>2010-08-15T07:36:37Z</time>
      </trkpt>
      <trkpt lat="44.23541" lon="6.9272">
        <ele>1766</ele>
        <time>2010-08-15T07:36:38Z</time>
      </trkpt>
      <trkpt lat="44.23538" lon="6.92721">
        <ele>1766</ele>
        <time>2010-08-15T07:36:39Z</time>
      </trkpt>
      <trkpt lat="44.23535" lon="6.92721">
        <ele>1766</ele>
        <time>2010-08-15T07:36:40Z</time>
      </trkpt>
      <trkpt lat="44.23533" lon="6.92722">
        <ele>1767</ele>
        <time>2010-08-15T07:36:41Z</time>
      </trkpt>
      <trkpt lat="44.2353" lon="6.92722">
        <ele>1767</ele>
        <time>2010-08-15T07:36:42Z</time>
      </trkpt>
      <trkpt lat="44.23527" lon="6.92723">
        <ele>1767</ele>
        <time>2010-08-15T07:36:43Z</time>
      </trkpt>
      <trkpt lat="44.23525" lon="6.92724">
        <ele>1767</ele>
        <time>2010-08-15T07:36:44Z</time>
      </trkpt>
      <trkpt lat="44.23522" lon="6.92725">
        <ele>1767</ele>
        <time>2010-08-15T07:36:45Z</time>
      </trkpt>
      <trkpt lat="44.23519" lon="6.92725">
        <ele>1766</ele>
        <time>2010-08-15T07:36:46Z</time>
      </trkpt>
      <trkpt lat="44.23517" lon="6.92725">
        <ele>1767</ele>
        <time>2010-08-15T07:36:47Z</time>
      </trkpt>
      <trkpt lat="44.23514" lon="6.92726">
        <ele>1766</ele>
        <time>2010-08-15T07:36:48Z</time>
      </trkpt>
      <trkpt lat="44.23511" lon="6.92726">
        <ele>1766</ele>
        <time>2010-08-15T07:36:49Z</time>
      </trkpt>
      <trkpt lat="44.23508" lon="6.92726">
        <ele>1766</ele>
        <time>2010-08-15T07:36:50Z</time>
      </trkpt>
      <trkpt lat="44.23506" lon="6.92726">
        <ele>1766</ele>
        <time>2010-08-15T07:36:51Z</time>
      </trkpt>
      <trkpt lat="44.23504" lon="6.92726">
        <ele>1766</ele>
        <time>2010-08-15T07:36:52Z</time>
      </trkpt>
      <trkpt lat="44.23501" lon="6.92726">
        <ele>1766</ele>
        <time>2010-08-15T07:36:53Z</time>
      </trkpt>
      <trkpt lat="44.23498" lon="6.92726">
        <ele>1774</ele>
        <time>2010-08-15T07:36:54Z</time>
      </trkpt>
      <trkpt lat="44.23496" lon="6.92726">
        <ele>1774</ele>
        <time>2010-08-15T07:36:55Z</time>
      </trkpt>
      <trkpt lat="44.23494" lon="6.92726">
        <ele>1774</ele>
        <time>2010-08-15T07:36:56Z</time>
      </trkpt>
      <trkpt lat="44.23492" lon="6.92726">
        <ele>1774</ele>
        <time>2010-08-15T07:36:57Z</time>
      </trkpt>
      <trkpt lat="44.23488" lon="6.92727">
        <ele>1774</ele>
        <time>2010-08-15T07:36:58Z</time>
      </trkpt>
      <trkpt lat="44.23485" lon="6.92727">
        <ele>1775</ele>
        <time>2010-08-15T07:36:59Z</time>
      </trkpt>
      <trkpt lat="44.23483" lon="6.92727">
        <ele>1775</ele>
        <time>2010-08-15T07:37:00Z</time>
      </trkpt>
      <trkpt lat="44.2348" lon="6.92728">
        <ele>1775</ele>
        <time>2010-08-15T07:37:01Z</time>
      </trkpt>
      <trkpt lat="44.23477" lon="6.9273">
        <ele>1776</ele>
        <time>2010-08-15T07:37:02Z</time>
      </trkpt>
      <trkpt lat="44.23475" lon="6.9273">
        <ele>1776</ele>
        <time>2010-08-15T07:37:03Z</time>
      </trkpt>
      <trkpt lat="44.23473" lon="6.92731">
        <ele>1776</ele>
        <time>2010-08-15T07:37:04Z</time>
      </trkpt>
      <trkpt lat="44.2347" lon="6.92731">
        <ele>1777</ele>
        <time>2010-08-15T07:37:05Z</time>
      </trkpt>
      <trkpt lat="44.23467" lon="6.92732">
        <ele>1777</ele>
        <time>2010-08-15T07:37:06Z</time>
      </trkpt>
      <trkpt lat="44.23465" lon="6.92733">
        <ele>1777</ele>
        <time>2010-08-15T07:37:07Z</time>
      </trkpt>
      <trkpt lat="44.23462" lon="6.92734">
        <ele>1778</ele>
        <time>2010-08-15T07:37:08Z</time>
      </trkpt>
      <trkpt lat="44.2346" lon="6.92734">
        <ele>1778</ele>
        <time>2010-08-15T07:37:09Z</time>
      </trkpt>
      <trkpt lat="44.23459" lon="6.92735">
        <ele>1778</ele>
        <time>2010-08-15T07:37:10Z</time>
      </trkpt>
      <trkpt lat="44.23457" lon="6.92736">
        <ele>1778</ele>
        <time>2010-08-15T07:37:11Z</time>
      </trkpt>
      <trkpt lat="44.23455" lon="6.92737">
        <ele>1779</ele>
        <time>2010-08-15T07:37:12Z</time>
      </trkpt>
      <trkpt lat="44.23452" lon="6.92738">
        <ele>1779</ele>
        <time>2010-08-15T07:37:13Z</time>
      </trkpt>
      <trkpt lat="44.2345" lon="6.92739">
        <ele>1779</ele>
        <time>2010-08-15T07:37:14Z</time>
      </trkpt>
      <trkpt lat="44.23448" lon="6.92741">
        <ele>1779</ele>
        <time>2010-08-15T07:37:15Z</time>
      </trkpt>
      <trkpt lat="44.23446" lon="6.92742">
        <ele>1779</ele>
        <time>2010-08-15T07:37:16Z</time>
      </trkpt>
      <trkpt lat="44.23444" lon="6.92743">
        <ele>1780</ele>
        <time>2010-08-15T07:37:17Z</time>
      </trkpt>
      <trkpt lat="44.23443" lon="6.92743">
        <ele>1780</ele>
        <time>2010-08-15T07:37:18Z</time>
      </trkpt>
      <trkpt lat="44.23441" lon="6.92744">
        <ele>1780</ele>
        <time>2010-08-15T07:37:19Z</time>
      </trkpt>
      <trkpt lat="44.2344" lon="6.92745">
        <ele>1780</ele>
        <time>2010-08-15T07:37:20Z</time>
      </trkpt>
      <trkpt lat="44.23438" lon="6.92746">
        <ele>1780</ele>
        <time>2010-08-15T07:37:21Z</time>
      </trkpt>
      <trkpt lat="44.23436" lon="6.92747">
        <ele>1780</ele>
        <time>2010-08-15T07:37:22Z</time>
      </trkpt>
      <trkpt lat="44.23435" lon="6.92748">
        <ele>1780</ele>
        <time>2010-08-15T07:37:23Z</time>
      </trkpt>
      <trkpt lat="44.23433" lon="6.9275">
        <ele>1780</ele>
        <time>2010-08-15T07:37:24Z</time>
      </trkpt>
      <trkpt lat="44.23431" lon="6.92751">
        <ele>1770</ele>
        <time>2010-08-15T07:37:25Z</time>
      </trkpt>
      <trkpt lat="44.2343" lon="6.92752">
        <ele>1770</ele>
        <time>2010-08-15T07:37:26Z</time>
      </trkpt>
      <trkpt lat="44.23428" lon="6.92753">
        <ele>1771</ele>
        <time>2010-08-15T07:37:27Z</time>
      </trkpt>
      <trkpt lat="44.23426" lon="6.92754">
        <ele>1772</ele>
        <time>2010-08-15T07:37:28Z</time>
      </trkpt>
      <trkpt lat="44.23423" lon="6.92756">
        <ele>1773</ele>
        <time>2010-08-15T07:37:29Z</time>
      </trkpt>
      <trkpt lat="44.23421" lon="6.92757">
        <ele>1774</ele>
        <time>2010-08-15T07:37:30Z</time>
      </trkpt>
      <trkpt lat="44.23419" lon="6.92758">
        <ele>1774</ele>
        <time>2010-08-15T07:37:31Z</time>
      </trkpt>
      <trkpt lat="44.23416" lon="6.9276">
        <ele>1778</ele>
        <time>2010-08-15T07:37:32Z</time>
      </trkpt>
      <trkpt lat="44.23414" lon="6.92762">
        <ele>1778</ele>
        <time>2010-08-15T07:37:33Z</time>
      </trkpt>
      <trkpt lat="44.23412" lon="6.92764">
        <ele>1777</ele>
        <time>2010-08-15T07:37:34Z</time>
      </trkpt>
      <trkpt lat="44.23409" lon="6.92766">
        <ele>1776</ele>
        <time>2010-08-15T07:37:35Z</time>
      </trkpt>
      <trkpt lat="44.23406" lon="6.92768">
        <ele>1776</ele>
        <time>2010-08-15T07:37:36Z</time>
      </trkpt>
      <trkpt lat="44.23405" lon="6.92769">
        <ele>1776</ele>
        <time>2010-08-15T07:37:37Z</time>
      </trkpt>
      <trkpt lat="44.23403" lon="6.9277">
        <ele>1775</ele>
        <time>2010-08-15T07:37:38Z</time>
      </trkpt>
      <trkpt lat="44.23401" lon="6.92771">
        <ele>1775</ele>
        <time>2010-08-15T07:37:39Z</time>
      </trkpt>
      <trkpt lat="44.23399" lon="6.92773">
        <ele>1775</ele>
        <time>2010-08-15T07:37:40Z</time>
      </trkpt>
      <trkpt lat="44.23396" lon="6.92775">
        <ele>1775</ele>
        <time>2010-08-15T07:37:41Z</time>
      </trkpt>
      <trkpt lat="44.23394" lon="6.92776">
        <ele>1774</ele>
        <time>2010-08-15T07:37:42Z</time>
      </trkpt>
      <trkpt lat="44.23392" lon="6.92778">
        <ele>1774</ele>
        <time>2010-08-15T07:37:43Z</time>
      </trkpt>
      <trkpt lat="44.23391" lon="6.9278">
        <ele>1774</ele>
        <time>2010-08-15T07:37:44Z</time>
      </trkpt>
      <trkpt lat="44.23389" lon="6.92781">
        <ele>1774</ele>
        <time>2010-08-15T07:37:45Z</time>
      </trkpt>
      <trkpt lat="44.23387" lon="6.92783">
        <ele>1774</ele>
        <time>2010-08-15T07:37:46Z</time>
      </trkpt>
      <trkpt lat="44.23384" lon="6.92785">
        <ele>1773</ele>
        <time>2010-08-15T07:37:47Z</time>
      </trkpt>
      <trkpt lat="44.23382" lon="6.92788">
        <ele>1773</ele>
        <time>2010-08-15T07:37:48Z</time>
      </trkpt>
      <trkpt lat="44.23379" lon="6.9279">
        <ele>1773</ele>
        <time>2010-08-15T07:37:49Z</time>
      </trkpt>
      <trkpt lat="44.23377" lon="6.92791">
        <ele>1773</ele>
        <time>2010-08-15T07:37:50Z</time>
      </trkpt>
      <trkpt lat="44.23375" lon="6.92792">
        <ele>1773</ele>
        <time>2010-08-15T07:37:51Z</time>
      </trkpt>
      <trkpt lat="44.23373" lon="6.92793">
        <ele>1773</ele>
        <time>2010-08-15T07:37:52Z</time>
      </trkpt>
      <trkpt lat="44.2337" lon="6.92796">
        <ele>1773</ele>
        <time>2010-08-15T07:37:53Z</time>
      </trkpt>
      <trkpt lat="44.23368" lon="6.92797">
        <ele>1773</ele>
        <time>2010-08-15T07:37:54Z</time>
      </trkpt>
      <trkpt lat="44.23366" lon="6.92799">
        <ele>1773</ele>
        <time>2010-08-15T07:37:55Z</time>
      </trkpt>
      <trkpt lat="44.23364" lon="6.92801">
        <ele>1773</ele>
        <time>2010-08-15T07:37:56Z</time>
      </trkpt>
      <trkpt lat="44.23362" lon="6.92802">
        <ele>1773</ele>
        <time>2010-08-15T07:37:57Z</time>
      </trkpt>
      <trkpt lat="44.23359" lon="6.92804">
        <ele>1773</ele>
        <time>2010-08-15T07:37:58Z</time>
      </trkpt>
      <trkpt lat="44.23357" lon="6.92807">
        <ele>1773</ele>
        <time>2010-08-15T07:37:59Z</time>
      </trkpt>
      <trkpt lat="44.23355" lon="6.92808">
        <ele>1773</ele>
        <time>2010-08-15T07:38:00Z</time>
      </trkpt>
      <trkpt lat="44.23354" lon="6.9281">
        <ele>1773</ele>
        <time>2010-08-15T07:38:01Z</time>
      </trkpt>
      <trkpt lat="44.23352" lon="6.92812">
        <ele>1774</ele>
        <time>2010-08-15T07:38:02Z</time>
      </trkpt>
      <trkpt lat="44.2335" lon="6.92813">
        <ele>1774</ele>
        <time>2010-08-15T07:38:03Z</time>
      </trkpt>
      <trkpt lat="44.23348" lon="6.92814">
        <ele>1774</ele>
        <time>2010-08-15T07:38:04Z</time>
      </trkpt>
      <trkpt lat="44.23347" lon="6.92815">
        <ele>1774</ele>
        <time>2010-08-15T07:38:05Z</time>
      </trkpt>
      <trkpt lat="44.23345" lon="6.92817">
        <ele>1774</ele>
        <time>2010-08-15T07:38:06Z</time>
      </trkpt>
      <trkpt lat="44.23343" lon="6.92818">
        <ele>1774</ele>
        <time>2010-08-15T07:38:07Z</time>
      </trkpt>
      <trkpt lat="44.2334" lon="6.9282">
        <ele>1774</ele>
        <time>2010-08-15T07:38:08Z</time>
      </trkpt>
      <trkpt lat="44.23337" lon="6.92822">
        <ele>1774</ele>
        <time>2010-08-15T07:38:09Z</time>
      </trkpt>
      <trkpt lat="44.23335" lon="6.92824">
        <ele>1774</ele>
        <time>2010-08-15T07:38:10Z</time>
      </trkpt>
      <trkpt lat="44.23332" lon="6.92826">
        <ele>1775</ele>
        <time>2010-08-15T07:38:11Z</time>
      </trkpt>
      <trkpt lat="44.2333" lon="6.92828">
        <ele>1775</ele>
        <time>2010-08-15T07:38:12Z</time>
      </trkpt>
      <trkpt lat="44.23327" lon="6.92829">
        <ele>1775</ele>
        <time>2010-08-15T07:38:13Z</time>
      </trkpt>
      <trkpt lat="44.23325" lon="6.9283">
        <ele>1775</ele>
        <time>2010-08-15T07:38:14Z</time>
      </trkpt>
      <trkpt lat="44.23322" lon="6.92831">
        <ele>1775</ele>
        <time>2010-08-15T07:38:15Z</time>
      </trkpt>
      <trkpt lat="44.2332" lon="6.92832">
        <ele>1774</ele>
        <time>2010-08-15T07:38:16Z</time>
      </trkpt>
      <trkpt lat="44.23318" lon="6.92832">
        <ele>1774</ele>
        <time>2010-08-15T07:38:17Z</time>
      </trkpt>
      <trkpt lat="44.23315" lon="6.92833">
        <ele>1774</ele>
        <time>2010-08-15T07:38:18Z</time>
      </trkpt>
      <trkpt lat="44.23312" lon="6.92834">
        <ele>1767</ele>
        <time>2010-08-15T07:38:19Z</time>
      </trkpt>
      <trkpt lat="44.23309" lon="6.92835">
        <ele>1766</ele>
        <time>2010-08-15T07:38:20Z</time>
      </trkpt>
      <trkpt lat="44.23304" lon="6.92837">
        <ele>1766</ele>
        <time>2010-08-15T07:38:21Z</time>
      </trkpt>
      <trkpt lat="44.23301" lon="6.92836">
        <ele>1765</ele>
        <time>2010-08-15T07:38:22Z</time>
      </trkpt>
      <trkpt lat="44.23298" lon="6.92836">
        <ele>1765</ele>
        <time>2010-08-15T07:38:23Z</time>
      </trkpt>
      <trkpt lat="44.23295" lon="6.92836">
        <ele>1765</ele>
        <time>2010-08-15T07:38:24Z</time>
      </trkpt>
      <trkpt lat="44.23292" lon="6.92835">
        <ele>1764</ele>
        <time>2010-08-15T07:38:25Z</time>
      </trkpt>
      <trkpt lat="44.2329" lon="6.92834">
        <ele>1764</ele>
        <time>2010-08-15T07:38:26Z</time>
      </trkpt>
      <trkpt lat="44.23288" lon="6.92831">
        <ele>1772</ele>
        <time>2010-08-15T07:38:27Z</time>
      </trkpt>
      <trkpt lat="44.23286" lon="6.92828">
        <ele>1772</ele>
        <time>2010-08-15T07:38:28Z</time>
      </trkpt>
      <trkpt lat="44.23285" lon="6.92825">
        <ele>1772</ele>
        <time>2010-08-15T07:38:29Z</time>
      </trkpt>
      <trkpt lat="44.23284" lon="6.92821">
        <ele>1772</ele>
        <time>2010-08-15T07:38:30Z</time>
      </trkpt>
      <trkpt lat="44.23283" lon="6.92818">
        <ele>1772</ele>
        <time>2010-08-15T07:38:31Z</time>
      </trkpt>
      <trkpt lat="44.23283" lon="6.92815">
        <ele>1772</ele>
        <time>2010-08-15T07:38:32Z</time>
      </trkpt>
      <trkpt lat="44.23283" lon="6.92813">
        <ele>1772</ele>
        <time>2010-08-15T07:38:33Z</time>
      </trkpt>
      <trkpt lat="44.23283" lon="6.92812">
        <ele>1772</ele>
        <time>2010-08-15T07:38:34Z</time>
      </trkpt>
      <trkpt lat="44.23283" lon="6.92811">
        <ele>1772</ele>
        <time>2010-08-15T07:38:35Z</time>
      </trkpt>
      <trkpt lat="44.23284" lon="6.9281">
        <ele>1773</ele>
        <time>2010-08-15T07:38:36Z</time>
      </trkpt>
      <trkpt lat="44.23285" lon="6.92807">
        <ele>1773</ele>
        <time>2010-08-15T07:38:37Z</time>
      </trkpt>
      <trkpt lat="44.23286" lon="6.92806">
        <ele>1773</ele>
        <time>2010-08-15T07:38:38Z</time>
      </trkpt>
      <trkpt lat="44.23288" lon="6.92805">
        <ele>1773</ele>
        <time>2010-08-15T07:38:39Z</time>
      </trkpt>
      <trkpt lat="44.23289" lon="6.92803">
        <ele>1773</ele>
        <time>2010-08-15T07:38:40Z</time>
      </trkpt>
      <trkpt lat="44.2329" lon="6.92801">
        <ele>1773</ele>
        <time>2010-08-15T07:38:41Z</time>
      </trkpt>
      <trkpt lat="44.23291" lon="6.928">
        <ele>1773</ele>
        <time>2010-08-15T07:38:42Z</time>
      </trkpt>
      <trkpt lat="44.23292" lon="6.92797">
        <ele>1774</ele>
        <time>2010-08-15T07:38:43Z</time>
      </trkpt>
      <trkpt lat="44.23293" lon="6.92794">
        <ele>1774</ele>
        <time>2010-08-15T07:38:44Z</time>
      </trkpt>
      <trkpt lat="44.23294" lon="6.92792">
        <ele>1774</ele>
        <time>2010-08-15T07:38:45Z</time>
      </trkpt>
      <trkpt lat="44.23295" lon="6.9279">
        <ele>1774</ele>
        <time>2010-08-15T07:38:46Z</time>
      </trkpt>
      <trkpt lat="44.23297" lon="6.92787">
        <ele>1774</ele>
        <time>2010-08-15T07:38:47Z</time>
      </trkpt>
      <trkpt lat="44.23298" lon="6.92785">
        <ele>1775</ele>
        <time>2010-08-15T07:38:48Z</time>
      </trkpt>
      <trkpt lat="44.233" lon="6.92782">
        <ele>1775</ele>
        <time>2010-08-15T07:38:49Z</time>
      </trkpt>
      <trkpt lat="44.23302" lon="6.92779">
        <ele>1775</ele>
        <time>2010-08-15T07:38:50Z</time>
      </trkpt>
      <trkpt lat="44.23304" lon="6.92776">
        <ele>1775</ele>
        <time>2010-08-15T07:38:51Z</time>
      </trkpt>
      <trkpt lat="44.23306" lon="6.92774">
        <ele>1776</ele>
        <time>2010-08-15T07:38:52Z</time>
      </trkpt>
      <trkpt lat="44.23307" lon="6.92771">
        <ele>1776</ele>
        <time>2010-08-15T07:38:53Z</time>
      </trkpt>
      <trkpt lat="44.23309" lon="6.92768">
        <ele>1777</ele>
        <time>2010-08-15T07:38:54Z</time>
      </trkpt>
      <trkpt lat="44.23311" lon="6.92764">
        <ele>1777</ele>
        <time>2010-08-15T07:38:55Z</time>
      </trkpt>
      <trkpt lat="44.23312" lon="6.92761">
        <ele>1778</ele>
        <time>2010-08-15T07:38:56Z</time>
      </trkpt>
      <trkpt lat="44.23314" lon="6.92758">
        <ele>1778</ele>
        <time>2010-08-15T07:38:57Z</time>
      </trkpt>
      <trkpt lat="44.23316" lon="6.92754">
        <ele>1779</ele>
        <time>2010-08-15T07:38:58Z</time>
      </trkpt>
      <trkpt lat="44.23317" lon="6.92753">
        <ele>1779</ele>
        <time>2010-08-15T07:38:59Z</time>
      </trkpt>
      <trkpt lat="44.23319" lon="6.92751">
        <ele>1779</ele>
        <time>2010-08-15T07:39:00Z</time>
      </trkpt>
      <trkpt lat="44.2332" lon="6.92748">
        <ele>1781</ele>
        <time>2010-08-15T07:39:01Z</time>
      </trkpt>
      <trkpt lat="44.23321" lon="6.92747">
        <ele>1782</ele>
        <time>2010-08-15T07:39:02Z</time>
      </trkpt>
      <trkpt lat="44.23322" lon="6.92746">
        <ele>1782</ele>
        <time>2010-08-15T07:39:03Z</time>
      </trkpt>
      <trkpt lat="44.23324" lon="6.92745">
        <ele>1782</ele>
        <time>2010-08-15T07:39:04Z</time>
      </trkpt>
      <trkpt lat="44.23326" lon="6.92744">
        <ele>1782</ele>
        <time>2010-08-15T07:39:05Z</time>
      </trkpt>
      <trkpt lat="44.23328" lon="6.92742">
        <ele>1782</ele>
        <time>2010-08-15T07:39:06Z</time>
      </trkpt>
      <trkpt lat="44.2333" lon="6.92741">
        <ele>1782</ele>
        <time>2010-08-15T07:39:07Z</time>
      </trkpt>
      <trkpt lat="44.23332" lon="6.92739">
        <ele>1782</ele>
        <time>2010-08-15T07:39:08Z</time>
      </trkpt>
      <trkpt lat="44.23334" lon="6.92736">
        <ele>1785</ele>
        <time>2010-08-15T07:39:09Z</time>
      </trkpt>
      <trkpt lat="44.23336" lon="6.92734">
        <ele>1785</ele>
        <time>2010-08-15T07:39:10Z</time>
      </trkpt>
      <trkpt lat="44.23339" lon="6.92732">
        <ele>1786</ele>
        <time>2010-08-15T07:39:11Z</time>
      </trkpt>
      <trkpt lat="44.2334" lon="6.9273">
        <ele>1786</ele>
        <time>2010-08-15T07:39:12Z</time>
      </trkpt>
      <trkpt lat="44.23342" lon="6.92728">
        <ele>1786</ele>
        <time>2010-08-15T07:39:13Z</time>
      </trkpt>
      <trkpt lat="44.23344" lon="6.92726">
        <ele>1786</ele>
        <time>2010-08-15T07:39:14Z</time>
      </trkpt>
      <trkpt lat="44.23346" lon="6.92725">
        <ele>1786</ele>
        <time>2010-08-15T07:39:15Z</time>
      </trkpt>
      <trkpt lat="44.23348" lon="6.92724">
        <ele>1786</ele>
        <time>2010-08-15T07:39:16Z</time>
      </trkpt>
      <trkpt lat="44.23349" lon="6.92722">
        <ele>1786</ele>
        <time>2010-08-15T07:39:17Z</time>
      </trkpt>
      <trkpt lat="44.23351" lon="6.92719">
        <ele>1786</ele>
        <time>2010-08-15T07:39:18Z</time>
      </trkpt>
      <trkpt lat="44.23352" lon="6.92717">
        <ele>1787</ele>
        <time>2010-08-15T07:39:19Z</time>
      </trkpt>
      <trkpt lat="44.23353" lon="6.92715">
        <ele>1787</ele>
        <time>2010-08-15T07:39:20Z</time>
      </trkpt>
      <trkpt lat="44.23355" lon="6.92713">
        <ele>1787</ele>
        <time>2010-08-15T07:39:21Z</time>
      </trkpt>
      <trkpt lat="44.23357" lon="6.92712">
        <ele>1787</ele>
        <time>2010-08-15T07:39:22Z</time>
      </trkpt>
      <trkpt lat="44.23358" lon="6.9271">
        <ele>1787</ele>
        <time>2010-08-15T07:39:23Z</time>
      </trkpt>
      <trkpt lat="44.23359" lon="6.92708">
        <ele>1787</ele>
        <time>2010-08-15T07:39:24Z</time>
      </trkpt>
      <trkpt lat="44.23361" lon="6.92707">
        <ele>1787</ele>
        <time>2010-08-15T07:39:25Z</time>
      </trkpt>
      <trkpt lat="44.23362" lon="6.92705">
        <ele>1787</ele>
        <time>2010-08-15T07:39:26Z</time>
      </trkpt>
      <trkpt lat="44.23364" lon="6.92704">
        <ele>1787</ele>
        <time>2010-08-15T07:39:27Z</time>
      </trkpt>
      <trkpt lat="44.23365" lon="6.92702">
        <ele>1787</ele>
        <time>2010-08-15T07:39:28Z</time>
      </trkpt>
      <trkpt lat="44.23367" lon="6.927">
        <ele>1788</ele>
        <time>2010-08-15T07:39:29Z</time>
      </trkpt>
      <trkpt lat="44.23369" lon="6.92699">
        <ele>1788</ele>
        <time>2010-08-15T07:39:30Z</time>
      </trkpt>
      <trkpt lat="44.23371" lon="6.92696">
        <ele>1788</ele>
        <time>2010-08-15T07:39:31Z</time>
      </trkpt>
      <trkpt lat="44.23372" lon="6.92694">
        <ele>1788</ele>
        <time>2010-08-15T07:39:32Z</time>
      </trkpt>
      <trkpt lat="44.23373" lon="6.92692">
        <ele>1788</ele>
        <time>2010-08-15T07:39:33Z</time>
      </trkpt>
      <trkpt lat="44.23375" lon="6.9269">
        <ele>1788</ele>
        <time>2010-08-15T07:39:34Z</time>
      </trkpt>
      <trkpt lat="44.23376" lon="6.92688">
        <ele>1788</ele>
        <time>2010-08-15T07:39:35Z</time>
      </trkpt>
      <trkpt lat="44.23377" lon="6.92686">
        <ele>1789</ele>
        <time>2010-08-15T07:39:36Z</time>
      </trkpt>
      <trkpt lat="44.23379" lon="6.92685">
        <ele>1789</ele>
        <time>2010-08-15T07:39:37Z</time>
      </trkpt>
      <trkpt lat="44.23381" lon="6.92683">
        <ele>1789</ele>
        <time>2010-08-15T07:39:38Z</time>
      </trkpt>
      <trkpt lat="44.23383" lon="6.92681">
        <ele>1789</ele>
        <time>2010-08-15T07:39:39Z</time>
      </trkpt>
      <trkpt lat="44.23383" lon="6.92678">
        <ele>1789</ele>
        <time>2010-08-15T07:39:40Z</time>
      </trkpt>
      <trkpt lat="44.23385" lon="6.92675">
        <ele>1790</ele>
        <time>2010-08-15T07:39:41Z</time>
      </trkpt>
      <trkpt lat="44.23386" lon="6.92673">
        <ele>1790</ele>
        <time>2010-08-15T07:39:42Z</time>
      </trkpt>
      <trkpt lat="44.23388" lon="6.9267">
        <ele>1790</ele>
        <time>2010-08-15T07:39:43Z</time>
      </trkpt>
      <trkpt lat="44.2339" lon="6.92668">
        <ele>1790</ele>
        <time>2010-08-15T07:39:44Z</time>
      </trkpt>
      <trkpt lat="44.23392" lon="6.92666">
        <ele>1793</ele>
        <time>2010-08-15T07:39:45Z</time>
      </trkpt>
      <trkpt lat="44.23393" lon="6.92664">
        <ele>1793</ele>
        <time>2010-08-15T07:39:46Z</time>
      </trkpt>
      <trkpt lat="44.23395" lon="6.92662">
        <ele>1794</ele>
        <time>2010-08-15T07:39:47Z</time>
      </trkpt>
      <trkpt lat="44.23397" lon="6.92659">
        <ele>1794</ele>
        <time>2010-08-15T07:39:48Z</time>
      </trkpt>
      <trkpt lat="44.23399" lon="6.92658">
        <ele>1794</ele>
        <time>2010-08-15T07:39:49Z</time>
      </trkpt>
      <trkpt lat="44.23401" lon="6.92657">
        <ele>1794</ele>
        <time>2010-08-15T07:39:50Z</time>
      </trkpt>
      <trkpt lat="44.23402" lon="6.92655">
        <ele>1794</ele>
        <time>2010-08-15T07:39:51Z</time>
      </trkpt>
      <trkpt lat="44.23404" lon="6.92654">
        <ele>1794</ele>
        <time>2010-08-15T07:39:52Z</time>
      </trkpt>
      <trkpt lat="44.23405" lon="6.92652">
        <ele>1794</ele>
        <time>2010-08-15T07:39:53Z</time>
      </trkpt>
      <trkpt lat="44.23407" lon="6.9265">
        <ele>1794</ele>
        <time>2010-08-15T07:39:54Z</time>
      </trkpt>
      <trkpt lat="44.23408" lon="6.92648">
        <ele>1794</ele>
        <time>2010-08-15T07:39:55Z</time>
      </trkpt>
      <trkpt lat="44.2341" lon="6.92647">
        <ele>1794</ele>
        <time>2010-08-15T07:39:56Z</time>
      </trkpt>
      <trkpt lat="44.23411" lon="6.92645">
        <ele>1794</ele>
        <time>2010-08-15T07:39:57Z</time>
      </trkpt>
      <trkpt lat="44.23413" lon="6.92644">
        <ele>1794</ele>
        <time>2010-08-15T07:39:58Z</time>
      </trkpt>
      <trkpt lat="44.23414" lon="6.92642">
        <ele>1794</ele>
        <time>2010-08-15T07:39:59Z</time>
      </trkpt>
      <trkpt lat="44.23416" lon="6.9264">
        <ele>1794</ele>
        <time>2010-08-15T07:40:00Z</time>
      </trkpt>
      <trkpt lat="44.23417" lon="6.92638">
        <ele>1795</ele>
        <time>2010-08-15T07:40:01Z</time>
      </trkpt>
      <trkpt lat="44.23418" lon="6.92637">
        <ele>1795</ele>
        <time>2010-08-15T07:40:02Z</time>
      </trkpt>
      <trkpt lat="44.23419" lon="6.92635">
        <ele>1795</ele>
        <time>2010-08-15T07:40:03Z</time>
      </trkpt>
      <trkpt lat="44.23421" lon="6.92633">
        <ele>1795</ele>
        <time>2010-08-15T07:40:04Z</time>
      </trkpt>
      <trkpt lat="44.23421" lon="6.92631">
        <ele>1795</ele>
        <time>2010-08-15T07:40:05Z</time>
      </trkpt>
      <trkpt lat="44.23423" lon="6.92629">
        <ele>1795</ele>
        <time>2010-08-15T07:40:06Z</time>
      </trkpt>
      <trkpt lat="44.23424" lon="6.92627">
        <ele>1795</ele>
        <time>2010-08-15T07:40:07Z</time>
      </trkpt>
      <trkpt lat="44.23426" lon="6.92624">
        <ele>1796</ele>
        <time>2010-08-15T07:40:08Z</time>
      </trkpt>
      <trkpt lat="44.23428" lon="6.92622">
        <ele>1796</ele>
        <time>2010-08-15T07:40:09Z</time>
      </trkpt>
      <trkpt lat="44.2343" lon="6.92621">
        <ele>1796</ele>
        <time>2010-08-15T07:40:10Z</time>
      </trkpt>
      <trkpt lat="44.23431" lon="6.92619">
        <ele>1796</ele>
        <time>2010-08-15T07:40:11Z</time>
      </trkpt>
      <trkpt lat="44.23434" lon="6.92618">
        <ele>1796</ele>
        <time>2010-08-15T07:40:12Z</time>
      </trkpt>
      <trkpt lat="44.23436" lon="6.92618">
        <ele>1796</ele>
        <time>2010-08-15T07:40:13Z</time>
      </trkpt>
      <trkpt lat="44.23439" lon="6.92616">
        <ele>1796</ele>
        <time>2010-08-15T07:40:14Z</time>
      </trkpt>
      <trkpt lat="44.2344" lon="6.92615">
        <ele>1796</ele>
        <time>2010-08-15T07:40:15Z</time>
      </trkpt>
      <trkpt lat="44.23442" lon="6.92613">
        <ele>1796</ele>
        <time>2010-08-15T07:40:16Z</time>
      </trkpt>
      <trkpt lat="44.23444" lon="6.9261">
        <ele>1796</ele>
        <time>2010-08-15T07:40:17Z</time>
      </trkpt>
      <trkpt lat="44.23446" lon="6.92609">
        <ele>1796</ele>
        <time>2010-08-15T07:40:18Z</time>
      </trkpt>
      <trkpt lat="44.23448" lon="6.92607">
        <ele>1796</ele>
        <time>2010-08-15T07:40:19Z</time>
      </trkpt>
      <trkpt lat="44.2345" lon="6.92605">
        <ele>1796</ele>
        <time>2010-08-15T07:40:20Z</time>
      </trkpt>
      <trkpt lat="44.23452" lon="6.92604">
        <ele>1796</ele>
        <time>2010-08-15T07:40:21Z</time>
      </trkpt>
      <trkpt lat="44.23454" lon="6.92602">
        <ele>1796</ele>
        <time>2010-08-15T07:40:22Z</time>
      </trkpt>
      <trkpt lat="44.23456" lon="6.92601">
        <ele>1796</ele>
        <time>2010-08-15T07:40:23Z</time>
      </trkpt>
      <trkpt lat="44.23458" lon="6.926">
        <ele>1796</ele>
        <time>2010-08-15T07:40:24Z</time>
      </trkpt>
      <trkpt lat="44.2346" lon="6.926">
        <ele>1796</ele>
        <time>2010-08-15T07:40:25Z</time>
      </trkpt>
      <trkpt lat="44.23462" lon="6.92599">
        <ele>1796</ele>
        <time>2010-08-15T07:40:26Z</time>
      </trkpt>
      <trkpt lat="44.23464" lon="6.92597">
        <ele>1797</ele>
        <time>2010-08-15T07:40:27Z</time>
      </trkpt>
      <trkpt lat="44.23466" lon="6.92595">
        <ele>1797</ele>
        <time>2010-08-15T07:40:28Z</time>
      </trkpt>
      <trkpt lat="44.23467" lon="6.92592">
        <ele>1797</ele>
        <time>2010-08-15T07:40:29Z</time>
      </trkpt>
      <trkpt lat="44.23469" lon="6.92589">
        <ele>1797</ele>
        <time>2010-08-15T07:40:30Z</time>
      </trkpt>
      <trkpt lat="44.23471" lon="6.92587">
        <ele>1797</ele>
        <time>2010-08-15T07:40:31Z</time>
      </trkpt>
      <trkpt lat="44.23473" lon="6.92584">
        <ele>1798</ele>
        <time>2010-08-15T07:40:32Z</time>
      </trkpt>
      <trkpt lat="44.23475" lon="6.92581">
        <ele>1801</ele>
        <time>2010-08-15T07:40:33Z</time>
      </trkpt>
      <trkpt lat="44.23477" lon="6.92578">
        <ele>1802</ele>
        <time>2010-08-15T07:40:34Z</time>
      </trkpt>
      <trkpt lat="44.23478" lon="6.92575">
        <ele>1802</ele>
        <time>2010-08-15T07:40:35Z</time>
      </trkpt>
      <trkpt lat="44.2348" lon="6.92572">
        <ele>1802</ele>
        <time>2010-08-15T07:40:36Z</time>
      </trkpt>
      <trkpt lat="44.23481" lon="6.92568">
        <ele>1802</ele>
        <time>2010-08-15T07:40:37Z</time>
      </trkpt>
      <trkpt lat="44.23483" lon="6.92565">
        <ele>1802</ele>
        <time>2010-08-15T07:40:38Z</time>
      </trkpt>
      <trkpt lat="44.23484" lon="6.92562">
        <ele>1802</ele>
        <time>2010-08-15T07:40:39Z</time>
      </trkpt>
      <trkpt lat="44.23486" lon="6.92559">
        <ele>1802</ele>
        <time>2010-08-15T07:40:40Z</time>
      </trkpt>
      <trkpt lat="44.23487" lon="6.92557">
        <ele>1802</ele>
        <time>2010-08-15T07:40:41Z</time>
      </trkpt>
      <trkpt lat="44.23488" lon="6.92554">
        <ele>1802</ele>
        <time>2010-08-15T07:40:42Z</time>
      </trkpt>
      <trkpt lat="44.23489" lon="6.92551">
        <ele>1803</ele>
        <time>2010-08-15T07:40:43Z</time>
      </trkpt>
      <trkpt lat="44.2349" lon="6.92548">
        <ele>1803</ele>
        <time>2010-08-15T07:40:44Z</time>
      </trkpt>
      <trkpt lat="44.23492" lon="6.92546">
        <ele>1803</ele>
        <time>2010-08-15T07:40:45Z</time>
      </trkpt>
      <trkpt lat="44.23492" lon="6.92543">
        <ele>1803</ele>
        <time>2010-08-15T07:40:46Z</time>
      </trkpt>
      <trkpt lat="44.23493" lon="6.9254">
        <ele>1803</ele>
        <time>2010-08-15T07:40:47Z</time>
      </trkpt>
      <trkpt lat="44.23493" lon="6.92537">
        <ele>1804</ele>
        <time>2010-08-15T07:40:48Z</time>
      </trkpt>
      <trkpt lat="44.23494" lon="6.92535">
        <ele>1804</ele>
        <time>2010-08-15T07:40:49Z</time>
      </trkpt>
      <trkpt lat="44.23495" lon="6.92532">
        <ele>1804</ele>
        <time>2010-08-15T07:40:50Z</time>
      </trkpt>
      <trkpt lat="44.23496" lon="6.92529">
        <ele>1805</ele>
        <time>2010-08-15T07:40:51Z</time>
      </trkpt>
      <trkpt lat="44.23496" lon="6.92526">
        <ele>1805</ele>
        <time>2010-08-15T07:40:52Z</time>
      </trkpt>
      <trkpt lat="44.23496" lon="6.92523">
        <ele>1805</ele>
        <time>2010-08-15T07:40:53Z</time>
      </trkpt>
      <trkpt lat="44.23496" lon="6.92519">
        <ele>1806</ele>
        <time>2010-08-15T07:40:54Z</time>
      </trkpt>
      <trkpt lat="44.23496" lon="6.92516">
        <ele>1806</ele>
        <time>2010-08-15T07:40:55Z</time>
      </trkpt>
      <trkpt lat="44.23496" lon="6.92512">
        <ele>1807</ele>
        <time>2010-08-15T07:40:56Z</time>
      </trkpt>
      <trkpt lat="44.23496" lon="6.92508">
        <ele>1808</ele>
        <time>2010-08-15T07:40:57Z</time>
      </trkpt>
      <trkpt lat="44.23496" lon="6.92505">
        <ele>1809</ele>
        <time>2010-08-15T07:40:58Z</time>
      </trkpt>
      <trkpt lat="44.23496" lon="6.92501">
        <ele>1809</ele>
        <time>2010-08-15T07:40:59Z</time>
      </trkpt>
      <trkpt lat="44.23496" lon="6.92498">
        <ele>1810</ele>
        <time>2010-08-15T07:41:00Z</time>
      </trkpt>
      <trkpt lat="44.23496" lon="6.92495">
        <ele>1810</ele>
        <time>2010-08-15T07:41:01Z</time>
      </trkpt>
      <trkpt lat="44.23495" lon="6.92492">
        <ele>1810</ele>
        <time>2010-08-15T07:41:02Z</time>
      </trkpt>
      <trkpt lat="44.23495" lon="6.92489">
        <ele>1810</ele>
        <time>2010-08-15T07:41:03Z</time>
      </trkpt>
      <trkpt lat="44.23495" lon="6.92486">
        <ele>1809</ele>
        <time>2010-08-15T07:41:04Z</time>
      </trkpt>
      <trkpt lat="44.23494" lon="6.92484">
        <ele>1809</ele>
        <time>2010-08-15T07:41:05Z</time>
      </trkpt>
      <trkpt lat="44.23494" lon="6.9248">
        <ele>1809</ele>
        <time>2010-08-15T07:41:06Z</time>
      </trkpt>
      <trkpt lat="44.23494" lon="6.92477">
        <ele>1809</ele>
        <time>2010-08-15T07:41:07Z</time>
      </trkpt>
      <trkpt lat="44.23493" lon="6.92474">
        <ele>1809</ele>
        <time>2010-08-15T07:41:08Z</time>
      </trkpt>
      <trkpt lat="44.23492" lon="6.92471">
        <ele>1809</ele>
        <time>2010-08-15T07:41:09Z</time>
      </trkpt>
      <trkpt lat="44.23492" lon="6.92469">
        <ele>1809</ele>
        <time>2010-08-15T07:41:10Z</time>
      </trkpt>
      <trkpt lat="44.23492" lon="6.92466">
        <ele>1809</ele>
        <time>2010-08-15T07:41:11Z</time>
      </trkpt>
      <trkpt lat="44.23491" lon="6.92464">
        <ele>1809</ele>
        <time>2010-08-15T07:41:12Z</time>
      </trkpt>
      <trkpt lat="44.23491" lon="6.92462">
        <ele>1809</ele>
        <time>2010-08-15T07:41:13Z</time>
      </trkpt>
      <trkpt lat="44.23492" lon="6.9246">
        <ele>1809</ele>
        <time>2010-08-15T07:41:14Z</time>
      </trkpt>
      <trkpt lat="44.23492" lon="6.92458">
        <ele>1809</ele>
        <time>2010-08-15T07:41:15Z</time>
      </trkpt>
      <trkpt lat="44.23493" lon="6.92455">
        <ele>1809</ele>
        <time>2010-08-15T07:41:16Z</time>
      </trkpt>
      <trkpt lat="44.23494" lon="6.92452">
        <ele>1809</ele>
        <time>2010-08-15T07:41:17Z</time>
      </trkpt>
      <trkpt lat="44.23495" lon="6.92447">
        <ele>1810</ele>
        <time>2010-08-15T07:41:18Z</time>
      </trkpt>
      <trkpt lat="44.23495" lon="6.92444">
        <ele>1810</ele>
        <time>2010-08-15T07:41:19Z</time>
      </trkpt>
      <trkpt lat="44.23495" lon="6.92441">
        <ele>1810</ele>
        <time>2010-08-15T07:41:20Z</time>
      </trkpt>
      <trkpt lat="44.23496" lon="6.92437">
        <ele>1811</ele>
        <time>2010-08-15T07:41:21Z</time>
      </trkpt>
      <trkpt lat="44.23496" lon="6.92434">
        <ele>1811</ele>
        <time>2010-08-15T07:41:22Z</time>
      </trkpt>
      <trkpt lat="44.23496" lon="6.92431">
        <ele>1812</ele>
        <time>2010-08-15T07:41:23Z</time>
      </trkpt>
      <trkpt lat="44.23497" lon="6.92427">
        <ele>1812</ele>
        <time>2010-08-15T07:41:24Z</time>
      </trkpt>
      <trkpt lat="44.23498" lon="6.92423">
        <ele>1813</ele>
        <time>2010-08-15T07:41:25Z</time>
      </trkpt>
      <trkpt lat="44.23498" lon="6.92419">
        <ele>1814</ele>
        <time>2010-08-15T07:41:26Z</time>
      </trkpt>
      <trkpt lat="44.23498" lon="6.92415">
        <ele>1815</ele>
        <time>2010-08-15T07:41:27Z</time>
      </trkpt>
      <trkpt lat="44.23498" lon="6.92412">
        <ele>1814</ele>
        <time>2010-08-15T07:41:28Z</time>
      </trkpt>
      <trkpt lat="44.23497" lon="6.92408">
        <ele>1814</ele>
        <time>2010-08-15T07:41:29Z</time>
      </trkpt>
      <trkpt lat="44.23497" lon="6.92406">
        <ele>1814</ele>
        <time>2010-08-15T07:41:30Z</time>
      </trkpt>
      <trkpt lat="44.23496" lon="6.92402">
        <ele>1813</ele>
        <time>2010-08-15T07:41:31Z</time>
      </trkpt>
      <trkpt lat="44.23497" lon="6.92398">
        <ele>1813</ele>
        <time>2010-08-15T07:41:32Z</time>
      </trkpt>
      <trkpt lat="44.23498" lon="6.92394">
        <ele>1813</ele>
        <time>2010-08-15T07:41:33Z</time>
      </trkpt>
      <trkpt lat="44.23499" lon="6.9239">
        <ele>1813</ele>
        <time>2010-08-15T07:41:34Z</time>
      </trkpt>
      <trkpt lat="44.235" lon="6.92385">
        <ele>1811</ele>
        <time>2010-08-15T07:41:35Z</time>
      </trkpt>
      <trkpt lat="44.23501" lon="6.92381">
        <ele>1811</ele>
        <time>2010-08-15T07:41:36Z</time>
      </trkpt>
      <trkpt lat="44.23502" lon="6.92375">
        <ele>1811</ele>
        <time>2010-08-15T07:41:37Z</time>
      </trkpt>
      <trkpt lat="44.23503" lon="6.92371">
        <ele>1811</ele>
        <time>2010-08-15T07:41:38Z</time>
      </trkpt>
      <trkpt lat="44.23503" lon="6.92367">
        <ele>1811</ele>
        <time>2010-08-15T07:41:39Z</time>
      </trkpt>
      <trkpt lat="44.23504" lon="6.92362">
        <ele>1811</ele>
        <time>2010-08-15T07:41:40Z</time>
      </trkpt>
      <trkpt lat="44.23505" lon="6.92358">
        <ele>1811</ele>
        <time>2010-08-15T07:41:41Z</time>
      </trkpt>
      <trkpt lat="44.23505" lon="6.92353">
        <ele>1811</ele>
        <time>2010-08-15T07:41:42Z</time>
      </trkpt>
      <trkpt lat="44.23506" lon="6.92348">
        <ele>1811</ele>
        <time>2010-08-15T07:41:43Z</time>
      </trkpt>
      <trkpt lat="44.23506" lon="6.92343">
        <ele>1811</ele>
        <time>2010-08-15T07:41:44Z</time>
      </trkpt>
      <trkpt lat="44.23506" lon="6.92338">
        <ele>1811</ele>
        <time>2010-08-15T07:41:45Z</time>
      </trkpt>
      <trkpt lat="44.23506" lon="6.92333">
        <ele>1810</ele>
        <time>2010-08-15T07:41:46Z</time>
      </trkpt>
      <trkpt lat="44.23507" lon="6.92327">
        <ele>1810</ele>
        <time>2010-08-15T07:41:47Z</time>
      </trkpt>
      <trkpt lat="44.23508" lon="6.92323">
        <ele>1809</ele>
        <time>2010-08-15T07:41:48Z</time>
      </trkpt>
      <trkpt lat="44.23508" lon="6.92319">
        <ele>1809</ele>
        <time>2010-08-15T07:41:49Z</time>
      </trkpt>
      <trkpt lat="44.23509" lon="6.92315">
        <ele>1809</ele>
        <time>2010-08-15T07:41:50Z</time>
      </trkpt>
      <trkpt lat="44.23509" lon="6.9231">
        <ele>1809</ele>
        <time>2010-08-15T07:41:51Z</time>
      </trkpt>
      <trkpt lat="44.23509" lon="6.92306">
        <ele>1809</ele>
        <time>2010-08-15T07:41:52Z</time>
      </trkpt>
      <trkpt lat="44.23509" lon="6.92302">
        <ele>1809</ele>
        <time>2010-08-15T07:41:53Z</time>
      </trkpt>
      <trkpt lat="44.23509" lon="6.92298">
        <ele>1809</ele>
        <time>2010-08-15T07:41:54Z</time>
      </trkpt>
      <trkpt lat="44.2351" lon="6.92294">
        <ele>1809</ele>
        <time>2010-08-15T07:41:55Z</time>
      </trkpt>
      <trkpt lat="44.2351" lon="6.9229">
        <ele>1809</ele>
        <time>2010-08-15T07:41:56Z</time>
      </trkpt>
      <trkpt lat="44.2351" lon="6.92286">
        <ele>1809</ele>
        <time>2010-08-15T07:41:57Z</time>
      </trkpt>
      <trkpt lat="44.23511" lon="6.92282">
        <ele>1809</ele>
        <time>2010-08-15T07:41:58Z</time>
      </trkpt>
      <trkpt lat="44.23511" lon="6.92278">
        <ele>1809</ele>
        <time>2010-08-15T07:41:59Z</time>
      </trkpt>
      <trkpt lat="44.23511" lon="6.92275">
        <ele>1809</ele>
        <time>2010-08-15T07:42:00Z</time>
      </trkpt>
      <trkpt lat="44.23513" lon="6.92271">
        <ele>1809</ele>
        <time>2010-08-15T07:42:01Z</time>
      </trkpt>
      <trkpt lat="44.23514" lon="6.92268">
        <ele>1810</ele>
        <time>2010-08-15T07:42:02Z</time>
      </trkpt>
      <trkpt lat="44.23515" lon="6.92264">
        <ele>1810</ele>
        <time>2010-08-15T07:42:03Z</time>
      </trkpt>
      <trkpt lat="44.23515" lon="6.9226">
        <ele>1810</ele>
        <time>2010-08-15T07:42:04Z</time>
      </trkpt>
      <trkpt lat="44.23515" lon="6.92256">
        <ele>1810</ele>
        <time>2010-08-15T07:42:05Z</time>
      </trkpt>
      <trkpt lat="44.23516" lon="6.92253">
        <ele>1810</ele>
        <time>2010-08-15T07:42:06Z</time>
      </trkpt>
      <trkpt lat="44.23518" lon="6.9225">
        <ele>1810</ele>
        <time>2010-08-15T07:42:07Z</time>
      </trkpt>
      <trkpt lat="44.23519" lon="6.92247">
        <ele>1813</ele>
        <time>2010-08-15T07:42:08Z</time>
      </trkpt>
      <trkpt lat="44.23521" lon="6.92245">
        <ele>1813</ele>
        <time>2010-08-15T07:42:09Z</time>
      </trkpt>
      <trkpt lat="44.23522" lon="6.92242">
        <ele>1813</ele>
        <time>2010-08-15T07:42:10Z</time>
      </trkpt>
      <trkpt lat="44.23524" lon="6.9224">
        <ele>1813</ele>
        <time>2010-08-15T07:42:11Z</time>
      </trkpt>
      <trkpt lat="44.23526" lon="6.92237">
        <ele>1813</ele>
        <time>2010-08-15T07:42:12Z</time>
      </trkpt>
      <trkpt lat="44.23527" lon="6.92232">
        <ele>1813</ele>
        <time>2010-08-15T07:42:13Z</time>
      </trkpt>
      <trkpt lat="44.23527" lon="6.92226">
        <ele>1813</ele>
        <time>2010-08-15T07:42:14Z</time>
      </trkpt>
      <trkpt lat="44.23528" lon="6.92221">
        <ele>1814</ele>
        <time>2010-08-15T07:42:15Z</time>
      </trkpt>
      <trkpt lat="44.2353" lon="6.92218">
        <ele>1814</ele>
        <time>2010-08-15T07:42:16Z</time>
      </trkpt>
      <trkpt lat="44.23531" lon="6.92214">
        <ele>1814</ele>
        <time>2010-08-15T07:42:17Z</time>
      </trkpt>
      <trkpt lat="44.23533" lon="6.92212">
        <ele>1814</ele>
        <time>2010-08-15T07:42:18Z</time>
      </trkpt>
      <trkpt lat="44.23534" lon="6.9221">
        <ele>1814</ele>
        <time>2010-08-15T07:42:19Z</time>
      </trkpt>
      <trkpt lat="44.23535" lon="6.92207">
        <ele>1814</ele>
        <time>2010-08-15T07:42:20Z</time>
      </trkpt>
      <trkpt lat="44.23535" lon="6.92206">
        <ele>1814</ele>
        <time>2010-08-15T07:42:21Z</time>
      </trkpt>
      <trkpt lat="44.23536" lon="6.92203">
        <ele>1814</ele>
        <time>2010-08-15T07:42:22Z</time>
      </trkpt>
      <trkpt lat="44.23537" lon="6.92202">
        <ele>1814</ele>
        <time>2010-08-15T07:42:23Z</time>
      </trkpt>
      <trkpt lat="44.23539" lon="6.922">
        <ele>1814</ele>
        <time>2010-08-15T07:42:24Z</time>
      </trkpt>
      <trkpt lat="44.2354" lon="6.92198">
        <ele>1814</ele>
        <time>2010-08-15T07:42:25Z</time>
      </trkpt>
      <trkpt lat="44.23541" lon="6.92196">
        <ele>1814</ele>
        <time>2010-08-15T07:42:26Z</time>
      </trkpt>
      <trkpt lat="44.23542" lon="6.92194">
        <ele>1814</ele>
        <time>2010-08-15T07:42:27Z</time>
      </trkpt>
      <trkpt lat="44.23543" lon="6.92192">
        <ele>1814</ele>
        <time>2010-08-15T07:42:28Z</time>
      </trkpt>
      <trkpt lat="44.23544" lon="6.92191">
        <ele>1814</ele>
        <time>2010-08-15T07:42:29Z</time>
      </trkpt>
      <trkpt lat="44.23545" lon="6.92189">
        <ele>1814</ele>
        <time>2010-08-15T07:42:30Z</time>
      </trkpt>
      <trkpt lat="44.23545" lon="6.92186">
        <ele>1814</ele>
        <time>2010-08-15T07:42:31Z</time>
      </trkpt>
      <trkpt lat="44.23545" lon="6.92183">
        <ele>1815</ele>
        <time>2010-08-15T07:42:32Z</time>
      </trkpt>
      <trkpt lat="44.23545" lon="6.9218">
        <ele>1815</ele>
        <time>2010-08-15T07:42:33Z</time>
      </trkpt>
      <trkpt lat="44.23545" lon="6.92176">
        <ele>1815</ele>
        <time>2010-08-15T07:42:34Z</time>
      </trkpt>
      <trkpt lat="44.23545" lon="6.92174">
        <ele>1815</ele>
        <time>2010-08-15T07:42:35Z</time>
      </trkpt>
      <trkpt lat="44.23545" lon="6.92171">
        <ele>1815</ele>
        <time>2010-08-15T07:42:36Z</time>
      </trkpt>
      <trkpt lat="44.23546" lon="6.92168">
        <ele>1815</ele>
        <time>2010-08-15T07:42:37Z</time>
      </trkpt>
      <trkpt lat="44.23547" lon="6.92165">
        <ele>1825</ele>
        <time>2010-08-15T07:42:38Z</time>
      </trkpt>
      <trkpt lat="44.23548" lon="6.92163">
        <ele>1825</ele>
        <time>2010-08-15T07:42:39Z</time>
      </trkpt>
      <trkpt lat="44.23549" lon="6.9216">
        <ele>1825</ele>
        <time>2010-08-15T07:42:40Z</time>
      </trkpt>
      <trkpt lat="44.23551" lon="6.92157">
        <ele>1824</ele>
        <time>2010-08-15T07:42:41Z</time>
      </trkpt>
      <trkpt lat="44.23551" lon="6.92155">
        <ele>1825</ele>
        <time>2010-08-15T07:42:42Z</time>
      </trkpt>
      <trkpt lat="44.23552" lon="6.92153">
        <ele>1825</ele>
        <time>2010-08-15T07:42:43Z</time>
      </trkpt>
      <trkpt lat="44.23553" lon="6.9215">
        <ele>1825</ele>
        <time>2010-08-15T07:42:44Z</time>
      </trkpt>
      <trkpt lat="44.23553" lon="6.92148">
        <ele>1825</ele>
        <time>2010-08-15T07:42:45Z</time>
      </trkpt>
      <trkpt lat="44.23553" lon="6.92147">
        <ele>1825</ele>
        <time>2010-08-15T07:42:46Z</time>
      </trkpt>
      <trkpt lat="44.23553" lon="6.92145">
        <ele>1825</ele>
        <time>2010-08-15T07:42:47Z</time>
      </trkpt>
      <trkpt lat="44.23553" lon="6.92143">
        <ele>1825</ele>
        <time>2010-08-15T07:42:48Z</time>
      </trkpt>
      <trkpt lat="44.23554" lon="6.92141">
        <ele>1826</ele>
        <time>2010-08-15T07:42:49Z</time>
      </trkpt>
      <trkpt lat="44.23554" lon="6.92139">
        <ele>1826</ele>
        <time>2010-08-15T07:42:50Z</time>
      </trkpt>
      <trkpt lat="44.23554" lon="6.92137">
        <ele>1826</ele>
        <time>2010-08-15T07:42:51Z</time>
      </trkpt>
      <trkpt lat="44.23555" lon="6.92134">
        <ele>1826</ele>
        <time>2010-08-15T07:42:52Z</time>
      </trkpt>
      <trkpt lat="44.23556" lon="6.9213">
        <ele>1827</ele>
        <time>2010-08-15T07:42:53Z</time>
      </trkpt>
      <trkpt lat="44.23557" lon="6.92127">
        <ele>1827</ele>
        <time>2010-08-15T07:42:54Z</time>
      </trkpt>
      <trkpt lat="44.23559" lon="6.92124">
        <ele>1827</ele>
        <time>2010-08-15T07:42:55Z</time>
      </trkpt>
      <trkpt lat="44.23561" lon="6.9212">
        <ele>1827</ele>
        <time>2010-08-15T07:42:56Z</time>
      </trkpt>
      <trkpt lat="44.23562" lon="6.92116">
        <ele>1827</ele>
        <time>2010-08-15T07:42:57Z</time>
      </trkpt>
      <trkpt lat="44.23563" lon="6.92113">
        <ele>1827</ele>
        <time>2010-08-15T07:42:58Z</time>
      </trkpt>
      <trkpt lat="44.23565" lon="6.9211">
        <ele>1827</ele>
        <time>2010-08-15T07:42:59Z</time>
      </trkpt>
      <trkpt lat="44.23566" lon="6.92106">
        <ele>1827</ele>
        <time>2010-08-15T07:43:00Z</time>
      </trkpt>
      <trkpt lat="44.23568" lon="6.92103">
        <ele>1827</ele>
        <time>2010-08-15T07:43:01Z</time>
      </trkpt>
      <trkpt lat="44.2357" lon="6.921">
        <ele>1827</ele>
        <time>2010-08-15T07:43:02Z</time>
      </trkpt>
      <trkpt lat="44.23572" lon="6.92097">
        <ele>1826</ele>
        <time>2010-08-15T07:43:03Z</time>
      </trkpt>
      <trkpt lat="44.23575" lon="6.92095">
        <ele>1826</ele>
        <time>2010-08-15T07:43:04Z</time>
      </trkpt>
      <trkpt lat="44.23577" lon="6.92092">
        <ele>1825</ele>
        <time>2010-08-15T07:43:05Z</time>
      </trkpt>
      <trkpt lat="44.23578" lon="6.92089">
        <ele>1825</ele>
        <time>2010-08-15T07:43:06Z</time>
      </trkpt>
      <trkpt lat="44.23579" lon="6.92086">
        <ele>1824</ele>
        <time>2010-08-15T07:43:07Z</time>
      </trkpt>
      <trkpt lat="44.2358" lon="6.92084">
        <ele>1824</ele>
        <time>2010-08-15T07:43:08Z</time>
      </trkpt>
      <trkpt lat="44.23582" lon="6.92081">
        <ele>1825</ele>
        <time>2010-08-15T07:43:09Z</time>
      </trkpt>
      <trkpt lat="44.23583" lon="6.92078">
        <ele>1828</ele>
        <time>2010-08-15T07:43:10Z</time>
      </trkpt>
      <trkpt lat="44.23583" lon="6.92074">
        <ele>1830</ele>
        <time>2010-08-15T07:43:11Z</time>
      </trkpt>
      <trkpt lat="44.23584" lon="6.92071">
        <ele>1819</ele>
        <time>2010-08-15T07:43:12Z</time>
      </trkpt>
      <trkpt lat="44.23585" lon="6.92068">
        <ele>1819</ele>
        <time>2010-08-15T07:43:13Z</time>
      </trkpt>
      <trkpt lat="44.23584" lon="6.92065">
        <ele>1819</ele>
        <time>2010-08-15T07:43:14Z</time>
      </trkpt>
      <trkpt lat="44.23585" lon="6.92062">
        <ele>1818</ele>
        <time>2010-08-15T07:43:15Z</time>
      </trkpt>
      <trkpt lat="44.23587" lon="6.9206">
        <ele>1818</ele>
        <time>2010-08-15T07:43:16Z</time>
      </trkpt>
      <trkpt lat="44.23589" lon="6.92057">
        <ele>1818</ele>
        <time>2010-08-15T07:43:17Z</time>
      </trkpt>
      <trkpt lat="44.2359" lon="6.92054">
        <ele>1818</ele>
        <time>2010-08-15T07:43:18Z</time>
      </trkpt>
      <trkpt lat="44.23591" lon="6.92052">
        <ele>1818</ele>
        <time>2010-08-15T07:43:19Z</time>
      </trkpt>
      <trkpt lat="44.23591" lon="6.92049">
        <ele>1818</ele>
        <time>2010-08-15T07:43:20Z</time>
      </trkpt>
      <trkpt lat="44.23591" lon="6.92046">
        <ele>1818</ele>
        <time>2010-08-15T07:43:21Z</time>
      </trkpt>
      <trkpt lat="44.23592" lon="6.92043">
        <ele>1819</ele>
        <time>2010-08-15T07:43:22Z</time>
      </trkpt>
      <trkpt lat="44.23595" lon="6.92041">
        <ele>1819</ele>
        <time>2010-08-15T07:43:23Z</time>
      </trkpt>
      <trkpt lat="44.23595" lon="6.92038">
        <ele>1819</ele>
        <time>2010-08-15T07:43:24Z</time>
      </trkpt>
      <trkpt lat="44.23596" lon="6.92036">
        <ele>1819</ele>
        <time>2010-08-15T07:43:25Z</time>
      </trkpt>
      <trkpt lat="44.23596" lon="6.92033">
        <ele>1820</ele>
        <time>2010-08-15T07:43:26Z</time>
      </trkpt>
      <trkpt lat="44.23596" lon="6.92031">
        <ele>1820</ele>
        <time>2010-08-15T07:43:27Z</time>
      </trkpt>
      <trkpt lat="44.23594" lon="6.92029">
        <ele>1821</ele>
        <time>2010-08-15T07:43:28Z</time>
      </trkpt>
      <trkpt lat="44.23594" lon="6.92027">
        <ele>1822</ele>
        <time>2010-08-15T07:43:29Z</time>
      </trkpt>
      <trkpt lat="44.23594" lon="6.92024">
        <ele>1823</ele>
        <time>2010-08-15T07:43:30Z</time>
      </trkpt>
      <trkpt lat="44.23594" lon="6.92021">
        <ele>1824</ele>
        <time>2010-08-15T07:43:31Z</time>
      </trkpt>
      <trkpt lat="44.23595" lon="6.92018">
        <ele>1824</ele>
        <time>2010-08-15T07:43:32Z</time>
      </trkpt>
      <trkpt lat="44.23598" lon="6.92015">
        <ele>1825</ele>
        <time>2010-08-15T07:43:33Z</time>
      </trkpt>
      <trkpt lat="44.236" lon="6.92013">
        <ele>1824</ele>
        <time>2010-08-15T07:43:34Z</time>
      </trkpt>
      <trkpt lat="44.23602" lon="6.9201">
        <ele>1824</ele>
        <time>2010-08-15T07:43:35Z</time>
      </trkpt>
      <trkpt lat="44.23604" lon="6.92007">
        <ele>1824</ele>
        <time>2010-08-15T07:43:36Z</time>
      </trkpt>
      <trkpt lat="44.23605" lon="6.92004">
        <ele>1824</ele>
        <time>2010-08-15T07:43:37Z</time>
      </trkpt>
      <trkpt lat="44.23606" lon="6.92001">
        <ele>1823</ele>
        <time>2010-08-15T07:43:38Z</time>
      </trkpt>
      <trkpt lat="44.23606" lon="6.91997">
        <ele>1833</ele>
        <time>2010-08-15T07:43:39Z</time>
      </trkpt>
      <trkpt lat="44.23607" lon="6.91995">
        <ele>1832</ele>
        <time>2010-08-15T07:43:40Z</time>
      </trkpt>
      <trkpt lat="44.23608" lon="6.91992">
        <ele>1832</ele>
        <time>2010-08-15T07:43:41Z</time>
      </trkpt>
      <trkpt lat="44.23609" lon="6.91989">
        <ele>1832</ele>
        <time>2010-08-15T07:43:42Z</time>
      </trkpt>
      <trkpt lat="44.23611" lon="6.91985">
        <ele>1831</ele>
        <time>2010-08-15T07:43:43Z</time>
      </trkpt>
      <trkpt lat="44.23611" lon="6.91983">
        <ele>1831</ele>
        <time>2010-08-15T07:43:44Z</time>
      </trkpt>
      <trkpt lat="44.23612" lon="6.91981">
        <ele>1831</ele>
        <time>2010-08-15T07:43:45Z</time>
      </trkpt>
      <trkpt lat="44.23613" lon="6.91979">
        <ele>1831</ele>
        <time>2010-08-15T07:43:46Z</time>
      </trkpt>
      <trkpt lat="44.23613" lon="6.91976">
        <ele>1831</ele>
        <time>2010-08-15T07:43:47Z</time>
      </trkpt>
      <trkpt lat="44.23613" lon="6.91973">
        <ele>1831</ele>
        <time>2010-08-15T07:43:48Z</time>
      </trkpt>
      <trkpt lat="44.23612" lon="6.9197">
        <ele>1832</ele>
        <time>2010-08-15T07:43:49Z</time>
      </trkpt>
      <trkpt lat="44.23612" lon="6.91967">
        <ele>1832</ele>
        <time>2010-08-15T07:43:50Z</time>
      </trkpt>
      <trkpt lat="44.23611" lon="6.91965">
        <ele>1832</ele>
        <time>2010-08-15T07:43:51Z</time>
      </trkpt>
      <trkpt lat="44.23611" lon="6.91962">
        <ele>1833</ele>
        <time>2010-08-15T07:43:52Z</time>
      </trkpt>
      <trkpt lat="44.23612" lon="6.9196">
        <ele>1833</ele>
        <time>2010-08-15T07:43:53Z</time>
      </trkpt>
      <trkpt lat="44.23613" lon="6.91957">
        <ele>1833</ele>
        <time>2010-08-15T07:43:54Z</time>
      </trkpt>
      <trkpt lat="44.23613" lon="6.91953">
        <ele>1834</ele>
        <time>2010-08-15T07:43:55Z</time>
      </trkpt>
      <trkpt lat="44.23613" lon="6.91949">
        <ele>1834</ele>
        <time>2010-08-15T07:43:56Z</time>
      </trkpt>
      <trkpt lat="44.23615" lon="6.91947">
        <ele>1834</ele>
        <time>2010-08-15T07:43:57Z</time>
      </trkpt>
      <trkpt lat="44.23615" lon="6.91944">
        <ele>1834</ele>
        <time>2010-08-15T07:43:58Z</time>
      </trkpt>
      <trkpt lat="44.23615" lon="6.91942">
        <ele>1834</ele>
        <time>2010-08-15T07:43:59Z</time>
      </trkpt>
      <trkpt lat="44.23616" lon="6.91939">
        <ele>1835</ele>
        <time>2010-08-15T07:44:00Z</time>
      </trkpt>
      <trkpt lat="44.23616" lon="6.91936">
        <ele>1835</ele>
        <time>2010-08-15T07:44:01Z</time>
      </trkpt>
      <trkpt lat="44.23617" lon="6.91934">
        <ele>1835</ele>
        <time>2010-08-15T07:44:02Z</time>
      </trkpt>
      <trkpt lat="44.23618" lon="6.91932">
        <ele>1835</ele>
        <time>2010-08-15T07:44:03Z</time>
      </trkpt>
      <trkpt lat="44.23618" lon="6.91929">
        <ele>1835</ele>
        <time>2010-08-15T07:44:04Z</time>
      </trkpt>
      <trkpt lat="44.23618" lon="6.91926">
        <ele>1835</ele>
        <time>2010-08-15T07:44:05Z</time>
      </trkpt>
      <trkpt lat="44.23619" lon="6.91924">
        <ele>1835</ele>
        <time>2010-08-15T07:44:06Z</time>
      </trkpt>
      <trkpt lat="44.23619" lon="6.91922">
        <ele>1835</ele>
        <time>2010-08-15T07:44:07Z</time>
      </trkpt>
      <trkpt lat="44.23622" lon="6.9192">
        <ele>1834</ele>
        <time>2010-08-15T07:44:08Z</time>
      </trkpt>
      <trkpt lat="44.23623" lon="6.91917">
        <ele>1834</ele>
        <time>2010-08-15T07:44:09Z</time>
      </trkpt>
      <trkpt lat="44.23623" lon="6.91915">
        <ele>1846</ele>
        <time>2010-08-15T07:44:10Z</time>
      </trkpt>
      <trkpt lat="44.23625" lon="6.91912">
        <ele>1846</ele>
        <time>2010-08-15T07:44:11Z</time>
      </trkpt>
      <trkpt lat="44.23626" lon="6.91908">
        <ele>1846</ele>
        <time>2010-08-15T07:44:12Z</time>
      </trkpt>
      <trkpt lat="44.23627" lon="6.91905">
        <ele>1845</ele>
        <time>2010-08-15T07:44:13Z</time>
      </trkpt>
      <trkpt lat="44.23629" lon="6.91903">
        <ele>1845</ele>
        <time>2010-08-15T07:44:14Z</time>
      </trkpt>
      <trkpt lat="44.2363" lon="6.91901">
        <ele>1845</ele>
        <time>2010-08-15T07:44:15Z</time>
      </trkpt>
      <trkpt lat="44.23631" lon="6.91899">
        <ele>1845</ele>
        <time>2010-08-15T07:44:16Z</time>
      </trkpt>
      <trkpt lat="44.23632" lon="6.91897">
        <ele>1844</ele>
        <time>2010-08-15T07:44:17Z</time>
      </trkpt>
      <trkpt lat="44.23631" lon="6.91894">
        <ele>1845</ele>
        <time>2010-08-15T07:44:18Z</time>
      </trkpt>
      <trkpt lat="44.23631" lon="6.91891">
        <ele>1846</ele>
        <time>2010-08-15T07:44:19Z</time>
      </trkpt>
      <trkpt lat="44.23633" lon="6.91889">
        <ele>1845</ele>
        <time>2010-08-15T07:44:20Z</time>
      </trkpt>
      <trkpt lat="44.23634" lon="6.91885">
        <ele>1846</ele>
        <time>2010-08-15T07:44:21Z</time>
      </trkpt>
      <trkpt lat="44.23635" lon="6.91881">
        <ele>1846</ele>
        <time>2010-08-15T07:44:22Z</time>
      </trkpt>
      <trkpt lat="44.23635" lon="6.91878">
        <ele>1846</ele>
        <time>2010-08-15T07:44:23Z</time>
      </trkpt>
      <trkpt lat="44.23635" lon="6.91874">
        <ele>1847</ele>
        <time>2010-08-15T07:44:24Z</time>
      </trkpt>
      <trkpt lat="44.23636" lon="6.91872">
        <ele>1847</ele>
        <time>2010-08-15T07:44:25Z</time>
      </trkpt>
      <trkpt lat="44.23636" lon="6.9187">
        <ele>1847</ele>
        <time>2010-08-15T07:44:26Z</time>
      </trkpt>
      <trkpt lat="44.23636" lon="6.91868">
        <ele>1847</ele>
        <time>2010-08-15T07:44:27Z</time>
      </trkpt>
      <trkpt lat="44.23636" lon="6.91866">
        <ele>1848</ele>
        <time>2010-08-15T07:44:28Z</time>
      </trkpt>
      <trkpt lat="44.23637" lon="6.91863">
        <ele>1848</ele>
        <time>2010-08-15T07:44:29Z</time>
      </trkpt>
      <trkpt lat="44.23637" lon="6.91861">
        <ele>1848</ele>
        <time>2010-08-15T07:44:30Z</time>
      </trkpt>
      <trkpt lat="44.23637" lon="6.91859">
        <ele>1848</ele>
        <time>2010-08-15T07:44:31Z</time>
      </trkpt>
      <trkpt lat="44.23638" lon="6.91856">
        <ele>1848</ele>
        <time>2010-08-15T07:44:32Z</time>
      </trkpt>
      <trkpt lat="44.23639" lon="6.91854">
        <ele>1848</ele>
        <time>2010-08-15T07:44:33Z</time>
      </trkpt>
      <trkpt lat="44.23639" lon="6.91851">
        <ele>1848</ele>
        <time>2010-08-15T07:44:34Z</time>
      </trkpt>
      <trkpt lat="44.2364" lon="6.91848">
        <ele>1848</ele>
        <time>2010-08-15T07:44:35Z</time>
      </trkpt>
      <trkpt lat="44.23642" lon="6.91847">
        <ele>1847</ele>
        <time>2010-08-15T07:44:36Z</time>
      </trkpt>
      <trkpt lat="44.23642" lon="6.91845">
        <ele>1847</ele>
        <time>2010-08-15T07:44:37Z</time>
      </trkpt>
      <trkpt lat="44.23643" lon="6.91843">
        <ele>1847</ele>
        <time>2010-08-15T07:44:38Z</time>
      </trkpt>
      <trkpt lat="44.23643" lon="6.91842">
        <ele>1847</ele>
        <time>2010-08-15T07:44:39Z</time>
      </trkpt>
      <trkpt lat="44.23644" lon="6.91839">
        <ele>1847</ele>
        <time>2010-08-15T07:44:40Z</time>
      </trkpt>
      <trkpt lat="44.23644" lon="6.91836">
        <ele>1847</ele>
        <time>2010-08-15T07:44:41Z</time>
      </trkpt>
      <trkpt lat="44.23644" lon="6.91835">
        <ele>1847</ele>
        <time>2010-08-15T07:44:42Z</time>
      </trkpt>
      <trkpt lat="44.23644" lon="6.91833">
        <ele>1847</ele>
        <time>2010-08-15T07:44:43Z</time>
      </trkpt>
      <trkpt lat="44.23645" lon="6.91832">
        <ele>1855</ele>
        <time>2010-08-15T07:44:44Z</time>
      </trkpt>
      <trkpt lat="44.23646" lon="6.91829">
        <ele>1855</ele>
        <time>2010-08-15T07:44:45Z</time>
      </trkpt>
      <trkpt lat="44.23646" lon="6.91827">
        <ele>1855</ele>
        <time>2010-08-15T07:44:46Z</time>
      </trkpt>
      <trkpt lat="44.23645" lon="6.91825">
        <ele>1856</ele>
        <time>2010-08-15T07:44:47Z</time>
      </trkpt>
      <trkpt lat="44.23644" lon="6.91822">
        <ele>1857</ele>
        <time>2010-08-15T07:44:48Z</time>
      </trkpt>
      <trkpt lat="44.23644" lon="6.9182">
        <ele>1857</ele>
        <time>2010-08-15T07:44:49Z</time>
      </trkpt>
      <trkpt lat="44.23644" lon="6.91818">
        <ele>1858</ele>
        <time>2010-08-15T07:44:50Z</time>
      </trkpt>
      <trkpt lat="44.23644" lon="6.91816">
        <ele>1858</ele>
        <time>2010-08-15T07:44:51Z</time>
      </trkpt>
      <trkpt lat="44.23644" lon="6.91813">
        <ele>1859</ele>
        <time>2010-08-15T07:44:52Z</time>
      </trkpt>
      <trkpt lat="44.23643" lon="6.91811">
        <ele>1859</ele>
        <time>2010-08-15T07:44:53Z</time>
      </trkpt>
      <trkpt lat="44.23643" lon="6.9181">
        <ele>1860</ele>
        <time>2010-08-15T07:44:54Z</time>
      </trkpt>
      <trkpt lat="44.23645" lon="6.91808">
        <ele>1859</ele>
        <time>2010-08-15T07:44:55Z</time>
      </trkpt>
      <trkpt lat="44.23646" lon="6.91806">
        <ele>1860</ele>
        <time>2010-08-15T07:44:56Z</time>
      </trkpt>
      <trkpt lat="44.23647" lon="6.91805">
        <ele>1860</ele>
        <time>2010-08-15T07:44:57Z</time>
      </trkpt>
      <trkpt lat="44.23647" lon="6.91804">
        <ele>1860</ele>
        <time>2010-08-15T07:44:58Z</time>
      </trkpt>
      <trkpt lat="44.23648" lon="6.91802">
        <ele>1860</ele>
        <time>2010-08-15T07:44:59Z</time>
      </trkpt>
      <trkpt lat="44.23649" lon="6.918">
        <ele>1860</ele>
        <time>2010-08-15T07:45:00Z</time>
      </trkpt>
      <trkpt lat="44.23648" lon="6.91797">
        <ele>1860</ele>
        <time>2010-08-15T07:45:01Z</time>
      </trkpt>
      <trkpt lat="44.23646" lon="6.91793">
        <ele>1861</ele>
        <time>2010-08-15T07:45:02Z</time>
      </trkpt>
      <trkpt lat="44.23646" lon="6.91791">
        <ele>1862</ele>
        <time>2010-08-15T07:45:03Z</time>
      </trkpt>
      <trkpt lat="44.23647" lon="6.91789">
        <ele>1862</ele>
        <time>2010-08-15T07:45:04Z</time>
      </trkpt>
      <trkpt lat="44.23648" lon="6.91787">
        <ele>1862</ele>
        <time>2010-08-15T07:45:05Z</time>
      </trkpt>
      <trkpt lat="44.2365" lon="6.91785">
        <ele>1861</ele>
        <time>2010-08-15T07:45:06Z</time>
      </trkpt>
      <trkpt lat="44.2365" lon="6.91783">
        <ele>1861</ele>
        <time>2010-08-15T07:45:07Z</time>
      </trkpt>
      <trkpt lat="44.23651" lon="6.9178">
        <ele>1861</ele>
        <time>2010-08-15T07:45:08Z</time>
      </trkpt>
      <trkpt lat="44.23651" lon="6.91778">
        <ele>1861</ele>
        <time>2010-08-15T07:45:09Z</time>
      </trkpt>
      <trkpt lat="44.23651" lon="6.91775">
        <ele>1862</ele>
        <time>2010-08-15T07:45:10Z</time>
      </trkpt>
      <trkpt lat="44.23651" lon="6.91773">
        <ele>1861</ele>
        <time>2010-08-15T07:45:11Z</time>
      </trkpt>
      <trkpt lat="44.23652" lon="6.9177">
        <ele>1861</ele>
        <time>2010-08-15T07:45:12Z</time>
      </trkpt>
      <trkpt lat="44.23654" lon="6.91767">
        <ele>1861</ele>
        <time>2010-08-15T07:45:13Z</time>
      </trkpt>
      <trkpt lat="44.23655" lon="6.91764">
        <ele>1860</ele>
        <time>2010-08-15T07:45:14Z</time>
      </trkpt>
      <trkpt lat="44.23656" lon="6.9176">
        <ele>1859</ele>
        <time>2010-08-15T07:45:15Z</time>
      </trkpt>
      <trkpt lat="44.23657" lon="6.91756">
        <ele>1859</ele>
        <time>2010-08-15T07:45:16Z</time>
      </trkpt>
      <trkpt lat="44.23657" lon="6.91754">
        <ele>1858</ele>
        <time>2010-08-15T07:45:17Z</time>
      </trkpt>
      <trkpt lat="44.23659" lon="6.91751">
        <ele>1857</ele>
        <time>2010-08-15T07:45:18Z</time>
      </trkpt>
      <trkpt lat="44.23658" lon="6.91747">
        <ele>1861</ele>
        <time>2010-08-15T07:45:19Z</time>
      </trkpt>
      <trkpt lat="44.2366" lon="6.91743">
        <ele>1861</ele>
        <time>2010-08-15T07:45:20Z</time>
      </trkpt>
      <trkpt lat="44.23661" lon="6.9174">
        <ele>1862</ele>
        <time>2010-08-15T07:45:21Z</time>
      </trkpt>
      <trkpt lat="44.23661" lon="6.91736">
        <ele>1863</ele>
        <time>2010-08-15T07:45:22Z</time>
      </trkpt>
      <trkpt lat="44.23662" lon="6.91733">
        <ele>1864</ele>
        <time>2010-08-15T07:45:23Z</time>
      </trkpt>
      <trkpt lat="44.23663" lon="6.9173">
        <ele>1865</ele>
        <time>2010-08-15T07:45:24Z</time>
      </trkpt>
      <trkpt lat="44.23663" lon="6.91728">
        <ele>1866</ele>
        <time>2010-08-15T07:45:25Z</time>
      </trkpt>
      <trkpt lat="44.23663" lon="6.91726">
        <ele>1866</ele>
        <time>2010-08-15T07:45:26Z</time>
      </trkpt>
      <trkpt lat="44.23663" lon="6.91723">
        <ele>1867</ele>
        <time>2010-08-15T07:45:27Z</time>
      </trkpt>
      <trkpt lat="44.23664" lon="6.9172">
        <ele>1868</ele>
        <time>2010-08-15T07:45:28Z</time>
      </trkpt>
      <trkpt lat="44.23664" lon="6.91718">
        <ele>1868</ele>
        <time>2010-08-15T07:45:29Z</time>
      </trkpt>
      <trkpt lat="44.23664" lon="6.91715">
        <ele>1868</ele>
        <time>2010-08-15T07:45:30Z</time>
      </trkpt>
      <trkpt lat="44.23664" lon="6.91712">
        <ele>1869</ele>
        <time>2010-08-15T07:45:31Z</time>
      </trkpt>
      <trkpt lat="44.23665" lon="6.9171">
        <ele>1869</ele>
        <time>2010-08-15T07:45:32Z</time>
      </trkpt>
      <trkpt lat="44.23664" lon="6.91708">
        <ele>1869</ele>
        <time>2010-08-15T07:45:33Z</time>
      </trkpt>
      <trkpt lat="44.23664" lon="6.91705">
        <ele>1870</ele>
        <time>2010-08-15T07:45:34Z</time>
      </trkpt>
      <trkpt lat="44.23663" lon="6.91702">
        <ele>1870</ele>
        <time>2010-08-15T07:45:35Z</time>
      </trkpt>
      <trkpt lat="44.23663" lon="6.917">
        <ele>1870</ele>
        <time>2010-08-15T07:45:36Z</time>
      </trkpt>
      <trkpt lat="44.23663" lon="6.91697">
        <ele>1870</ele>
        <time>2010-08-15T07:45:37Z</time>
      </trkpt>
      <trkpt lat="44.23664" lon="6.91695">
        <ele>1870</ele>
        <time>2010-08-15T07:45:38Z</time>
      </trkpt>
      <trkpt lat="44.23665" lon="6.91693">
        <ele>1870</ele>
        <time>2010-08-15T07:45:39Z</time>
      </trkpt>
      <trkpt lat="44.23665" lon="6.91691">
        <ele>1870</ele>
        <time>2010-08-15T07:45:40Z</time>
      </trkpt>
      <trkpt lat="44.23665" lon="6.91688">
        <ele>1869</ele>
        <time>2010-08-15T07:45:41Z</time>
      </trkpt>
      <trkpt lat="44.23666" lon="6.91686">
        <ele>1869</ele>
        <time>2010-08-15T07:45:42Z</time>
      </trkpt>
      <trkpt lat="44.23666" lon="6.91684">
        <ele>1869</ele>
        <time>2010-08-15T07:45:43Z</time>
      </trkpt>
      <trkpt lat="44.23666" lon="6.91682">
        <ele>1869</ele>
        <time>2010-08-15T07:45:44Z</time>
      </trkpt>
      <trkpt lat="44.23667" lon="6.9168">
        <ele>1852</ele>
        <time>2010-08-15T07:45:45Z</time>
      </trkpt>
      <trkpt lat="44.23667" lon="6.91678">
        <ele>1854</ele>
        <time>2010-08-15T07:45:46Z</time>
      </trkpt>
      <trkpt lat="44.23667" lon="6.91676">
        <ele>1855</ele>
        <time>2010-08-15T07:45:47Z</time>
      </trkpt>
      <trkpt lat="44.23668" lon="6.91675">
        <ele>1856</ele>
        <time>2010-08-15T07:45:48Z</time>
      </trkpt>
      <trkpt lat="44.23668" lon="6.91674">
        <ele>1857</ele>
        <time>2010-08-15T07:45:49Z</time>
      </trkpt>
      <trkpt lat="44.23669" lon="6.91673">
        <ele>1857</ele>
        <time>2010-08-15T07:45:50Z</time>
      </trkpt>
      <trkpt lat="44.23669" lon="6.91672">
        <ele>1859</ele>
        <time>2010-08-15T07:45:51Z</time>
      </trkpt>
      <trkpt lat="44.23669" lon="6.9167">
        <ele>1860</ele>
        <time>2010-08-15T07:45:52Z</time>
      </trkpt>
      <trkpt lat="44.2367" lon="6.91668">
        <ele>1861</ele>
        <time>2010-08-15T07:45:53Z</time>
      </trkpt>
      <trkpt lat="44.23671" lon="6.91666">
        <ele>1861</ele>
        <time>2010-08-15T07:45:54Z</time>
      </trkpt>
      <trkpt lat="44.23671" lon="6.91664">
        <ele>1860</ele>
        <time>2010-08-15T07:45:55Z</time>
      </trkpt>
      <trkpt lat="44.23671" lon="6.91662">
        <ele>1859</ele>
        <time>2010-08-15T07:45:56Z</time>
      </trkpt>
      <trkpt lat="44.23672" lon="6.9166">
        <ele>1858</ele>
        <time>2010-08-15T07:45:57Z</time>
      </trkpt>
      <trkpt lat="44.23672" lon="6.91657">
        <ele>1857</ele>
        <time>2010-08-15T07:45:58Z</time>
      </trkpt>
      <trkpt lat="44.23672" lon="6.91656">
        <ele>1856</ele>
        <time>2010-08-15T07:45:59Z</time>
      </trkpt>
      <trkpt lat="44.23673" lon="6.91654">
        <ele>1855</ele>
        <time>2010-08-15T07:46:00Z</time>
      </trkpt>
      <trkpt lat="44.23673" lon="6.91652">
        <ele>1854</ele>
        <time>2010-08-15T07:46:01Z</time>
      </trkpt>
      <trkpt lat="44.23674" lon="6.9165">
        <ele>1853</ele>
        <time>2010-08-15T07:46:02Z</time>
      </trkpt>
      <trkpt lat="44.23674" lon="6.91648">
        <ele>1852</ele>
        <time>2010-08-15T07:46:03Z</time>
      </trkpt>
      <trkpt lat="44.23675" lon="6.91646">
        <ele>1852</ele>
        <time>2010-08-15T07:46:04Z</time>
      </trkpt>
      <trkpt lat="44.23676" lon="6.91644">
        <ele>1851</ele>
        <time>2010-08-15T07:46:05Z</time>
      </trkpt>
      <trkpt lat="44.23677" lon="6.91643">
        <ele>1851</ele>
        <time>2010-08-15T07:46:06Z</time>
      </trkpt>
      <trkpt lat="44.23677" lon="6.91642">
        <ele>1850</ele>
        <time>2010-08-15T07:46:07Z</time>
      </trkpt>
      <trkpt lat="44.23678" lon="6.91639">
        <ele>1850</ele>
        <time>2010-08-15T07:46:08Z</time>
      </trkpt>
      <trkpt lat="44.23678" lon="6.91636">
        <ele>1850</ele>
        <time>2010-08-15T07:46:09Z</time>
      </trkpt>
      <trkpt lat="44.23678" lon="6.91634">
        <ele>1850</ele>
        <time>2010-08-15T07:46:10Z</time>
      </trkpt>
      <trkpt lat="44.23679" lon="6.91632">
        <ele>1849</ele>
        <time>2010-08-15T07:46:11Z</time>
      </trkpt>
      <trkpt lat="44.23679" lon="6.91631">
        <ele>1849</ele>
        <time>2010-08-15T07:46:12Z</time>
      </trkpt>
      <trkpt lat="44.2368" lon="6.91629">
        <ele>1849</ele>
        <time>2010-08-15T07:46:13Z</time>
      </trkpt>
      <trkpt lat="44.2368" lon="6.91627">
        <ele>1849</ele>
        <time>2010-08-15T07:46:14Z</time>
      </trkpt>
      <trkpt lat="44.2368" lon="6.91625">
        <ele>1849</ele>
        <time>2010-08-15T07:46:15Z</time>
      </trkpt>
      <trkpt lat="44.2368" lon="6.91624">
        <ele>1849</ele>
        <time>2010-08-15T07:46:16Z</time>
      </trkpt>
      <trkpt lat="44.2368" lon="6.91622">
        <ele>1850</ele>
        <time>2010-08-15T07:46:17Z</time>
      </trkpt>
      <trkpt lat="44.23681" lon="6.91619">
        <ele>1850</ele>
        <time>2010-08-15T07:46:18Z</time>
      </trkpt>
      <trkpt lat="44.2368" lon="6.91618">
        <ele>1850</ele>
        <time>2010-08-15T07:46:19Z</time>
      </trkpt>
      <trkpt lat="44.23679" lon="6.91618">
        <ele>1851</ele>
        <time>2010-08-15T07:46:20Z</time>
      </trkpt>
      <trkpt lat="44.23678" lon="6.91618">
        <ele>1851</ele>
        <time>2010-08-15T07:46:21Z</time>
      </trkpt>
      <trkpt lat="44.23678" lon="6.91619">
        <ele>1851</ele>
        <time>2010-08-15T07:46:22Z</time>
      </trkpt>
      <trkpt lat="44.23678" lon="6.91621">
        <ele>1850</ele>
        <time>2010-08-15T07:46:23Z</time>
      </trkpt>
      <trkpt lat="44.23678" lon="6.91624">
        <ele>1850</ele>
        <time>2010-08-15T07:46:24Z</time>
      </trkpt>
      <trkpt lat="44.23678" lon="6.91628">
        <ele>1850</ele>
        <time>2010-08-15T07:46:25Z</time>
      </trkpt>
      <trkpt lat="44.23677" lon="6.91631">
        <ele>1850</ele>
        <time>2010-08-15T07:46:26Z</time>
      </trkpt>
      <trkpt lat="44.23676" lon="6.91635">
        <ele>1850</ele>
        <time>2010-08-15T07:46:27Z</time>
      </trkpt>
      <trkpt lat="44.23675" lon="6.91639">
        <ele>1851</ele>
        <time>2010-08-15T07:46:28Z</time>
      </trkpt>
      <trkpt lat="44.23674" lon="6.91644">
        <ele>1852</ele>
        <time>2010-08-15T07:46:29Z</time>
      </trkpt>
      <trkpt lat="44.23672" lon="6.91648">
        <ele>1853</ele>
        <time>2010-08-15T07:46:30Z</time>
      </trkpt>
      <trkpt lat="44.2367" lon="6.91652">
        <ele>1855</ele>
        <time>2010-08-15T07:46:31Z</time>
      </trkpt>
      <trkpt lat="44.23669" lon="6.91656">
        <ele>1857</ele>
        <time>2010-08-15T07:46:32Z</time>
      </trkpt>
      <trkpt lat="44.23666" lon="6.91659">
        <ele>1869</ele>
        <time>2010-08-15T07:46:33Z</time>
      </trkpt>
      <trkpt lat="44.23664" lon="6.91662">
        <ele>1868</ele>
        <time>2010-08-15T07:46:34Z</time>
      </trkpt>
      <trkpt lat="44.23662" lon="6.91665">
        <ele>1868</ele>
        <time>2010-08-15T07:46:35Z</time>
      </trkpt>
      <trkpt lat="44.2366" lon="6.91668">
        <ele>1867</ele>
        <time>2010-08-15T07:46:36Z</time>
      </trkpt>
      <trkpt lat="44.23657" lon="6.91672">
        <ele>1869</ele>
        <time>2010-08-15T07:46:37Z</time>
      </trkpt>
      <trkpt lat="44.23655" lon="6.91675">
        <ele>1869</ele>
        <time>2010-08-15T07:46:38Z</time>
      </trkpt>
      <trkpt lat="44.23654" lon="6.91678">
        <ele>1870</ele>
        <time>2010-08-15T07:46:39Z</time>
      </trkpt>
      <trkpt lat="44.23652" lon="6.91681">
        <ele>1870</ele>
        <time>2010-08-15T07:46:40Z</time>
      </trkpt>
      <trkpt lat="44.23651" lon="6.91685">
        <ele>1871</ele>
        <time>2010-08-15T07:46:41Z</time>
      </trkpt>
      <trkpt lat="44.23649" lon="6.91689">
        <ele>1871</ele>
        <time>2010-08-15T07:46:42Z</time>
      </trkpt>
      <trkpt lat="44.23647" lon="6.91693">
        <ele>1872</ele>
        <time>2010-08-15T07:46:43Z</time>
      </trkpt>
      <trkpt lat="44.23647" lon="6.91697">
        <ele>1872</ele>
        <time>2010-08-15T07:46:44Z</time>
      </trkpt>
      <trkpt lat="44.23648" lon="6.91701">
        <ele>1871</ele>
        <time>2010-08-15T07:46:45Z</time>
      </trkpt>
      <trkpt lat="44.23647" lon="6.91704">
        <ele>1871</ele>
        <time>2010-08-15T07:46:46Z</time>
      </trkpt>
      <trkpt lat="44.23648" lon="6.91708">
        <ele>1871</ele>
        <time>2010-08-15T07:46:47Z</time>
      </trkpt>
      <trkpt lat="44.23647" lon="6.91712">
        <ele>1871</ele>
        <time>2010-08-15T07:46:48Z</time>
      </trkpt>
      <trkpt lat="44.23647" lon="6.91716">
        <ele>1871</ele>
        <time>2010-08-15T07:46:49Z</time>
      </trkpt>
      <trkpt lat="44.23646" lon="6.91719">
        <ele>1870</ele>
        <time>2010-08-15T07:46:50Z</time>
      </trkpt>
      <trkpt lat="44.23646" lon="6.91722">
        <ele>1870</ele>
        <time>2010-08-15T07:46:51Z</time>
      </trkpt>
      <trkpt lat="44.23646" lon="6.91726">
        <ele>1870</ele>
        <time>2010-08-15T07:46:52Z</time>
      </trkpt>
      <trkpt lat="44.23646" lon="6.91731">
        <ele>1869</ele>
        <time>2010-08-15T07:46:53Z</time>
      </trkpt>
      <trkpt lat="44.23645" lon="6.91735">
        <ele>1868</ele>
        <time>2010-08-15T07:46:54Z</time>
      </trkpt>
      <trkpt lat="44.23645" lon="6.91739">
        <ele>1868</ele>
        <time>2010-08-15T07:46:55Z</time>
      </trkpt>
      <trkpt lat="44.23644" lon="6.91742">
        <ele>1868</ele>
        <time>2010-08-15T07:46:56Z</time>
      </trkpt>
      <trkpt lat="44.23644" lon="6.91745">
        <ele>1868</ele>
        <time>2010-08-15T07:46:57Z</time>
      </trkpt>
      <trkpt lat="44.23643" lon="6.91749">
        <ele>1868</ele>
        <time>2010-08-15T07:46:58Z</time>
      </trkpt>
      <trkpt lat="44.23644" lon="6.91753">
        <ele>1863</ele>
        <time>2010-08-15T07:46:59Z</time>
      </trkpt>
      <trkpt lat="44.23644" lon="6.91757">
        <ele>1863</ele>
        <time>2010-08-15T07:47:00Z</time>
      </trkpt>
      <trkpt lat="44.23645" lon="6.91761">
        <ele>1862</ele>
        <time>2010-08-15T07:47:01Z</time>
      </trkpt>
      <trkpt lat="44.23645" lon="6.91765">
        <ele>1862</ele>
        <time>2010-08-15T07:47:02Z</time>
      </trkpt>
      <trkpt lat="44.23645" lon="6.91768">
        <ele>1863</ele>
        <time>2010-08-15T07:47:03Z</time>
      </trkpt>
      <trkpt lat="44.23645" lon="6.91771">
        <ele>1863</ele>
        <time>2010-08-15T07:47:04Z</time>
      </trkpt>
      <trkpt lat="44.23643" lon="6.91776">
        <ele>1863</ele>
        <time>2010-08-15T07:47:05Z</time>
      </trkpt>
      <trkpt lat="44.2364" lon="6.9178">
        <ele>1864</ele>
        <time>2010-08-15T07:47:06Z</time>
      </trkpt>
      <trkpt lat="44.23638" lon="6.91785">
        <ele>1864</ele>
        <time>2010-08-15T07:47:07Z</time>
      </trkpt>
      <trkpt lat="44.23637" lon="6.91789">
        <ele>1864</ele>
        <time>2010-08-15T07:47:08Z</time>
      </trkpt>
      <trkpt lat="44.23636" lon="6.91793">
        <ele>1864</ele>
        <time>2010-08-15T07:47:09Z</time>
      </trkpt>
      <trkpt lat="44.23635" lon="6.91796">
        <ele>1864</ele>
        <time>2010-08-15T07:47:10Z</time>
      </trkpt>
      <trkpt lat="44.23633" lon="6.918">
        <ele>1864</ele>
        <time>2010-08-15T07:47:11Z</time>
      </trkpt>
      <trkpt lat="44.23631" lon="6.91803">
        <ele>1864</ele>
        <time>2010-08-15T07:47:12Z</time>
      </trkpt>
      <trkpt lat="44.2363" lon="6.91806">
        <ele>1864</ele>
        <time>2010-08-15T07:47:13Z</time>
      </trkpt>
      <trkpt lat="44.23629" lon="6.9181">
        <ele>1864</ele>
        <time>2010-08-15T07:47:14Z</time>
      </trkpt>
      <trkpt lat="44.23627" lon="6.91814">
        <ele>1864</ele>
        <time>2010-08-15T07:47:15Z</time>
      </trkpt>
      <trkpt lat="44.23624" lon="6.91817">
        <ele>1865</ele>
        <time>2010-08-15T07:47:16Z</time>
      </trkpt>
      <trkpt lat="44.23621" lon="6.91821">
        <ele>1866</ele>
        <time>2010-08-15T07:47:17Z</time>
      </trkpt>
      <trkpt lat="44.23617" lon="6.91824">
        <ele>1867</ele>
        <time>2010-08-15T07:47:18Z</time>
      </trkpt>
      <trkpt lat="44.23615" lon="6.91826">
        <ele>1868</ele>
        <time>2010-08-15T07:47:19Z</time>
      </trkpt>
      <trkpt lat="44.23612" lon="6.91829">
        <ele>1868</ele>
        <time>2010-08-15T07:47:20Z</time>
      </trkpt>
      <trkpt lat="44.23612" lon="6.91832">
        <ele>1869</ele>
        <time>2010-08-15T07:47:21Z</time>
      </trkpt>
      <trkpt lat="44.23612" lon="6.91834">
        <ele>1859</ele>
        <time>2010-08-15T07:47:22Z</time>
      </trkpt>
      <trkpt lat="44.23612" lon="6.91838">
        <ele>1859</ele>
        <time>2010-08-15T07:47:23Z</time>
      </trkpt>
      <trkpt lat="44.2361" lon="6.91841">
        <ele>1859</ele>
        <time>2010-08-15T07:47:24Z</time>
      </trkpt>
      <trkpt lat="44.23609" lon="6.91844">
        <ele>1859</ele>
        <time>2010-08-15T07:47:25Z</time>
      </trkpt>
      <trkpt lat="44.23608" lon="6.91847">
        <ele>1859</ele>
        <time>2010-08-15T07:47:26Z</time>
      </trkpt>
      <trkpt lat="44.23606" lon="6.91851">
        <ele>1859</ele>
        <time>2010-08-15T07:47:27Z</time>
      </trkpt>
      <trkpt lat="44.23605" lon="6.91853">
        <ele>1859</ele>
        <time>2010-08-15T07:47:28Z</time>
      </trkpt>
      <trkpt lat="44.23603" lon="6.91856">
        <ele>1859</ele>
        <time>2010-08-15T07:47:29Z</time>
      </trkpt>
      <trkpt lat="44.23602" lon="6.91858">
        <ele>1859</ele>
        <time>2010-08-15T07:47:30Z</time>
      </trkpt>
      <trkpt lat="44.236" lon="6.91862">
        <ele>1858</ele>
        <time>2010-08-15T07:47:31Z</time>
      </trkpt>
      <trkpt lat="44.23598" lon="6.91866">
        <ele>1858</ele>
        <time>2010-08-15T07:47:32Z</time>
      </trkpt>
      <trkpt lat="44.23596" lon="6.9187">
        <ele>1857</ele>
        <time>2010-08-15T07:47:33Z</time>
      </trkpt>
      <trkpt lat="44.23594" lon="6.91874">
        <ele>1857</ele>
        <time>2010-08-15T07:47:34Z</time>
      </trkpt>
      <trkpt lat="44.23591" lon="6.91878">
        <ele>1857</ele>
        <time>2010-08-15T07:47:35Z</time>
      </trkpt>
      <trkpt lat="44.2359" lon="6.91883">
        <ele>1856</ele>
        <time>2010-08-15T07:47:36Z</time>
      </trkpt>
      <trkpt lat="44.23587" lon="6.91887">
        <ele>1856</ele>
        <time>2010-08-15T07:47:37Z</time>
      </trkpt>
      <trkpt lat="44.23585" lon="6.91891">
        <ele>1857</ele>
        <time>2010-08-15T07:47:38Z</time>
      </trkpt>
      <trkpt lat="44.23583" lon="6.91894">
        <ele>1876</ele>
        <time>2010-08-15T07:47:39Z</time>
      </trkpt>
      <trkpt lat="44.23582" lon="6.91897">
        <ele>1875</ele>
        <time>2010-08-15T07:47:40Z</time>
      </trkpt>
      <trkpt lat="44.23581" lon="6.91901">
        <ele>1874</ele>
        <time>2010-08-15T07:47:41Z</time>
      </trkpt>
      <trkpt lat="44.23579" lon="6.91904">
        <ele>1873</ele>
        <time>2010-08-15T07:47:42Z</time>
      </trkpt>
      <trkpt lat="44.23577" lon="6.91908">
        <ele>1871</ele>
        <time>2010-08-15T07:47:43Z</time>
      </trkpt>
      <trkpt lat="44.23576" lon="6.91911">
        <ele>1870</ele>
        <time>2010-08-15T07:47:44Z</time>
      </trkpt>
      <trkpt lat="44.23573" lon="6.91914">
        <ele>1871</ele>
        <time>2010-08-15T07:47:45Z</time>
      </trkpt>
      <trkpt lat="44.23572" lon="6.91917">
        <ele>1865</ele>
        <time>2010-08-15T07:47:46Z</time>
      </trkpt>
      <trkpt lat="44.23572" lon="6.9192">
        <ele>1865</ele>
        <time>2010-08-15T07:47:47Z</time>
      </trkpt>
      <trkpt lat="44.23571" lon="6.91923">
        <ele>1865</ele>
        <time>2010-08-15T07:47:48Z</time>
      </trkpt>
      <trkpt lat="44.23569" lon="6.91926">
        <ele>1866</ele>
        <time>2010-08-15T07:47:49Z</time>
      </trkpt>
      <trkpt lat="44.23567" lon="6.91929">
        <ele>1866</ele>
        <time>2010-08-15T07:47:50Z</time>
      </trkpt>
      <trkpt lat="44.23565" lon="6.91933">
        <ele>1866</ele>
        <time>2010-08-15T07:47:51Z</time>
      </trkpt>
      <trkpt lat="44.23563" lon="6.91936">
        <ele>1867</ele>
        <time>2010-08-15T07:47:52Z</time>
      </trkpt>
      <trkpt lat="44.2356" lon="6.9194">
        <ele>1867</ele>
        <time>2010-08-15T07:47:53Z</time>
      </trkpt>
      <trkpt lat="44.23558" lon="6.91944">
        <ele>1867</ele>
        <time>2010-08-15T07:47:54Z</time>
      </trkpt>
      <trkpt lat="44.23556" lon="6.91947">
        <ele>1867</ele>
        <time>2010-08-15T07:47:55Z</time>
      </trkpt>
      <trkpt lat="44.23555" lon="6.91951">
        <ele>1867</ele>
        <time>2010-08-15T07:47:56Z</time>
      </trkpt>
      <trkpt lat="44.23554" lon="6.91954">
        <ele>1866</ele>
        <time>2010-08-15T07:47:57Z</time>
      </trkpt>
      <trkpt lat="44.23553" lon="6.91956">
        <ele>1866</ele>
        <time>2010-08-15T07:47:58Z</time>
      </trkpt>
      <trkpt lat="44.23552" lon="6.91959">
        <ele>1866</ele>
        <time>2010-08-15T07:47:59Z</time>
      </trkpt>
      <trkpt lat="44.2355" lon="6.91963">
        <ele>1866</ele>
        <time>2010-08-15T07:48:00Z</time>
      </trkpt>
      <trkpt lat="44.23548" lon="6.91965">
        <ele>1866</ele>
        <time>2010-08-15T07:48:01Z</time>
      </trkpt>
      <trkpt lat="44.23545" lon="6.91968">
        <ele>1866</ele>
        <time>2010-08-15T07:48:02Z</time>
      </trkpt>
      <trkpt lat="44.23543" lon="6.9197">
        <ele>1866</ele>
        <time>2010-08-15T07:48:03Z</time>
      </trkpt>
      <trkpt lat="44.23541" lon="6.91973">
        <ele>1866</ele>
        <time>2010-08-15T07:48:04Z</time>
      </trkpt>
      <trkpt lat="44.23539" lon="6.91975">
        <ele>1866</ele>
        <time>2010-08-15T07:48:05Z</time>
      </trkpt>
      <trkpt lat="44.23538" lon="6.91978">
        <ele>1866</ele>
        <time>2010-08-15T07:48:06Z</time>
      </trkpt>
      <trkpt lat="44.23535" lon="6.91982">
        <ele>1867</ele>
        <time>2010-08-15T07:48:07Z</time>
      </trkpt>
      <trkpt lat="44.23533" lon="6.91986">
        <ele>1867</ele>
        <time>2010-08-15T07:48:08Z</time>
      </trkpt>
      <trkpt lat="44.2353" lon="6.91991">
        <ele>1867</ele>
        <time>2010-08-15T07:48:09Z</time>
      </trkpt>
      <trkpt lat="44.23528" lon="6.91994">
        <ele>1868</ele>
        <time>2010-08-15T07:48:10Z</time>
      </trkpt>
      <trkpt lat="44.23524" lon="6.91999">
        <ele>1868</ele>
        <time>2010-08-15T07:48:11Z</time>
      </trkpt>
      <trkpt lat="44.2352" lon="6.92003">
        <ele>1859</ele>
        <time>2010-08-15T07:48:12Z</time>
      </trkpt>
      <trkpt lat="44.23516" lon="6.92005">
        <ele>1861</ele>
        <time>2010-08-15T07:48:13Z</time>
      </trkpt>
      <trkpt lat="44.23513" lon="6.92009">
        <ele>1861</ele>
        <time>2010-08-15T07:48:14Z</time>
      </trkpt>
      <trkpt lat="44.2351" lon="6.92012">
        <ele>1861</ele>
        <time>2010-08-15T07:48:15Z</time>
      </trkpt>
      <trkpt lat="44.23506" lon="6.92016">
        <ele>1861</ele>
        <time>2010-08-15T07:48:16Z</time>
      </trkpt>
      <trkpt lat="44.23504" lon="6.92019">
        <ele>1860</ele>
        <time>2010-08-15T07:48:17Z</time>
      </trkpt>
      <trkpt lat="44.23501" lon="6.92021">
        <ele>1859</ele>
        <time>2010-08-15T07:48:18Z</time>
      </trkpt>
      <trkpt lat="44.23499" lon="6.92023">
        <ele>1869</ele>
        <time>2010-08-15T07:48:19Z</time>
      </trkpt>
      <trkpt lat="44.23497" lon="6.92025">
        <ele>1869</ele>
        <time>2010-08-15T07:48:20Z</time>
      </trkpt>
      <trkpt lat="44.23494" lon="6.92026">
        <ele>1868</ele>
        <time>2010-08-15T07:48:21Z</time>
      </trkpt>
      <trkpt lat="44.23492" lon="6.92028">
        <ele>1868</ele>
        <time>2010-08-15T07:48:22Z</time>
      </trkpt>
      <trkpt lat="44.23488" lon="6.92032">
        <ele>1867</ele>
        <time>2010-08-15T07:48:23Z</time>
      </trkpt>
      <trkpt lat="44.23486" lon="6.92035">
        <ele>1867</ele>
        <time>2010-08-15T07:48:24Z</time>
      </trkpt>
      <trkpt lat="44.23484" lon="6.92038">
        <ele>1867</ele>
        <time>2010-08-15T07:48:25Z</time>
      </trkpt>
      <trkpt lat="44.23482" lon="6.92041">
        <ele>1866</ele>
        <time>2010-08-15T07:48:26Z</time>
      </trkpt>
      <trkpt lat="44.2348" lon="6.92045">
        <ele>1866</ele>
        <time>2010-08-15T07:48:27Z</time>
      </trkpt>
      <trkpt lat="44.23479" lon="6.92047">
        <ele>1865</ele>
        <time>2010-08-15T07:48:28Z</time>
      </trkpt>
      <trkpt lat="44.23477" lon="6.92049">
        <ele>1865</ele>
        <time>2010-08-15T07:48:29Z</time>
      </trkpt>
      <trkpt lat="44.23475" lon="6.92052">
        <ele>1865</ele>
        <time>2010-08-15T07:48:30Z</time>
      </trkpt>
      <trkpt lat="44.23473" lon="6.92054">
        <ele>1865</ele>
        <time>2010-08-15T07:48:31Z</time>
      </trkpt>
      <trkpt lat="44.23469" lon="6.92057">
        <ele>1865</ele>
        <time>2010-08-15T07:48:32Z</time>
      </trkpt>
      <trkpt lat="44.23465" lon="6.9206">
        <ele>1865</ele>
        <time>2010-08-15T07:48:33Z</time>
      </trkpt>
      <trkpt lat="44.23462" lon="6.9206">
        <ele>1865</ele>
        <time>2010-08-15T07:48:34Z</time>
      </trkpt>
      <trkpt lat="44.23459" lon="6.9206">
        <ele>1865</ele>
        <time>2010-08-15T07:48:35Z</time>
      </trkpt>
      <trkpt lat="44.23457" lon="6.9206">
        <ele>1865</ele>
        <time>2010-08-15T07:48:36Z</time>
      </trkpt>
      <trkpt lat="44.23456" lon="6.92058">
        <ele>1865</ele>
        <time>2010-08-15T07:48:37Z</time>
      </trkpt>
      <trkpt lat="44.23455" lon="6.92056">
        <ele>1866</ele>
        <time>2010-08-15T07:48:38Z</time>
      </trkpt>
      <trkpt lat="44.23453" lon="6.92056">
        <ele>1866</ele>
        <time>2010-08-15T07:48:39Z</time>
      </trkpt>
      <trkpt lat="44.2345" lon="6.92055">
        <ele>1866</ele>
        <time>2010-08-15T07:48:40Z</time>
      </trkpt>
      <trkpt lat="44.23448" lon="6.92055">
        <ele>1866</ele>
        <time>2010-08-15T07:48:41Z</time>
      </trkpt>
      <trkpt lat="44.23445" lon="6.92055">
        <ele>1866</ele>
        <time>2010-08-15T07:48:42Z</time>
      </trkpt>
      <trkpt lat="44.23442" lon="6.92055">
        <ele>1866</ele>
        <time>2010-08-15T07:48:43Z</time>
      </trkpt>
      <trkpt lat="44.23439" lon="6.92055">
        <ele>1866</ele>
        <time>2010-08-15T07:48:44Z</time>
      </trkpt>
      <trkpt lat="44.23437" lon="6.92055">
        <ele>1866</ele>
        <time>2010-08-15T07:48:45Z</time>
      </trkpt>
      <trkpt lat="44.23434" lon="6.92056">
        <ele>1866</ele>
        <time>2010-08-15T07:48:46Z</time>
      </trkpt>
      <trkpt lat="44.23432" lon="6.92058">
        <ele>1866</ele>
        <time>2010-08-15T07:48:47Z</time>
      </trkpt>
      <trkpt lat="44.2343" lon="6.9206">
        <ele>1866</ele>
        <time>2010-08-15T07:48:48Z</time>
      </trkpt>
      <trkpt lat="44.23428" lon="6.92062">
        <ele>1865</ele>
        <time>2010-08-15T07:48:49Z</time>
      </trkpt>
      <trkpt lat="44.23427" lon="6.92065">
        <ele>1865</ele>
        <time>2010-08-15T07:48:50Z</time>
      </trkpt>
      <trkpt lat="44.23426" lon="6.92068">
        <ele>1864</ele>
        <time>2010-08-15T07:48:51Z</time>
      </trkpt>
      <trkpt lat="44.23425" lon="6.92072">
        <ele>1864</ele>
        <time>2010-08-15T07:48:52Z</time>
      </trkpt>
      <trkpt lat="44.23423" lon="6.92075">
        <ele>1863</ele>
        <time>2010-08-15T07:48:53Z</time>
      </trkpt>
      <trkpt lat="44.2342" lon="6.92079">
        <ele>1862</ele>
        <time>2010-08-15T07:48:54Z</time>
      </trkpt>
      <trkpt lat="44.23418" lon="6.92083">
        <ele>1861</ele>
        <time>2010-08-15T07:48:55Z</time>
      </trkpt>
      <trkpt lat="44.23415" lon="6.92086">
        <ele>1860</ele>
        <time>2010-08-15T07:48:56Z</time>
      </trkpt>
      <trkpt lat="44.23413" lon="6.9209">
        <ele>1858</ele>
        <time>2010-08-15T07:48:57Z</time>
      </trkpt>
      <trkpt lat="44.2341" lon="6.92094">
        <ele>1857</ele>
        <time>2010-08-15T07:48:58Z</time>
      </trkpt>
      <trkpt lat="44.23408" lon="6.92097">
        <ele>1856</ele>
        <time>2010-08-15T07:48:59Z</time>
      </trkpt>
      <trkpt lat="44.23405" lon="6.921">
        <ele>1855</ele>
        <time>2010-08-15T07:49:00Z</time>
      </trkpt>
      <trkpt lat="44.23403" lon="6.92102">
        <ele>1854</ele>
        <time>2010-08-15T07:49:01Z</time>
      </trkpt>
      <trkpt lat="44.234" lon="6.92105">
        <ele>1854</ele>
        <time>2010-08-15T07:49:02Z</time>
      </trkpt>
      <trkpt lat="44.23397" lon="6.92109">
        <ele>1853</ele>
        <time>2010-08-15T07:49:03Z</time>
      </trkpt>
      <trkpt lat="44.23394" lon="6.92113">
        <ele>1852</ele>
        <time>2010-08-15T07:49:04Z</time>
      </trkpt>
      <trkpt lat="44.23391" lon="6.92118">
        <ele>1852</ele>
        <time>2010-08-15T07:49:05Z</time>
      </trkpt>
      <trkpt lat="44.23389" lon="6.92122">
        <ele>1851</ele>
        <time>2010-08-15T07:49:06Z</time>
      </trkpt>
      <trkpt lat="44.23387" lon="6.92127">
        <ele>1851</ele>
        <time>2010-08-15T07:49:07Z</time>
      </trkpt>
      <trkpt lat="44.23385" lon="6.92132">
        <ele>1850</ele>
        <time>2010-08-15T07:49:08Z</time>
      </trkpt>
      <trkpt lat="44.23384" lon="6.92138">
        <ele>1850</ele>
        <time>2010-08-15T07:49:09Z</time>
      </trkpt>
      <trkpt lat="44.23383" lon="6.92143">
        <ele>1850</ele>
        <time>2010-08-15T07:49:10Z</time>
      </trkpt>
      <trkpt lat="44.23381" lon="6.92148">
        <ele>1850</ele>
        <time>2010-08-15T07:49:11Z</time>
      </trkpt>
      <trkpt lat="44.2338" lon="6.92153">
        <ele>1849</ele>
        <time>2010-08-15T07:49:12Z</time>
      </trkpt>
      <trkpt lat="44.23378" lon="6.92158">
        <ele>1849</ele>
        <time>2010-08-15T07:49:13Z</time>
      </trkpt>
      <trkpt lat="44.23377" lon="6.92161">
        <ele>1849</ele>
        <time>2010-08-15T07:49:14Z</time>
      </trkpt>
      <trkpt lat="44.23375" lon="6.92165">
        <ele>1849</ele>
        <time>2010-08-15T07:49:15Z</time>
      </trkpt>
      <trkpt lat="44.23374" lon="6.92169">
        <ele>1843</ele>
        <time>2010-08-15T07:49:16Z</time>
      </trkpt>
      <trkpt lat="44.23372" lon="6.92173">
        <ele>1843</ele>
        <time>2010-08-15T07:49:17Z</time>
      </trkpt>
      <trkpt lat="44.2337" lon="6.92177">
        <ele>1842</ele>
        <time>2010-08-15T07:49:18Z</time>
      </trkpt>
      <trkpt lat="44.23368" lon="6.92181">
        <ele>1842</ele>
        <time>2010-08-15T07:49:19Z</time>
      </trkpt>
      <trkpt lat="44.23366" lon="6.92186">
        <ele>1842</ele>
        <time>2010-08-15T07:49:20Z</time>
      </trkpt>
      <trkpt lat="44.23364" lon="6.92191">
        <ele>1842</ele>
        <time>2010-08-15T07:49:21Z</time>
      </trkpt>
      <trkpt lat="44.23362" lon="6.92195">
        <ele>1841</ele>
        <time>2010-08-15T07:49:22Z</time>
      </trkpt>
      <trkpt lat="44.23359" lon="6.92199">
        <ele>1841</ele>
        <time>2010-08-15T07:49:23Z</time>
      </trkpt>
      <trkpt lat="44.23357" lon="6.92203">
        <ele>1841</ele>
        <time>2010-08-15T07:49:24Z</time>
      </trkpt>
      <trkpt lat="44.23355" lon="6.92207">
        <ele>1841</ele>
        <time>2010-08-15T07:49:25Z</time>
      </trkpt>
      <trkpt lat="44.23353" lon="6.92211">
        <ele>1840</ele>
        <time>2010-08-15T07:49:26Z</time>
      </trkpt>
      <trkpt lat="44.2335" lon="6.92216">
        <ele>1840</ele>
        <time>2010-08-15T07:49:27Z</time>
      </trkpt>
      <trkpt lat="44.23348" lon="6.9222">
        <ele>1840</ele>
        <time>2010-08-15T07:49:28Z</time>
      </trkpt>
      <trkpt lat="44.23346" lon="6.92223">
        <ele>1839</ele>
        <time>2010-08-15T07:49:29Z</time>
      </trkpt>
      <trkpt lat="44.23343" lon="6.92227">
        <ele>1839</ele>
        <time>2010-08-15T07:49:30Z</time>
      </trkpt>
      <trkpt lat="44.2334" lon="6.9223">
        <ele>1839</ele>
        <time>2010-08-15T07:49:31Z</time>
      </trkpt>
      <trkpt lat="44.23337" lon="6.92233">
        <ele>1839</ele>
        <time>2010-08-15T07:49:32Z</time>
      </trkpt>
      <trkpt lat="44.23334" lon="6.92236">
        <ele>1838</ele>
        <time>2010-08-15T07:49:33Z</time>
      </trkpt>
      <trkpt lat="44.23331" lon="6.92238">
        <ele>1836</ele>
        <time>2010-08-15T07:49:34Z</time>
      </trkpt>
      <trkpt lat="44.23328" lon="6.9224">
        <ele>1836</ele>
        <time>2010-08-15T07:49:35Z</time>
      </trkpt>
      <trkpt lat="44.23325" lon="6.92242">
        <ele>1836</ele>
        <time>2010-08-15T07:49:36Z</time>
      </trkpt>
      <trkpt lat="44.23322" lon="6.92244">
        <ele>1835</ele>
        <time>2010-08-15T07:49:37Z</time>
      </trkpt>
      <trkpt lat="44.23319" lon="6.92247">
        <ele>1835</ele>
        <time>2010-08-15T07:49:38Z</time>
      </trkpt>
      <trkpt lat="44.23316" lon="6.9225">
        <ele>1835</ele>
        <time>2010-08-15T07:49:39Z</time>
      </trkpt>
      <trkpt lat="44.23314" lon="6.92253">
        <ele>1832</ele>
        <time>2010-08-15T07:49:40Z</time>
      </trkpt>
      <trkpt lat="44.23311" lon="6.92256">
        <ele>1831</ele>
        <time>2010-08-15T07:49:41Z</time>
      </trkpt>
      <trkpt lat="44.23307" lon="6.92258">
        <ele>1831</ele>
        <time>2010-08-15T07:49:42Z</time>
      </trkpt>
      <trkpt lat="44.23304" lon="6.92261">
        <ele>1830</ele>
        <time>2010-08-15T07:49:43Z</time>
      </trkpt>
      <trkpt lat="44.23302" lon="6.92263">
        <ele>1830</ele>
        <time>2010-08-15T07:49:44Z</time>
      </trkpt>
      <trkpt lat="44.23299" lon="6.92266">
        <ele>1829</ele>
        <time>2010-08-15T07:49:45Z</time>
      </trkpt>
      <trkpt lat="44.23296" lon="6.92268">
        <ele>1829</ele>
        <time>2010-08-15T07:49:46Z</time>
      </trkpt>
      <trkpt lat="44.23293" lon="6.92271">
        <ele>1829</ele>
        <time>2010-08-15T07:49:47Z</time>
      </trkpt>
      <trkpt lat="44.23291" lon="6.92273">
        <ele>1829</ele>
        <time>2010-08-15T07:49:48Z</time>
      </trkpt>
      <trkpt lat="44.2329" lon="6.92276">
        <ele>1828</ele>
        <time>2010-08-15T07:49:49Z</time>
      </trkpt>
      <trkpt lat="44.23288" lon="6.9228">
        <ele>1828</ele>
        <time>2010-08-15T07:49:50Z</time>
      </trkpt>
      <trkpt lat="44.23286" lon="6.92284">
        <ele>1828</ele>
        <time>2010-08-15T07:49:51Z</time>
      </trkpt>
      <trkpt lat="44.23283" lon="6.92288">
        <ele>1828</ele>
        <time>2010-08-15T07:49:52Z</time>
      </trkpt>
      <trkpt lat="44.23281" lon="6.92292">
        <ele>1827</ele>
        <time>2010-08-15T07:49:53Z</time>
      </trkpt>
      <trkpt lat="44.23278" lon="6.92294">
        <ele>1827</ele>
        <time>2010-08-15T07:49:54Z</time>
      </trkpt>
      <trkpt lat="44.23275" lon="6.92297">
        <ele>1827</ele>
        <time>2010-08-15T07:49:55Z</time>
      </trkpt>
      <trkpt lat="44.23272" lon="6.92299">
        <ele>1827</ele>
        <time>2010-08-15T07:49:56Z</time>
      </trkpt>
      <trkpt lat="44.23269" lon="6.92303">
        <ele>1827</ele>
        <time>2010-08-15T07:49:57Z</time>
      </trkpt>
      <trkpt lat="44.23266" lon="6.92305">
        <ele>1826</ele>
        <time>2010-08-15T07:49:58Z</time>
      </trkpt>
      <trkpt lat="44.23264" lon="6.92308">
        <ele>1826</ele>
        <time>2010-08-15T07:49:59Z</time>
      </trkpt>
      <trkpt lat="44.23261" lon="6.92311">
        <ele>1826</ele>
        <time>2010-08-15T07:50:00Z</time>
      </trkpt>
      <trkpt lat="44.23258" lon="6.92315">
        <ele>1826</ele>
        <time>2010-08-15T07:50:01Z</time>
      </trkpt>
      <trkpt lat="44.23256" lon="6.92318">
        <ele>1826</ele>
        <time>2010-08-15T07:50:02Z</time>
      </trkpt>
      <trkpt lat="44.23253" lon="6.92321">
        <ele>1825</ele>
        <time>2010-08-15T07:50:03Z</time>
      </trkpt>
      <trkpt lat="44.2325" lon="6.92325">
        <ele>1825</ele>
        <time>2010-08-15T07:50:04Z</time>
      </trkpt>
      <trkpt lat="44.23246" lon="6.92329">
        <ele>1821</ele>
        <time>2010-08-15T07:50:05Z</time>
      </trkpt>
      <trkpt lat="44.23243" lon="6.92333">
        <ele>1820</ele>
        <time>2010-08-15T07:50:06Z</time>
      </trkpt>
      <trkpt lat="44.23239" lon="6.92337">
        <ele>1817</ele>
        <time>2010-08-15T07:50:07Z</time>
      </trkpt>
      <trkpt lat="44.23236" lon="6.92342">
        <ele>1815</ele>
        <time>2010-08-15T07:50:08Z</time>
      </trkpt>
      <trkpt lat="44.23234" lon="6.92346">
        <ele>1813</ele>
        <time>2010-08-15T07:50:09Z</time>
      </trkpt>
      <trkpt lat="44.23232" lon="6.9235">
        <ele>1812</ele>
        <time>2010-08-15T07:50:10Z</time>
      </trkpt>
      <trkpt lat="44.23229" lon="6.92354">
        <ele>1811</ele>
        <time>2010-08-15T07:50:11Z</time>
      </trkpt>
      <trkpt lat="44.23227" lon="6.92357">
        <ele>1810</ele>
        <time>2010-08-15T07:50:12Z</time>
      </trkpt>
      <trkpt lat="44.23225" lon="6.92361">
        <ele>1809</ele>
        <time>2010-08-15T07:50:13Z</time>
      </trkpt>
      <trkpt lat="44.23223" lon="6.92365">
        <ele>1808</ele>
        <time>2010-08-15T07:50:14Z</time>
      </trkpt>
      <trkpt lat="44.23222" lon="6.92367">
        <ele>1808</ele>
        <time>2010-08-15T07:50:15Z</time>
      </trkpt>
      <trkpt lat="44.2322" lon="6.92371">
        <ele>1807</ele>
        <time>2010-08-15T07:50:16Z</time>
      </trkpt>
      <trkpt lat="44.23218" lon="6.92374">
        <ele>1807</ele>
        <time>2010-08-15T07:50:17Z</time>
      </trkpt>
      <trkpt lat="44.23216" lon="6.92378">
        <ele>1806</ele>
        <time>2010-08-15T07:50:18Z</time>
      </trkpt>
      <trkpt lat="44.23214" lon="6.92382">
        <ele>1806</ele>
        <time>2010-08-15T07:50:19Z</time>
      </trkpt>
      <trkpt lat="44.23212" lon="6.92385">
        <ele>1806</ele>
        <time>2010-08-15T07:50:20Z</time>
      </trkpt>
      <trkpt lat="44.2321" lon="6.92389">
        <ele>1805</ele>
        <time>2010-08-15T07:50:21Z</time>
      </trkpt>
      <trkpt lat="44.23208" lon="6.92393">
        <ele>1805</ele>
        <time>2010-08-15T07:50:22Z</time>
      </trkpt>
      <trkpt lat="44.23206" lon="6.92397">
        <ele>1804</ele>
        <time>2010-08-15T07:50:23Z</time>
      </trkpt>
      <trkpt lat="44.23204" lon="6.924">
        <ele>1804</ele>
        <time>2010-08-15T07:50:24Z</time>
      </trkpt>
      <trkpt lat="44.23203" lon="6.92404">
        <ele>1804</ele>
        <time>2010-08-15T07:50:25Z</time>
      </trkpt>
      <trkpt lat="44.23201" lon="6.92408">
        <ele>1803</ele>
        <time>2010-08-15T07:50:26Z</time>
      </trkpt>
      <trkpt lat="44.232" lon="6.92413">
        <ele>1803</ele>
        <time>2010-08-15T07:50:27Z</time>
      </trkpt>
      <trkpt lat="44.23199" lon="6.92418">
        <ele>1798</ele>
        <time>2010-08-15T07:50:28Z</time>
      </trkpt>
      <trkpt lat="44.23198" lon="6.92424">
        <ele>1797</ele>
        <time>2010-08-15T07:50:29Z</time>
      </trkpt>
      <trkpt lat="44.23198" lon="6.92429">
        <ele>1797</ele>
        <time>2010-08-15T07:50:30Z</time>
      </trkpt>
      <trkpt lat="44.23199" lon="6.92434">
        <ele>1797</ele>
        <time>2010-08-15T07:50:31Z</time>
      </trkpt>
      <trkpt lat="44.232" lon="6.92439">
        <ele>1797</ele>
        <time>2010-08-15T07:50:32Z</time>
      </trkpt>
      <trkpt lat="44.23202" lon="6.92443">
        <ele>1797</ele>
        <time>2010-08-15T07:50:33Z</time>
      </trkpt>
      <trkpt lat="44.23203" lon="6.92447">
        <ele>1797</ele>
        <time>2010-08-15T07:50:34Z</time>
      </trkpt>
      <trkpt lat="44.23205" lon="6.9245">
        <ele>1797</ele>
        <time>2010-08-15T07:50:35Z</time>
      </trkpt>
      <trkpt lat="44.23208" lon="6.92454">
        <ele>1797</ele>
        <time>2010-08-15T07:50:36Z</time>
      </trkpt>
      <trkpt lat="44.2321" lon="6.92457">
        <ele>1797</ele>
        <time>2010-08-15T07:50:37Z</time>
      </trkpt>
      <trkpt lat="44.23213" lon="6.92459">
        <ele>1797</ele>
        <time>2010-08-15T07:50:38Z</time>
      </trkpt>
      <trkpt lat="44.23216" lon="6.9246">
        <ele>1797</ele>
        <time>2010-08-15T07:50:39Z</time>
      </trkpt>
      <trkpt lat="44.23218" lon="6.92462">
        <ele>1797</ele>
        <time>2010-08-15T07:50:40Z</time>
      </trkpt>
      <trkpt lat="44.23221" lon="6.92464">
        <ele>1797</ele>
        <time>2010-08-15T07:50:41Z</time>
      </trkpt>
      <trkpt lat="44.23224" lon="6.92465">
        <ele>1797</ele>
        <time>2010-08-15T07:50:42Z</time>
      </trkpt>
      <trkpt lat="44.23227" lon="6.92465">
        <ele>1797</ele>
        <time>2010-08-15T07:50:43Z</time>
      </trkpt>
      <trkpt lat="44.23231" lon="6.92465">
        <ele>1797</ele>
        <time>2010-08-15T07:50:44Z</time>
      </trkpt>
      <trkpt lat="44.23235" lon="6.92465">
        <ele>1797</ele>
        <time>2010-08-15T07:50:45Z</time>
      </trkpt>
      <trkpt lat="44.23238" lon="6.92466">
        <ele>1797</ele>
        <time>2010-08-15T07:50:46Z</time>
      </trkpt>
      <trkpt lat="44.23241" lon="6.92468">
        <ele>1797</ele>
        <time>2010-08-15T07:50:47Z</time>
      </trkpt>
      <trkpt lat="44.23245" lon="6.9247">
        <ele>1797</ele>
        <time>2010-08-15T07:50:48Z</time>
      </trkpt>
      <trkpt lat="44.23249" lon="6.92473">
        <ele>1796</ele>
        <time>2010-08-15T07:50:49Z</time>
      </trkpt>
      <trkpt lat="44.23253" lon="6.92475">
        <ele>1797</ele>
        <time>2010-08-15T07:50:50Z</time>
      </trkpt>
      <trkpt lat="44.23255" lon="6.92479">
        <ele>1797</ele>
        <time>2010-08-15T07:50:51Z</time>
      </trkpt>
      <trkpt lat="44.23259" lon="6.92483">
        <ele>1796</ele>
        <time>2010-08-15T07:50:52Z</time>
      </trkpt>
      <trkpt lat="44.23262" lon="6.92487">
        <ele>1796</ele>
        <time>2010-08-15T07:50:53Z</time>
      </trkpt>
      <trkpt lat="44.23265" lon="6.92492">
        <ele>1796</ele>
        <time>2010-08-15T07:50:54Z</time>
      </trkpt>
      <trkpt lat="44.23268" lon="6.92496">
        <ele>1796</ele>
        <time>2010-08-15T07:50:55Z</time>
      </trkpt>
      <trkpt lat="44.23271" lon="6.925">
        <ele>1790</ele>
        <time>2010-08-15T07:50:56Z</time>
      </trkpt>
      <trkpt lat="44.23273" lon="6.92505">
        <ele>1790</ele>
        <time>2010-08-15T07:50:57Z</time>
      </trkpt>
      <trkpt lat="44.23275" lon="6.9251">
        <ele>1790</ele>
        <time>2010-08-15T07:50:58Z</time>
      </trkpt>
      <trkpt lat="44.23276" lon="6.92516">
        <ele>1790</ele>
        <time>2010-08-15T07:50:59Z</time>
      </trkpt>
      <trkpt lat="44.23276" lon="6.92521">
        <ele>1790</ele>
        <time>2010-08-15T07:51:00Z</time>
      </trkpt>
      <trkpt lat="44.23276" lon="6.92526">
        <ele>1789</ele>
        <time>2010-08-15T07:51:01Z</time>
      </trkpt>
      <trkpt lat="44.23276" lon="6.92531">
        <ele>1789</ele>
        <time>2010-08-15T07:51:02Z</time>
      </trkpt>
      <trkpt lat="44.23275" lon="6.92536">
        <ele>1789</ele>
        <time>2010-08-15T07:51:03Z</time>
      </trkpt>
      <trkpt lat="44.23273" lon="6.92542">
        <ele>1789</ele>
        <time>2010-08-15T07:51:04Z</time>
      </trkpt>
      <trkpt lat="44.23272" lon="6.92547">
        <ele>1788</ele>
        <time>2010-08-15T07:51:05Z</time>
      </trkpt>
      <trkpt lat="44.23271" lon="6.92551">
        <ele>1788</ele>
        <time>2010-08-15T07:51:06Z</time>
      </trkpt>
      <trkpt lat="44.2327" lon="6.92554">
        <ele>1788</ele>
        <time>2010-08-15T07:51:07Z</time>
      </trkpt>
      <trkpt lat="44.23268" lon="6.92557">
        <ele>1787</ele>
        <time>2010-08-15T07:51:08Z</time>
      </trkpt>
      <trkpt lat="44.23267" lon="6.9256">
        <ele>1787</ele>
        <time>2010-08-15T07:51:09Z</time>
      </trkpt>
      <trkpt lat="44.23266" lon="6.92564">
        <ele>1787</ele>
        <time>2010-08-15T07:51:10Z</time>
      </trkpt>
      <trkpt lat="44.23265" lon="6.92567">
        <ele>1786</ele>
        <time>2010-08-15T07:51:11Z</time>
      </trkpt>
      <trkpt lat="44.23264" lon="6.92571">
        <ele>1786</ele>
        <time>2010-08-15T07:51:12Z</time>
      </trkpt>
      <trkpt lat="44.23263" lon="6.92575">
        <ele>1785</ele>
        <time>2010-08-15T07:51:13Z</time>
      </trkpt>
      <trkpt lat="44.23262" lon="6.9258">
        <ele>1785</ele>
        <time>2010-08-15T07:51:14Z</time>
      </trkpt>
      <trkpt lat="44.23262" lon="6.92584">
        <ele>1782</ele>
        <time>2010-08-15T07:51:15Z</time>
      </trkpt>
      <trkpt lat="44.23262" lon="6.92588">
        <ele>1782</ele>
        <time>2010-08-15T07:51:16Z</time>
      </trkpt>
      <trkpt lat="44.23262" lon="6.92592">
        <ele>1782</ele>
        <time>2010-08-15T07:51:17Z</time>
      </trkpt>
      <trkpt lat="44.23264" lon="6.92596">
        <ele>1782</ele>
        <time>2010-08-15T07:51:18Z</time>
      </trkpt>
      <trkpt lat="44.23266" lon="6.926">
        <ele>1782</ele>
        <time>2010-08-15T07:51:19Z</time>
      </trkpt>
      <trkpt lat="44.23268" lon="6.92602">
        <ele>1782</ele>
        <time>2010-08-15T07:51:20Z</time>
      </trkpt>
      <trkpt lat="44.23271" lon="6.92604">
        <ele>1782</ele>
        <time>2010-08-15T07:51:21Z</time>
      </trkpt>
      <trkpt lat="44.23274" lon="6.92606">
        <ele>1782</ele>
        <time>2010-08-15T07:51:22Z</time>
      </trkpt>
      <trkpt lat="44.23278" lon="6.92609">
        <ele>1782</ele>
        <time>2010-08-15T07:51:23Z</time>
      </trkpt>
      <trkpt lat="44.23281" lon="6.92612">
        <ele>1782</ele>
        <time>2010-08-15T07:51:24Z</time>
      </trkpt>
      <trkpt lat="44.23283" lon="6.92615">
        <ele>1782</ele>
        <time>2010-08-15T07:51:25Z</time>
      </trkpt>
      <trkpt lat="44.23286" lon="6.92617">
        <ele>1782</ele>
        <time>2010-08-15T07:51:26Z</time>
      </trkpt>
      <trkpt lat="44.23289" lon="6.92619">
        <ele>1782</ele>
        <time>2010-08-15T07:51:27Z</time>
      </trkpt>
      <trkpt lat="44.23293" lon="6.9262">
        <ele>1782</ele>
        <time>2010-08-15T07:51:28Z</time>
      </trkpt>
      <trkpt lat="44.23296" lon="6.92622">
        <ele>1782</ele>
        <time>2010-08-15T07:51:29Z</time>
      </trkpt>
      <trkpt lat="44.23299" lon="6.92625">
        <ele>1783</ele>
        <time>2010-08-15T07:51:30Z</time>
      </trkpt>
      <trkpt lat="44.23302" lon="6.92627">
        <ele>1783</ele>
        <time>2010-08-15T07:51:31Z</time>
      </trkpt>
      <trkpt lat="44.23305" lon="6.9263">
        <ele>1783</ele>
        <time>2010-08-15T07:51:32Z</time>
      </trkpt>
      <trkpt lat="44.23308" lon="6.92633">
        <ele>1783</ele>
        <time>2010-08-15T07:51:33Z</time>
      </trkpt>
      <trkpt lat="44.23312" lon="6.92635">
        <ele>1783</ele>
        <time>2010-08-15T07:51:34Z</time>
      </trkpt>
      <trkpt lat="44.23314" lon="6.92638">
        <ele>1783</ele>
        <time>2010-08-15T07:51:35Z</time>
      </trkpt>
      <trkpt lat="44.23312" lon="6.92641">
        <ele>1783</ele>
        <time>2010-08-15T07:51:36Z</time>
      </trkpt>
      <trkpt lat="44.23311" lon="6.92644">
        <ele>1783</ele>
        <time>2010-08-15T07:51:37Z</time>
      </trkpt>
      <trkpt lat="44.23308" lon="6.92647">
        <ele>1783</ele>
        <time>2010-08-15T07:51:38Z</time>
      </trkpt>
      <trkpt lat="44.23306" lon="6.92651">
        <ele>1783</ele>
        <time>2010-08-15T07:51:39Z</time>
      </trkpt>
      <trkpt lat="44.23303" lon="6.92655">
        <ele>1782</ele>
        <time>2010-08-15T07:51:40Z</time>
      </trkpt>
      <trkpt lat="44.23299" lon="6.92659">
        <ele>1782</ele>
        <time>2010-08-15T07:51:41Z</time>
      </trkpt>
      <trkpt lat="44.23297" lon="6.92663">
        <ele>1781</ele>
        <time>2010-08-15T07:51:42Z</time>
      </trkpt>
      <trkpt lat="44.23294" lon="6.92667">
        <ele>1778</ele>
        <time>2010-08-15T07:51:43Z</time>
      </trkpt>
      <trkpt lat="44.23292" lon="6.92671">
        <ele>1778</ele>
        <time>2010-08-15T07:51:44Z</time>
      </trkpt>
      <trkpt lat="44.2329" lon="6.92676">
        <ele>1778</ele>
        <time>2010-08-15T07:51:45Z</time>
      </trkpt>
      <trkpt lat="44.23287" lon="6.9268">
        <ele>1777</ele>
        <time>2010-08-15T07:51:46Z</time>
      </trkpt>
      <trkpt lat="44.23285" lon="6.92684">
        <ele>1777</ele>
        <time>2010-08-15T07:51:47Z</time>
      </trkpt>
      <trkpt lat="44.23282" lon="6.92688">
        <ele>1777</ele>
        <time>2010-08-15T07:51:48Z</time>
      </trkpt>
      <trkpt lat="44.23279" lon="6.92691">
        <ele>1776</ele>
        <time>2010-08-15T07:51:49Z</time>
      </trkpt>
      <trkpt lat="44.23275" lon="6.92695">
        <ele>1776</ele>
        <time>2010-08-15T07:51:50Z</time>
      </trkpt>
      <trkpt lat="44.23272" lon="6.92698">
        <ele>1776</ele>
        <time>2010-08-15T07:51:51Z</time>
      </trkpt>
      <trkpt lat="44.23268" lon="6.927">
        <ele>1775</ele>
        <time>2010-08-15T07:51:52Z</time>
      </trkpt>
      <trkpt lat="44.23264" lon="6.92702">
        <ele>1775</ele>
        <time>2010-08-15T07:51:53Z</time>
      </trkpt>
      <trkpt lat="44.2326" lon="6.92703">
        <ele>1775</ele>
        <time>2010-08-15T07:51:54Z</time>
      </trkpt>
      <trkpt lat="44.23255" lon="6.92705">
        <ele>1775</ele>
        <time>2010-08-15T07:51:55Z</time>
      </trkpt>
      <trkpt lat="44.23252" lon="6.92708">
        <ele>1775</ele>
        <time>2010-08-15T07:51:56Z</time>
      </trkpt>
      <trkpt lat="44.2325" lon="6.92712">
        <ele>1762</ele>
        <time>2010-08-15T07:51:57Z</time>
      </trkpt>
      <trkpt lat="44.23246" lon="6.92716">
        <ele>1761</ele>
        <time>2010-08-15T07:51:58Z</time>
      </trkpt>
      <trkpt lat="44.23243" lon="6.92719">
        <ele>1761</ele>
        <time>2010-08-15T07:51:59Z</time>
      </trkpt>
      <trkpt lat="44.2324" lon="6.92721">
        <ele>1761</ele>
        <time>2010-08-15T07:52:00Z</time>
      </trkpt>
      <trkpt lat="44.23236" lon="6.92725">
        <ele>1761</ele>
        <time>2010-08-15T07:52:01Z</time>
      </trkpt>
      <trkpt lat="44.23232" lon="6.92729">
        <ele>1761</ele>
        <time>2010-08-15T07:52:02Z</time>
      </trkpt>
      <trkpt lat="44.2323" lon="6.92732">
        <ele>1761</ele>
        <time>2010-08-15T07:52:03Z</time>
      </trkpt>
      <trkpt lat="44.23227" lon="6.92735">
        <ele>1761</ele>
        <time>2010-08-15T07:52:04Z</time>
      </trkpt>
      <trkpt lat="44.23226" lon="6.92737">
        <ele>1760</ele>
        <time>2010-08-15T07:52:05Z</time>
      </trkpt>
      <trkpt lat="44.23224" lon="6.9274">
        <ele>1760</ele>
        <time>2010-08-15T07:52:06Z</time>
      </trkpt>
      <trkpt lat="44.23222" lon="6.92743">
        <ele>1760</ele>
        <time>2010-08-15T07:52:07Z</time>
      </trkpt>
      <trkpt lat="44.2322" lon="6.92746">
        <ele>1759</ele>
        <time>2010-08-15T07:52:08Z</time>
      </trkpt>
      <trkpt lat="44.23218" lon="6.9275">
        <ele>1756</ele>
        <time>2010-08-15T07:52:09Z</time>
      </trkpt>
      <trkpt lat="44.23216" lon="6.92754">
        <ele>1756</ele>
        <time>2010-08-15T07:52:10Z</time>
      </trkpt>
      <trkpt lat="44.23215" lon="6.92759">
        <ele>1755</ele>
        <time>2010-08-15T07:52:11Z</time>
      </trkpt>
      <trkpt lat="44.23214" lon="6.92764">
        <ele>1755</ele>
        <time>2010-08-15T07:52:12Z</time>
      </trkpt>
      <trkpt lat="44.23214" lon="6.92769">
        <ele>1755</ele>
        <time>2010-08-15T07:52:13Z</time>
      </trkpt>
      <trkpt lat="44.23214" lon="6.92775">
        <ele>1754</ele>
        <time>2010-08-15T07:52:14Z</time>
      </trkpt>
      <trkpt lat="44.23215" lon="6.92779">
        <ele>1754</ele>
        <time>2010-08-15T07:52:15Z</time>
      </trkpt>
      <trkpt lat="44.23215" lon="6.92784">
        <ele>1754</ele>
        <time>2010-08-15T07:52:16Z</time>
      </trkpt>
      <trkpt lat="44.23214" lon="6.92789">
        <ele>1754</ele>
        <time>2010-08-15T07:52:17Z</time>
      </trkpt>
      <trkpt lat="44.23212" lon="6.92794">
        <ele>1753</ele>
        <time>2010-08-15T07:52:18Z</time>
      </trkpt>
      <trkpt lat="44.23211" lon="6.92798">
        <ele>1753</ele>
        <time>2010-08-15T07:52:19Z</time>
      </trkpt>
      <trkpt lat="44.2321" lon="6.92802">
        <ele>1752</ele>
        <time>2010-08-15T07:52:20Z</time>
      </trkpt>
      <trkpt lat="44.2321" lon="6.92805">
        <ele>1752</ele>
        <time>2010-08-15T07:52:21Z</time>
      </trkpt>
      <trkpt lat="44.23209" lon="6.92808">
        <ele>1752</ele>
        <time>2010-08-15T07:52:22Z</time>
      </trkpt>
      <trkpt lat="44.23208" lon="6.92811">
        <ele>1752</ele>
        <time>2010-08-15T07:52:23Z</time>
      </trkpt>
      <trkpt lat="44.23207" lon="6.92815">
        <ele>1751</ele>
        <time>2010-08-15T07:52:24Z</time>
      </trkpt>
      <trkpt lat="44.23206" lon="6.92819">
        <ele>1751</ele>
        <time>2010-08-15T07:52:25Z</time>
      </trkpt>
      <trkpt lat="44.23204" lon="6.92822">
        <ele>1750</ele>
        <time>2010-08-15T07:52:26Z</time>
      </trkpt>
      <trkpt lat="44.23203" lon="6.92827">
        <ele>1750</ele>
        <time>2010-08-15T07:52:27Z</time>
      </trkpt>
      <trkpt lat="44.23202" lon="6.92832">
        <ele>1749</ele>
        <time>2010-08-15T07:52:28Z</time>
      </trkpt>
      <trkpt lat="44.23202" lon="6.92837">
        <ele>1744</ele>
        <time>2010-08-15T07:52:29Z</time>
      </trkpt>
      <trkpt lat="44.23201" lon="6.92843">
        <ele>1744</ele>
        <time>2010-08-15T07:52:30Z</time>
      </trkpt>
      <trkpt lat="44.232" lon="6.92849">
        <ele>1744</ele>
        <time>2010-08-15T07:52:31Z</time>
      </trkpt>
      <trkpt lat="44.232" lon="6.92853">
        <ele>1744</ele>
        <time>2010-08-15T07:52:32Z</time>
      </trkpt>
      <trkpt lat="44.23199" lon="6.92856">
        <ele>1744</ele>
        <time>2010-08-15T07:52:33Z</time>
      </trkpt>
      <trkpt lat="44.23197" lon="6.92858">
        <ele>1743</ele>
        <time>2010-08-15T07:52:34Z</time>
      </trkpt>
      <trkpt lat="44.23196" lon="6.92861">
        <ele>1743</ele>
        <time>2010-08-15T07:52:35Z</time>
      </trkpt>
      <trkpt lat="44.23195" lon="6.92865">
        <ele>1743</ele>
        <time>2010-08-15T07:52:36Z</time>
      </trkpt>
      <trkpt lat="44.23194" lon="6.92869">
        <ele>1742</ele>
        <time>2010-08-15T07:52:37Z</time>
      </trkpt>
      <trkpt lat="44.23192" lon="6.92873">
        <ele>1742</ele>
        <time>2010-08-15T07:52:38Z</time>
      </trkpt>
      <trkpt lat="44.2319" lon="6.92878">
        <ele>1741</ele>
        <time>2010-08-15T07:52:39Z</time>
      </trkpt>
      <trkpt lat="44.23187" lon="6.92882">
        <ele>1741</ele>
        <time>2010-08-15T07:52:40Z</time>
      </trkpt>
      <trkpt lat="44.23186" lon="6.92886">
        <ele>1740</ele>
        <time>2010-08-15T07:52:41Z</time>
      </trkpt>
      <trkpt lat="44.23185" lon="6.9289">
        <ele>1739</ele>
        <time>2010-08-15T07:52:42Z</time>
      </trkpt>
      <trkpt lat="44.23185" lon="6.92895">
        <ele>1739</ele>
        <time>2010-08-15T07:52:43Z</time>
      </trkpt>
      <trkpt lat="44.23186" lon="6.929">
        <ele>1738</ele>
        <time>2010-08-15T07:52:44Z</time>
      </trkpt>
      <trkpt lat="44.23187" lon="6.92905">
        <ele>1737</ele>
        <time>2010-08-15T07:52:45Z</time>
      </trkpt>
      <trkpt lat="44.23187" lon="6.92911">
        <ele>1737</ele>
        <time>2010-08-15T07:52:46Z</time>
      </trkpt>
      <trkpt lat="44.23187" lon="6.92916">
        <ele>1736</ele>
        <time>2010-08-15T07:52:47Z</time>
      </trkpt>
      <trkpt lat="44.23187" lon="6.92921">
        <ele>1730</ele>
        <time>2010-08-15T07:52:48Z</time>
      </trkpt>
      <trkpt lat="44.23186" lon="6.92925">
        <ele>1729</ele>
        <time>2010-08-15T07:52:49Z</time>
      </trkpt>
      <trkpt lat="44.23185" lon="6.9293">
        <ele>1729</ele>
        <time>2010-08-15T07:52:50Z</time>
      </trkpt>
      <trkpt lat="44.23185" lon="6.92934">
        <ele>1729</ele>
        <time>2010-08-15T07:52:51Z</time>
      </trkpt>
      <trkpt lat="44.23184" lon="6.92938">
        <ele>1729</ele>
        <time>2010-08-15T07:52:52Z</time>
      </trkpt>
      <trkpt lat="44.23183" lon="6.92943">
        <ele>1729</ele>
        <time>2010-08-15T07:52:53Z</time>
      </trkpt>
      <trkpt lat="44.23183" lon="6.92947">
        <ele>1728</ele>
        <time>2010-08-15T07:52:54Z</time>
      </trkpt>
      <trkpt lat="44.23183" lon="6.92951">
        <ele>1728</ele>
        <time>2010-08-15T07:52:55Z</time>
      </trkpt>
      <trkpt lat="44.23184" lon="6.92956">
        <ele>1728</ele>
        <time>2010-08-15T07:52:56Z</time>
      </trkpt>
      <trkpt lat="44.23183" lon="6.92961">
        <ele>1727</ele>
        <time>2010-08-15T07:52:57Z</time>
      </trkpt>
      <trkpt lat="44.23182" lon="6.92965">
        <ele>1726</ele>
        <time>2010-08-15T07:52:58Z</time>
      </trkpt>
      <trkpt lat="44.23181" lon="6.92969">
        <ele>1726</ele>
        <time>2010-08-15T07:52:59Z</time>
      </trkpt>
      <trkpt lat="44.2318" lon="6.92974">
        <ele>1725</ele>
        <time>2010-08-15T07:53:00Z</time>
      </trkpt>
      <trkpt lat="44.23179" lon="6.92978">
        <ele>1724</ele>
        <time>2010-08-15T07:53:01Z</time>
      </trkpt>
      <trkpt lat="44.23179" lon="6.92982">
        <ele>1723</ele>
        <time>2010-08-15T07:53:02Z</time>
      </trkpt>
      <trkpt lat="44.23179" lon="6.92986">
        <ele>1722</ele>
        <time>2010-08-15T07:53:03Z</time>
      </trkpt>
      <trkpt lat="44.23179" lon="6.92989">
        <ele>1721</ele>
        <time>2010-08-15T07:53:04Z</time>
      </trkpt>
      <trkpt lat="44.23181" lon="6.92994">
        <ele>1721</ele>
        <time>2010-08-15T07:53:05Z</time>
      </trkpt>
      <trkpt lat="44.23183" lon="6.92998">
        <ele>1721</ele>
        <time>2010-08-15T07:53:06Z</time>
      </trkpt>
      <trkpt lat="44.23185" lon="6.93002">
        <ele>1712</ele>
        <time>2010-08-15T07:53:07Z</time>
      </trkpt>
      <trkpt lat="44.23187" lon="6.93006">
        <ele>1712</ele>
        <time>2010-08-15T07:53:08Z</time>
      </trkpt>
      <trkpt lat="44.2319" lon="6.93008">
        <ele>1712</ele>
        <time>2010-08-15T07:53:09Z</time>
      </trkpt>
      <trkpt lat="44.23192" lon="6.9301">
        <ele>1712</ele>
        <time>2010-08-15T07:53:10Z</time>
      </trkpt>
      <trkpt lat="44.23194" lon="6.93014">
        <ele>1712</ele>
        <time>2010-08-15T07:53:11Z</time>
      </trkpt>
      <trkpt lat="44.23197" lon="6.93017">
        <ele>1712</ele>
        <time>2010-08-15T07:53:12Z</time>
      </trkpt>
      <trkpt lat="44.23199" lon="6.9302">
        <ele>1711</ele>
        <time>2010-08-15T07:53:13Z</time>
      </trkpt>
      <trkpt lat="44.23201" lon="6.93022">
        <ele>1711</ele>
        <time>2010-08-15T07:53:14Z</time>
      </trkpt>
      <trkpt lat="44.23203" lon="6.93025">
        <ele>1711</ele>
        <time>2010-08-15T07:53:15Z</time>
      </trkpt>
      <trkpt lat="44.23205" lon="6.93029">
        <ele>1711</ele>
        <time>2010-08-15T07:53:16Z</time>
      </trkpt>
      <trkpt lat="44.23205" lon="6.93033">
        <ele>1710</ele>
        <time>2010-08-15T07:53:17Z</time>
      </trkpt>
      <trkpt lat="44.23206" lon="6.93037">
        <ele>1710</ele>
        <time>2010-08-15T07:53:18Z</time>
      </trkpt>
      <trkpt lat="44.23205" lon="6.93042">
        <ele>1709</ele>
        <time>2010-08-15T07:53:19Z</time>
      </trkpt>
      <trkpt lat="44.23204" lon="6.93046">
        <ele>1709</ele>
        <time>2010-08-15T07:53:20Z</time>
      </trkpt>
      <trkpt lat="44.23201" lon="6.9305">
        <ele>1708</ele>
        <time>2010-08-15T07:53:21Z</time>
      </trkpt>
      <trkpt lat="44.23198" lon="6.93051">
        <ele>1708</ele>
        <time>2010-08-15T07:53:22Z</time>
      </trkpt>
      <trkpt lat="44.23194" lon="6.93053">
        <ele>1708</ele>
        <time>2010-08-15T07:53:23Z</time>
      </trkpt>
      <trkpt lat="44.23191" lon="6.93054">
        <ele>1708</ele>
        <time>2010-08-15T07:53:24Z</time>
      </trkpt>
      <trkpt lat="44.23187" lon="6.93055">
        <ele>1708</ele>
        <time>2010-08-15T07:53:25Z</time>
      </trkpt>
      <trkpt lat="44.23184" lon="6.93057">
        <ele>1708</ele>
        <time>2010-08-15T07:53:26Z</time>
      </trkpt>
      <trkpt lat="44.23181" lon="6.93059">
        <ele>1708</ele>
        <time>2010-08-15T07:53:27Z</time>
      </trkpt>
      <trkpt lat="44.23178" lon="6.9306">
        <ele>1708</ele>
        <time>2010-08-15T07:53:28Z</time>
      </trkpt>
      <trkpt lat="44.23175" lon="6.9306">
        <ele>1708</ele>
        <time>2010-08-15T07:53:29Z</time>
      </trkpt>
      <trkpt lat="44.23172" lon="6.93058">
        <ele>1708</ele>
        <time>2010-08-15T07:53:30Z</time>
      </trkpt>
      <trkpt lat="44.23169" lon="6.93057">
        <ele>1708</ele>
        <time>2010-08-15T07:53:31Z</time>
      </trkpt>
      <trkpt lat="44.23165" lon="6.93055">
        <ele>1701</ele>
        <time>2010-08-15T07:53:32Z</time>
      </trkpt>
      <trkpt lat="44.23163" lon="6.93053">
        <ele>1701</ele>
        <time>2010-08-15T07:53:33Z</time>
      </trkpt>
      <trkpt lat="44.2316" lon="6.93052">
        <ele>1701</ele>
        <time>2010-08-15T07:53:34Z</time>
      </trkpt>
      <trkpt lat="44.23157" lon="6.93051">
        <ele>1701</ele>
        <time>2010-08-15T07:53:35Z</time>
      </trkpt>
      <trkpt lat="44.23154" lon="6.9305">
        <ele>1700</ele>
        <time>2010-08-15T07:53:36Z</time>
      </trkpt>
      <trkpt lat="44.23151" lon="6.93048">
        <ele>1700</ele>
        <time>2010-08-15T07:53:37Z</time>
      </trkpt>
      <trkpt lat="44.23149" lon="6.93047">
        <ele>1700</ele>
        <time>2010-08-15T07:53:38Z</time>
      </trkpt>
      <trkpt lat="44.23146" lon="6.93045">
        <ele>1699</ele>
        <time>2010-08-15T07:53:39Z</time>
      </trkpt>
      <trkpt lat="44.23143" lon="6.93043">
        <ele>1699</ele>
        <time>2010-08-15T07:53:40Z</time>
      </trkpt>
      <trkpt lat="44.23141" lon="6.93041">
        <ele>1699</ele>
        <time>2010-08-15T07:53:41Z</time>
      </trkpt>
      <trkpt lat="44.23139" lon="6.93038">
        <ele>1699</ele>
        <time>2010-08-15T07:53:42Z</time>
      </trkpt>
      <trkpt lat="44.23137" lon="6.93036">
        <ele>1698</ele>
        <time>2010-08-15T07:53:43Z</time>
      </trkpt>
      <trkpt lat="44.23134" lon="6.93032">
        <ele>1698</ele>
        <time>2010-08-15T07:53:44Z</time>
      </trkpt>
      <trkpt lat="44.23131" lon="6.93029">
        <ele>1698</ele>
        <time>2010-08-15T07:53:45Z</time>
      </trkpt>
      <trkpt lat="44.23128" lon="6.93025">
        <ele>1697</ele>
        <time>2010-08-15T07:53:46Z</time>
      </trkpt>
      <trkpt lat="44.23126" lon="6.93021">
        <ele>1697</ele>
        <time>2010-08-15T07:53:47Z</time>
      </trkpt>
      <trkpt lat="44.23125" lon="6.93017">
        <ele>1697</ele>
        <time>2010-08-15T07:53:48Z</time>
      </trkpt>
      <trkpt lat="44.23123" lon="6.93012">
        <ele>1696</ele>
        <time>2010-08-15T07:53:49Z</time>
      </trkpt>
      <trkpt lat="44.23121" lon="6.93008">
        <ele>1695</ele>
        <time>2010-08-15T07:53:50Z</time>
      </trkpt>
      <trkpt lat="44.23118" lon="6.93004">
        <ele>1695</ele>
        <time>2010-08-15T07:53:51Z</time>
      </trkpt>
      <trkpt lat="44.23116" lon="6.92999">
        <ele>1696</ele>
        <time>2010-08-15T07:53:52Z</time>
      </trkpt>
      <trkpt lat="44.23114" lon="6.92995">
        <ele>1696</ele>
        <time>2010-08-15T07:53:53Z</time>
      </trkpt>
      <trkpt lat="44.23112" lon="6.9299">
        <ele>1696</ele>
        <time>2010-08-15T07:53:54Z</time>
      </trkpt>
      <trkpt lat="44.23109" lon="6.92985">
        <ele>1695</ele>
        <time>2010-08-15T07:53:55Z</time>
      </trkpt>
      <trkpt lat="44.23107" lon="6.92981">
        <ele>1695</ele>
        <time>2010-08-15T07:53:56Z</time>
      </trkpt>
      <trkpt lat="44.23106" lon="6.92976">
        <ele>1695</ele>
        <time>2010-08-15T07:53:57Z</time>
      </trkpt>
      <trkpt lat="44.23105" lon="6.92972">
        <ele>1696</ele>
        <time>2010-08-15T07:53:58Z</time>
      </trkpt>
      <trkpt lat="44.23103" lon="6.92967">
        <ele>1696</ele>
        <time>2010-08-15T07:53:59Z</time>
      </trkpt>
      <trkpt lat="44.23101" lon="6.92963">
        <ele>1696</ele>
        <time>2010-08-15T07:54:00Z</time>
      </trkpt>
      <trkpt lat="44.231" lon="6.92958">
        <ele>1696</ele>
        <time>2010-08-15T07:54:01Z</time>
      </trkpt>
      <trkpt lat="44.23098" lon="6.92954">
        <ele>1695</ele>
        <time>2010-08-15T07:54:02Z</time>
      </trkpt>
      <trkpt lat="44.23096" lon="6.92949">
        <ele>1695</ele>
        <time>2010-08-15T07:54:03Z</time>
      </trkpt>
      <trkpt lat="44.23094" lon="6.92944">
        <ele>1694</ele>
        <time>2010-08-15T07:54:04Z</time>
      </trkpt>
      <trkpt lat="44.23093" lon="6.9294">
        <ele>1693</ele>
        <time>2010-08-15T07:54:05Z</time>
      </trkpt>
      <trkpt lat="44.23091" lon="6.92934">
        <ele>1692</ele>
        <time>2010-08-15T07:54:06Z</time>
      </trkpt>
      <trkpt lat="44.2309" lon="6.92929">
        <ele>1690</ele>
        <time>2010-08-15T07:54:07Z</time>
      </trkpt>
      <trkpt lat="44.23089" lon="6.92924">
        <ele>1689</ele>
        <time>2010-08-15T07:54:08Z</time>
      </trkpt>
      <trkpt lat="44.23088" lon="6.92921">
        <ele>1687</ele>
        <time>2010-08-15T07:54:09Z</time>
      </trkpt>
      <trkpt lat="44.23087" lon="6.92918">
        <ele>1686</ele>
        <time>2010-08-15T07:54:10Z</time>
      </trkpt>
      <trkpt lat="44.23087" lon="6.92915">
        <ele>1686</ele>
        <time>2010-08-15T07:54:11Z</time>
      </trkpt>
      <trkpt lat="44.23085" lon="6.92911">
        <ele>1688</ele>
        <time>2010-08-15T07:54:12Z</time>
      </trkpt>
      <trkpt lat="44.23084" lon="6.92909">
        <ele>1689</ele>
        <time>2010-08-15T07:54:13Z</time>
      </trkpt>
      <trkpt lat="44.23083" lon="6.92905">
        <ele>1678</ele>
        <time>2010-08-15T07:54:14Z</time>
      </trkpt>
      <trkpt lat="44.23082" lon="6.92901">
        <ele>1677</ele>
        <time>2010-08-15T07:54:15Z</time>
      </trkpt>
      <trkpt lat="44.23081" lon="6.92898">
        <ele>1677</ele>
        <time>2010-08-15T07:54:16Z</time>
      </trkpt>
      <trkpt lat="44.2308" lon="6.92894">
        <ele>1676</ele>
        <time>2010-08-15T07:54:17Z</time>
      </trkpt>
      <trkpt lat="44.2308" lon="6.9289">
        <ele>1676</ele>
        <time>2010-08-15T07:54:18Z</time>
      </trkpt>
      <trkpt lat="44.2308" lon="6.92886">
        <ele>1675</ele>
        <time>2010-08-15T07:54:19Z</time>
      </trkpt>
      <trkpt lat="44.2308" lon="6.92882">
        <ele>1675</ele>
        <time>2010-08-15T07:54:20Z</time>
      </trkpt>
      <trkpt lat="44.23081" lon="6.92878">
        <ele>1675</ele>
        <time>2010-08-15T07:54:21Z</time>
      </trkpt>
      <trkpt lat="44.23082" lon="6.92874">
        <ele>1675</ele>
        <time>2010-08-15T07:54:22Z</time>
      </trkpt>
      <trkpt lat="44.23083" lon="6.9287">
        <ele>1676</ele>
        <time>2010-08-15T07:54:23Z</time>
      </trkpt>
      <trkpt lat="44.23085" lon="6.92867">
        <ele>1698</ele>
        <time>2010-08-15T07:54:24Z</time>
      </trkpt>
      <trkpt lat="44.23086" lon="6.92863">
        <ele>1698</ele>
        <time>2010-08-15T07:54:25Z</time>
      </trkpt>
      <trkpt lat="44.23088" lon="6.92859">
        <ele>1698</ele>
        <time>2010-08-15T07:54:26Z</time>
      </trkpt>
      <trkpt lat="44.23089" lon="6.92856">
        <ele>1697</ele>
        <time>2010-08-15T07:54:27Z</time>
      </trkpt>
      <trkpt lat="44.23091" lon="6.92854">
        <ele>1697</ele>
        <time>2010-08-15T07:54:28Z</time>
      </trkpt>
      <trkpt lat="44.23092" lon="6.92851">
        <ele>1697</ele>
        <time>2010-08-15T07:54:29Z</time>
      </trkpt>
      <trkpt lat="44.23094" lon="6.92848">
        <ele>1697</ele>
        <time>2010-08-15T07:54:30Z</time>
      </trkpt>
      <trkpt lat="44.23096" lon="6.92845">
        <ele>1697</ele>
        <time>2010-08-15T07:54:31Z</time>
      </trkpt>
      <trkpt lat="44.23098" lon="6.92843">
        <ele>1697</ele>
        <time>2010-08-15T07:54:32Z</time>
      </trkpt>
      <trkpt lat="44.231" lon="6.9284">
        <ele>1697</ele>
        <time>2010-08-15T07:54:33Z</time>
      </trkpt>
      <trkpt lat="44.23101" lon="6.92837">
        <ele>1697</ele>
        <time>2010-08-15T07:54:34Z</time>
      </trkpt>
      <trkpt lat="44.231" lon="6.92835">
        <ele>1697</ele>
        <time>2010-08-15T07:54:35Z</time>
      </trkpt>
      <trkpt lat="44.231" lon="6.92832">
        <ele>1699</ele>
        <time>2010-08-15T07:54:36Z</time>
      </trkpt>
      <trkpt lat="44.23099" lon="6.92828">
        <ele>1699</ele>
        <time>2010-08-15T07:54:37Z</time>
      </trkpt>
      <trkpt lat="44.23098" lon="6.92824">
        <ele>1699</ele>
        <time>2010-08-15T07:54:38Z</time>
      </trkpt>
      <trkpt lat="44.23096" lon="6.92822">
        <ele>1699</ele>
        <time>2010-08-15T07:54:39Z</time>
      </trkpt>
      <trkpt lat="44.23094" lon="6.9282">
        <ele>1699</ele>
        <time>2010-08-15T07:54:40Z</time>
      </trkpt>
      <trkpt lat="44.23091" lon="6.92818">
        <ele>1699</ele>
        <time>2010-08-15T07:54:41Z</time>
      </trkpt>
      <trkpt lat="44.23088" lon="6.92815">
        <ele>1699</ele>
        <time>2010-08-15T07:54:42Z</time>
      </trkpt>
      <trkpt lat="44.23086" lon="6.92812">
        <ele>1700</ele>
        <time>2010-08-15T07:54:43Z</time>
      </trkpt>
      <trkpt lat="44.23085" lon="6.92808">
        <ele>1701</ele>
        <time>2010-08-15T07:54:44Z</time>
      </trkpt>
      <trkpt lat="44.23084" lon="6.92804">
        <ele>1702</ele>
        <time>2010-08-15T07:54:45Z</time>
      </trkpt>
      <trkpt lat="44.23083" lon="6.928">
        <ele>1702</ele>
        <time>2010-08-15T07:54:46Z</time>
      </trkpt>
      <trkpt lat="44.23083" lon="6.92796">
        <ele>1679</ele>
        <time>2010-08-15T07:54:47Z</time>
      </trkpt>
      <trkpt lat="44.23082" lon="6.92791">
        <ele>1679</ele>
        <time>2010-08-15T07:54:48Z</time>
      </trkpt>
      <trkpt lat="44.23082" lon="6.92787">
        <ele>1679</ele>
        <time>2010-08-15T07:54:49Z</time>
      </trkpt>
      <trkpt lat="44.23082" lon="6.92783">
        <ele>1679</ele>
        <time>2010-08-15T07:54:50Z</time>
      </trkpt>
      <trkpt lat="44.23081" lon="6.92779">
        <ele>1680</ele>
        <time>2010-08-15T07:54:51Z</time>
      </trkpt>
      <trkpt lat="44.2308" lon="6.92775">
        <ele>1680</ele>
        <time>2010-08-15T07:54:52Z</time>
      </trkpt>
      <trkpt lat="44.2308" lon="6.9277">
        <ele>1681</ele>
        <time>2010-08-15T07:54:53Z</time>
      </trkpt>
      <trkpt lat="44.23079" lon="6.92764">
        <ele>1683</ele>
        <time>2010-08-15T07:54:54Z</time>
      </trkpt>
      <trkpt lat="44.23079" lon="6.9276">
        <ele>1684</ele>
        <time>2010-08-15T07:54:55Z</time>
      </trkpt>
      <trkpt lat="44.23079" lon="6.92755">
        <ele>1686</ele>
        <time>2010-08-15T07:54:56Z</time>
      </trkpt>
      <trkpt lat="44.23079" lon="6.9275">
        <ele>1689</ele>
        <time>2010-08-15T07:54:57Z</time>
      </trkpt>
      <trkpt lat="44.23079" lon="6.92746">
        <ele>1688</ele>
        <time>2010-08-15T07:54:58Z</time>
      </trkpt>
      <trkpt lat="44.23079" lon="6.92742">
        <ele>1688</ele>
        <time>2010-08-15T07:54:59Z</time>
      </trkpt>
      <trkpt lat="44.2308" lon="6.92737">
        <ele>1687</ele>
        <time>2010-08-15T07:55:00Z</time>
      </trkpt>
      <trkpt lat="44.23081" lon="6.92734">
        <ele>1687</ele>
        <time>2010-08-15T07:55:01Z</time>
      </trkpt>
      <trkpt lat="44.23082" lon="6.92731">
        <ele>1687</ele>
        <time>2010-08-15T07:55:02Z</time>
      </trkpt>
      <trkpt lat="44.23083" lon="6.92728">
        <ele>1707</ele>
        <time>2010-08-15T07:55:03Z</time>
      </trkpt>
      <trkpt lat="44.23085" lon="6.92725">
        <ele>1708</ele>
        <time>2010-08-15T07:55:04Z</time>
      </trkpt>
      <trkpt lat="44.23085" lon="6.92722">
        <ele>1709</ele>
        <time>2010-08-15T07:55:05Z</time>
      </trkpt>
      <trkpt lat="44.23085" lon="6.92721">
        <ele>1710</ele>
        <time>2010-08-15T07:55:06Z</time>
      </trkpt>
      <trkpt lat="44.23083" lon="6.92719">
        <ele>1687</ele>
        <time>2010-08-15T07:55:07Z</time>
      </trkpt>
      <trkpt lat="44.2308" lon="6.92717">
        <ele>1687</ele>
        <time>2010-08-15T07:55:08Z</time>
      </trkpt>
      <trkpt lat="44.23078" lon="6.92715">
        <ele>1687</ele>
        <time>2010-08-15T07:55:09Z</time>
      </trkpt>
      <trkpt lat="44.23076" lon="6.92713">
        <ele>1687</ele>
        <time>2010-08-15T07:55:10Z</time>
      </trkpt>
      <trkpt lat="44.23074" lon="6.9271">
        <ele>1687</ele>
        <time>2010-08-15T07:55:11Z</time>
      </trkpt>
      <trkpt lat="44.23072" lon="6.92708">
        <ele>1687</ele>
        <time>2010-08-15T07:55:12Z</time>
      </trkpt>
      <trkpt lat="44.2307" lon="6.92706">
        <ele>1687</ele>
        <time>2010-08-15T07:55:13Z</time>
      </trkpt>
      <trkpt lat="44.23067" lon="6.92704">
        <ele>1687</ele>
        <time>2010-08-15T07:55:14Z</time>
      </trkpt>
      <trkpt lat="44.23065" lon="6.92703">
        <ele>1687</ele>
        <time>2010-08-15T07:55:15Z</time>
      </trkpt>
      <trkpt lat="44.23062" lon="6.92701">
        <ele>1687</ele>
        <time>2010-08-15T07:55:16Z</time>
      </trkpt>
      <trkpt lat="44.23059" lon="6.92701">
        <ele>1687</ele>
        <time>2010-08-15T07:55:17Z</time>
      </trkpt>
      <trkpt lat="44.23056" lon="6.927">
        <ele>1686</ele>
        <time>2010-08-15T07:55:18Z</time>
      </trkpt>
      <trkpt lat="44.23054" lon="6.92699">
        <ele>1686</ele>
        <time>2010-08-15T07:55:19Z</time>
      </trkpt>
      <trkpt lat="44.23051" lon="6.92699">
        <ele>1685</ele>
        <time>2010-08-15T07:55:20Z</time>
      </trkpt>
      <trkpt lat="44.23049" lon="6.927">
        <ele>1685</ele>
        <time>2010-08-15T07:55:21Z</time>
      </trkpt>
      <trkpt lat="44.23046" lon="6.92702">
        <ele>1684</ele>
        <time>2010-08-15T07:55:22Z</time>
      </trkpt>
      <trkpt lat="44.23043" lon="6.92703">
        <ele>1683</ele>
        <time>2010-08-15T07:55:23Z</time>
      </trkpt>
      <trkpt lat="44.23039" lon="6.92703">
        <ele>1683</ele>
        <time>2010-08-15T07:55:24Z</time>
      </trkpt>
      <trkpt lat="44.23036" lon="6.92704">
        <ele>1682</ele>
        <time>2010-08-15T07:55:25Z</time>
      </trkpt>
      <trkpt lat="44.23034" lon="6.92705">
        <ele>1681</ele>
        <time>2010-08-15T07:55:26Z</time>
      </trkpt>
      <trkpt lat="44.23031" lon="6.92705">
        <ele>1681</ele>
        <time>2010-08-15T07:55:27Z</time>
      </trkpt>
      <trkpt lat="44.23028" lon="6.92705">
        <ele>1680</ele>
        <time>2010-08-15T07:55:28Z</time>
      </trkpt>
      <trkpt lat="44.23025" lon="6.92704">
        <ele>1680</ele>
        <time>2010-08-15T07:55:29Z</time>
      </trkpt>
      <trkpt lat="44.23023" lon="6.92704">
        <ele>1680</ele>
        <time>2010-08-15T07:55:30Z</time>
      </trkpt>
      <trkpt lat="44.2302" lon="6.92704">
        <ele>1679</ele>
        <time>2010-08-15T07:55:31Z</time>
      </trkpt>
      <trkpt lat="44.23017" lon="6.92704">
        <ele>1679</ele>
        <time>2010-08-15T07:55:32Z</time>
      </trkpt>
      <trkpt lat="44.23014" lon="6.92704">
        <ele>1678</ele>
        <time>2010-08-15T07:55:33Z</time>
      </trkpt>
      <trkpt lat="44.23011" lon="6.92706">
        <ele>1678</ele>
        <time>2010-08-15T07:55:34Z</time>
      </trkpt>
      <trkpt lat="44.23008" lon="6.92707">
        <ele>1677</ele>
        <time>2010-08-15T07:55:35Z</time>
      </trkpt>
      <trkpt lat="44.23005" lon="6.92707">
        <ele>1677</ele>
        <time>2010-08-15T07:55:36Z</time>
      </trkpt>
      <trkpt lat="44.23002" lon="6.92707">
        <ele>1677</ele>
        <time>2010-08-15T07:55:37Z</time>
      </trkpt>
      <trkpt lat="44.22999" lon="6.92708">
        <ele>1659</ele>
        <time>2010-08-15T07:55:38Z</time>
      </trkpt>
      <trkpt lat="44.22996" lon="6.92708">
        <ele>1659</ele>
        <time>2010-08-15T07:55:39Z</time>
      </trkpt>
      <trkpt lat="44.22993" lon="6.92709">
        <ele>1658</ele>
        <time>2010-08-15T07:55:40Z</time>
      </trkpt>
      <trkpt lat="44.2299" lon="6.9271">
        <ele>1658</ele>
        <time>2010-08-15T07:55:41Z</time>
      </trkpt>
      <trkpt lat="44.22987" lon="6.92711">
        <ele>1658</ele>
        <time>2010-08-15T07:55:42Z</time>
      </trkpt>
      <trkpt lat="44.22984" lon="6.92712">
        <ele>1657</ele>
        <time>2010-08-15T07:55:43Z</time>
      </trkpt>
      <trkpt lat="44.22982" lon="6.92711">
        <ele>1657</ele>
        <time>2010-08-15T07:55:44Z</time>
      </trkpt>
      <trkpt lat="44.2298" lon="6.9271">
        <ele>1657</ele>
        <time>2010-08-15T07:55:45Z</time>
      </trkpt>
      <trkpt lat="44.22978" lon="6.92708">
        <ele>1657</ele>
        <time>2010-08-15T07:55:46Z</time>
      </trkpt>
      <trkpt lat="44.22976" lon="6.92707">
        <ele>1657</ele>
        <time>2010-08-15T07:55:47Z</time>
      </trkpt>
      <trkpt lat="44.22975" lon="6.92706">
        <ele>1657</ele>
        <time>2010-08-15T07:55:48Z</time>
      </trkpt>
      <trkpt lat="44.22973" lon="6.92706">
        <ele>1656</ele>
        <time>2010-08-15T07:55:49Z</time>
      </trkpt>
      <trkpt lat="44.22971" lon="6.92707">
        <ele>1656</ele>
        <time>2010-08-15T07:55:50Z</time>
      </trkpt>
      <trkpt lat="44.22968" lon="6.92706">
        <ele>1656</ele>
        <time>2010-08-15T07:55:51Z</time>
      </trkpt>
      <trkpt lat="44.22966" lon="6.92704">
        <ele>1656</ele>
        <time>2010-08-15T07:55:52Z</time>
      </trkpt>
      <trkpt lat="44.22964" lon="6.92702">
        <ele>1655</ele>
        <time>2010-08-15T07:55:53Z</time>
      </trkpt>
      <trkpt lat="44.22962" lon="6.92699">
        <ele>1655</ele>
        <time>2010-08-15T07:55:54Z</time>
      </trkpt>
      <trkpt lat="44.2296" lon="6.92697">
        <ele>1655</ele>
        <time>2010-08-15T07:55:55Z</time>
      </trkpt>
      <trkpt lat="44.22959" lon="6.92693">
        <ele>1655</ele>
        <time>2010-08-15T07:55:56Z</time>
      </trkpt>
      <trkpt lat="44.22958" lon="6.92691">
        <ele>1655</ele>
        <time>2010-08-15T07:55:57Z</time>
      </trkpt>
      <trkpt lat="44.22957" lon="6.9269">
        <ele>1655</ele>
        <time>2010-08-15T07:55:58Z</time>
      </trkpt>
      <trkpt lat="44.22956" lon="6.92691">
        <ele>1654</ele>
        <time>2010-08-15T07:55:59Z</time>
      </trkpt>
      <trkpt lat="44.22955" lon="6.92694">
        <ele>1654</ele>
        <time>2010-08-15T07:56:00Z</time>
      </trkpt>
      <trkpt lat="44.22955" lon="6.92698">
        <ele>1654</ele>
        <time>2010-08-15T07:56:01Z</time>
      </trkpt>
      <trkpt lat="44.22957" lon="6.92703">
        <ele>1654</ele>
        <time>2010-08-15T07:56:02Z</time>
      </trkpt>
      <trkpt lat="44.22958" lon="6.92708">
        <ele>1654</ele>
        <time>2010-08-15T07:56:03Z</time>
      </trkpt>
      <trkpt lat="44.22959" lon="6.92712">
        <ele>1654</ele>
        <time>2010-08-15T07:56:04Z</time>
      </trkpt>
      <trkpt lat="44.2296" lon="6.92715">
        <ele>1654</ele>
        <time>2010-08-15T07:56:05Z</time>
      </trkpt>
      <trkpt lat="44.22959" lon="6.92719">
        <ele>1654</ele>
        <time>2010-08-15T07:56:06Z</time>
      </trkpt>
      <trkpt lat="44.22959" lon="6.92723">
        <ele>1653</ele>
        <time>2010-08-15T07:56:07Z</time>
      </trkpt>
      <trkpt lat="44.22959" lon="6.92728">
        <ele>1653</ele>
        <time>2010-08-15T07:56:08Z</time>
      </trkpt>
      <trkpt lat="44.2296" lon="6.92733">
        <ele>1653</ele>
        <time>2010-08-15T07:56:09Z</time>
      </trkpt>
      <trkpt lat="44.22961" lon="6.92736">
        <ele>1653</ele>
        <time>2010-08-15T07:56:10Z</time>
      </trkpt>
      <trkpt lat="44.22963" lon="6.92739">
        <ele>1654</ele>
        <time>2010-08-15T07:56:11Z</time>
      </trkpt>
      <trkpt lat="44.22965" lon="6.92742">
        <ele>1654</ele>
        <time>2010-08-15T07:56:12Z</time>
      </trkpt>
      <trkpt lat="44.22967" lon="6.92745">
        <ele>1654</ele>
        <time>2010-08-15T07:56:13Z</time>
      </trkpt>
      <trkpt lat="44.22968" lon="6.92749">
        <ele>1654</ele>
        <time>2010-08-15T07:56:14Z</time>
      </trkpt>
      <trkpt lat="44.22969" lon="6.92752">
        <ele>1652</ele>
        <time>2010-08-15T07:56:15Z</time>
      </trkpt>
      <trkpt lat="44.22967" lon="6.92755">
        <ele>1652</ele>
        <time>2010-08-15T07:56:16Z</time>
      </trkpt>
      <trkpt lat="44.22964" lon="6.92756">
        <ele>1651</ele>
        <time>2010-08-15T07:56:17Z</time>
      </trkpt>
      <trkpt lat="44.22961" lon="6.92754">
        <ele>1651</ele>
        <time>2010-08-15T07:56:18Z</time>
      </trkpt>
      <trkpt lat="44.22958" lon="6.92752">
        <ele>1650</ele>
        <time>2010-08-15T07:56:19Z</time>
      </trkpt>
      <trkpt lat="44.22955" lon="6.92749">
        <ele>1652</ele>
        <time>2010-08-15T07:56:20Z</time>
      </trkpt>
      <trkpt lat="44.22952" lon="6.92746">
        <ele>1651</ele>
        <time>2010-08-15T07:56:21Z</time>
      </trkpt>
      <trkpt lat="44.22949" lon="6.92743">
        <ele>1651</ele>
        <time>2010-08-15T07:56:22Z</time>
      </trkpt>
      <trkpt lat="44.22947" lon="6.92738">
        <ele>1651</ele>
        <time>2010-08-15T07:56:23Z</time>
      </trkpt>
      <trkpt lat="44.22945" lon="6.92734">
        <ele>1650</ele>
        <time>2010-08-15T07:56:24Z</time>
      </trkpt>
      <trkpt lat="44.22943" lon="6.92729">
        <ele>1651</ele>
        <time>2010-08-15T07:56:25Z</time>
      </trkpt>
      <trkpt lat="44.22943" lon="6.92723">
        <ele>1651</ele>
        <time>2010-08-15T07:56:26Z</time>
      </trkpt>
      <trkpt lat="44.22943" lon="6.92718">
        <ele>1651</ele>
        <time>2010-08-15T07:56:27Z</time>
      </trkpt>
      <trkpt lat="44.22943" lon="6.92714">
        <ele>1651</ele>
        <time>2010-08-15T07:56:28Z</time>
      </trkpt>
      <trkpt lat="44.22944" lon="6.9271">
        <ele>1652</ele>
        <time>2010-08-15T07:56:29Z</time>
      </trkpt>
      <trkpt lat="44.22945" lon="6.92707">
        <ele>1652</ele>
        <time>2010-08-15T07:56:30Z</time>
      </trkpt>
      <trkpt lat="44.22945" lon="6.92703">
        <ele>1652</ele>
        <time>2010-08-15T07:56:31Z</time>
      </trkpt>
      <trkpt lat="44.22944" lon="6.92699">
        <ele>1652</ele>
        <time>2010-08-15T07:56:32Z</time>
      </trkpt>
      <trkpt lat="44.22944" lon="6.92695">
        <ele>1652</ele>
        <time>2010-08-15T07:56:33Z</time>
      </trkpt>
      <trkpt lat="44.22944" lon="6.92691">
        <ele>1652</ele>
        <time>2010-08-15T07:56:34Z</time>
      </trkpt>
      <trkpt lat="44.22944" lon="6.92687">
        <ele>1652</ele>
        <time>2010-08-15T07:56:35Z</time>
      </trkpt>
      <trkpt lat="44.22944" lon="6.92684">
        <ele>1652</ele>
        <time>2010-08-15T07:56:36Z</time>
      </trkpt>
      <trkpt lat="44.22944" lon="6.9268">
        <ele>1652</ele>
        <time>2010-08-15T07:56:37Z</time>
      </trkpt>
      <trkpt lat="44.22943" lon="6.92676">
        <ele>1651</ele>
        <time>2010-08-15T07:56:38Z</time>
      </trkpt>
      <trkpt lat="44.22942" lon="6.92672">
        <ele>1651</ele>
        <time>2010-08-15T07:56:39Z</time>
      </trkpt>
      <trkpt lat="44.22942" lon="6.92667">
        <ele>1651</ele>
        <time>2010-08-15T07:56:40Z</time>
      </trkpt>
      <trkpt lat="44.22941" lon="6.92662">
        <ele>1656</ele>
        <time>2010-08-15T07:56:41Z</time>
      </trkpt>
      <trkpt lat="44.22942" lon="6.92658">
        <ele>1656</ele>
        <time>2010-08-15T07:56:42Z</time>
      </trkpt>
      <trkpt lat="44.22942" lon="6.92654">
        <ele>1656</ele>
        <time>2010-08-15T07:56:43Z</time>
      </trkpt>
      <trkpt lat="44.22942" lon="6.9265">
        <ele>1657</ele>
        <time>2010-08-15T07:56:44Z</time>
      </trkpt>
      <trkpt lat="44.22942" lon="6.92646">
        <ele>1658</ele>
        <time>2010-08-15T07:56:45Z</time>
      </trkpt>
      <trkpt lat="44.22942" lon="6.92641">
        <ele>1658</ele>
        <time>2010-08-15T07:56:46Z</time>
      </trkpt>
      <trkpt lat="44.22942" lon="6.92637">
        <ele>1659</ele>
        <time>2010-08-15T07:56:47Z</time>
      </trkpt>
      <trkpt lat="44.22941" lon="6.92632">
        <ele>1659</ele>
        <time>2010-08-15T07:56:48Z</time>
      </trkpt>
      <trkpt lat="44.2294" lon="6.92627">
        <ele>1659</ele>
        <time>2010-08-15T07:56:49Z</time>
      </trkpt>
      <trkpt lat="44.2294" lon="6.92622">
        <ele>1659</ele>
        <time>2010-08-15T07:56:50Z</time>
      </trkpt>
      <trkpt lat="44.22939" lon="6.92617">
        <ele>1659</ele>
        <time>2010-08-15T07:56:51Z</time>
      </trkpt>
      <trkpt lat="44.22939" lon="6.92612">
        <ele>1659</ele>
        <time>2010-08-15T07:56:52Z</time>
      </trkpt>
      <trkpt lat="44.22939" lon="6.92607">
        <ele>1659</ele>
        <time>2010-08-15T07:56:53Z</time>
      </trkpt>
      <trkpt lat="44.22938" lon="6.92603">
        <ele>1658</ele>
        <time>2010-08-15T07:56:54Z</time>
      </trkpt>
      <trkpt lat="44.22937" lon="6.92598">
        <ele>1658</ele>
        <time>2010-08-15T07:56:55Z</time>
      </trkpt>
      <trkpt lat="44.22936" lon="6.92594">
        <ele>1657</ele>
        <time>2010-08-15T07:56:56Z</time>
      </trkpt>
      <trkpt lat="44.22935" lon="6.9259">
        <ele>1656</ele>
        <time>2010-08-15T07:56:57Z</time>
      </trkpt>
      <trkpt lat="44.22935" lon="6.92586">
        <ele>1656</ele>
        <time>2010-08-15T07:56:58Z</time>
      </trkpt>
      <trkpt lat="44.22935" lon="6.92581">
        <ele>1660</ele>
        <time>2010-08-15T07:56:59Z</time>
      </trkpt>
      <trkpt lat="44.22936" lon="6.92578">
        <ele>1661</ele>
        <time>2010-08-15T07:57:00Z</time>
      </trkpt>
      <trkpt lat="44.22937" lon="6.92575">
        <ele>1662</ele>
        <time>2010-08-15T07:57:01Z</time>
      </trkpt>
      <trkpt lat="44.22937" lon="6.92571">
        <ele>1663</ele>
        <time>2010-08-15T07:57:02Z</time>
      </trkpt>
      <trkpt lat="44.22937" lon="6.92567">
        <ele>1664</ele>
        <time>2010-08-15T07:57:03Z</time>
      </trkpt>
      <trkpt lat="44.22937" lon="6.92563">
        <ele>1664</ele>
        <time>2010-08-15T07:57:04Z</time>
      </trkpt>
      <trkpt lat="44.22938" lon="6.9256">
        <ele>1665</ele>
        <time>2010-08-15T07:57:05Z</time>
      </trkpt>
      <trkpt lat="44.22939" lon="6.92557">
        <ele>1666</ele>
        <time>2010-08-15T07:57:06Z</time>
      </trkpt>
      <trkpt lat="44.22941" lon="6.92555">
        <ele>1667</ele>
        <time>2010-08-15T07:57:07Z</time>
      </trkpt>
      <trkpt lat="44.22942" lon="6.92553">
        <ele>1667</ele>
        <time>2010-08-15T07:57:08Z</time>
      </trkpt>
      <trkpt lat="44.22942" lon="6.9255">
        <ele>1668</ele>
        <time>2010-08-15T07:57:09Z</time>
      </trkpt>
      <trkpt lat="44.22942" lon="6.92546">
        <ele>1668</ele>
        <time>2010-08-15T07:57:10Z</time>
      </trkpt>
      <trkpt lat="44.22942" lon="6.92543">
        <ele>1668</ele>
        <time>2010-08-15T07:57:11Z</time>
      </trkpt>
      <trkpt lat="44.22941" lon="6.92541">
        <ele>1668</ele>
        <time>2010-08-15T07:57:12Z</time>
      </trkpt>
      <trkpt lat="44.22939" lon="6.92538">
        <ele>1668</ele>
        <time>2010-08-15T07:57:13Z</time>
      </trkpt>
      <trkpt lat="44.22938" lon="6.92535">
        <ele>1668</ele>
        <time>2010-08-15T07:57:14Z</time>
      </trkpt>
      <trkpt lat="44.22937" lon="6.92532">
        <ele>1667</ele>
        <time>2010-08-15T07:57:15Z</time>
      </trkpt>
      <trkpt lat="44.22936" lon="6.92529">
        <ele>1667</ele>
        <time>2010-08-15T07:57:16Z</time>
      </trkpt>
      <trkpt lat="44.22935" lon="6.92525">
        <ele>1667</ele>
        <time>2010-08-15T07:57:17Z</time>
      </trkpt>
      <trkpt lat="44.22934" lon="6.92521">
        <ele>1666</ele>
        <time>2010-08-15T07:57:18Z</time>
      </trkpt>
      <trkpt lat="44.22933" lon="6.92518">
        <ele>1665</ele>
        <time>2010-08-15T07:57:19Z</time>
      </trkpt>
      <trkpt lat="44.22932" lon="6.92514">
        <ele>1664</ele>
        <time>2010-08-15T07:57:20Z</time>
      </trkpt>
      <trkpt lat="44.22931" lon="6.9251">
        <ele>1663</ele>
        <time>2010-08-15T07:57:21Z</time>
      </trkpt>
      <trkpt lat="44.22931" lon="6.92505">
        <ele>1662</ele>
        <time>2010-08-15T07:57:22Z</time>
      </trkpt>
      <trkpt lat="44.2293" lon="6.92501">
        <ele>1661</ele>
        <time>2010-08-15T07:57:23Z</time>
      </trkpt>
      <trkpt lat="44.2293" lon="6.92498">
        <ele>1663</ele>
        <time>2010-08-15T07:57:24Z</time>
      </trkpt>
      <trkpt lat="44.2293" lon="6.92494">
        <ele>1664</ele>
        <time>2010-08-15T07:57:25Z</time>
      </trkpt>
      <trkpt lat="44.22929" lon="6.9249">
        <ele>1665</ele>
        <time>2010-08-15T07:57:26Z</time>
      </trkpt>
      <trkpt lat="44.22928" lon="6.92486">
        <ele>1666</ele>
        <time>2010-08-15T07:57:27Z</time>
      </trkpt>
      <trkpt lat="44.22927" lon="6.92483">
        <ele>1666</ele>
        <time>2010-08-15T07:57:28Z</time>
      </trkpt>
      <trkpt lat="44.22927" lon="6.92479">
        <ele>1667</ele>
        <time>2010-08-15T07:57:29Z</time>
      </trkpt>
      <trkpt lat="44.22926" lon="6.92475">
        <ele>1668</ele>
        <time>2010-08-15T07:57:30Z</time>
      </trkpt>
      <trkpt lat="44.22926" lon="6.92472">
        <ele>1669</ele>
        <time>2010-08-15T07:57:31Z</time>
      </trkpt>
      <trkpt lat="44.22927" lon="6.92469">
        <ele>1670</ele>
        <time>2010-08-15T07:57:32Z</time>
      </trkpt>
      <trkpt lat="44.22927" lon="6.92465">
        <ele>1670</ele>
        <time>2010-08-15T07:57:33Z</time>
      </trkpt>
      <trkpt lat="44.22927" lon="6.92462">
        <ele>1670</ele>
        <time>2010-08-15T07:57:34Z</time>
      </trkpt>
      <trkpt lat="44.22926" lon="6.92459">
        <ele>1671</ele>
        <time>2010-08-15T07:57:35Z</time>
      </trkpt>
      <trkpt lat="44.22926" lon="6.92456">
        <ele>1671</ele>
        <time>2010-08-15T07:57:36Z</time>
      </trkpt>
      <trkpt lat="44.22926" lon="6.92453">
        <ele>1671</ele>
        <time>2010-08-15T07:57:37Z</time>
      </trkpt>
      <trkpt lat="44.22926" lon="6.9245">
        <ele>1670</ele>
        <time>2010-08-15T07:57:38Z</time>
      </trkpt>
      <trkpt lat="44.22926" lon="6.92447">
        <ele>1670</ele>
        <time>2010-08-15T07:57:39Z</time>
      </trkpt>
      <trkpt lat="44.22926" lon="6.92443">
        <ele>1670</ele>
        <time>2010-08-15T07:57:40Z</time>
      </trkpt>
      <trkpt lat="44.22926" lon="6.9244">
        <ele>1669</ele>
        <time>2010-08-15T07:57:41Z</time>
      </trkpt>
      <trkpt lat="44.22927" lon="6.92438">
        <ele>1669</ele>
        <time>2010-08-15T07:57:42Z</time>
      </trkpt>
      <trkpt lat="44.22927" lon="6.92435">
        <ele>1668</ele>
        <time>2010-08-15T07:57:43Z</time>
      </trkpt>
      <trkpt lat="44.22928" lon="6.92432">
        <ele>1668</ele>
        <time>2010-08-15T07:57:44Z</time>
      </trkpt>
      <trkpt lat="44.22928" lon="6.92428">
        <ele>1667</ele>
        <time>2010-08-15T07:57:45Z</time>
      </trkpt>
      <trkpt lat="44.22929" lon="6.92425">
        <ele>1666</ele>
        <time>2010-08-15T07:57:46Z</time>
      </trkpt>
      <trkpt lat="44.2293" lon="6.92422">
        <ele>1666</ele>
        <time>2010-08-15T07:57:47Z</time>
      </trkpt>
      <trkpt lat="44.22931" lon="6.92419">
        <ele>1666</ele>
        <time>2010-08-15T07:57:48Z</time>
      </trkpt>
      <trkpt lat="44.22931" lon="6.92416">
        <ele>1666</ele>
        <time>2010-08-15T07:57:49Z</time>
      </trkpt>
      <trkpt lat="44.22932" lon="6.92412">
        <ele>1666</ele>
        <time>2010-08-15T07:57:50Z</time>
      </trkpt>
      <trkpt lat="44.22932" lon="6.92409">
        <ele>1667</ele>
        <time>2010-08-15T07:57:51Z</time>
      </trkpt>
      <trkpt lat="44.22933" lon="6.92405">
        <ele>1668</ele>
        <time>2010-08-15T07:57:52Z</time>
      </trkpt>
      <trkpt lat="44.22933" lon="6.92401">
        <ele>1668</ele>
        <time>2010-08-15T07:57:53Z</time>
      </trkpt>
      <trkpt lat="44.22933" lon="6.92398">
        <ele>1669</ele>
        <time>2010-08-15T07:57:54Z</time>
      </trkpt>
      <trkpt lat="44.22933" lon="6.92395">
        <ele>1670</ele>
        <time>2010-08-15T07:57:55Z</time>
      </trkpt>
      <trkpt lat="44.22932" lon="6.92392">
        <ele>1670</ele>
        <time>2010-08-15T07:57:56Z</time>
      </trkpt>
      <trkpt lat="44.22931" lon="6.9239">
        <ele>1670</ele>
        <time>2010-08-15T07:57:57Z</time>
      </trkpt>
      <trkpt lat="44.2293" lon="6.92386">
        <ele>1670</ele>
        <time>2010-08-15T07:57:58Z</time>
      </trkpt>
      <trkpt lat="44.2293" lon="6.92382">
        <ele>1670</ele>
        <time>2010-08-15T07:57:59Z</time>
      </trkpt>
      <trkpt lat="44.22931" lon="6.92378">
        <ele>1671</ele>
        <time>2010-08-15T07:58:00Z</time>
      </trkpt>
      <trkpt lat="44.22932" lon="6.92375">
        <ele>1671</ele>
        <time>2010-08-15T07:58:01Z</time>
      </trkpt>
      <trkpt lat="44.22932" lon="6.92372">
        <ele>1671</ele>
        <time>2010-08-15T07:58:02Z</time>
      </trkpt>
      <trkpt lat="44.22932" lon="6.92369">
        <ele>1670</ele>
        <time>2010-08-15T07:58:03Z</time>
      </trkpt>
      <trkpt lat="44.22933" lon="6.92365">
        <ele>1670</ele>
        <time>2010-08-15T07:58:04Z</time>
      </trkpt>
      <trkpt lat="44.22933" lon="6.92362">
        <ele>1670</ele>
        <time>2010-08-15T07:58:05Z</time>
      </trkpt>
      <trkpt lat="44.22934" lon="6.92358">
        <ele>1670</ele>
        <time>2010-08-15T07:58:06Z</time>
      </trkpt>
      <trkpt lat="44.22935" lon="6.92355">
        <ele>1669</ele>
        <time>2010-08-15T07:58:07Z</time>
      </trkpt>
      <trkpt lat="44.22936" lon="6.92353">
        <ele>1669</ele>
        <time>2010-08-15T07:58:08Z</time>
      </trkpt>
      <trkpt lat="44.22938" lon="6.92351">
        <ele>1670</ele>
        <time>2010-08-15T07:58:09Z</time>
      </trkpt>
      <trkpt lat="44.22939" lon="6.92349">
        <ele>1670</ele>
        <time>2010-08-15T07:58:10Z</time>
      </trkpt>
      <trkpt lat="44.2294" lon="6.92347">
        <ele>1670</ele>
        <time>2010-08-15T07:58:11Z</time>
      </trkpt>
      <trkpt lat="44.22941" lon="6.92345">
        <ele>1670</ele>
        <time>2010-08-15T07:58:12Z</time>
      </trkpt>
      <trkpt lat="44.22941" lon="6.92342">
        <ele>1670</ele>
        <time>2010-08-15T07:58:13Z</time>
      </trkpt>
      <trkpt lat="44.22941" lon="6.92339">
        <ele>1669</ele>
        <time>2010-08-15T07:58:14Z</time>
      </trkpt>
      <trkpt lat="44.22941" lon="6.92337">
        <ele>1669</ele>
        <time>2010-08-15T07:58:15Z</time>
      </trkpt>
      <trkpt lat="44.22942" lon="6.92334">
        <ele>1670</ele>
        <time>2010-08-15T07:58:16Z</time>
      </trkpt>
      <trkpt lat="44.22943" lon="6.92332">
        <ele>1669</ele>
        <time>2010-08-15T07:58:17Z</time>
      </trkpt>
      <trkpt lat="44.22944" lon="6.9233">
        <ele>1670</ele>
        <time>2010-08-15T07:58:18Z</time>
      </trkpt>
      <trkpt lat="44.22945" lon="6.92327">
        <ele>1670</ele>
        <time>2010-08-15T07:58:19Z</time>
      </trkpt>
      <trkpt lat="44.22946" lon="6.92325">
        <ele>1670</ele>
        <time>2010-08-15T07:58:20Z</time>
      </trkpt>
      <trkpt lat="44.22946" lon="6.92322">
        <ele>1671</ele>
        <time>2010-08-15T07:58:21Z</time>
      </trkpt>
      <trkpt lat="44.22947" lon="6.92319">
        <ele>1671</ele>
        <time>2010-08-15T07:58:22Z</time>
      </trkpt>
      <trkpt lat="44.22948" lon="6.92316">
        <ele>1671</ele>
        <time>2010-08-15T07:58:23Z</time>
      </trkpt>
      <trkpt lat="44.22948" lon="6.92313">
        <ele>1672</ele>
        <time>2010-08-15T07:58:24Z</time>
      </trkpt>
      <trkpt lat="44.22949" lon="6.92311">
        <ele>1672</ele>
        <time>2010-08-15T07:58:25Z</time>
      </trkpt>
      <trkpt lat="44.2295" lon="6.92309">
        <ele>1673</ele>
        <time>2010-08-15T07:58:26Z</time>
      </trkpt>
      <trkpt lat="44.22952" lon="6.92307">
        <ele>1673</ele>
        <time>2010-08-15T07:58:27Z</time>
      </trkpt>
      <trkpt lat="44.22954" lon="6.92305">
        <ele>1673</ele>
        <time>2010-08-15T07:58:28Z</time>
      </trkpt>
      <trkpt lat="44.22955" lon="6.92304">
        <ele>1674</ele>
        <time>2010-08-15T07:58:29Z</time>
      </trkpt>
      <trkpt lat="44.22957" lon="6.92303">
        <ele>1674</ele>
        <time>2010-08-15T07:58:30Z</time>
      </trkpt>
      <trkpt lat="44.22958" lon="6.92301">
        <ele>1675</ele>
        <time>2010-08-15T07:58:31Z</time>
      </trkpt>
      <trkpt lat="44.2296" lon="6.92299">
        <ele>1675</ele>
        <time>2010-08-15T07:58:32Z</time>
      </trkpt>
      <trkpt lat="44.22961" lon="6.92299">
        <ele>1675</ele>
        <time>2010-08-15T07:58:33Z</time>
      </trkpt>
      <trkpt lat="44.22962" lon="6.92299">
        <ele>1676</ele>
        <time>2010-08-15T07:58:34Z</time>
      </trkpt>
      <trkpt lat="44.22963" lon="6.92298">
        <ele>1676</ele>
        <time>2010-08-15T07:58:35Z</time>
      </trkpt>
      <trkpt lat="44.22963" lon="6.92296">
        <ele>1676</ele>
        <time>2010-08-15T07:58:36Z</time>
      </trkpt>
      <trkpt lat="44.22963" lon="6.92294">
        <ele>1676</ele>
        <time>2010-08-15T07:58:37Z</time>
      </trkpt>
      <trkpt lat="44.22963" lon="6.92292">
        <ele>1676</ele>
        <time>2010-08-15T07:58:38Z</time>
      </trkpt>
      <trkpt lat="44.22964" lon="6.92291">
        <ele>1676</ele>
        <time>2010-08-15T07:58:39Z</time>
      </trkpt>
      <trkpt lat="44.22964" lon="6.92288">
        <ele>1676</ele>
        <time>2010-08-15T07:58:40Z</time>
      </trkpt>
      <trkpt lat="44.22964" lon="6.92284">
        <ele>1676</ele>
        <time>2010-08-15T07:58:41Z</time>
      </trkpt>
      <trkpt lat="44.22964" lon="6.92281">
        <ele>1676</ele>
        <time>2010-08-15T07:58:42Z</time>
      </trkpt>
      <trkpt lat="44.22964" lon="6.92278">
        <ele>1676</ele>
        <time>2010-08-15T07:58:43Z</time>
      </trkpt>
      <trkpt lat="44.22964" lon="6.92274">
        <ele>1676</ele>
        <time>2010-08-15T07:58:44Z</time>
      </trkpt>
      <trkpt lat="44.22964" lon="6.92271">
        <ele>1676</ele>
        <time>2010-08-15T07:58:45Z</time>
      </trkpt>
      <trkpt lat="44.22964" lon="6.92268">
        <ele>1676</ele>
        <time>2010-08-15T07:58:46Z</time>
      </trkpt>
      <trkpt lat="44.22964" lon="6.92264">
        <ele>1676</ele>
        <time>2010-08-15T07:58:47Z</time>
      </trkpt>
      <trkpt lat="44.22963" lon="6.92261">
        <ele>1676</ele>
        <time>2010-08-15T07:58:48Z</time>
      </trkpt>
      <trkpt lat="44.22963" lon="6.92257">
        <ele>1676</ele>
        <time>2010-08-15T07:58:49Z</time>
      </trkpt>
      <trkpt lat="44.22962" lon="6.92255">
        <ele>1676</ele>
        <time>2010-08-15T07:58:50Z</time>
      </trkpt>
      <trkpt lat="44.22962" lon="6.92252">
        <ele>1676</ele>
        <time>2010-08-15T07:58:51Z</time>
      </trkpt>
      <trkpt lat="44.22961" lon="6.92248">
        <ele>1675</ele>
        <time>2010-08-15T07:58:52Z</time>
      </trkpt>
      <trkpt lat="44.2296" lon="6.92245">
        <ele>1675</ele>
        <time>2010-08-15T07:58:53Z</time>
      </trkpt>
      <trkpt lat="44.22959" lon="6.92242">
        <ele>1675</ele>
        <time>2010-08-15T07:58:54Z</time>
      </trkpt>
      <trkpt lat="44.22958" lon="6.92238">
        <ele>1675</ele>
        <time>2010-08-15T07:58:55Z</time>
      </trkpt>
      <trkpt lat="44.22958" lon="6.92235">
        <ele>1674</ele>
        <time>2010-08-15T07:58:56Z</time>
      </trkpt>
      <trkpt lat="44.22957" lon="6.92231">
        <ele>1674</ele>
        <time>2010-08-15T07:58:57Z</time>
      </trkpt>
      <trkpt lat="44.22957" lon="6.92228">
        <ele>1674</ele>
        <time>2010-08-15T07:58:58Z</time>
      </trkpt>
      <trkpt lat="44.22957" lon="6.92224">
        <ele>1674</ele>
        <time>2010-08-15T07:58:59Z</time>
      </trkpt>
      <trkpt lat="44.22957" lon="6.9222">
        <ele>1674</ele>
        <time>2010-08-15T07:59:00Z</time>
      </trkpt>
      <trkpt lat="44.22957" lon="6.92217">
        <ele>1674</ele>
        <time>2010-08-15T07:59:01Z</time>
      </trkpt>
      <trkpt lat="44.22957" lon="6.92213">
        <ele>1674</ele>
        <time>2010-08-15T07:59:02Z</time>
      </trkpt>
      <trkpt lat="44.22957" lon="6.92208">
        <ele>1674</ele>
        <time>2010-08-15T07:59:03Z</time>
      </trkpt>
      <trkpt lat="44.22957" lon="6.92204">
        <ele>1674</ele>
        <time>2010-08-15T07:59:04Z</time>
      </trkpt>
      <trkpt lat="44.22958" lon="6.92201">
        <ele>1674</ele>
        <time>2010-08-15T07:59:05Z</time>
      </trkpt>
      <trkpt lat="44.2296" lon="6.92198">
        <ele>1674</ele>
        <time>2010-08-15T07:59:06Z</time>
      </trkpt>
      <trkpt lat="44.22961" lon="6.92195">
        <ele>1674</ele>
        <time>2010-08-15T07:59:07Z</time>
      </trkpt>
      <trkpt lat="44.22962" lon="6.92192">
        <ele>1675</ele>
        <time>2010-08-15T07:59:08Z</time>
      </trkpt>
      <trkpt lat="44.22964" lon="6.92188">
        <ele>1675</ele>
        <time>2010-08-15T07:59:09Z</time>
      </trkpt>
      <trkpt lat="44.22965" lon="6.92185">
        <ele>1676</ele>
        <time>2010-08-15T07:59:10Z</time>
      </trkpt>
      <trkpt lat="44.22966" lon="6.92182">
        <ele>1676</ele>
        <time>2010-08-15T07:59:11Z</time>
      </trkpt>
      <trkpt lat="44.22967" lon="6.92178">
        <ele>1676</ele>
        <time>2010-08-15T07:59:12Z</time>
      </trkpt>
      <trkpt lat="44.22969" lon="6.92175">
        <ele>1677</ele>
        <time>2010-08-15T07:59:13Z</time>
      </trkpt>
      <trkpt lat="44.2297" lon="6.92172">
        <ele>1677</ele>
        <time>2010-08-15T07:59:14Z</time>
      </trkpt>
      <trkpt lat="44.22971" lon="6.92169">
        <ele>1678</ele>
        <time>2010-08-15T07:59:15Z</time>
      </trkpt>
      <trkpt lat="44.2297" lon="6.92166">
        <ele>1680</ele>
        <time>2010-08-15T07:59:16Z</time>
      </trkpt>
      <trkpt lat="44.22969" lon="6.92163">
        <ele>1679</ele>
        <time>2010-08-15T07:59:17Z</time>
      </trkpt>
      <trkpt lat="44.22967" lon="6.92159">
        <ele>1679</ele>
        <time>2010-08-15T07:59:18Z</time>
      </trkpt>
      <trkpt lat="44.22966" lon="6.92154">
        <ele>1678</ele>
        <time>2010-08-15T07:59:19Z</time>
      </trkpt>
      <trkpt lat="44.22965" lon="6.9215">
        <ele>1678</ele>
        <time>2010-08-15T07:59:20Z</time>
      </trkpt>
      <trkpt lat="44.22963" lon="6.92147">
        <ele>1677</ele>
        <time>2010-08-15T07:59:21Z</time>
      </trkpt>
      <trkpt lat="44.22962" lon="6.92143">
        <ele>1677</ele>
        <time>2010-08-15T07:59:22Z</time>
      </trkpt>
      <trkpt lat="44.2296" lon="6.9214">
        <ele>1677</ele>
        <time>2010-08-15T07:59:23Z</time>
      </trkpt>
      <trkpt lat="44.2296" lon="6.92136">
        <ele>1677</ele>
        <time>2010-08-15T07:59:24Z</time>
      </trkpt>
      <trkpt lat="44.2296" lon="6.92132">
        <ele>1677</ele>
        <time>2010-08-15T07:59:25Z</time>
      </trkpt>
      <trkpt lat="44.22959" lon="6.92129">
        <ele>1677</ele>
        <time>2010-08-15T07:59:26Z</time>
      </trkpt>
      <trkpt lat="44.22957" lon="6.92125">
        <ele>1677</ele>
        <time>2010-08-15T07:59:27Z</time>
      </trkpt>
      <trkpt lat="44.22956" lon="6.9212">
        <ele>1677</ele>
        <time>2010-08-15T07:59:28Z</time>
      </trkpt>
      <trkpt lat="44.22955" lon="6.92116">
        <ele>1677</ele>
        <time>2010-08-15T07:59:29Z</time>
      </trkpt>
      <trkpt lat="44.22954" lon="6.92112">
        <ele>1676</ele>
        <time>2010-08-15T07:59:30Z</time>
      </trkpt>
      <trkpt lat="44.22953" lon="6.92108">
        <ele>1676</ele>
        <time>2010-08-15T07:59:31Z</time>
      </trkpt>
      <trkpt lat="44.22952" lon="6.92105">
        <ele>1676</ele>
        <time>2010-08-15T07:59:32Z</time>
      </trkpt>
      <trkpt lat="44.22951" lon="6.92102">
        <ele>1676</ele>
        <time>2010-08-15T07:59:33Z</time>
      </trkpt>
      <trkpt lat="44.2295" lon="6.92099">
        <ele>1676</ele>
        <time>2010-08-15T07:59:34Z</time>
      </trkpt>
      <trkpt lat="44.2295" lon="6.92095">
        <ele>1675</ele>
        <time>2010-08-15T07:59:35Z</time>
      </trkpt>
      <trkpt lat="44.22949" lon="6.92092">
        <ele>1675</ele>
        <time>2010-08-15T07:59:36Z</time>
      </trkpt>
      <trkpt lat="44.22949" lon="6.92088">
        <ele>1675</ele>
        <time>2010-08-15T07:59:37Z</time>
      </trkpt>
      <trkpt lat="44.22949" lon="6.92085">
        <ele>1675</ele>
        <time>2010-08-15T07:59:38Z</time>
      </trkpt>
      <trkpt lat="44.22949" lon="6.92082">
        <ele>1680</ele>
        <time>2010-08-15T07:59:39Z</time>
      </trkpt>
      <trkpt lat="44.22948" lon="6.92078">
        <ele>1680</ele>
        <time>2010-08-15T07:59:40Z</time>
      </trkpt>
      <trkpt lat="44.22948" lon="6.92075">
        <ele>1681</ele>
        <time>2010-08-15T07:59:41Z</time>
      </trkpt>
      <trkpt lat="44.22948" lon="6.92072">
        <ele>1681</ele>
        <time>2010-08-15T07:59:42Z</time>
      </trkpt>
      <trkpt lat="44.22948" lon="6.92069">
        <ele>1681</ele>
        <time>2010-08-15T07:59:43Z</time>
      </trkpt>
      <trkpt lat="44.22948" lon="6.92066">
        <ele>1681</ele>
        <time>2010-08-15T07:59:44Z</time>
      </trkpt>
      <trkpt lat="44.22948" lon="6.92063">
        <ele>1682</ele>
        <time>2010-08-15T07:59:45Z</time>
      </trkpt>
      <trkpt lat="44.22948" lon="6.9206">
        <ele>1682</ele>
        <time>2010-08-15T07:59:46Z</time>
      </trkpt>
      <trkpt lat="44.22948" lon="6.92056">
        <ele>1682</ele>
        <time>2010-08-15T07:59:47Z</time>
      </trkpt>
      <trkpt lat="44.22949" lon="6.92053">
        <ele>1683</ele>
        <time>2010-08-15T07:59:48Z</time>
      </trkpt>
      <trkpt lat="44.22949" lon="6.9205">
        <ele>1683</ele>
        <time>2010-08-15T07:59:49Z</time>
      </trkpt>
      <trkpt lat="44.22949" lon="6.92047">
        <ele>1683</ele>
        <time>2010-08-15T07:59:50Z</time>
      </trkpt>
      <trkpt lat="44.22949" lon="6.92043">
        <ele>1684</ele>
        <time>2010-08-15T07:59:51Z</time>
      </trkpt>
      <trkpt lat="44.2295" lon="6.9204">
        <ele>1684</ele>
        <time>2010-08-15T07:59:52Z</time>
      </trkpt>
      <trkpt lat="44.2295" lon="6.92038">
        <ele>1684</ele>
        <time>2010-08-15T07:59:53Z</time>
      </trkpt>
      <trkpt lat="44.22949" lon="6.92034">
        <ele>1684</ele>
        <time>2010-08-15T07:59:54Z</time>
      </trkpt>
      <trkpt lat="44.22949" lon="6.92031">
        <ele>1684</ele>
        <time>2010-08-15T07:59:55Z</time>
      </trkpt>
      <trkpt lat="44.22948" lon="6.92028">
        <ele>1684</ele>
        <time>2010-08-15T07:59:56Z</time>
      </trkpt>
      <trkpt lat="44.22947" lon="6.92026">
        <ele>1683</ele>
        <time>2010-08-15T07:59:57Z</time>
      </trkpt>
      <trkpt lat="44.22946" lon="6.92023">
        <ele>1683</ele>
        <time>2010-08-15T07:59:58Z</time>
      </trkpt>
      <trkpt lat="44.22946" lon="6.92019">
        <ele>1683</ele>
        <time>2010-08-15T07:59:59Z</time>
      </trkpt>
      <trkpt lat="44.22945" lon="6.92016">
        <ele>1683</ele>
        <time>2010-08-15T08:00:00Z</time>
      </trkpt>
      <trkpt lat="44.22945" lon="6.92012">
        <ele>1682</ele>
        <time>2010-08-15T08:00:01Z</time>
      </trkpt>
      <trkpt lat="44.22944" lon="6.92009">
        <ele>1682</ele>
        <time>2010-08-15T08:00:02Z</time>
      </trkpt>
      <trkpt lat="44.22944" lon="6.92005">
        <ele>1682</ele>
        <time>2010-08-15T08:00:03Z</time>
      </trkpt>
      <trkpt lat="44.22944" lon="6.92002">
        <ele>1682</ele>
        <time>2010-08-15T08:00:04Z</time>
      </trkpt>
      <trkpt lat="44.22944" lon="6.91998">
        <ele>1685</ele>
        <time>2010-08-15T08:00:05Z</time>
      </trkpt>
      <trkpt lat="44.22943" lon="6.91995">
        <ele>1685</ele>
        <time>2010-08-15T08:00:06Z</time>
      </trkpt>
      <trkpt lat="44.22944" lon="6.91991">
        <ele>1685</ele>
        <time>2010-08-15T08:00:07Z</time>
      </trkpt>
      <trkpt lat="44.22944" lon="6.91988">
        <ele>1686</ele>
        <time>2010-08-15T08:00:08Z</time>
      </trkpt>
      <trkpt lat="44.22945" lon="6.91985">
        <ele>1687</ele>
        <time>2010-08-15T08:00:09Z</time>
      </trkpt>
      <trkpt lat="44.22945" lon="6.91981">
        <ele>1687</ele>
        <time>2010-08-15T08:00:10Z</time>
      </trkpt>
      <trkpt lat="44.22944" lon="6.91979">
        <ele>1687</ele>
        <time>2010-08-15T08:00:11Z</time>
      </trkpt>
      <trkpt lat="44.22942" lon="6.91976">
        <ele>1686</ele>
        <time>2010-08-15T08:00:12Z</time>
      </trkpt>
      <trkpt lat="44.22941" lon="6.91972">
        <ele>1687</ele>
        <time>2010-08-15T08:00:13Z</time>
      </trkpt>
      <trkpt lat="44.2294" lon="6.91968">
        <ele>1687</ele>
        <time>2010-08-15T08:00:14Z</time>
      </trkpt>
      <trkpt lat="44.2294" lon="6.91965">
        <ele>1687</ele>
        <time>2010-08-15T08:00:15Z</time>
      </trkpt>
      <trkpt lat="44.22939" lon="6.91961">
        <ele>1687</ele>
        <time>2010-08-15T08:00:16Z</time>
      </trkpt>
      <trkpt lat="44.22939" lon="6.91957">
        <ele>1687</ele>
        <time>2010-08-15T08:00:17Z</time>
      </trkpt>
      <trkpt lat="44.22938" lon="6.91954">
        <ele>1687</ele>
        <time>2010-08-15T08:00:18Z</time>
      </trkpt>
      <trkpt lat="44.22938" lon="6.9195">
        <ele>1687</ele>
        <time>2010-08-15T08:00:19Z</time>
      </trkpt>
      <trkpt lat="44.22937" lon="6.91946">
        <ele>1686</ele>
        <time>2010-08-15T08:00:20Z</time>
      </trkpt>
      <trkpt lat="44.22936" lon="6.91942">
        <ele>1686</ele>
        <time>2010-08-15T08:00:21Z</time>
      </trkpt>
      <trkpt lat="44.22935" lon="6.91938">
        <ele>1685</ele>
        <time>2010-08-15T08:00:22Z</time>
      </trkpt>
      <trkpt lat="44.22934" lon="6.91933">
        <ele>1684</ele>
        <time>2010-08-15T08:00:23Z</time>
      </trkpt>
      <trkpt lat="44.22934" lon="6.91929">
        <ele>1683</ele>
        <time>2010-08-15T08:00:24Z</time>
      </trkpt>
      <trkpt lat="44.22933" lon="6.91925">
        <ele>1683</ele>
        <time>2010-08-15T08:00:25Z</time>
      </trkpt>
      <trkpt lat="44.22934" lon="6.91921">
        <ele>1682</ele>
        <time>2010-08-15T08:00:26Z</time>
      </trkpt>
      <trkpt lat="44.22934" lon="6.91916">
        <ele>1683</ele>
        <time>2010-08-15T08:00:27Z</time>
      </trkpt>
      <trkpt lat="44.22934" lon="6.91912">
        <ele>1683</ele>
        <time>2010-08-15T08:00:28Z</time>
      </trkpt>
      <trkpt lat="44.22934" lon="6.91908">
        <ele>1683</ele>
        <time>2010-08-15T08:00:29Z</time>
      </trkpt>
      <trkpt lat="44.22933" lon="6.91904">
        <ele>1683</ele>
        <time>2010-08-15T08:00:30Z</time>
      </trkpt>
      <trkpt lat="44.22933" lon="6.91899">
        <ele>1684</ele>
        <time>2010-08-15T08:00:31Z</time>
      </trkpt>
      <trkpt lat="44.22933" lon="6.91895">
        <ele>1685</ele>
        <time>2010-08-15T08:00:32Z</time>
      </trkpt>
      <trkpt lat="44.22932" lon="6.91891">
        <ele>1685</ele>
        <time>2010-08-15T08:00:33Z</time>
      </trkpt>
      <trkpt lat="44.22933" lon="6.91886">
        <ele>1686</ele>
        <time>2010-08-15T08:00:34Z</time>
      </trkpt>
      <trkpt lat="44.22933" lon="6.91881">
        <ele>1686</ele>
        <time>2010-08-15T08:00:35Z</time>
      </trkpt>
      <trkpt lat="44.22932" lon="6.91876">
        <ele>1686</ele>
        <time>2010-08-15T08:00:36Z</time>
      </trkpt>
      <trkpt lat="44.22932" lon="6.91872">
        <ele>1686</ele>
        <time>2010-08-15T08:00:37Z</time>
      </trkpt>
      <trkpt lat="44.22932" lon="6.91868">
        <ele>1686</ele>
        <time>2010-08-15T08:00:38Z</time>
      </trkpt>
      <trkpt lat="44.22931" lon="6.91863">
        <ele>1685</ele>
        <time>2010-08-15T08:00:39Z</time>
      </trkpt>
      <trkpt lat="44.22931" lon="6.91859">
        <ele>1685</ele>
        <time>2010-08-15T08:00:40Z</time>
      </trkpt>
      <trkpt lat="44.22931" lon="6.91856">
        <ele>1684</ele>
        <time>2010-08-15T08:00:41Z</time>
      </trkpt>
      <trkpt lat="44.2293" lon="6.91852">
        <ele>1684</ele>
        <time>2010-08-15T08:00:42Z</time>
      </trkpt>
      <trkpt lat="44.2293" lon="6.91848">
        <ele>1683</ele>
        <time>2010-08-15T08:00:43Z</time>
      </trkpt>
      <trkpt lat="44.2293" lon="6.91843">
        <ele>1682</ele>
        <time>2010-08-15T08:00:44Z</time>
      </trkpt>
      <trkpt lat="44.2293" lon="6.91837">
        <ele>1681</ele>
        <time>2010-08-15T08:00:45Z</time>
      </trkpt>
      <trkpt lat="44.22929" lon="6.91833">
        <ele>1680</ele>
        <time>2010-08-15T08:00:46Z</time>
      </trkpt>
      <trkpt lat="44.22928" lon="6.91829">
        <ele>1680</ele>
        <time>2010-08-15T08:00:47Z</time>
      </trkpt>
      <trkpt lat="44.22927" lon="6.91825">
        <ele>1680</ele>
        <time>2010-08-15T08:00:48Z</time>
      </trkpt>
      <trkpt lat="44.22926" lon="6.91821">
        <ele>1681</ele>
        <time>2010-08-15T08:00:49Z</time>
      </trkpt>
      <trkpt lat="44.22925" lon="6.91817">
        <ele>1682</ele>
        <time>2010-08-15T08:00:50Z</time>
      </trkpt>
      <trkpt lat="44.22923" lon="6.91814">
        <ele>1682</ele>
        <time>2010-08-15T08:00:51Z</time>
      </trkpt>
      <trkpt lat="44.22921" lon="6.9181">
        <ele>1683</ele>
        <time>2010-08-15T08:00:52Z</time>
      </trkpt>
      <trkpt lat="44.22919" lon="6.91806">
        <ele>1683</ele>
        <time>2010-08-15T08:00:53Z</time>
      </trkpt>
      <trkpt lat="44.22917" lon="6.91803">
        <ele>1684</ele>
        <time>2010-08-15T08:00:54Z</time>
      </trkpt>
      <trkpt lat="44.22915" lon="6.918">
        <ele>1667</ele>
        <time>2010-08-15T08:00:55Z</time>
      </trkpt>
      <trkpt lat="44.22913" lon="6.91796">
        <ele>1667</ele>
        <time>2010-08-15T08:00:56Z</time>
      </trkpt>
      <trkpt lat="44.2291" lon="6.91793">
        <ele>1667</ele>
        <time>2010-08-15T08:00:57Z</time>
      </trkpt>
      <trkpt lat="44.22908" lon="6.9179">
        <ele>1667</ele>
        <time>2010-08-15T08:00:58Z</time>
      </trkpt>
      <trkpt lat="44.22906" lon="6.91787">
        <ele>1667</ele>
        <time>2010-08-15T08:00:59Z</time>
      </trkpt>
      <trkpt lat="44.22904" lon="6.91784">
        <ele>1667</ele>
        <time>2010-08-15T08:01:00Z</time>
      </trkpt>
      <trkpt lat="44.22901" lon="6.9178">
        <ele>1667</ele>
        <time>2010-08-15T08:01:01Z</time>
      </trkpt>
      <trkpt lat="44.22899" lon="6.91777">
        <ele>1667</ele>
        <time>2010-08-15T08:01:02Z</time>
      </trkpt>
      <trkpt lat="44.22896" lon="6.91774">
        <ele>1667</ele>
        <time>2010-08-15T08:01:03Z</time>
      </trkpt>
      <trkpt lat="44.22894" lon="6.91771">
        <ele>1667</ele>
        <time>2010-08-15T08:01:04Z</time>
      </trkpt>
      <trkpt lat="44.22891" lon="6.91767">
        <ele>1667</ele>
        <time>2010-08-15T08:01:05Z</time>
      </trkpt>
      <trkpt lat="44.22889" lon="6.91764">
        <ele>1666</ele>
        <time>2010-08-15T08:01:06Z</time>
      </trkpt>
      <trkpt lat="44.22887" lon="6.91761">
        <ele>1666</ele>
        <time>2010-08-15T08:01:07Z</time>
      </trkpt>
      <trkpt lat="44.22884" lon="6.91758">
        <ele>1666</ele>
        <time>2010-08-15T08:01:08Z</time>
      </trkpt>
      <trkpt lat="44.22881" lon="6.91756">
        <ele>1665</ele>
        <time>2010-08-15T08:01:09Z</time>
      </trkpt>
      <trkpt lat="44.22879" lon="6.91753">
        <ele>1665</ele>
        <time>2010-08-15T08:01:10Z</time>
      </trkpt>
      <trkpt lat="44.22876" lon="6.91751">
        <ele>1665</ele>
        <time>2010-08-15T08:01:11Z</time>
      </trkpt>
      <trkpt lat="44.22873" lon="6.91747">
        <ele>1668</ele>
        <time>2010-08-15T08:01:12Z</time>
      </trkpt>
      <trkpt lat="44.22871" lon="6.91744">
        <ele>1668</ele>
        <time>2010-08-15T08:01:13Z</time>
      </trkpt>
      <trkpt lat="44.22868" lon="6.9174">
        <ele>1667</ele>
        <time>2010-08-15T08:01:14Z</time>
      </trkpt>
      <trkpt lat="44.22865" lon="6.91737">
        <ele>1667</ele>
        <time>2010-08-15T08:01:15Z</time>
      </trkpt>
      <trkpt lat="44.22863" lon="6.91734">
        <ele>1667</ele>
        <time>2010-08-15T08:01:16Z</time>
      </trkpt>
      <trkpt lat="44.2286" lon="6.91733">
        <ele>1667</ele>
        <time>2010-08-15T08:01:17Z</time>
      </trkpt>
      <trkpt lat="44.22857" lon="6.91733">
        <ele>1666</ele>
        <time>2010-08-15T08:01:18Z</time>
      </trkpt>
      <trkpt lat="44.22855" lon="6.91734">
        <ele>1665</ele>
        <time>2010-08-15T08:01:19Z</time>
      </trkpt>
      <trkpt lat="44.22852" lon="6.91736">
        <ele>1665</ele>
        <time>2010-08-15T08:01:20Z</time>
      </trkpt>
      <trkpt lat="44.22849" lon="6.91738">
        <ele>1664</ele>
        <time>2010-08-15T08:01:21Z</time>
      </trkpt>
      <trkpt lat="44.22846" lon="6.91741">
        <ele>1663</ele>
        <time>2010-08-15T08:01:22Z</time>
      </trkpt>
      <trkpt lat="44.22843" lon="6.91743">
        <ele>1662</ele>
        <time>2010-08-15T08:01:23Z</time>
      </trkpt>
      <trkpt lat="44.2284" lon="6.91745">
        <ele>1661</ele>
        <time>2010-08-15T08:01:24Z</time>
      </trkpt>
      <trkpt lat="44.22837" lon="6.91745">
        <ele>1660</ele>
        <time>2010-08-15T08:01:25Z</time>
      </trkpt>
      <trkpt lat="44.22833" lon="6.91746">
        <ele>1659</ele>
        <time>2010-08-15T08:01:26Z</time>
      </trkpt>
      <trkpt lat="44.2283" lon="6.91746">
        <ele>1659</ele>
        <time>2010-08-15T08:01:27Z</time>
      </trkpt>
      <trkpt lat="44.22826" lon="6.91745">
        <ele>1660</ele>
        <time>2010-08-15T08:01:28Z</time>
      </trkpt>
      <trkpt lat="44.22823" lon="6.91744">
        <ele>1661</ele>
        <time>2010-08-15T08:01:29Z</time>
      </trkpt>
      <trkpt lat="44.2282" lon="6.91741">
        <ele>1662</ele>
        <time>2010-08-15T08:01:30Z</time>
      </trkpt>
      <trkpt lat="44.22818" lon="6.91739">
        <ele>1662</ele>
        <time>2010-08-15T08:01:31Z</time>
      </trkpt>
      <trkpt lat="44.22816" lon="6.91735">
        <ele>1663</ele>
        <time>2010-08-15T08:01:32Z</time>
      </trkpt>
      <trkpt lat="44.22816" lon="6.9173">
        <ele>1663</ele>
        <time>2010-08-15T08:01:33Z</time>
      </trkpt>
      <trkpt lat="44.22815" lon="6.91726">
        <ele>1664</ele>
        <time>2010-08-15T08:01:34Z</time>
      </trkpt>
      <trkpt lat="44.22816" lon="6.91722">
        <ele>1664</ele>
        <time>2010-08-15T08:01:35Z</time>
      </trkpt>
      <trkpt lat="44.22816" lon="6.91717">
        <ele>1665</ele>
        <time>2010-08-15T08:01:36Z</time>
      </trkpt>
      <trkpt lat="44.22816" lon="6.91714">
        <ele>1665</ele>
        <time>2010-08-15T08:01:37Z</time>
      </trkpt>
      <trkpt lat="44.22816" lon="6.9171">
        <ele>1665</ele>
        <time>2010-08-15T08:01:38Z</time>
      </trkpt>
      <trkpt lat="44.22817" lon="6.91706">
        <ele>1665</ele>
        <time>2010-08-15T08:01:39Z</time>
      </trkpt>
      <trkpt lat="44.22817" lon="6.91703">
        <ele>1666</ele>
        <time>2010-08-15T08:01:40Z</time>
      </trkpt>
      <trkpt lat="44.22817" lon="6.91699">
        <ele>1666</ele>
        <time>2010-08-15T08:01:41Z</time>
      </trkpt>
      <trkpt lat="44.22816" lon="6.91695">
        <ele>1666</ele>
        <time>2010-08-15T08:01:42Z</time>
      </trkpt>
      <trkpt lat="44.22816" lon="6.91692">
        <ele>1666</ele>
        <time>2010-08-15T08:01:43Z</time>
      </trkpt>
      <trkpt lat="44.22816" lon="6.91688">
        <ele>1666</ele>
        <time>2010-08-15T08:01:44Z</time>
      </trkpt>
      <trkpt lat="44.22816" lon="6.91684">
        <ele>1666</ele>
        <time>2010-08-15T08:01:45Z</time>
      </trkpt>
      <trkpt lat="44.22816" lon="6.9168">
        <ele>1666</ele>
        <time>2010-08-15T08:01:46Z</time>
      </trkpt>
      <trkpt lat="44.22816" lon="6.91676">
        <ele>1666</ele>
        <time>2010-08-15T08:01:47Z</time>
      </trkpt>
      <trkpt lat="44.22816" lon="6.91672">
        <ele>1666</ele>
        <time>2010-08-15T08:01:48Z</time>
      </trkpt>
      <trkpt lat="44.22816" lon="6.91668">
        <ele>1666</ele>
        <time>2010-08-15T08:01:49Z</time>
      </trkpt>
      <trkpt lat="44.22816" lon="6.91664">
        <ele>1671</ele>
        <time>2010-08-15T08:01:50Z</time>
      </trkpt>
      <trkpt lat="44.22815" lon="6.9166">
        <ele>1671</ele>
        <time>2010-08-15T08:01:51Z</time>
      </trkpt>
      <trkpt lat="44.22814" lon="6.91657">
        <ele>1672</ele>
        <time>2010-08-15T08:01:52Z</time>
      </trkpt>
      <trkpt lat="44.22812" lon="6.91654">
        <ele>1672</ele>
        <time>2010-08-15T08:01:53Z</time>
      </trkpt>
      <trkpt lat="44.22809" lon="6.91653">
        <ele>1673</ele>
        <time>2010-08-15T08:01:54Z</time>
      </trkpt>
      <trkpt lat="44.22807" lon="6.91653">
        <ele>1673</ele>
        <time>2010-08-15T08:01:55Z</time>
      </trkpt>
      <trkpt lat="44.22805" lon="6.91653">
        <ele>1674</ele>
        <time>2010-08-15T08:01:56Z</time>
      </trkpt>
      <trkpt lat="44.22802" lon="6.91653">
        <ele>1674</ele>
        <time>2010-08-15T08:01:57Z</time>
      </trkpt>
      <trkpt lat="44.22799" lon="6.91653">
        <ele>1674</ele>
        <time>2010-08-15T08:01:58Z</time>
      </trkpt>
      <trkpt lat="44.22797" lon="6.91652">
        <ele>1675</ele>
        <time>2010-08-15T08:01:59Z</time>
      </trkpt>
      <trkpt lat="44.22795" lon="6.91649">
        <ele>1675</ele>
        <time>2010-08-15T08:02:00Z</time>
      </trkpt>
      <trkpt lat="44.22794" lon="6.91647">
        <ele>1675</ele>
        <time>2010-08-15T08:02:01Z</time>
      </trkpt>
      <trkpt lat="44.22794" lon="6.91644">
        <ele>1676</ele>
        <time>2010-08-15T08:02:02Z</time>
      </trkpt>
      <trkpt lat="44.22794" lon="6.91642">
        <ele>1676</ele>
        <time>2010-08-15T08:02:03Z</time>
      </trkpt>
      <trkpt lat="44.22793" lon="6.91638">
        <ele>1676</ele>
        <time>2010-08-15T08:02:04Z</time>
      </trkpt>
      <trkpt lat="44.22793" lon="6.91635">
        <ele>1676</ele>
        <time>2010-08-15T08:02:05Z</time>
      </trkpt>
      <trkpt lat="44.22793" lon="6.91632">
        <ele>1676</ele>
        <time>2010-08-15T08:02:06Z</time>
      </trkpt>
      <trkpt lat="44.22793" lon="6.91628">
        <ele>1677</ele>
        <time>2010-08-15T08:02:07Z</time>
      </trkpt>
      <trkpt lat="44.22793" lon="6.91624">
        <ele>1677</ele>
        <time>2010-08-15T08:02:08Z</time>
      </trkpt>
      <trkpt lat="44.22793" lon="6.91621">
        <ele>1677</ele>
        <time>2010-08-15T08:02:09Z</time>
      </trkpt>
      <trkpt lat="44.22792" lon="6.91618">
        <ele>1677</ele>
        <time>2010-08-15T08:02:10Z</time>
      </trkpt>
      <trkpt lat="44.22792" lon="6.91616">
        <ele>1678</ele>
        <time>2010-08-15T08:02:11Z</time>
      </trkpt>
      <trkpt lat="44.22792" lon="6.91613">
        <ele>1678</ele>
        <time>2010-08-15T08:02:12Z</time>
      </trkpt>
      <trkpt lat="44.22792" lon="6.9161">
        <ele>1678</ele>
        <time>2010-08-15T08:02:13Z</time>
      </trkpt>
      <trkpt lat="44.22791" lon="6.91607">
        <ele>1678</ele>
        <time>2010-08-15T08:02:14Z</time>
      </trkpt>
      <trkpt lat="44.22791" lon="6.91604">
        <ele>1678</ele>
        <time>2010-08-15T08:02:15Z</time>
      </trkpt>
      <trkpt lat="44.22791" lon="6.91601">
        <ele>1679</ele>
        <time>2010-08-15T08:02:16Z</time>
      </trkpt>
      <trkpt lat="44.2279" lon="6.91597">
        <ele>1679</ele>
        <time>2010-08-15T08:02:17Z</time>
      </trkpt>
      <trkpt lat="44.2279" lon="6.91594">
        <ele>1679</ele>
        <time>2010-08-15T08:02:18Z</time>
      </trkpt>
      <trkpt lat="44.2279" lon="6.91591">
        <ele>1679</ele>
        <time>2010-08-15T08:02:19Z</time>
      </trkpt>
      <trkpt lat="44.2279" lon="6.91588">
        <ele>1679</ele>
        <time>2010-08-15T08:02:20Z</time>
      </trkpt>
      <trkpt lat="44.2279" lon="6.91585">
        <ele>1679</ele>
        <time>2010-08-15T08:02:21Z</time>
      </trkpt>
      <trkpt lat="44.2279" lon="6.91582">
        <ele>1687</ele>
        <time>2010-08-15T08:02:22Z</time>
      </trkpt>
      <trkpt lat="44.22791" lon="6.91578">
        <ele>1687</ele>
        <time>2010-08-15T08:02:23Z</time>
      </trkpt>
      <trkpt lat="44.22791" lon="6.91575">
        <ele>1687</ele>
        <time>2010-08-15T08:02:24Z</time>
      </trkpt>
      <trkpt lat="44.22791" lon="6.91572">
        <ele>1687</ele>
        <time>2010-08-15T08:02:25Z</time>
      </trkpt>
      <trkpt lat="44.2279" lon="6.91569">
        <ele>1687</ele>
        <time>2010-08-15T08:02:26Z</time>
      </trkpt>
      <trkpt lat="44.2279" lon="6.91566">
        <ele>1687</ele>
        <time>2010-08-15T08:02:27Z</time>
      </trkpt>
      <trkpt lat="44.22789" lon="6.91564">
        <ele>1688</ele>
        <time>2010-08-15T08:02:28Z</time>
      </trkpt>
      <trkpt lat="44.22788" lon="6.91563">
        <ele>1688</ele>
        <time>2010-08-15T08:02:29Z</time>
      </trkpt>
      <trkpt lat="44.22787" lon="6.91564">
        <ele>1688</ele>
        <time>2010-08-15T08:02:30Z</time>
      </trkpt>
      <trkpt lat="44.22787" lon="6.91566">
        <ele>1688</ele>
        <time>2010-08-15T08:02:31Z</time>
      </trkpt>
      <trkpt lat="44.22788" lon="6.91568">
        <ele>1688</ele>
        <time>2010-08-15T08:02:32Z</time>
      </trkpt>
      <trkpt lat="44.22788" lon="6.91571">
        <ele>1687</ele>
        <time>2010-08-15T08:02:33Z</time>
      </trkpt>
      <trkpt lat="44.22787" lon="6.91573">
        <ele>1687</ele>
        <time>2010-08-15T08:02:34Z</time>
      </trkpt>
      <trkpt lat="44.22787" lon="6.91576">
        <ele>1687</ele>
        <time>2010-08-15T08:02:35Z</time>
      </trkpt>
      <trkpt lat="44.22786" lon="6.91578">
        <ele>1687</ele>
        <time>2010-08-15T08:02:36Z</time>
      </trkpt>
      <trkpt lat="44.22786" lon="6.91582">
        <ele>1687</ele>
        <time>2010-08-15T08:02:37Z</time>
      </trkpt>
      <trkpt lat="44.22784" lon="6.91586">
        <ele>1680</ele>
        <time>2010-08-15T08:02:38Z</time>
      </trkpt>
      <trkpt lat="44.22782" lon="6.9159">
        <ele>1680</ele>
        <time>2010-08-15T08:02:39Z</time>
      </trkpt>
      <trkpt lat="44.22782" lon="6.91593">
        <ele>1680</ele>
        <time>2010-08-15T08:02:40Z</time>
      </trkpt>
      <trkpt lat="44.22782" lon="6.91595">
        <ele>1680</ele>
        <time>2010-08-15T08:02:41Z</time>
      </trkpt>
      <trkpt lat="44.22783" lon="6.91598">
        <ele>1680</ele>
        <time>2010-08-15T08:02:42Z</time>
      </trkpt>
      <trkpt lat="44.22782" lon="6.91603">
        <ele>1680</ele>
        <time>2010-08-15T08:02:43Z</time>
      </trkpt>
      <trkpt lat="44.22781" lon="6.91607">
        <ele>1679</ele>
        <time>2010-08-15T08:02:44Z</time>
      </trkpt>
      <trkpt lat="44.2278" lon="6.9161">
        <ele>1679</ele>
        <time>2010-08-15T08:02:45Z</time>
      </trkpt>
      <trkpt lat="44.22781" lon="6.91613">
        <ele>1679</ele>
        <time>2010-08-15T08:02:46Z</time>
      </trkpt>
      <trkpt lat="44.22781" lon="6.91616">
        <ele>1679</ele>
        <time>2010-08-15T08:02:47Z</time>
      </trkpt>
      <trkpt lat="44.22779" lon="6.91619">
        <ele>1679</ele>
        <time>2010-08-15T08:02:48Z</time>
      </trkpt>
      <trkpt lat="44.22778" lon="6.91623">
        <ele>1678</ele>
        <time>2010-08-15T08:02:49Z</time>
      </trkpt>
      <trkpt lat="44.22776" lon="6.91626">
        <ele>1678</ele>
        <time>2010-08-15T08:02:50Z</time>
      </trkpt>
      <trkpt lat="44.22775" lon="6.91629">
        <ele>1678</ele>
        <time>2010-08-15T08:02:51Z</time>
      </trkpt>
      <trkpt lat="44.22773" lon="6.91633">
        <ele>1678</ele>
        <time>2010-08-15T08:02:52Z</time>
      </trkpt>
      <trkpt lat="44.22772" lon="6.91636">
        <ele>1678</ele>
        <time>2010-08-15T08:02:53Z</time>
      </trkpt>
      <trkpt lat="44.2277" lon="6.9164">
        <ele>1678</ele>
        <time>2010-08-15T08:02:54Z</time>
      </trkpt>
      <trkpt lat="44.22769" lon="6.91643">
        <ele>1678</ele>
        <time>2010-08-15T08:02:55Z</time>
      </trkpt>
      <trkpt lat="44.22767" lon="6.91645">
        <ele>1678</ele>
        <time>2010-08-15T08:02:56Z</time>
      </trkpt>
      <trkpt lat="44.22766" lon="6.91649">
        <ele>1678</ele>
        <time>2010-08-15T08:02:57Z</time>
      </trkpt>
      <trkpt lat="44.22765" lon="6.91652">
        <ele>1678</ele>
        <time>2010-08-15T08:02:58Z</time>
      </trkpt>
      <trkpt lat="44.22764" lon="6.91655">
        <ele>1678</ele>
        <time>2010-08-15T08:02:59Z</time>
      </trkpt>
      <trkpt lat="44.22762" lon="6.91658">
        <ele>1678</ele>
        <time>2010-08-15T08:03:00Z</time>
      </trkpt>
      <trkpt lat="44.22761" lon="6.91661">
        <ele>1678</ele>
        <time>2010-08-15T08:03:01Z</time>
      </trkpt>
      <trkpt lat="44.2276" lon="6.91664">
        <ele>1678</ele>
        <time>2010-08-15T08:03:02Z</time>
      </trkpt>
      <trkpt lat="44.2276" lon="6.91667">
        <ele>1675</ele>
        <time>2010-08-15T08:03:03Z</time>
      </trkpt>
      <trkpt lat="44.22759" lon="6.91671">
        <ele>1675</ele>
        <time>2010-08-15T08:03:04Z</time>
      </trkpt>
      <trkpt lat="44.22758" lon="6.91675">
        <ele>1675</ele>
        <time>2010-08-15T08:03:05Z</time>
      </trkpt>
      <trkpt lat="44.22757" lon="6.91678">
        <ele>1674</ele>
        <time>2010-08-15T08:03:06Z</time>
      </trkpt>
      <trkpt lat="44.22756" lon="6.91681">
        <ele>1674</ele>
        <time>2010-08-15T08:03:07Z</time>
      </trkpt>
      <trkpt lat="44.22755" lon="6.91683">
        <ele>1673</ele>
        <time>2010-08-15T08:03:08Z</time>
      </trkpt>
      <trkpt lat="44.22753" lon="6.91686">
        <ele>1673</ele>
        <time>2010-08-15T08:03:09Z</time>
      </trkpt>
      <trkpt lat="44.22752" lon="6.91688">
        <ele>1672</ele>
        <time>2010-08-15T08:03:10Z</time>
      </trkpt>
      <trkpt lat="44.22751" lon="6.91691">
        <ele>1672</ele>
        <time>2010-08-15T08:03:11Z</time>
      </trkpt>
      <trkpt lat="44.22749" lon="6.91694">
        <ele>1689</ele>
        <time>2010-08-15T08:03:12Z</time>
      </trkpt>
      <trkpt lat="44.22748" lon="6.91697">
        <ele>1689</ele>
        <time>2010-08-15T08:03:13Z</time>
      </trkpt>
      <trkpt lat="44.22747" lon="6.917">
        <ele>1690</ele>
        <time>2010-08-15T08:03:14Z</time>
      </trkpt>
      <trkpt lat="44.22746" lon="6.91703">
        <ele>1690</ele>
        <time>2010-08-15T08:03:15Z</time>
      </trkpt>
      <trkpt lat="44.22745" lon="6.91706">
        <ele>1690</ele>
        <time>2010-08-15T08:03:16Z</time>
      </trkpt>
      <trkpt lat="44.22743" lon="6.91709">
        <ele>1690</ele>
        <time>2010-08-15T08:03:17Z</time>
      </trkpt>
      <trkpt lat="44.22742" lon="6.91712">
        <ele>1689</ele>
        <time>2010-08-15T08:03:18Z</time>
      </trkpt>
      <trkpt lat="44.2274" lon="6.91717">
        <ele>1689</ele>
        <time>2010-08-15T08:03:19Z</time>
      </trkpt>
      <trkpt lat="44.22738" lon="6.9172">
        <ele>1689</ele>
        <time>2010-08-15T08:03:20Z</time>
      </trkpt>
      <trkpt lat="44.22737" lon="6.91724">
        <ele>1688</ele>
        <time>2010-08-15T08:03:21Z</time>
      </trkpt>
      <trkpt lat="44.22735" lon="6.91727">
        <ele>1687</ele>
        <time>2010-08-15T08:03:22Z</time>
      </trkpt>
      <trkpt lat="44.22733" lon="6.91731">
        <ele>1687</ele>
        <time>2010-08-15T08:03:23Z</time>
      </trkpt>
      <trkpt lat="44.22732" lon="6.91734">
        <ele>1687</ele>
        <time>2010-08-15T08:03:24Z</time>
      </trkpt>
      <trkpt lat="44.2273" lon="6.91737">
        <ele>1687</ele>
        <time>2010-08-15T08:03:25Z</time>
      </trkpt>
      <trkpt lat="44.22728" lon="6.91741">
        <ele>1687</ele>
        <time>2010-08-15T08:03:26Z</time>
      </trkpt>
      <trkpt lat="44.22726" lon="6.91744">
        <ele>1688</ele>
        <time>2010-08-15T08:03:27Z</time>
      </trkpt>
      <trkpt lat="44.22724" lon="6.91747">
        <ele>1688</ele>
        <time>2010-08-15T08:03:28Z</time>
      </trkpt>
      <trkpt lat="44.22723" lon="6.9175">
        <ele>1677</ele>
        <time>2010-08-15T08:03:29Z</time>
      </trkpt>
      <trkpt lat="44.22721" lon="6.91754">
        <ele>1678</ele>
        <time>2010-08-15T08:03:30Z</time>
      </trkpt>
      <trkpt lat="44.2272" lon="6.91757">
        <ele>1678</ele>
        <time>2010-08-15T08:03:31Z</time>
      </trkpt>
      <trkpt lat="44.2272" lon="6.9176">
        <ele>1678</ele>
        <time>2010-08-15T08:03:32Z</time>
      </trkpt>
      <trkpt lat="44.2272" lon="6.91762">
        <ele>1678</ele>
        <time>2010-08-15T08:03:33Z</time>
      </trkpt>
      <trkpt lat="44.2272" lon="6.91765">
        <ele>1678</ele>
        <time>2010-08-15T08:03:34Z</time>
      </trkpt>
      <trkpt lat="44.22719" lon="6.91768">
        <ele>1678</ele>
        <time>2010-08-15T08:03:35Z</time>
      </trkpt>
      <trkpt lat="44.22717" lon="6.91771">
        <ele>1678</ele>
        <time>2010-08-15T08:03:36Z</time>
      </trkpt>
      <trkpt lat="44.22716" lon="6.91773">
        <ele>1678</ele>
        <time>2010-08-15T08:03:37Z</time>
      </trkpt>
      <trkpt lat="44.22715" lon="6.91775">
        <ele>1678</ele>
        <time>2010-08-15T08:03:38Z</time>
      </trkpt>
      <trkpt lat="44.22714" lon="6.91777">
        <ele>1678</ele>
        <time>2010-08-15T08:03:39Z</time>
      </trkpt>
      <trkpt lat="44.22712" lon="6.91779">
        <ele>1678</ele>
        <time>2010-08-15T08:03:40Z</time>
      </trkpt>
      <trkpt lat="44.2271" lon="6.91782">
        <ele>1679</ele>
        <time>2010-08-15T08:03:41Z</time>
      </trkpt>
      <trkpt lat="44.22709" lon="6.91784">
        <ele>1679</ele>
        <time>2010-08-15T08:03:42Z</time>
      </trkpt>
      <trkpt lat="44.22708" lon="6.91786">
        <ele>1678</ele>
        <time>2010-08-15T08:03:43Z</time>
      </trkpt>
      <trkpt lat="44.22707" lon="6.91789">
        <ele>1678</ele>
        <time>2010-08-15T08:03:44Z</time>
      </trkpt>
      <trkpt lat="44.22705" lon="6.91792">
        <ele>1678</ele>
        <time>2010-08-15T08:03:45Z</time>
      </trkpt>
      <trkpt lat="44.22704" lon="6.91794">
        <ele>1678</ele>
        <time>2010-08-15T08:03:46Z</time>
      </trkpt>
      <trkpt lat="44.22703" lon="6.91797">
        <ele>1678</ele>
        <time>2010-08-15T08:03:47Z</time>
      </trkpt>
      <trkpt lat="44.22701" lon="6.91799">
        <ele>1678</ele>
        <time>2010-08-15T08:03:48Z</time>
      </trkpt>
      <trkpt lat="44.22699" lon="6.91802">
        <ele>1678</ele>
        <time>2010-08-15T08:03:49Z</time>
      </trkpt>
      <trkpt lat="44.22698" lon="6.91805">
        <ele>1678</ele>
        <time>2010-08-15T08:03:50Z</time>
      </trkpt>
      <trkpt lat="44.22696" lon="6.91806">
        <ele>1678</ele>
        <time>2010-08-15T08:03:51Z</time>
      </trkpt>
      <trkpt lat="44.22695" lon="6.91807">
        <ele>1679</ele>
        <time>2010-08-15T08:03:52Z</time>
      </trkpt>
      <trkpt lat="44.22694" lon="6.91807">
        <ele>1679</ele>
        <time>2010-08-15T08:03:53Z</time>
      </trkpt>
      <trkpt lat="44.22693" lon="6.91809">
        <ele>1679</ele>
        <time>2010-08-15T08:03:54Z</time>
      </trkpt>
      <trkpt lat="44.22692" lon="6.91809">
        <ele>1679</ele>
        <time>2010-08-15T08:03:55Z</time>
      </trkpt>
      <trkpt lat="44.22692" lon="6.9181">
        <ele>1679</ele>
        <time>2010-08-15T08:03:56Z</time>
      </trkpt>
      <trkpt lat="44.22691" lon="6.91812">
        <ele>1679</ele>
        <time>2010-08-15T08:03:57Z</time>
      </trkpt>
      <trkpt lat="44.2269" lon="6.91814">
        <ele>1679</ele>
        <time>2010-08-15T08:03:58Z</time>
      </trkpt>
      <trkpt lat="44.22689" lon="6.91815">
        <ele>1679</ele>
        <time>2010-08-15T08:03:59Z</time>
      </trkpt>
      <trkpt lat="44.22687" lon="6.91817">
        <ele>1679</ele>
        <time>2010-08-15T08:04:00Z</time>
      </trkpt>
      <trkpt lat="44.22684" lon="6.91818">
        <ele>1680</ele>
        <time>2010-08-15T08:04:01Z</time>
      </trkpt>
      <trkpt lat="44.22682" lon="6.91821">
        <ele>1680</ele>
        <time>2010-08-15T08:04:02Z</time>
      </trkpt>
      <trkpt lat="44.22679" lon="6.91824">
        <ele>1680</ele>
        <time>2010-08-15T08:04:03Z</time>
      </trkpt>
      <trkpt lat="44.22678" lon="6.91826">
        <ele>1681</ele>
        <time>2010-08-15T08:04:04Z</time>
      </trkpt>
      <trkpt lat="44.22675" lon="6.91828">
        <ele>1681</ele>
        <time>2010-08-15T08:04:05Z</time>
      </trkpt>
      <trkpt lat="44.22673" lon="6.91829">
        <ele>1682</ele>
        <time>2010-08-15T08:04:06Z</time>
      </trkpt>
      <trkpt lat="44.22671" lon="6.9183">
        <ele>1682</ele>
        <time>2010-08-15T08:04:07Z</time>
      </trkpt>
      <trkpt lat="44.2267" lon="6.9183">
        <ele>1682</ele>
        <time>2010-08-15T08:04:08Z</time>
      </trkpt>
      <trkpt lat="44.22668" lon="6.91832">
        <ele>1683</ele>
        <time>2010-08-15T08:04:09Z</time>
      </trkpt>
      <trkpt lat="44.22666" lon="6.91833">
        <ele>1683</ele>
        <time>2010-08-15T08:04:10Z</time>
      </trkpt>
      <trkpt lat="44.22664" lon="6.91834">
        <ele>1683</ele>
        <time>2010-08-15T08:04:11Z</time>
      </trkpt>
      <trkpt lat="44.22662" lon="6.91835">
        <ele>1683</ele>
        <time>2010-08-15T08:04:12Z</time>
      </trkpt>
      <trkpt lat="44.22659" lon="6.91836">
        <ele>1683</ele>
        <time>2010-08-15T08:04:13Z</time>
      </trkpt>
      <trkpt lat="44.22656" lon="6.91838">
        <ele>1683</ele>
        <time>2010-08-15T08:04:14Z</time>
      </trkpt>
      <trkpt lat="44.22653" lon="6.9184">
        <ele>1684</ele>
        <time>2010-08-15T08:04:15Z</time>
      </trkpt>
      <trkpt lat="44.22651" lon="6.91841">
        <ele>1684</ele>
        <time>2010-08-15T08:04:16Z</time>
      </trkpt>
      <trkpt lat="44.22648" lon="6.91843">
        <ele>1684</ele>
        <time>2010-08-15T08:04:17Z</time>
      </trkpt>
      <trkpt lat="44.22646" lon="6.91844">
        <ele>1684</ele>
        <time>2010-08-15T08:04:18Z</time>
      </trkpt>
      <trkpt lat="44.22643" lon="6.91845">
        <ele>1684</ele>
        <time>2010-08-15T08:04:19Z</time>
      </trkpt>
      <trkpt lat="44.22642" lon="6.91846">
        <ele>1684</ele>
        <time>2010-08-15T08:04:20Z</time>
      </trkpt>
      <trkpt lat="44.22639" lon="6.91847">
        <ele>1685</ele>
        <time>2010-08-15T08:04:21Z</time>
      </trkpt>
      <trkpt lat="44.22636" lon="6.91848">
        <ele>1685</ele>
        <time>2010-08-15T08:04:22Z</time>
      </trkpt>
      <trkpt lat="44.22634" lon="6.91849">
        <ele>1685</ele>
        <time>2010-08-15T08:04:23Z</time>
      </trkpt>
      <trkpt lat="44.22632" lon="6.91851">
        <ele>1686</ele>
        <time>2010-08-15T08:04:24Z</time>
      </trkpt>
      <trkpt lat="44.2263" lon="6.91852">
        <ele>1686</ele>
        <time>2010-08-15T08:04:25Z</time>
      </trkpt>
      <trkpt lat="44.22628" lon="6.91854">
        <ele>1686</ele>
        <time>2010-08-15T08:04:26Z</time>
      </trkpt>
      <trkpt lat="44.22626" lon="6.91856">
        <ele>1686</ele>
        <time>2010-08-15T08:04:27Z</time>
      </trkpt>
      <trkpt lat="44.22624" lon="6.91858">
        <ele>1686</ele>
        <time>2010-08-15T08:04:28Z</time>
      </trkpt>
      <trkpt lat="44.22622" lon="6.9186">
        <ele>1686</ele>
        <time>2010-08-15T08:04:29Z</time>
      </trkpt>
      <trkpt lat="44.22621" lon="6.91862">
        <ele>1686</ele>
        <time>2010-08-15T08:04:30Z</time>
      </trkpt>
      <trkpt lat="44.22619" lon="6.91864">
        <ele>1686</ele>
        <time>2010-08-15T08:04:31Z</time>
      </trkpt>
      <trkpt lat="44.22617" lon="6.91866">
        <ele>1686</ele>
        <time>2010-08-15T08:04:32Z</time>
      </trkpt>
      <trkpt lat="44.22616" lon="6.91868">
        <ele>1686</ele>
        <time>2010-08-15T08:04:33Z</time>
      </trkpt>
      <trkpt lat="44.22614" lon="6.9187">
        <ele>1686</ele>
        <time>2010-08-15T08:04:34Z</time>
      </trkpt>
      <trkpt lat="44.22612" lon="6.91872">
        <ele>1686</ele>
        <time>2010-08-15T08:04:35Z</time>
      </trkpt>
      <trkpt lat="44.22611" lon="6.91874">
        <ele>1686</ele>
        <time>2010-08-15T08:04:36Z</time>
      </trkpt>
      <trkpt lat="44.22609" lon="6.91876">
        <ele>1686</ele>
        <time>2010-08-15T08:04:37Z</time>
      </trkpt>
      <trkpt lat="44.22608" lon="6.91879">
        <ele>1685</ele>
        <time>2010-08-15T08:04:38Z</time>
      </trkpt>
      <trkpt lat="44.22606" lon="6.91881">
        <ele>1685</ele>
        <time>2010-08-15T08:04:39Z</time>
      </trkpt>
      <trkpt lat="44.22604" lon="6.91882">
        <ele>1685</ele>
        <time>2010-08-15T08:04:40Z</time>
      </trkpt>
      <trkpt lat="44.22602" lon="6.91884">
        <ele>1685</ele>
        <time>2010-08-15T08:04:41Z</time>
      </trkpt>
      <trkpt lat="44.226" lon="6.91886">
        <ele>1685</ele>
        <time>2010-08-15T08:04:42Z</time>
      </trkpt>
      <trkpt lat="44.22598" lon="6.91888">
        <ele>1685</ele>
        <time>2010-08-15T08:04:43Z</time>
      </trkpt>
      <trkpt lat="44.22595" lon="6.91891">
        <ele>1685</ele>
        <time>2010-08-15T08:04:44Z</time>
      </trkpt>
      <trkpt lat="44.22593" lon="6.91892">
        <ele>1685</ele>
        <time>2010-08-15T08:04:45Z</time>
      </trkpt>
      <trkpt lat="44.22591" lon="6.91894">
        <ele>1684</ele>
        <time>2010-08-15T08:04:46Z</time>
      </trkpt>
      <trkpt lat="44.22589" lon="6.91896">
        <ele>1684</ele>
        <time>2010-08-15T08:04:47Z</time>
      </trkpt>
      <trkpt lat="44.22587" lon="6.91898">
        <ele>1684</ele>
        <time>2010-08-15T08:04:48Z</time>
      </trkpt>
      <trkpt lat="44.22585" lon="6.91901">
        <ele>1684</ele>
        <time>2010-08-15T08:04:49Z</time>
      </trkpt>
      <trkpt lat="44.22583" lon="6.91903">
        <ele>1699</ele>
        <time>2010-08-15T08:04:50Z</time>
      </trkpt>
      <trkpt lat="44.22581" lon="6.91906">
        <ele>1697</ele>
        <time>2010-08-15T08:04:51Z</time>
      </trkpt>
      <trkpt lat="44.22579" lon="6.91908">
        <ele>1696</ele>
        <time>2010-08-15T08:04:52Z</time>
      </trkpt>
      <trkpt lat="44.22578" lon="6.9191">
        <ele>1695</ele>
        <time>2010-08-15T08:04:53Z</time>
      </trkpt>
      <trkpt lat="44.22577" lon="6.91911">
        <ele>1695</ele>
        <time>2010-08-15T08:04:54Z</time>
      </trkpt>
      <trkpt lat="44.22575" lon="6.91913">
        <ele>1695</ele>
        <time>2010-08-15T08:04:55Z</time>
      </trkpt>
      <trkpt lat="44.22574" lon="6.91916">
        <ele>1696</ele>
        <time>2010-08-15T08:04:56Z</time>
      </trkpt>
      <trkpt lat="44.22573" lon="6.91918">
        <ele>1691</ele>
        <time>2010-08-15T08:04:57Z</time>
      </trkpt>
      <trkpt lat="44.22572" lon="6.91921">
        <ele>1692</ele>
        <time>2010-08-15T08:04:58Z</time>
      </trkpt>
      <trkpt lat="44.2257" lon="6.91923">
        <ele>1693</ele>
        <time>2010-08-15T08:04:59Z</time>
      </trkpt>
      <trkpt lat="44.22569" lon="6.91926">
        <ele>1694</ele>
        <time>2010-08-15T08:05:00Z</time>
      </trkpt>
      <trkpt lat="44.22567" lon="6.91929">
        <ele>1695</ele>
        <time>2010-08-15T08:05:01Z</time>
      </trkpt>
      <trkpt lat="44.22565" lon="6.91932">
        <ele>1697</ele>
        <time>2010-08-15T08:05:02Z</time>
      </trkpt>
      <trkpt lat="44.22563" lon="6.91935">
        <ele>1697</ele>
        <time>2010-08-15T08:05:03Z</time>
      </trkpt>
      <trkpt lat="44.22561" lon="6.91938">
        <ele>1698</ele>
        <time>2010-08-15T08:05:04Z</time>
      </trkpt>
      <trkpt lat="44.22558" lon="6.91942">
        <ele>1699</ele>
        <time>2010-08-15T08:05:05Z</time>
      </trkpt>
      <trkpt lat="44.22555" lon="6.91947">
        <ele>1700</ele>
        <time>2010-08-15T08:05:06Z</time>
      </trkpt>
      <trkpt lat="44.22553" lon="6.91951">
        <ele>1701</ele>
        <time>2010-08-15T08:05:07Z</time>
      </trkpt>
      <trkpt lat="44.2255" lon="6.91955">
        <ele>1701</ele>
        <time>2010-08-15T08:05:08Z</time>
      </trkpt>
      <trkpt lat="44.2255" lon="6.91958">
        <ele>1702</ele>
        <time>2010-08-15T08:05:09Z</time>
      </trkpt>
      <trkpt lat="44.22549" lon="6.91961">
        <ele>1701</ele>
        <time>2010-08-15T08:05:10Z</time>
      </trkpt>
      <trkpt lat="44.22549" lon="6.91965">
        <ele>1701</ele>
        <time>2010-08-15T08:05:11Z</time>
      </trkpt>
      <trkpt lat="44.22548" lon="6.91968">
        <ele>1701</ele>
        <time>2010-08-15T08:05:12Z</time>
      </trkpt>
      <trkpt lat="44.22547" lon="6.91971">
        <ele>1701</ele>
        <time>2010-08-15T08:05:13Z</time>
      </trkpt>
      <trkpt lat="44.22547" lon="6.91974">
        <ele>1701</ele>
        <time>2010-08-15T08:05:14Z</time>
      </trkpt>
      <trkpt lat="44.22546" lon="6.91979">
        <ele>1701</ele>
        <time>2010-08-15T08:05:15Z</time>
      </trkpt>
      <trkpt lat="44.22543" lon="6.91983">
        <ele>1702</ele>
        <time>2010-08-15T08:05:16Z</time>
      </trkpt>
      <trkpt lat="44.22541" lon="6.91988">
        <ele>1702</ele>
        <time>2010-08-15T08:05:17Z</time>
      </trkpt>
      <trkpt lat="44.22541" lon="6.91992">
        <ele>1702</ele>
        <time>2010-08-15T08:05:18Z</time>
      </trkpt>
      <trkpt lat="44.22542" lon="6.91996">
        <ele>1702</ele>
        <time>2010-08-15T08:05:19Z</time>
      </trkpt>
      <trkpt lat="44.22545" lon="6.91998">
        <ele>1700</ele>
        <time>2010-08-15T08:05:20Z</time>
      </trkpt>
      <trkpt lat="44.22549" lon="6.92001">
        <ele>1692</ele>
        <time>2010-08-15T08:05:21Z</time>
      </trkpt>
      <trkpt lat="44.22552" lon="6.92004">
        <ele>1690</ele>
        <time>2010-08-15T08:05:22Z</time>
      </trkpt>
      <trkpt lat="44.22555" lon="6.92006">
        <ele>1689</ele>
        <time>2010-08-15T08:05:23Z</time>
      </trkpt>
      <trkpt lat="44.22556" lon="6.92009">
        <ele>1689</ele>
        <time>2010-08-15T08:05:24Z</time>
      </trkpt>
      <trkpt lat="44.22556" lon="6.92012">
        <ele>1689</ele>
        <time>2010-08-15T08:05:25Z</time>
      </trkpt>
      <trkpt lat="44.22557" lon="6.92016">
        <ele>1689</ele>
        <time>2010-08-15T08:05:26Z</time>
      </trkpt>
      <trkpt lat="44.22558" lon="6.92019">
        <ele>1689</ele>
        <time>2010-08-15T08:05:27Z</time>
      </trkpt>
      <trkpt lat="44.22558" lon="6.92022">
        <ele>1689</ele>
        <time>2010-08-15T08:05:28Z</time>
      </trkpt>
      <trkpt lat="44.22557" lon="6.92025">
        <ele>1689</ele>
        <time>2010-08-15T08:05:29Z</time>
      </trkpt>
      <trkpt lat="44.22555" lon="6.92028">
        <ele>1690</ele>
        <time>2010-08-15T08:05:30Z</time>
      </trkpt>
      <trkpt lat="44.22553" lon="6.92032">
        <ele>1690</ele>
        <time>2010-08-15T08:05:31Z</time>
      </trkpt>
      <trkpt lat="44.22552" lon="6.92035">
        <ele>1691</ele>
        <time>2010-08-15T08:05:32Z</time>
      </trkpt>
      <trkpt lat="44.22551" lon="6.92036">
        <ele>1691</ele>
        <time>2010-08-15T08:05:33Z</time>
      </trkpt>
      <trkpt lat="44.2255" lon="6.92038">
        <ele>1691</ele>
        <time>2010-08-15T08:05:34Z</time>
      </trkpt>
      <trkpt lat="44.22548" lon="6.92041">
        <ele>1692</ele>
        <time>2010-08-15T08:05:35Z</time>
      </trkpt>
      <trkpt lat="44.22546" lon="6.92044">
        <ele>1692</ele>
        <time>2010-08-15T08:05:36Z</time>
      </trkpt>
      <trkpt lat="44.22544" lon="6.92048">
        <ele>1692</ele>
        <time>2010-08-15T08:05:37Z</time>
      </trkpt>
      <trkpt lat="44.22542" lon="6.92052">
        <ele>1693</ele>
        <time>2010-08-15T08:05:38Z</time>
      </trkpt>
      <trkpt lat="44.2254" lon="6.92056">
        <ele>1693</ele>
        <time>2010-08-15T08:05:39Z</time>
      </trkpt>
      <trkpt lat="44.22538" lon="6.9206">
        <ele>1694</ele>
        <time>2010-08-15T08:05:40Z</time>
      </trkpt>
      <trkpt lat="44.22538" lon="6.92063">
        <ele>1694</ele>
        <time>2010-08-15T08:05:41Z</time>
      </trkpt>
      <trkpt lat="44.22536" lon="6.92065">
        <ele>1694</ele>
        <time>2010-08-15T08:05:42Z</time>
      </trkpt>
      <trkpt lat="44.22536" lon="6.92067">
        <ele>1694</ele>
        <time>2010-08-15T08:05:43Z</time>
      </trkpt>
      <trkpt lat="44.22534" lon="6.9207">
        <ele>1695</ele>
        <time>2010-08-15T08:05:44Z</time>
      </trkpt>
      <trkpt lat="44.22533" lon="6.92074">
        <ele>1695</ele>
        <time>2010-08-15T08:05:45Z</time>
      </trkpt>
      <trkpt lat="44.22531" lon="6.92077">
        <ele>1696</ele>
        <time>2010-08-15T08:05:46Z</time>
      </trkpt>
      <trkpt lat="44.2253" lon="6.9208">
        <ele>1696</ele>
        <time>2010-08-15T08:05:47Z</time>
      </trkpt>
      <trkpt lat="44.2253" lon="6.92083">
        <ele>1697</ele>
        <time>2010-08-15T08:05:48Z</time>
      </trkpt>
      <trkpt lat="44.22529" lon="6.92086">
        <ele>1691</ele>
        <time>2010-08-15T08:05:49Z</time>
      </trkpt>
      <trkpt lat="44.22527" lon="6.92088">
        <ele>1692</ele>
        <time>2010-08-15T08:05:50Z</time>
      </trkpt>
      <trkpt lat="44.22526" lon="6.92092">
        <ele>1692</ele>
        <time>2010-08-15T08:05:51Z</time>
      </trkpt>
      <trkpt lat="44.22525" lon="6.92095">
        <ele>1692</ele>
        <time>2010-08-15T08:05:52Z</time>
      </trkpt>
      <trkpt lat="44.22525" lon="6.92098">
        <ele>1691</ele>
        <time>2010-08-15T08:05:53Z</time>
      </trkpt>
      <trkpt lat="44.22525" lon="6.92101">
        <ele>1691</ele>
        <time>2010-08-15T08:05:54Z</time>
      </trkpt>
      <trkpt lat="44.22524" lon="6.92104">
        <ele>1691</ele>
        <time>2010-08-15T08:05:55Z</time>
      </trkpt>
      <trkpt lat="44.22522" lon="6.92108">
        <ele>1691</ele>
        <time>2010-08-15T08:05:56Z</time>
      </trkpt>
      <trkpt lat="44.22519" lon="6.92112">
        <ele>1691</ele>
        <time>2010-08-15T08:05:57Z</time>
      </trkpt>
      <trkpt lat="44.22517" lon="6.92117">
        <ele>1690</ele>
        <time>2010-08-15T08:05:58Z</time>
      </trkpt>
      <trkpt lat="44.22516" lon="6.92121">
        <ele>1690</ele>
        <time>2010-08-15T08:05:59Z</time>
      </trkpt>
      <trkpt lat="44.22514" lon="6.92124">
        <ele>1690</ele>
        <time>2010-08-15T08:06:00Z</time>
      </trkpt>
      <trkpt lat="44.22513" lon="6.92126">
        <ele>1690</ele>
        <time>2010-08-15T08:06:01Z</time>
      </trkpt>
      <trkpt lat="44.22512" lon="6.92129">
        <ele>1690</ele>
        <time>2010-08-15T08:06:02Z</time>
      </trkpt>
      <trkpt lat="44.22511" lon="6.92132">
        <ele>1690</ele>
        <time>2010-08-15T08:06:03Z</time>
      </trkpt>
      <trkpt lat="44.22509" lon="6.92136">
        <ele>1690</ele>
        <time>2010-08-15T08:06:04Z</time>
      </trkpt>
      <trkpt lat="44.22507" lon="6.92138">
        <ele>1691</ele>
        <time>2010-08-15T08:06:05Z</time>
      </trkpt>
      <trkpt lat="44.22506" lon="6.92141">
        <ele>1691</ele>
        <time>2010-08-15T08:06:06Z</time>
      </trkpt>
      <trkpt lat="44.22507" lon="6.92144">
        <ele>1691</ele>
        <time>2010-08-15T08:06:07Z</time>
      </trkpt>
      <trkpt lat="44.22507" lon="6.92148">
        <ele>1692</ele>
        <time>2010-08-15T08:06:08Z</time>
      </trkpt>
      <trkpt lat="44.22506" lon="6.92151">
        <ele>1693</ele>
        <time>2010-08-15T08:06:09Z</time>
      </trkpt>
      <trkpt lat="44.22507" lon="6.92154">
        <ele>1693</ele>
        <time>2010-08-15T08:06:10Z</time>
      </trkpt>
      <trkpt lat="44.22505" lon="6.92158">
        <ele>1695</ele>
        <time>2010-08-15T08:06:11Z</time>
      </trkpt>
      <trkpt lat="44.22504" lon="6.92162">
        <ele>1697</ele>
        <time>2010-08-15T08:06:12Z</time>
      </trkpt>
      <trkpt lat="44.22502" lon="6.92167">
        <ele>1698</ele>
        <time>2010-08-15T08:06:13Z</time>
      </trkpt>
      <trkpt lat="44.225" lon="6.92173">
        <ele>1701</ele>
        <time>2010-08-15T08:06:14Z</time>
      </trkpt>
      <trkpt lat="44.22499" lon="6.92178">
        <ele>1701</ele>
        <time>2010-08-15T08:06:15Z</time>
      </trkpt>
      <trkpt lat="44.22499" lon="6.92182">
        <ele>1702</ele>
        <time>2010-08-15T08:06:16Z</time>
      </trkpt>
      <trkpt lat="44.22499" lon="6.92187">
        <ele>1702</ele>
        <time>2010-08-15T08:06:17Z</time>
      </trkpt>
      <trkpt lat="44.225" lon="6.92191">
        <ele>1701</ele>
        <time>2010-08-15T08:06:18Z</time>
      </trkpt>
      <trkpt lat="44.22499" lon="6.92196">
        <ele>1701</ele>
        <time>2010-08-15T08:06:19Z</time>
      </trkpt>
      <trkpt lat="44.22498" lon="6.92201">
        <ele>1701</ele>
        <time>2010-08-15T08:06:20Z</time>
      </trkpt>
      <trkpt lat="44.22497" lon="6.92205">
        <ele>1701</ele>
        <time>2010-08-15T08:06:21Z</time>
      </trkpt>
      <trkpt lat="44.22497" lon="6.92209">
        <ele>1700</ele>
        <time>2010-08-15T08:06:22Z</time>
      </trkpt>
      <trkpt lat="44.22497" lon="6.92213">
        <ele>1700</ele>
        <time>2010-08-15T08:06:23Z</time>
      </trkpt>
      <trkpt lat="44.22497" lon="6.92218">
        <ele>1699</ele>
        <time>2010-08-15T08:06:24Z</time>
      </trkpt>
      <trkpt lat="44.22497" lon="6.92223">
        <ele>1698</ele>
        <time>2010-08-15T08:06:25Z</time>
      </trkpt>
      <trkpt lat="44.22497" lon="6.92228">
        <ele>1697</ele>
        <time>2010-08-15T08:06:26Z</time>
      </trkpt>
      <trkpt lat="44.22497" lon="6.92233">
        <ele>1696</ele>
        <time>2010-08-15T08:06:27Z</time>
      </trkpt>
      <trkpt lat="44.22498" lon="6.92238">
        <ele>1694</ele>
        <time>2010-08-15T08:06:28Z</time>
      </trkpt>
      <trkpt lat="44.22498" lon="6.92243">
        <ele>1692</ele>
        <time>2010-08-15T08:06:29Z</time>
      </trkpt>
      <trkpt lat="44.22498" lon="6.92247">
        <ele>1690</ele>
        <time>2010-08-15T08:06:30Z</time>
      </trkpt>
      <trkpt lat="44.22497" lon="6.92252">
        <ele>1688</ele>
        <time>2010-08-15T08:06:31Z</time>
      </trkpt>
      <trkpt lat="44.22495" lon="6.92257">
        <ele>1688</ele>
        <time>2010-08-15T08:06:32Z</time>
      </trkpt>
      <trkpt lat="44.22494" lon="6.92261">
        <ele>1688</ele>
        <time>2010-08-15T08:06:33Z</time>
      </trkpt>
      <trkpt lat="44.22493" lon="6.92265">
        <ele>1688</ele>
        <time>2010-08-15T08:06:34Z</time>
      </trkpt>
      <trkpt lat="44.22492" lon="6.92269">
        <ele>1688</ele>
        <time>2010-08-15T08:06:35Z</time>
      </trkpt>
      <trkpt lat="44.22492" lon="6.92274">
        <ele>1688</ele>
        <time>2010-08-15T08:06:36Z</time>
      </trkpt>
      <trkpt lat="44.2249" lon="6.92278">
        <ele>1688</ele>
        <time>2010-08-15T08:06:37Z</time>
      </trkpt>
      <trkpt lat="44.2249" lon="6.92283">
        <ele>1688</ele>
        <time>2010-08-15T08:06:38Z</time>
      </trkpt>
      <trkpt lat="44.22489" lon="6.92287">
        <ele>1687</ele>
        <time>2010-08-15T08:06:39Z</time>
      </trkpt>
      <trkpt lat="44.22488" lon="6.92292">
        <ele>1687</ele>
        <time>2010-08-15T08:06:40Z</time>
      </trkpt>
      <trkpt lat="44.22486" lon="6.92296">
        <ele>1686</ele>
        <time>2010-08-15T08:06:41Z</time>
      </trkpt>
      <trkpt lat="44.22484" lon="6.923">
        <ele>1686</ele>
        <time>2010-08-15T08:06:42Z</time>
      </trkpt>
      <trkpt lat="44.22483" lon="6.92304">
        <ele>1685</ele>
        <time>2010-08-15T08:06:43Z</time>
      </trkpt>
      <trkpt lat="44.22484" lon="6.92309">
        <ele>1685</ele>
        <time>2010-08-15T08:06:44Z</time>
      </trkpt>
      <trkpt lat="44.22483" lon="6.92313">
        <ele>1684</ele>
        <time>2010-08-15T08:06:45Z</time>
      </trkpt>
      <trkpt lat="44.22482" lon="6.92318">
        <ele>1684</ele>
        <time>2010-08-15T08:06:46Z</time>
      </trkpt>
      <trkpt lat="44.22481" lon="6.92323">
        <ele>1683</ele>
        <time>2010-08-15T08:06:47Z</time>
      </trkpt>
      <trkpt lat="44.22481" lon="6.92328">
        <ele>1683</ele>
        <time>2010-08-15T08:06:48Z</time>
      </trkpt>
      <trkpt lat="44.2248" lon="6.92334">
        <ele>1677</ele>
        <time>2010-08-15T08:06:49Z</time>
      </trkpt>
      <trkpt lat="44.22478" lon="6.9234">
        <ele>1677</ele>
        <time>2010-08-15T08:06:50Z</time>
      </trkpt>
      <trkpt lat="44.22477" lon="6.92345">
        <ele>1677</ele>
        <time>2010-08-15T08:06:51Z</time>
      </trkpt>
      <trkpt lat="44.22475" lon="6.92352">
        <ele>1677</ele>
        <time>2010-08-15T08:06:52Z</time>
      </trkpt>
      <trkpt lat="44.22474" lon="6.92355">
        <ele>1677</ele>
        <time>2010-08-15T08:06:53Z</time>
      </trkpt>
      <trkpt lat="44.22473" lon="6.92358">
        <ele>1677</ele>
        <time>2010-08-15T08:06:54Z</time>
      </trkpt>
      <trkpt lat="44.22472" lon="6.92362">
        <ele>1677</ele>
        <time>2010-08-15T08:06:55Z</time>
      </trkpt>
      <trkpt lat="44.22471" lon="6.92366">
        <ele>1677</ele>
        <time>2010-08-15T08:06:56Z</time>
      </trkpt>
      <trkpt lat="44.2247" lon="6.92371">
        <ele>1677</ele>
        <time>2010-08-15T08:06:57Z</time>
      </trkpt>
      <trkpt lat="44.22469" lon="6.92374">
        <ele>1677</ele>
        <time>2010-08-15T08:06:58Z</time>
      </trkpt>
      <trkpt lat="44.22468" lon="6.92376">
        <ele>1677</ele>
        <time>2010-08-15T08:06:59Z</time>
      </trkpt>
      <trkpt lat="44.22467" lon="6.92378">
        <ele>1677</ele>
        <time>2010-08-15T08:07:00Z</time>
      </trkpt>
      <trkpt lat="44.22464" lon="6.92381">
        <ele>1677</ele>
        <time>2010-08-15T08:07:01Z</time>
      </trkpt>
      <trkpt lat="44.22461" lon="6.92384">
        <ele>1677</ele>
        <time>2010-08-15T08:07:02Z</time>
      </trkpt>
      <trkpt lat="44.22458" lon="6.92386">
        <ele>1677</ele>
        <time>2010-08-15T08:07:03Z</time>
      </trkpt>
      <trkpt lat="44.22455" lon="6.92389">
        <ele>1677</ele>
        <time>2010-08-15T08:07:04Z</time>
      </trkpt>
      <trkpt lat="44.22452" lon="6.9239">
        <ele>1677</ele>
        <time>2010-08-15T08:07:05Z</time>
      </trkpt>
      <trkpt lat="44.22449" lon="6.92393">
        <ele>1678</ele>
        <time>2010-08-15T08:07:06Z</time>
      </trkpt>
      <trkpt lat="44.22446" lon="6.92395">
        <ele>1678</ele>
        <time>2010-08-15T08:07:07Z</time>
      </trkpt>
      <trkpt lat="44.22444" lon="6.92397">
        <ele>1678</ele>
        <time>2010-08-15T08:07:08Z</time>
      </trkpt>
      <trkpt lat="44.22442" lon="6.92398">
        <ele>1678</ele>
        <time>2010-08-15T08:07:09Z</time>
      </trkpt>
      <trkpt lat="44.22439" lon="6.924">
        <ele>1678</ele>
        <time>2010-08-15T08:07:10Z</time>
      </trkpt>
      <trkpt lat="44.22437" lon="6.92402">
        <ele>1678</ele>
        <time>2010-08-15T08:07:11Z</time>
      </trkpt>
      <trkpt lat="44.22434" lon="6.92403">
        <ele>1678</ele>
        <time>2010-08-15T08:07:12Z</time>
      </trkpt>
      <trkpt lat="44.22431" lon="6.92404">
        <ele>1679</ele>
        <time>2010-08-15T08:07:13Z</time>
      </trkpt>
      <trkpt lat="44.22428" lon="6.92406">
        <ele>1679</ele>
        <time>2010-08-15T08:07:14Z</time>
      </trkpt>
      <trkpt lat="44.22425" lon="6.92407">
        <ele>1679</ele>
        <time>2010-08-15T08:07:15Z</time>
      </trkpt>
      <trkpt lat="44.22422" lon="6.92408">
        <ele>1679</ele>
        <time>2010-08-15T08:07:16Z</time>
      </trkpt>
      <trkpt lat="44.22418" lon="6.9241">
        <ele>1679</ele>
        <time>2010-08-15T08:07:17Z</time>
      </trkpt>
      <trkpt lat="44.22416" lon="6.92412">
        <ele>1681</ele>
        <time>2010-08-15T08:07:18Z</time>
      </trkpt>
      <trkpt lat="44.22413" lon="6.92416">
        <ele>1680</ele>
        <time>2010-08-15T08:07:19Z</time>
      </trkpt>
      <trkpt lat="44.22411" lon="6.92419">
        <ele>1680</ele>
        <time>2010-08-15T08:07:20Z</time>
      </trkpt>
      <trkpt lat="44.22408" lon="6.92422">
        <ele>1679</ele>
        <time>2010-08-15T08:07:21Z</time>
      </trkpt>
      <trkpt lat="44.22406" lon="6.92425">
        <ele>1679</ele>
        <time>2010-08-15T08:07:22Z</time>
      </trkpt>
      <trkpt lat="44.22404" lon="6.92428">
        <ele>1679</ele>
        <time>2010-08-15T08:07:23Z</time>
      </trkpt>
      <trkpt lat="44.22401" lon="6.9243">
        <ele>1679</ele>
        <time>2010-08-15T08:07:24Z</time>
      </trkpt>
      <trkpt lat="44.22397" lon="6.92432">
        <ele>1679</ele>
        <time>2010-08-15T08:07:25Z</time>
      </trkpt>
      <trkpt lat="44.22393" lon="6.92432">
        <ele>1679</ele>
        <time>2010-08-15T08:07:26Z</time>
      </trkpt>
      <trkpt lat="44.2239" lon="6.92433">
        <ele>1679</ele>
        <time>2010-08-15T08:07:27Z</time>
      </trkpt>
      <trkpt lat="44.22386" lon="6.92432">
        <ele>1679</ele>
        <time>2010-08-15T08:07:28Z</time>
      </trkpt>
      <trkpt lat="44.22383" lon="6.92431">
        <ele>1680</ele>
        <time>2010-08-15T08:07:29Z</time>
      </trkpt>
      <trkpt lat="44.2238" lon="6.9243">
        <ele>1680</ele>
        <time>2010-08-15T08:07:30Z</time>
      </trkpt>
      <trkpt lat="44.22378" lon="6.92428">
        <ele>1680</ele>
        <time>2010-08-15T08:07:31Z</time>
      </trkpt>
      <trkpt lat="44.22375" lon="6.92427">
        <ele>1680</ele>
        <time>2010-08-15T08:07:32Z</time>
      </trkpt>
      <trkpt lat="44.22372" lon="6.92426">
        <ele>1680</ele>
        <time>2010-08-15T08:07:33Z</time>
      </trkpt>
      <trkpt lat="44.22368" lon="6.92426">
        <ele>1680</ele>
        <time>2010-08-15T08:07:34Z</time>
      </trkpt>
      <trkpt lat="44.22365" lon="6.92426">
        <ele>1681</ele>
        <time>2010-08-15T08:07:35Z</time>
      </trkpt>
      <trkpt lat="44.22361" lon="6.92425">
        <ele>1681</ele>
        <time>2010-08-15T08:07:36Z</time>
      </trkpt>
      <trkpt lat="44.22358" lon="6.92424">
        <ele>1681</ele>
        <time>2010-08-15T08:07:37Z</time>
      </trkpt>
      <trkpt lat="44.22355" lon="6.92423">
        <ele>1681</ele>
        <time>2010-08-15T08:07:38Z</time>
      </trkpt>
      <trkpt lat="44.22353" lon="6.92422">
        <ele>1681</ele>
        <time>2010-08-15T08:07:39Z</time>
      </trkpt>
      <trkpt lat="44.22351" lon="6.92421">
        <ele>1681</ele>
        <time>2010-08-15T08:07:40Z</time>
      </trkpt>
      <trkpt lat="44.22349" lon="6.9242">
        <ele>1682</ele>
        <time>2010-08-15T08:07:41Z</time>
      </trkpt>
      <trkpt lat="44.22346" lon="6.92419">
        <ele>1682</ele>
        <time>2010-08-15T08:07:42Z</time>
      </trkpt>
      <trkpt lat="44.22344" lon="6.92417">
        <ele>1682</ele>
        <time>2010-08-15T08:07:43Z</time>
      </trkpt>
      <trkpt lat="44.22342" lon="6.92415">
        <ele>1683</ele>
        <time>2010-08-15T08:07:44Z</time>
      </trkpt>
      <trkpt lat="44.2234" lon="6.92413">
        <ele>1683</ele>
        <time>2010-08-15T08:07:45Z</time>
      </trkpt>
      <trkpt lat="44.22339" lon="6.92409">
        <ele>1683</ele>
        <time>2010-08-15T08:07:46Z</time>
      </trkpt>
      <trkpt lat="44.22338" lon="6.92407">
        <ele>1683</ele>
        <time>2010-08-15T08:07:47Z</time>
      </trkpt>
      <trkpt lat="44.22336" lon="6.92404">
        <ele>1683</ele>
        <time>2010-08-15T08:07:48Z</time>
      </trkpt>
      <trkpt lat="44.22334" lon="6.92402">
        <ele>1683</ele>
        <time>2010-08-15T08:07:49Z</time>
      </trkpt>
      <trkpt lat="44.22332" lon="6.924">
        <ele>1682</ele>
        <time>2010-08-15T08:07:50Z</time>
      </trkpt>
      <trkpt lat="44.2233" lon="6.92397">
        <ele>1682</ele>
        <time>2010-08-15T08:07:51Z</time>
      </trkpt>
      <trkpt lat="44.22328" lon="6.92395">
        <ele>1682</ele>
        <time>2010-08-15T08:07:52Z</time>
      </trkpt>
      <trkpt lat="44.22327" lon="6.92392">
        <ele>1682</ele>
        <time>2010-08-15T08:07:53Z</time>
      </trkpt>
      <trkpt lat="44.22325" lon="6.9239">
        <ele>1682</ele>
        <time>2010-08-15T08:07:54Z</time>
      </trkpt>
      <trkpt lat="44.22324" lon="6.92388">
        <ele>1682</ele>
        <time>2010-08-15T08:07:55Z</time>
      </trkpt>
      <trkpt lat="44.22322" lon="6.92385">
        <ele>1682</ele>
        <time>2010-08-15T08:07:56Z</time>
      </trkpt>
      <trkpt lat="44.2232" lon="6.92383">
        <ele>1682</ele>
        <time>2010-08-15T08:07:57Z</time>
      </trkpt>
      <trkpt lat="44.22318" lon="6.9238">
        <ele>1681</ele>
        <time>2010-08-15T08:07:58Z</time>
      </trkpt>
      <trkpt lat="44.22316" lon="6.92378">
        <ele>1681</ele>
        <time>2010-08-15T08:07:59Z</time>
      </trkpt>
      <trkpt lat="44.22315" lon="6.92375">
        <ele>1681</ele>
        <time>2010-08-15T08:08:00Z</time>
      </trkpt>
      <trkpt lat="44.22313" lon="6.92372">
        <ele>1681</ele>
        <time>2010-08-15T08:08:01Z</time>
      </trkpt>
      <trkpt lat="44.22312" lon="6.92369">
        <ele>1681</ele>
        <time>2010-08-15T08:08:02Z</time>
      </trkpt>
      <trkpt lat="44.2231" lon="6.92366">
        <ele>1681</ele>
        <time>2010-08-15T08:08:03Z</time>
      </trkpt>
      <trkpt lat="44.22309" lon="6.92363">
        <ele>1681</ele>
        <time>2010-08-15T08:08:04Z</time>
      </trkpt>
      <trkpt lat="44.22307" lon="6.9236">
        <ele>1681</ele>
        <time>2010-08-15T08:08:05Z</time>
      </trkpt>
      <trkpt lat="44.22306" lon="6.92356">
        <ele>1681</ele>
        <time>2010-08-15T08:08:06Z</time>
      </trkpt>
      <trkpt lat="44.22305" lon="6.92353">
        <ele>1681</ele>
        <time>2010-08-15T08:08:07Z</time>
      </trkpt>
      <trkpt lat="44.22304" lon="6.9235">
        <ele>1681</ele>
        <time>2010-08-15T08:08:08Z</time>
      </trkpt>
      <trkpt lat="44.22302" lon="6.92347">
        <ele>1681</ele>
        <time>2010-08-15T08:08:09Z</time>
      </trkpt>
      <trkpt lat="44.22301" lon="6.92344">
        <ele>1681</ele>
        <time>2010-08-15T08:08:10Z</time>
      </trkpt>
      <trkpt lat="44.223" lon="6.9234">
        <ele>1681</ele>
        <time>2010-08-15T08:08:11Z</time>
      </trkpt>
      <trkpt lat="44.22298" lon="6.92337">
        <ele>1681</ele>
        <time>2010-08-15T08:08:12Z</time>
      </trkpt>
      <trkpt lat="44.22297" lon="6.92335">
        <ele>1681</ele>
        <time>2010-08-15T08:08:13Z</time>
      </trkpt>
      <trkpt lat="44.22296" lon="6.92332">
        <ele>1682</ele>
        <time>2010-08-15T08:08:14Z</time>
      </trkpt>
      <trkpt lat="44.22295" lon="6.92328">
        <ele>1682</ele>
        <time>2010-08-15T08:08:15Z</time>
      </trkpt>
      <trkpt lat="44.22294" lon="6.92326">
        <ele>1682</ele>
        <time>2010-08-15T08:08:16Z</time>
      </trkpt>
      <trkpt lat="44.22293" lon="6.92323">
        <ele>1682</ele>
        <time>2010-08-15T08:08:17Z</time>
      </trkpt>
      <trkpt lat="44.22292" lon="6.9232">
        <ele>1682</ele>
        <time>2010-08-15T08:08:18Z</time>
      </trkpt>
      <trkpt lat="44.2229" lon="6.92316">
        <ele>1682</ele>
        <time>2010-08-15T08:08:19Z</time>
      </trkpt>
      <trkpt lat="44.22289" lon="6.92314">
        <ele>1682</ele>
        <time>2010-08-15T08:08:20Z</time>
      </trkpt>
      <trkpt lat="44.22288" lon="6.9231">
        <ele>1682</ele>
        <time>2010-08-15T08:08:21Z</time>
      </trkpt>
      <trkpt lat="44.22287" lon="6.92306">
        <ele>1682</ele>
        <time>2010-08-15T08:08:22Z</time>
      </trkpt>
      <trkpt lat="44.22285" lon="6.92303">
        <ele>1682</ele>
        <time>2010-08-15T08:08:23Z</time>
      </trkpt>
      <trkpt lat="44.22285" lon="6.92299">
        <ele>1682</ele>
        <time>2010-08-15T08:08:24Z</time>
      </trkpt>
      <trkpt lat="44.22284" lon="6.92296">
        <ele>1682</ele>
        <time>2010-08-15T08:08:25Z</time>
      </trkpt>
      <trkpt lat="44.22283" lon="6.92293">
        <ele>1682</ele>
        <time>2010-08-15T08:08:26Z</time>
      </trkpt>
      <trkpt lat="44.22282" lon="6.92289">
        <ele>1682</ele>
        <time>2010-08-15T08:08:27Z</time>
      </trkpt>
      <trkpt lat="44.22281" lon="6.92286">
        <ele>1682</ele>
        <time>2010-08-15T08:08:28Z</time>
      </trkpt>
      <trkpt lat="44.2228" lon="6.92282">
        <ele>1682</ele>
        <time>2010-08-15T08:08:29Z</time>
      </trkpt>
      <trkpt lat="44.22279" lon="6.92279">
        <ele>1682</ele>
        <time>2010-08-15T08:08:30Z</time>
      </trkpt>
      <trkpt lat="44.22279" lon="6.92276">
        <ele>1682</ele>
        <time>2010-08-15T08:08:31Z</time>
      </trkpt>
      <trkpt lat="44.22278" lon="6.92273">
        <ele>1682</ele>
        <time>2010-08-15T08:08:32Z</time>
      </trkpt>
      <trkpt lat="44.22277" lon="6.9227">
        <ele>1682</ele>
        <time>2010-08-15T08:08:33Z</time>
      </trkpt>
      <trkpt lat="44.22276" lon="6.92267">
        <ele>1682</ele>
        <time>2010-08-15T08:08:34Z</time>
      </trkpt>
      <trkpt lat="44.22275" lon="6.92263">
        <ele>1682</ele>
        <time>2010-08-15T08:08:35Z</time>
      </trkpt>
      <trkpt lat="44.22274" lon="6.9226">
        <ele>1682</ele>
        <time>2010-08-15T08:08:36Z</time>
      </trkpt>
      <trkpt lat="44.22273" lon="6.92256">
        <ele>1682</ele>
        <time>2010-08-15T08:08:37Z</time>
      </trkpt>
      <trkpt lat="44.22272" lon="6.92252">
        <ele>1682</ele>
        <time>2010-08-15T08:08:38Z</time>
      </trkpt>
      <trkpt lat="44.22271" lon="6.92248">
        <ele>1687</ele>
        <time>2010-08-15T08:08:39Z</time>
      </trkpt>
      <trkpt lat="44.2227" lon="6.92246">
        <ele>1687</ele>
        <time>2010-08-15T08:08:40Z</time>
      </trkpt>
      <trkpt lat="44.2227" lon="6.92243">
        <ele>1687</ele>
        <time>2010-08-15T08:08:41Z</time>
      </trkpt>
      <trkpt lat="44.22269" lon="6.92241">
        <ele>1687</ele>
        <time>2010-08-15T08:08:42Z</time>
      </trkpt>
      <trkpt lat="44.22268" lon="6.92238">
        <ele>1687</ele>
        <time>2010-08-15T08:08:43Z</time>
      </trkpt>
      <trkpt lat="44.22267" lon="6.92236">
        <ele>1687</ele>
        <time>2010-08-15T08:08:44Z</time>
      </trkpt>
      <trkpt lat="44.22266" lon="6.92233">
        <ele>1687</ele>
        <time>2010-08-15T08:08:45Z</time>
      </trkpt>
      <trkpt lat="44.22266" lon="6.92231">
        <ele>1688</ele>
        <time>2010-08-15T08:08:46Z</time>
      </trkpt>
      <trkpt lat="44.22265" lon="6.9223">
        <ele>1688</ele>
        <time>2010-08-15T08:08:47Z</time>
      </trkpt>
      <trkpt lat="44.22266" lon="6.92228">
        <ele>1688</ele>
        <time>2010-08-15T08:08:48Z</time>
      </trkpt>
      <trkpt lat="44.22265" lon="6.92225">
        <ele>1689</ele>
        <time>2010-08-15T08:08:49Z</time>
      </trkpt>
      <trkpt lat="44.22264" lon="6.92223">
        <ele>1689</ele>
        <time>2010-08-15T08:08:50Z</time>
      </trkpt>
      <trkpt lat="44.22264" lon="6.9222">
        <ele>1689</ele>
        <time>2010-08-15T08:08:51Z</time>
      </trkpt>
      <trkpt lat="44.22264" lon="6.9222">
        <ele>1689</ele>
        <time>2010-08-15T08:08:52Z</time>
      </trkpt>
      <trkpt lat="44.22264" lon="6.92218">
        <ele>1690</ele>
        <time>2010-08-15T08:08:53Z</time>
      </trkpt>
      <trkpt lat="44.22263" lon="6.92217">
        <ele>1690</ele>
        <time>2010-08-15T08:08:54Z</time>
      </trkpt>
      <trkpt lat="44.22262" lon="6.92215">
        <ele>1690</ele>
        <time>2010-08-15T08:08:55Z</time>
      </trkpt>
      <trkpt lat="44.22262" lon="6.92213">
        <ele>1690</ele>
        <time>2010-08-15T08:08:56Z</time>
      </trkpt>
      <trkpt lat="44.22261" lon="6.92211">
        <ele>1690</ele>
        <time>2010-08-15T08:08:57Z</time>
      </trkpt>
      <trkpt lat="44.2226" lon="6.92209">
        <ele>1691</ele>
        <time>2010-08-15T08:08:58Z</time>
      </trkpt>
      <trkpt lat="44.22259" lon="6.92207">
        <ele>1691</ele>
        <time>2010-08-15T08:08:59Z</time>
      </trkpt>
      <trkpt lat="44.22259" lon="6.92205">
        <ele>1691</ele>
        <time>2010-08-15T08:09:00Z</time>
      </trkpt>
      <trkpt lat="44.22258" lon="6.92202">
        <ele>1691</ele>
        <time>2010-08-15T08:09:01Z</time>
      </trkpt>
      <trkpt lat="44.22258" lon="6.922">
        <ele>1692</ele>
        <time>2010-08-15T08:09:02Z</time>
      </trkpt>
      <trkpt lat="44.22257" lon="6.92198">
        <ele>1692</ele>
        <time>2010-08-15T08:09:03Z</time>
      </trkpt>
      <trkpt lat="44.22256" lon="6.92195">
        <ele>1692</ele>
        <time>2010-08-15T08:09:04Z</time>
      </trkpt>
      <trkpt lat="44.22255" lon="6.92192">
        <ele>1692</ele>
        <time>2010-08-15T08:09:05Z</time>
      </trkpt>
      <trkpt lat="44.22255" lon="6.9219">
        <ele>1692</ele>
        <time>2010-08-15T08:09:06Z</time>
      </trkpt>
      <trkpt lat="44.22254" lon="6.92188">
        <ele>1693</ele>
        <time>2010-08-15T08:09:07Z</time>
      </trkpt>
      <trkpt lat="44.22253" lon="6.92186">
        <ele>1693</ele>
        <time>2010-08-15T08:09:08Z</time>
      </trkpt>
      <trkpt lat="44.22252" lon="6.92184">
        <ele>1693</ele>
        <time>2010-08-15T08:09:09Z</time>
      </trkpt>
      <trkpt lat="44.22252" lon="6.92181">
        <ele>1693</ele>
        <time>2010-08-15T08:09:10Z</time>
      </trkpt>
      <trkpt lat="44.22251" lon="6.92179">
        <ele>1693</ele>
        <time>2010-08-15T08:09:11Z</time>
      </trkpt>
      <trkpt lat="44.22251" lon="6.92177">
        <ele>1693</ele>
        <time>2010-08-15T08:09:12Z</time>
      </trkpt>
      <trkpt lat="44.2225" lon="6.92175">
        <ele>1694</ele>
        <time>2010-08-15T08:09:13Z</time>
      </trkpt>
      <trkpt lat="44.2225" lon="6.92172">
        <ele>1692</ele>
        <time>2010-08-15T08:09:14Z</time>
      </trkpt>
      <trkpt lat="44.22249" lon="6.9217">
        <ele>1693</ele>
        <time>2010-08-15T08:09:15Z</time>
      </trkpt>
      <trkpt lat="44.22249" lon="6.92169">
        <ele>1693</ele>
        <time>2010-08-15T08:09:16Z</time>
      </trkpt>
      <trkpt lat="44.22249" lon="6.92166">
        <ele>1694</ele>
        <time>2010-08-15T08:09:17Z</time>
      </trkpt>
      <trkpt lat="44.22248" lon="6.92164">
        <ele>1694</ele>
        <time>2010-08-15T08:09:18Z</time>
      </trkpt>
      <trkpt lat="44.22248" lon="6.92162">
        <ele>1694</ele>
        <time>2010-08-15T08:09:19Z</time>
      </trkpt>
      <trkpt lat="44.22247" lon="6.92159">
        <ele>1694</ele>
        <time>2010-08-15T08:09:20Z</time>
      </trkpt>
      <trkpt lat="44.22247" lon="6.92157">
        <ele>1695</ele>
        <time>2010-08-15T08:09:21Z</time>
      </trkpt>
      <trkpt lat="44.22246" lon="6.92155">
        <ele>1695</ele>
        <time>2010-08-15T08:09:22Z</time>
      </trkpt>
      <trkpt lat="44.22246" lon="6.92153">
        <ele>1695</ele>
        <time>2010-08-15T08:09:23Z</time>
      </trkpt>
      <trkpt lat="44.22245" lon="6.92151">
        <ele>1695</ele>
        <time>2010-08-15T08:09:24Z</time>
      </trkpt>
      <trkpt lat="44.22245" lon="6.92149">
        <ele>1695</ele>
        <time>2010-08-15T08:09:25Z</time>
      </trkpt>
      <trkpt lat="44.22245" lon="6.92147">
        <ele>1695</ele>
        <time>2010-08-15T08:09:26Z</time>
      </trkpt>
      <trkpt lat="44.22245" lon="6.92145">
        <ele>1695</ele>
        <time>2010-08-15T08:09:27Z</time>
      </trkpt>
      <trkpt lat="44.22244" lon="6.92143">
        <ele>1695</ele>
        <time>2010-08-15T08:09:28Z</time>
      </trkpt>
      <trkpt lat="44.22244" lon="6.92141">
        <ele>1695</ele>
        <time>2010-08-15T08:09:29Z</time>
      </trkpt>
      <trkpt lat="44.22244" lon="6.92139">
        <ele>1695</ele>
        <time>2010-08-15T08:09:30Z</time>
      </trkpt>
      <trkpt lat="44.22243" lon="6.92136">
        <ele>1696</ele>
        <time>2010-08-15T08:09:31Z</time>
      </trkpt>
      <trkpt lat="44.22243" lon="6.92134">
        <ele>1696</ele>
        <time>2010-08-15T08:09:32Z</time>
      </trkpt>
      <trkpt lat="44.22242" lon="6.92131">
        <ele>1696</ele>
        <time>2010-08-15T08:09:33Z</time>
      </trkpt>
      <trkpt lat="44.22242" lon="6.92128">
        <ele>1696</ele>
        <time>2010-08-15T08:09:34Z</time>
      </trkpt>
      <trkpt lat="44.22241" lon="6.92125">
        <ele>1696</ele>
        <time>2010-08-15T08:09:35Z</time>
      </trkpt>
      <trkpt lat="44.22241" lon="6.92121">
        <ele>1696</ele>
        <time>2010-08-15T08:09:36Z</time>
      </trkpt>
      <trkpt lat="44.22241" lon="6.92117">
        <ele>1697</ele>
        <time>2010-08-15T08:09:37Z</time>
      </trkpt>
      <trkpt lat="44.2224" lon="6.92113">
        <ele>1697</ele>
        <time>2010-08-15T08:09:38Z</time>
      </trkpt>
      <trkpt lat="44.2224" lon="6.92109">
        <ele>1697</ele>
        <time>2010-08-15T08:09:39Z</time>
      </trkpt>
      <trkpt lat="44.2224" lon="6.92106">
        <ele>1697</ele>
        <time>2010-08-15T08:09:40Z</time>
      </trkpt>
      <trkpt lat="44.22239" lon="6.92103">
        <ele>1698</ele>
        <time>2010-08-15T08:09:41Z</time>
      </trkpt>
      <trkpt lat="44.22239" lon="6.921">
        <ele>1698</ele>
        <time>2010-08-15T08:09:42Z</time>
      </trkpt>
      <trkpt lat="44.22239" lon="6.92096">
        <ele>1698</ele>
        <time>2010-08-15T08:09:43Z</time>
      </trkpt>
      <trkpt lat="44.22238" lon="6.92092">
        <ele>1698</ele>
        <time>2010-08-15T08:09:44Z</time>
      </trkpt>
      <trkpt lat="44.22238" lon="6.92089">
        <ele>1698</ele>
        <time>2010-08-15T08:09:45Z</time>
      </trkpt>
      <trkpt lat="44.22237" lon="6.92086">
        <ele>1698</ele>
        <time>2010-08-15T08:09:46Z</time>
      </trkpt>
      <trkpt lat="44.22237" lon="6.92082">
        <ele>1702</ele>
        <time>2010-08-15T08:09:47Z</time>
      </trkpt>
      <trkpt lat="44.22237" lon="6.92078">
        <ele>1702</ele>
        <time>2010-08-15T08:09:48Z</time>
      </trkpt>
      <trkpt lat="44.22237" lon="6.92075">
        <ele>1702</ele>
        <time>2010-08-15T08:09:49Z</time>
      </trkpt>
      <trkpt lat="44.22237" lon="6.92072">
        <ele>1702</ele>
        <time>2010-08-15T08:09:50Z</time>
      </trkpt>
      <trkpt lat="44.22237" lon="6.92068">
        <ele>1702</ele>
        <time>2010-08-15T08:09:51Z</time>
      </trkpt>
      <trkpt lat="44.22238" lon="6.92065">
        <ele>1703</ele>
        <time>2010-08-15T08:09:52Z</time>
      </trkpt>
      <trkpt lat="44.22237" lon="6.92062">
        <ele>1703</ele>
        <time>2010-08-15T08:09:53Z</time>
      </trkpt>
      <trkpt lat="44.22237" lon="6.92058">
        <ele>1703</ele>
        <time>2010-08-15T08:09:54Z</time>
      </trkpt>
      <trkpt lat="44.22237" lon="6.92055">
        <ele>1704</ele>
        <time>2010-08-15T08:09:55Z</time>
      </trkpt>
      <trkpt lat="44.22236" lon="6.92052">
        <ele>1704</ele>
        <time>2010-08-15T08:09:56Z</time>
      </trkpt>
      <trkpt lat="44.22236" lon="6.9205">
        <ele>1704</ele>
        <time>2010-08-15T08:09:57Z</time>
      </trkpt>
      <trkpt lat="44.22235" lon="6.92047">
        <ele>1704</ele>
        <time>2010-08-15T08:09:58Z</time>
      </trkpt>
      <trkpt lat="44.22234" lon="6.92045">
        <ele>1704</ele>
        <time>2010-08-15T08:09:59Z</time>
      </trkpt>
      <trkpt lat="44.22233" lon="6.92042">
        <ele>1704</ele>
        <time>2010-08-15T08:10:00Z</time>
      </trkpt>
      <trkpt lat="44.22232" lon="6.9204">
        <ele>1705</ele>
        <time>2010-08-15T08:10:01Z</time>
      </trkpt>
      <trkpt lat="44.2223" lon="6.92037">
        <ele>1705</ele>
        <time>2010-08-15T08:10:02Z</time>
      </trkpt>
      <trkpt lat="44.22229" lon="6.92035">
        <ele>1705</ele>
        <time>2010-08-15T08:10:03Z</time>
      </trkpt>
      <trkpt lat="44.22228" lon="6.92032">
        <ele>1705</ele>
        <time>2010-08-15T08:10:04Z</time>
      </trkpt>
      <trkpt lat="44.22226" lon="6.9203">
        <ele>1705</ele>
        <time>2010-08-15T08:10:05Z</time>
      </trkpt>
      <trkpt lat="44.22224" lon="6.92027">
        <ele>1705</ele>
        <time>2010-08-15T08:10:06Z</time>
      </trkpt>
      <trkpt lat="44.22223" lon="6.92025">
        <ele>1705</ele>
        <time>2010-08-15T08:10:07Z</time>
      </trkpt>
      <trkpt lat="44.22222" lon="6.92023">
        <ele>1706</ele>
        <time>2010-08-15T08:10:08Z</time>
      </trkpt>
      <trkpt lat="44.2222" lon="6.9202">
        <ele>1706</ele>
        <time>2010-08-15T08:10:09Z</time>
      </trkpt>
      <trkpt lat="44.22218" lon="6.92018">
        <ele>1706</ele>
        <time>2010-08-15T08:10:10Z</time>
      </trkpt>
      <trkpt lat="44.22217" lon="6.92015">
        <ele>1706</ele>
        <time>2010-08-15T08:10:11Z</time>
      </trkpt>
      <trkpt lat="44.22216" lon="6.92013">
        <ele>1706</ele>
        <time>2010-08-15T08:10:12Z</time>
      </trkpt>
      <trkpt lat="44.22214" lon="6.9201">
        <ele>1706</ele>
        <time>2010-08-15T08:10:13Z</time>
      </trkpt>
      <trkpt lat="44.22213" lon="6.92007">
        <ele>1706</ele>
        <time>2010-08-15T08:10:14Z</time>
      </trkpt>
      <trkpt lat="44.22211" lon="6.92005">
        <ele>1706</ele>
        <time>2010-08-15T08:10:15Z</time>
      </trkpt>
      <trkpt lat="44.2221" lon="6.92002">
        <ele>1706</ele>
        <time>2010-08-15T08:10:16Z</time>
      </trkpt>
      <trkpt lat="44.22209" lon="6.91999">
        <ele>1715</ele>
        <time>2010-08-15T08:10:17Z</time>
      </trkpt>
      <trkpt lat="44.22208" lon="6.91997">
        <ele>1715</ele>
        <time>2010-08-15T08:10:18Z</time>
      </trkpt>
      <trkpt lat="44.22207" lon="6.91995">
        <ele>1715</ele>
        <time>2010-08-15T08:10:19Z</time>
      </trkpt>
      <trkpt lat="44.22205" lon="6.91993">
        <ele>1715</ele>
        <time>2010-08-15T08:10:20Z</time>
      </trkpt>
      <trkpt lat="44.22204" lon="6.9199">
        <ele>1715</ele>
        <time>2010-08-15T08:10:21Z</time>
      </trkpt>
      <trkpt lat="44.22203" lon="6.91988">
        <ele>1715</ele>
        <time>2010-08-15T08:10:22Z</time>
      </trkpt>
      <trkpt lat="44.22201" lon="6.91986">
        <ele>1715</ele>
        <time>2010-08-15T08:10:23Z</time>
      </trkpt>
      <trkpt lat="44.222" lon="6.91984">
        <ele>1715</ele>
        <time>2010-08-15T08:10:24Z</time>
      </trkpt>
      <trkpt lat="44.22198" lon="6.91981">
        <ele>1715</ele>
        <time>2010-08-15T08:10:25Z</time>
      </trkpt>
      <trkpt lat="44.22197" lon="6.91979">
        <ele>1716</ele>
        <time>2010-08-15T08:10:26Z</time>
      </trkpt>
      <trkpt lat="44.22195" lon="6.91977">
        <ele>1716</ele>
        <time>2010-08-15T08:10:27Z</time>
      </trkpt>
      <trkpt lat="44.22193" lon="6.91975">
        <ele>1716</ele>
        <time>2010-08-15T08:10:28Z</time>
      </trkpt>
      <trkpt lat="44.22192" lon="6.91973">
        <ele>1716</ele>
        <time>2010-08-15T08:10:29Z</time>
      </trkpt>
      <trkpt lat="44.2219" lon="6.91971">
        <ele>1716</ele>
        <time>2010-08-15T08:10:30Z</time>
      </trkpt>
      <trkpt lat="44.22188" lon="6.91969">
        <ele>1716</ele>
        <time>2010-08-15T08:10:31Z</time>
      </trkpt>
      <trkpt lat="44.22187" lon="6.91966">
        <ele>1716</ele>
        <time>2010-08-15T08:10:32Z</time>
      </trkpt>
      <trkpt lat="44.22185" lon="6.91964">
        <ele>1717</ele>
        <time>2010-08-15T08:10:33Z</time>
      </trkpt>
      <trkpt lat="44.22184" lon="6.91962">
        <ele>1717</ele>
        <time>2010-08-15T08:10:34Z</time>
      </trkpt>
      <trkpt lat="44.22182" lon="6.9196">
        <ele>1717</ele>
        <time>2010-08-15T08:10:35Z</time>
      </trkpt>
      <trkpt lat="44.22181" lon="6.91958">
        <ele>1717</ele>
        <time>2010-08-15T08:10:36Z</time>
      </trkpt>
      <trkpt lat="44.22179" lon="6.91956">
        <ele>1717</ele>
        <time>2010-08-15T08:10:37Z</time>
      </trkpt>
      <trkpt lat="44.22177" lon="6.91954">
        <ele>1718</ele>
        <time>2010-08-15T08:10:38Z</time>
      </trkpt>
      <trkpt lat="44.22175" lon="6.91952">
        <ele>1718</ele>
        <time>2010-08-15T08:10:39Z</time>
      </trkpt>
      <trkpt lat="44.22174" lon="6.91951">
        <ele>1718</ele>
        <time>2010-08-15T08:10:40Z</time>
      </trkpt>
      <trkpt lat="44.22172" lon="6.9195">
        <ele>1718</ele>
        <time>2010-08-15T08:10:41Z</time>
      </trkpt>
      <trkpt lat="44.2217" lon="6.91949">
        <ele>1718</ele>
        <time>2010-08-15T08:10:42Z</time>
      </trkpt>
      <trkpt lat="44.22168" lon="6.91947">
        <ele>1718</ele>
        <time>2010-08-15T08:10:43Z</time>
      </trkpt>
      <trkpt lat="44.22166" lon="6.91946">
        <ele>1720</ele>
        <time>2010-08-15T08:10:44Z</time>
      </trkpt>
      <trkpt lat="44.22164" lon="6.91945">
        <ele>1721</ele>
        <time>2010-08-15T08:10:45Z</time>
      </trkpt>
      <trkpt lat="44.22162" lon="6.91944">
        <ele>1721</ele>
        <time>2010-08-15T08:10:46Z</time>
      </trkpt>
      <trkpt lat="44.2216" lon="6.91942">
        <ele>1721</ele>
        <time>2010-08-15T08:10:47Z</time>
      </trkpt>
      <trkpt lat="44.22158" lon="6.91941">
        <ele>1721</ele>
        <time>2010-08-15T08:10:48Z</time>
      </trkpt>
      <trkpt lat="44.22156" lon="6.9194">
        <ele>1721</ele>
        <time>2010-08-15T08:10:49Z</time>
      </trkpt>
      <trkpt lat="44.22154" lon="6.91938">
        <ele>1721</ele>
        <time>2010-08-15T08:10:50Z</time>
      </trkpt>
      <trkpt lat="44.22153" lon="6.91936">
        <ele>1721</ele>
        <time>2010-08-15T08:10:51Z</time>
      </trkpt>
      <trkpt lat="44.22151" lon="6.91934">
        <ele>1722</ele>
        <time>2010-08-15T08:10:52Z</time>
      </trkpt>
      <trkpt lat="44.2215" lon="6.91933">
        <ele>1722</ele>
        <time>2010-08-15T08:10:53Z</time>
      </trkpt>
      <trkpt lat="44.22149" lon="6.91931">
        <ele>1722</ele>
        <time>2010-08-15T08:10:54Z</time>
      </trkpt>
      <trkpt lat="44.22147" lon="6.9193">
        <ele>1722</ele>
        <time>2010-08-15T08:10:55Z</time>
      </trkpt>
      <trkpt lat="44.22146" lon="6.91929">
        <ele>1722</ele>
        <time>2010-08-15T08:10:56Z</time>
      </trkpt>
      <trkpt lat="44.22145" lon="6.91927">
        <ele>1722</ele>
        <time>2010-08-15T08:10:57Z</time>
      </trkpt>
      <trkpt lat="44.22144" lon="6.91926">
        <ele>1722</ele>
        <time>2010-08-15T08:10:58Z</time>
      </trkpt>
      <trkpt lat="44.22143" lon="6.91925">
        <ele>1722</ele>
        <time>2010-08-15T08:10:59Z</time>
      </trkpt>
      <trkpt lat="44.22143" lon="6.91923">
        <ele>1722</ele>
        <time>2010-08-15T08:11:00Z</time>
      </trkpt>
      <trkpt lat="44.22142" lon="6.91922">
        <ele>1722</ele>
        <time>2010-08-15T08:11:01Z</time>
      </trkpt>
      <trkpt lat="44.22141" lon="6.9192">
        <ele>1723</ele>
        <time>2010-08-15T08:11:02Z</time>
      </trkpt>
      <trkpt lat="44.2214" lon="6.91919">
        <ele>1723</ele>
        <time>2010-08-15T08:11:03Z</time>
      </trkpt>
      <trkpt lat="44.22139" lon="6.91917">
        <ele>1723</ele>
        <time>2010-08-15T08:11:04Z</time>
      </trkpt>
      <trkpt lat="44.22138" lon="6.91915">
        <ele>1730</ele>
        <time>2010-08-15T08:11:05Z</time>
      </trkpt>
      <trkpt lat="44.22137" lon="6.91914">
        <ele>1730</ele>
        <time>2010-08-15T08:11:06Z</time>
      </trkpt>
      <trkpt lat="44.22136" lon="6.91912">
        <ele>1730</ele>
        <time>2010-08-15T08:11:07Z</time>
      </trkpt>
      <trkpt lat="44.22136" lon="6.9191">
        <ele>1731</ele>
        <time>2010-08-15T08:11:08Z</time>
      </trkpt>
      <trkpt lat="44.22135" lon="6.91908">
        <ele>1731</ele>
        <time>2010-08-15T08:11:09Z</time>
      </trkpt>
      <trkpt lat="44.22135" lon="6.91906">
        <ele>1731</ele>
        <time>2010-08-15T08:11:10Z</time>
      </trkpt>
      <trkpt lat="44.22134" lon="6.91904">
        <ele>1731</ele>
        <time>2010-08-15T08:11:11Z</time>
      </trkpt>
      <trkpt lat="44.22133" lon="6.91903">
        <ele>1731</ele>
        <time>2010-08-15T08:11:12Z</time>
      </trkpt>
      <trkpt lat="44.22133" lon="6.91901">
        <ele>1732</ele>
        <time>2010-08-15T08:11:13Z</time>
      </trkpt>
      <trkpt lat="44.22132" lon="6.91899">
        <ele>1732</ele>
        <time>2010-08-15T08:11:14Z</time>
      </trkpt>
      <trkpt lat="44.22131" lon="6.91897">
        <ele>1732</ele>
        <time>2010-08-15T08:11:15Z</time>
      </trkpt>
      <trkpt lat="44.22131" lon="6.91895">
        <ele>1732</ele>
        <time>2010-08-15T08:11:16Z</time>
      </trkpt>
      <trkpt lat="44.22131" lon="6.91893">
        <ele>1732</ele>
        <time>2010-08-15T08:11:17Z</time>
      </trkpt>
      <trkpt lat="44.2213" lon="6.91891">
        <ele>1733</ele>
        <time>2010-08-15T08:11:18Z</time>
      </trkpt>
      <trkpt lat="44.2213" lon="6.91889">
        <ele>1733</ele>
        <time>2010-08-15T08:11:19Z</time>
      </trkpt>
      <trkpt lat="44.22129" lon="6.91887">
        <ele>1733</ele>
        <time>2010-08-15T08:11:20Z</time>
      </trkpt>
      <trkpt lat="44.22128" lon="6.91885">
        <ele>1733</ele>
        <time>2010-08-15T08:11:21Z</time>
      </trkpt>
      <trkpt lat="44.22128" lon="6.91883">
        <ele>1733</ele>
        <time>2010-08-15T08:11:22Z</time>
      </trkpt>
      <trkpt lat="44.22127" lon="6.91882">
        <ele>1734</ele>
        <time>2010-08-15T08:11:23Z</time>
      </trkpt>
      <trkpt lat="44.22127" lon="6.9188">
        <ele>1734</ele>
        <time>2010-08-15T08:11:24Z</time>
      </trkpt>
      <trkpt lat="44.22126" lon="6.91878">
        <ele>1734</ele>
        <time>2010-08-15T08:11:25Z</time>
      </trkpt>
      <trkpt lat="44.22126" lon="6.91876">
        <ele>1734</ele>
        <time>2010-08-15T08:11:26Z</time>
      </trkpt>
      <trkpt lat="44.22125" lon="6.91874">
        <ele>1734</ele>
        <time>2010-08-15T08:11:27Z</time>
      </trkpt>
      <trkpt lat="44.22125" lon="6.91872">
        <ele>1735</ele>
        <time>2010-08-15T08:11:28Z</time>
      </trkpt>
      <trkpt lat="44.22125" lon="6.9187">
        <ele>1735</ele>
        <time>2010-08-15T08:11:29Z</time>
      </trkpt>
      <trkpt lat="44.22124" lon="6.91868">
        <ele>1735</ele>
        <time>2010-08-15T08:11:30Z</time>
      </trkpt>
      <trkpt lat="44.22124" lon="6.91867">
        <ele>1735</ele>
        <time>2010-08-15T08:11:31Z</time>
      </trkpt>
      <trkpt lat="44.22124" lon="6.91864">
        <ele>1735</ele>
        <time>2010-08-15T08:11:32Z</time>
      </trkpt>
      <trkpt lat="44.22123" lon="6.91862">
        <ele>1735</ele>
        <time>2010-08-15T08:11:33Z</time>
      </trkpt>
      <trkpt lat="44.22123" lon="6.9186">
        <ele>1735</ele>
        <time>2010-08-15T08:11:34Z</time>
      </trkpt>
      <trkpt lat="44.22122" lon="6.91859">
        <ele>1736</ele>
        <time>2010-08-15T08:11:35Z</time>
      </trkpt>
      <trkpt lat="44.22122" lon="6.91857">
        <ele>1736</ele>
        <time>2010-08-15T08:11:36Z</time>
      </trkpt>
      <trkpt lat="44.22121" lon="6.91855">
        <ele>1736</ele>
        <time>2010-08-15T08:11:37Z</time>
      </trkpt>
      <trkpt lat="44.22121" lon="6.91853">
        <ele>1736</ele>
        <time>2010-08-15T08:11:38Z</time>
      </trkpt>
      <trkpt lat="44.22121" lon="6.91851">
        <ele>1736</ele>
        <time>2010-08-15T08:11:39Z</time>
      </trkpt>
      <trkpt lat="44.22121" lon="6.91849">
        <ele>1736</ele>
        <time>2010-08-15T08:11:40Z</time>
      </trkpt>
      <trkpt lat="44.22121" lon="6.91847">
        <ele>1736</ele>
        <time>2010-08-15T08:11:41Z</time>
      </trkpt>
      <trkpt lat="44.2212" lon="6.91845">
        <ele>1736</ele>
        <time>2010-08-15T08:11:42Z</time>
      </trkpt>
      <trkpt lat="44.2212" lon="6.91844">
        <ele>1737</ele>
        <time>2010-08-15T08:11:43Z</time>
      </trkpt>
      <trkpt lat="44.22119" lon="6.91842">
        <ele>1737</ele>
        <time>2010-08-15T08:11:44Z</time>
      </trkpt>
      <trkpt lat="44.22119" lon="6.9184">
        <ele>1737</ele>
        <time>2010-08-15T08:11:45Z</time>
      </trkpt>
      <trkpt lat="44.22119" lon="6.91839">
        <ele>1737</ele>
        <time>2010-08-15T08:11:46Z</time>
      </trkpt>
      <trkpt lat="44.22118" lon="6.91837">
        <ele>1737</ele>
        <time>2010-08-15T08:11:47Z</time>
      </trkpt>
      <trkpt lat="44.22118" lon="6.91835">
        <ele>1737</ele>
        <time>2010-08-15T08:11:48Z</time>
      </trkpt>
      <trkpt lat="44.22118" lon="6.91833">
        <ele>1744</ele>
        <time>2010-08-15T08:11:49Z</time>
      </trkpt>
      <trkpt lat="44.22117" lon="6.91831">
        <ele>1744</ele>
        <time>2010-08-15T08:11:50Z</time>
      </trkpt>
      <trkpt lat="44.22117" lon="6.91829">
        <ele>1744</ele>
        <time>2010-08-15T08:11:51Z</time>
      </trkpt>
      <trkpt lat="44.22117" lon="6.91828">
        <ele>1744</ele>
        <time>2010-08-15T08:11:52Z</time>
      </trkpt>
      <trkpt lat="44.22116" lon="6.91826">
        <ele>1744</ele>
        <time>2010-08-15T08:11:53Z</time>
      </trkpt>
      <trkpt lat="44.22116" lon="6.91824">
        <ele>1745</ele>
        <time>2010-08-15T08:11:54Z</time>
      </trkpt>
      <trkpt lat="44.22115" lon="6.91822">
        <ele>1745</ele>
        <time>2010-08-15T08:11:55Z</time>
      </trkpt>
      <trkpt lat="44.22114" lon="6.91821">
        <ele>1745</ele>
        <time>2010-08-15T08:11:56Z</time>
      </trkpt>
      <trkpt lat="44.22114" lon="6.91819">
        <ele>1745</ele>
        <time>2010-08-15T08:11:57Z</time>
      </trkpt>
      <trkpt lat="44.22113" lon="6.91818">
        <ele>1745</ele>
        <time>2010-08-15T08:11:58Z</time>
      </trkpt>
      <trkpt lat="44.22112" lon="6.91817">
        <ele>1745</ele>
        <time>2010-08-15T08:11:59Z</time>
      </trkpt>
      <trkpt lat="44.22111" lon="6.91815">
        <ele>1745</ele>
        <time>2010-08-15T08:12:00Z</time>
      </trkpt>
      <trkpt lat="44.22111" lon="6.91814">
        <ele>1745</ele>
        <time>2010-08-15T08:12:01Z</time>
      </trkpt>
      <trkpt lat="44.2211" lon="6.91812">
        <ele>1745</ele>
        <time>2010-08-15T08:12:02Z</time>
      </trkpt>
      <trkpt lat="44.22109" lon="6.91811">
        <ele>1745</ele>
        <time>2010-08-15T08:12:03Z</time>
      </trkpt>
      <trkpt lat="44.22108" lon="6.91809">
        <ele>1745</ele>
        <time>2010-08-15T08:12:04Z</time>
      </trkpt>
      <trkpt lat="44.22107" lon="6.91808">
        <ele>1745</ele>
        <time>2010-08-15T08:12:05Z</time>
      </trkpt>
      <trkpt lat="44.22107" lon="6.91807">
        <ele>1745</ele>
        <time>2010-08-15T08:12:06Z</time>
      </trkpt>
      <trkpt lat="44.22106" lon="6.91806">
        <ele>1745</ele>
        <time>2010-08-15T08:12:07Z</time>
      </trkpt>
      <trkpt lat="44.22104" lon="6.91804">
        <ele>1745</ele>
        <time>2010-08-15T08:12:08Z</time>
      </trkpt>
      <trkpt lat="44.22104" lon="6.91803">
        <ele>1745</ele>
        <time>2010-08-15T08:12:09Z</time>
      </trkpt>
      <trkpt lat="44.22103" lon="6.91802">
        <ele>1746</ele>
        <time>2010-08-15T08:12:10Z</time>
      </trkpt>
      <trkpt lat="44.22102" lon="6.91801">
        <ele>1746</ele>
        <time>2010-08-15T08:12:11Z</time>
      </trkpt>
      <trkpt lat="44.22101" lon="6.918">
        <ele>1746</ele>
        <time>2010-08-15T08:12:12Z</time>
      </trkpt>
      <trkpt lat="44.221" lon="6.91799">
        <ele>1746</ele>
        <time>2010-08-15T08:12:13Z</time>
      </trkpt>
      <trkpt lat="44.22099" lon="6.91797">
        <ele>1746</ele>
        <time>2010-08-15T08:12:14Z</time>
      </trkpt>
      <trkpt lat="44.22098" lon="6.91796">
        <ele>1746</ele>
        <time>2010-08-15T08:12:15Z</time>
      </trkpt>
      <trkpt lat="44.22097" lon="6.91794">
        <ele>1746</ele>
        <time>2010-08-15T08:12:16Z</time>
      </trkpt>
      <trkpt lat="44.22096" lon="6.91793">
        <ele>1746</ele>
        <time>2010-08-15T08:12:17Z</time>
      </trkpt>
      <trkpt lat="44.22095" lon="6.91793">
        <ele>1746</ele>
        <time>2010-08-15T08:12:18Z</time>
      </trkpt>
      <trkpt lat="44.22095" lon="6.91792">
        <ele>1746</ele>
        <time>2010-08-15T08:12:19Z</time>
      </trkpt>
      <trkpt lat="44.22094" lon="6.91791">
        <ele>1746</ele>
        <time>2010-08-15T08:12:20Z</time>
      </trkpt>
      <trkpt lat="44.22093" lon="6.9179">
        <ele>1746</ele>
        <time>2010-08-15T08:12:21Z</time>
      </trkpt>
      <trkpt lat="44.22092" lon="6.91789">
        <ele>1746</ele>
        <time>2010-08-15T08:12:22Z</time>
      </trkpt>
      <trkpt lat="44.22091" lon="6.91788">
        <ele>1746</ele>
        <time>2010-08-15T08:12:23Z</time>
      </trkpt>
      <trkpt lat="44.2209" lon="6.91787">
        <ele>1746</ele>
        <time>2010-08-15T08:12:24Z</time>
      </trkpt>
      <trkpt lat="44.22089" lon="6.91787">
        <ele>1746</ele>
        <time>2010-08-15T08:12:25Z</time>
      </trkpt>
      <trkpt lat="44.22088" lon="6.91786">
        <ele>1746</ele>
        <time>2010-08-15T08:12:26Z</time>
      </trkpt>
      <trkpt lat="44.22087" lon="6.91785">
        <ele>1746</ele>
        <time>2010-08-15T08:12:27Z</time>
      </trkpt>
      <trkpt lat="44.22087" lon="6.91783">
        <ele>1746</ele>
        <time>2010-08-15T08:12:28Z</time>
      </trkpt>
      <trkpt lat="44.22086" lon="6.91782">
        <ele>1746</ele>
        <time>2010-08-15T08:12:29Z</time>
      </trkpt>
      <trkpt lat="44.22085" lon="6.91781">
        <ele>1747</ele>
        <time>2010-08-15T08:12:30Z</time>
      </trkpt>
      <trkpt lat="44.22084" lon="6.9178">
        <ele>1747</ele>
        <time>2010-08-15T08:12:31Z</time>
      </trkpt>
      <trkpt lat="44.22084" lon="6.91778">
        <ele>1747</ele>
        <time>2010-08-15T08:12:32Z</time>
      </trkpt>
      <trkpt lat="44.22083" lon="6.91777">
        <ele>1751</ele>
        <time>2010-08-15T08:12:33Z</time>
      </trkpt>
      <trkpt lat="44.22082" lon="6.91775">
        <ele>1751</ele>
        <time>2010-08-15T08:12:34Z</time>
      </trkpt>
      <trkpt lat="44.22081" lon="6.91774">
        <ele>1751</ele>
        <time>2010-08-15T08:12:35Z</time>
      </trkpt>
      <trkpt lat="44.2208" lon="6.91772">
        <ele>1751</ele>
        <time>2010-08-15T08:12:36Z</time>
      </trkpt>
      <trkpt lat="44.22079" lon="6.91771">
        <ele>1751</ele>
        <time>2010-08-15T08:12:37Z</time>
      </trkpt>
      <trkpt lat="44.22078" lon="6.9177">
        <ele>1751</ele>
        <time>2010-08-15T08:12:38Z</time>
      </trkpt>
      <trkpt lat="44.22077" lon="6.91769">
        <ele>1751</ele>
        <time>2010-08-15T08:12:39Z</time>
      </trkpt>
      <trkpt lat="44.22077" lon="6.91768">
        <ele>1751</ele>
        <time>2010-08-15T08:12:40Z</time>
      </trkpt>
      <trkpt lat="44.22076" lon="6.91766">
        <ele>1751</ele>
        <time>2010-08-15T08:12:41Z</time>
      </trkpt>
      <trkpt lat="44.22075" lon="6.91765">
        <ele>1751</ele>
        <time>2010-08-15T08:12:42Z</time>
      </trkpt>
      <trkpt lat="44.22074" lon="6.91764">
        <ele>1751</ele>
        <time>2010-08-15T08:12:43Z</time>
      </trkpt>
      <trkpt lat="44.22073" lon="6.91763">
        <ele>1751</ele>
        <time>2010-08-15T08:12:44Z</time>
      </trkpt>
      <trkpt lat="44.22073" lon="6.91761">
        <ele>1751</ele>
        <time>2010-08-15T08:12:45Z</time>
      </trkpt>
      <trkpt lat="44.22072" lon="6.9176">
        <ele>1751</ele>
        <time>2010-08-15T08:12:46Z</time>
      </trkpt>
      <trkpt lat="44.22071" lon="6.91759">
        <ele>1751</ele>
        <time>2010-08-15T08:12:47Z</time>
      </trkpt>
      <trkpt lat="44.22071" lon="6.91758">
        <ele>1751</ele>
        <time>2010-08-15T08:12:48Z</time>
      </trkpt>
      <trkpt lat="44.2207" lon="6.91756">
        <ele>1751</ele>
        <time>2010-08-15T08:12:49Z</time>
      </trkpt>
      <trkpt lat="44.22069" lon="6.91755">
        <ele>1751</ele>
        <time>2010-08-15T08:12:50Z</time>
      </trkpt>
      <trkpt lat="44.22068" lon="6.91754">
        <ele>1751</ele>
        <time>2010-08-15T08:12:51Z</time>
      </trkpt>
      <trkpt lat="44.22067" lon="6.91753">
        <ele>1752</ele>
        <time>2010-08-15T08:12:52Z</time>
      </trkpt>
      <trkpt lat="44.22066" lon="6.91752">
        <ele>1752</ele>
        <time>2010-08-15T08:12:53Z</time>
      </trkpt>
      <trkpt lat="44.22066" lon="6.9175">
        <ele>1752</ele>
        <time>2010-08-15T08:12:54Z</time>
      </trkpt>
      <trkpt lat="44.22065" lon="6.91748">
        <ele>1755</ele>
        <time>2010-08-15T08:12:55Z</time>
      </trkpt>
      <trkpt lat="44.22064" lon="6.91747">
        <ele>1755</ele>
        <time>2010-08-15T08:12:56Z</time>
      </trkpt>
      <trkpt lat="44.22063" lon="6.91745">
        <ele>1756</ele>
        <time>2010-08-15T08:12:57Z</time>
      </trkpt>
      <trkpt lat="44.22063" lon="6.91744">
        <ele>1756</ele>
        <time>2010-08-15T08:12:58Z</time>
      </trkpt>
      <trkpt lat="44.22062" lon="6.91742">
        <ele>1756</ele>
        <time>2010-08-15T08:12:59Z</time>
      </trkpt>
      <trkpt lat="44.22061" lon="6.9174">
        <ele>1756</ele>
        <time>2010-08-15T08:13:00Z</time>
      </trkpt>
      <trkpt lat="44.2206" lon="6.91739">
        <ele>1757</ele>
        <time>2010-08-15T08:13:01Z</time>
      </trkpt>
      <trkpt lat="44.22059" lon="6.91737">
        <ele>1757</ele>
        <time>2010-08-15T08:13:02Z</time>
      </trkpt>
      <trkpt lat="44.22059" lon="6.91736">
        <ele>1757</ele>
        <time>2010-08-15T08:13:03Z</time>
      </trkpt>
      <trkpt lat="44.22058" lon="6.91734">
        <ele>1758</ele>
        <time>2010-08-15T08:13:04Z</time>
      </trkpt>
      <trkpt lat="44.22057" lon="6.91733">
        <ele>1758</ele>
        <time>2010-08-15T08:13:05Z</time>
      </trkpt>
      <trkpt lat="44.22057" lon="6.91731">
        <ele>1758</ele>
        <time>2010-08-15T08:13:06Z</time>
      </trkpt>
      <trkpt lat="44.22056" lon="6.91729">
        <ele>1758</ele>
        <time>2010-08-15T08:13:07Z</time>
      </trkpt>
      <trkpt lat="44.22055" lon="6.91727">
        <ele>1759</ele>
        <time>2010-08-15T08:13:08Z</time>
      </trkpt>
      <trkpt lat="44.22055" lon="6.91726">
        <ele>1759</ele>
        <time>2010-08-15T08:13:09Z</time>
      </trkpt>
      <trkpt lat="44.22054" lon="6.91724">
        <ele>1759</ele>
        <time>2010-08-15T08:13:10Z</time>
      </trkpt>
      <trkpt lat="44.22053" lon="6.91723">
        <ele>1759</ele>
        <time>2010-08-15T08:13:11Z</time>
      </trkpt>
      <trkpt lat="44.22053" lon="6.91721">
        <ele>1759</ele>
        <time>2010-08-15T08:13:12Z</time>
      </trkpt>
      <trkpt lat="44.22052" lon="6.91719">
        <ele>1760</ele>
        <time>2010-08-15T08:13:13Z</time>
      </trkpt>
      <trkpt lat="44.22051" lon="6.91717">
        <ele>1760</ele>
        <time>2010-08-15T08:13:14Z</time>
      </trkpt>
      <trkpt lat="44.22051" lon="6.91715">
        <ele>1760</ele>
        <time>2010-08-15T08:13:15Z</time>
      </trkpt>
      <trkpt lat="44.2205" lon="6.91714">
        <ele>1760</ele>
        <time>2010-08-15T08:13:16Z</time>
      </trkpt>
      <trkpt lat="44.2205" lon="6.91712">
        <ele>1760</ele>
        <time>2010-08-15T08:13:17Z</time>
      </trkpt>
      <trkpt lat="44.22049" lon="6.91711">
        <ele>1760</ele>
        <time>2010-08-15T08:13:18Z</time>
      </trkpt>
      <trkpt lat="44.22048" lon="6.91709">
        <ele>1761</ele>
        <time>2010-08-15T08:13:19Z</time>
      </trkpt>
      <trkpt lat="44.22048" lon="6.91707">
        <ele>1761</ele>
        <time>2010-08-15T08:13:20Z</time>
      </trkpt>
      <trkpt lat="44.22047" lon="6.91705">
        <ele>1761</ele>
        <time>2010-08-15T08:13:21Z</time>
      </trkpt>
      <trkpt lat="44.22047" lon="6.91702">
        <ele>1761</ele>
        <time>2010-08-15T08:13:22Z</time>
      </trkpt>
      <trkpt lat="44.22046" lon="6.91701">
        <ele>1761</ele>
        <time>2010-08-15T08:13:23Z</time>
      </trkpt>
      <trkpt lat="44.22046" lon="6.91699">
        <ele>1761</ele>
        <time>2010-08-15T08:13:24Z</time>
      </trkpt>
      <trkpt lat="44.22045" lon="6.91697">
        <ele>1761</ele>
        <time>2010-08-15T08:13:25Z</time>
      </trkpt>
      <trkpt lat="44.22044" lon="6.91696">
        <ele>1762</ele>
        <time>2010-08-15T08:13:26Z</time>
      </trkpt>
      <trkpt lat="44.22044" lon="6.91694">
        <ele>1762</ele>
        <time>2010-08-15T08:13:27Z</time>
      </trkpt>
      <trkpt lat="44.22043" lon="6.91692">
        <ele>1762</ele>
        <time>2010-08-15T08:13:28Z</time>
      </trkpt>
      <trkpt lat="44.22042" lon="6.9169">
        <ele>1762</ele>
        <time>2010-08-15T08:13:29Z</time>
      </trkpt>
      <trkpt lat="44.22042" lon="6.91689">
        <ele>1762</ele>
        <time>2010-08-15T08:13:30Z</time>
      </trkpt>
      <trkpt lat="44.22041" lon="6.91688">
        <ele>1762</ele>
        <time>2010-08-15T08:13:31Z</time>
      </trkpt>
      <trkpt lat="44.22041" lon="6.91686">
        <ele>1762</ele>
        <time>2010-08-15T08:13:32Z</time>
      </trkpt>
      <trkpt lat="44.2204" lon="6.91684">
        <ele>1763</ele>
        <time>2010-08-15T08:13:33Z</time>
      </trkpt>
      <trkpt lat="44.2204" lon="6.91683">
        <ele>1763</ele>
        <time>2010-08-15T08:13:34Z</time>
      </trkpt>
      <trkpt lat="44.22039" lon="6.91681">
        <ele>1763</ele>
        <time>2010-08-15T08:13:35Z</time>
      </trkpt>
      <trkpt lat="44.22039" lon="6.91678">
        <ele>1763</ele>
        <time>2010-08-15T08:13:36Z</time>
      </trkpt>
      <trkpt lat="44.22038" lon="6.91676">
        <ele>1763</ele>
        <time>2010-08-15T08:13:37Z</time>
      </trkpt>
      <trkpt lat="44.22037" lon="6.91674">
        <ele>1763</ele>
        <time>2010-08-15T08:13:38Z</time>
      </trkpt>
      <trkpt lat="44.22036" lon="6.91673">
        <ele>1763</ele>
        <time>2010-08-15T08:13:39Z</time>
      </trkpt>
      <trkpt lat="44.22036" lon="6.91671">
        <ele>1764</ele>
        <time>2010-08-15T08:13:40Z</time>
      </trkpt>
      <trkpt lat="44.22035" lon="6.91669">
        <ele>1764</ele>
        <time>2010-08-15T08:13:41Z</time>
      </trkpt>
      <trkpt lat="44.22034" lon="6.91667">
        <ele>1764</ele>
        <time>2010-08-15T08:13:42Z</time>
      </trkpt>
      <trkpt lat="44.22034" lon="6.91665">
        <ele>1769</ele>
        <time>2010-08-15T08:13:43Z</time>
      </trkpt>
      <trkpt lat="44.22033" lon="6.91663">
        <ele>1769</ele>
        <time>2010-08-15T08:13:44Z</time>
      </trkpt>
      <trkpt lat="44.22032" lon="6.91661">
        <ele>1769</ele>
        <time>2010-08-15T08:13:45Z</time>
      </trkpt>
      <trkpt lat="44.22031" lon="6.91659">
        <ele>1769</ele>
        <time>2010-08-15T08:13:46Z</time>
      </trkpt>
      <trkpt lat="44.22031" lon="6.91657">
        <ele>1769</ele>
        <time>2010-08-15T08:13:47Z</time>
      </trkpt>
      <trkpt lat="44.2203" lon="6.91655">
        <ele>1770</ele>
        <time>2010-08-15T08:13:48Z</time>
      </trkpt>
      <trkpt lat="44.22029" lon="6.91653">
        <ele>1770</ele>
        <time>2010-08-15T08:13:49Z</time>
      </trkpt>
      <trkpt lat="44.22028" lon="6.91651">
        <ele>1770</ele>
        <time>2010-08-15T08:13:50Z</time>
      </trkpt>
      <trkpt lat="44.22028" lon="6.91649">
        <ele>1770</ele>
        <time>2010-08-15T08:13:51Z</time>
      </trkpt>
      <trkpt lat="44.22027" lon="6.91648">
        <ele>1770</ele>
        <time>2010-08-15T08:13:52Z</time>
      </trkpt>
      <trkpt lat="44.22026" lon="6.91646">
        <ele>1770</ele>
        <time>2010-08-15T08:13:53Z</time>
      </trkpt>
      <trkpt lat="44.22024" lon="6.91645">
        <ele>1770</ele>
        <time>2010-08-15T08:13:54Z</time>
      </trkpt>
      <trkpt lat="44.22023" lon="6.91644">
        <ele>1770</ele>
        <time>2010-08-15T08:13:55Z</time>
      </trkpt>
      <trkpt lat="44.22021" lon="6.91643">
        <ele>1770</ele>
        <time>2010-08-15T08:13:56Z</time>
      </trkpt>
      <trkpt lat="44.2202" lon="6.91644">
        <ele>1770</ele>
        <time>2010-08-15T08:13:57Z</time>
      </trkpt>
      <trkpt lat="44.22019" lon="6.91644">
        <ele>1770</ele>
        <time>2010-08-15T08:13:58Z</time>
      </trkpt>
      <trkpt lat="44.22018" lon="6.91645">
        <ele>1771</ele>
        <time>2010-08-15T08:13:59Z</time>
      </trkpt>
      <trkpt lat="44.22017" lon="6.91647">
        <ele>1771</ele>
        <time>2010-08-15T08:14:00Z</time>
      </trkpt>
      <trkpt lat="44.22017" lon="6.91648">
        <ele>1771</ele>
        <time>2010-08-15T08:14:01Z</time>
      </trkpt>
      <trkpt lat="44.22016" lon="6.9165">
        <ele>1771</ele>
        <time>2010-08-15T08:14:02Z</time>
      </trkpt>
      <trkpt lat="44.22015" lon="6.91651">
        <ele>1771</ele>
        <time>2010-08-15T08:14:03Z</time>
      </trkpt>
      <trkpt lat="44.22015" lon="6.91653">
        <ele>1771</ele>
        <time>2010-08-15T08:14:04Z</time>
      </trkpt>
      <trkpt lat="44.22014" lon="6.91655">
        <ele>1771</ele>
        <time>2010-08-15T08:14:05Z</time>
      </trkpt>
      <trkpt lat="44.22013" lon="6.91658">
        <ele>1771</ele>
        <time>2010-08-15T08:14:06Z</time>
      </trkpt>
      <trkpt lat="44.22013" lon="6.9166">
        <ele>1771</ele>
        <time>2010-08-15T08:14:07Z</time>
      </trkpt>
      <trkpt lat="44.22011" lon="6.91663">
        <ele>1771</ele>
        <time>2010-08-15T08:14:08Z</time>
      </trkpt>
      <trkpt lat="44.22009" lon="6.91666">
        <ele>1772</ele>
        <time>2010-08-15T08:14:09Z</time>
      </trkpt>
      <trkpt lat="44.22008" lon="6.91669">
        <ele>1770</ele>
        <time>2010-08-15T08:14:10Z</time>
      </trkpt>
      <trkpt lat="44.22007" lon="6.91672">
        <ele>1769</ele>
        <time>2010-08-15T08:14:11Z</time>
      </trkpt>
      <trkpt lat="44.22006" lon="6.91675">
        <ele>1769</ele>
        <time>2010-08-15T08:14:12Z</time>
      </trkpt>
      <trkpt lat="44.22005" lon="6.91678">
        <ele>1769</ele>
        <time>2010-08-15T08:14:13Z</time>
      </trkpt>
      <trkpt lat="44.22004" lon="6.91681">
        <ele>1768</ele>
        <time>2010-08-15T08:14:14Z</time>
      </trkpt>
      <trkpt lat="44.22002" lon="6.91684">
        <ele>1767</ele>
        <time>2010-08-15T08:14:15Z</time>
      </trkpt>
      <trkpt lat="44.22001" lon="6.91686">
        <ele>1767</ele>
        <time>2010-08-15T08:14:16Z</time>
      </trkpt>
      <trkpt lat="44.22" lon="6.91689">
        <ele>1776</ele>
        <time>2010-08-15T08:14:17Z</time>
      </trkpt>
      <trkpt lat="44.21998" lon="6.91691">
        <ele>1777</ele>
        <time>2010-08-15T08:14:18Z</time>
      </trkpt>
      <trkpt lat="44.21996" lon="6.91693">
        <ele>1777</ele>
        <time>2010-08-15T08:14:19Z</time>
      </trkpt>
      <trkpt lat="44.21995" lon="6.91695">
        <ele>1777</ele>
        <time>2010-08-15T08:14:20Z</time>
      </trkpt>
      <trkpt lat="44.21993" lon="6.91697">
        <ele>1777</ele>
        <time>2010-08-15T08:14:21Z</time>
      </trkpt>
      <trkpt lat="44.21992" lon="6.91699">
        <ele>1777</ele>
        <time>2010-08-15T08:14:22Z</time>
      </trkpt>
      <trkpt lat="44.2199" lon="6.91701">
        <ele>1777</ele>
        <time>2010-08-15T08:14:23Z</time>
      </trkpt>
      <trkpt lat="44.21989" lon="6.91704">
        <ele>1777</ele>
        <time>2010-08-15T08:14:24Z</time>
      </trkpt>
      <trkpt lat="44.21987" lon="6.91706">
        <ele>1777</ele>
        <time>2010-08-15T08:14:25Z</time>
      </trkpt>
      <trkpt lat="44.21985" lon="6.91707">
        <ele>1777</ele>
        <time>2010-08-15T08:14:26Z</time>
      </trkpt>
      <trkpt lat="44.21984" lon="6.91708">
        <ele>1777</ele>
        <time>2010-08-15T08:14:27Z</time>
      </trkpt>
      <trkpt lat="44.21982" lon="6.9171">
        <ele>1777</ele>
        <time>2010-08-15T08:14:28Z</time>
      </trkpt>
      <trkpt lat="44.2198" lon="6.91711">
        <ele>1777</ele>
        <time>2010-08-15T08:14:29Z</time>
      </trkpt>
      <trkpt lat="44.21978" lon="6.91712">
        <ele>1778</ele>
        <time>2010-08-15T08:14:30Z</time>
      </trkpt>
      <trkpt lat="44.21977" lon="6.91713">
        <ele>1778</ele>
        <time>2010-08-15T08:14:31Z</time>
      </trkpt>
      <trkpt lat="44.21976" lon="6.91714">
        <ele>1778</ele>
        <time>2010-08-15T08:14:32Z</time>
      </trkpt>
      <trkpt lat="44.21975" lon="6.91715">
        <ele>1778</ele>
        <time>2010-08-15T08:14:33Z</time>
      </trkpt>
      <trkpt lat="44.21974" lon="6.91716">
        <ele>1778</ele>
        <time>2010-08-15T08:14:34Z</time>
      </trkpt>
      <trkpt lat="44.21973" lon="6.91716">
        <ele>1778</ele>
        <time>2010-08-15T08:14:35Z</time>
      </trkpt>
      <trkpt lat="44.21972" lon="6.91717">
        <ele>1778</ele>
        <time>2010-08-15T08:14:36Z</time>
      </trkpt>
      <trkpt lat="44.2197" lon="6.91718">
        <ele>1778</ele>
        <time>2010-08-15T08:14:37Z</time>
      </trkpt>
      <trkpt lat="44.21969" lon="6.91719">
        <ele>1778</ele>
        <time>2010-08-15T08:14:38Z</time>
      </trkpt>
      <trkpt lat="44.21967" lon="6.9172">
        <ele>1778</ele>
        <time>2010-08-15T08:14:39Z</time>
      </trkpt>
      <trkpt lat="44.21965" lon="6.91721">
        <ele>1779</ele>
        <time>2010-08-15T08:14:40Z</time>
      </trkpt>
      <trkpt lat="44.21964" lon="6.91722">
        <ele>1779</ele>
        <time>2010-08-15T08:14:41Z</time>
      </trkpt>
      <trkpt lat="44.21963" lon="6.91723">
        <ele>1779</ele>
        <time>2010-08-15T08:14:42Z</time>
      </trkpt>
      <trkpt lat="44.21961" lon="6.91724">
        <ele>1779</ele>
        <time>2010-08-15T08:14:43Z</time>
      </trkpt>
      <trkpt lat="44.2196" lon="6.91724">
        <ele>1779</ele>
        <time>2010-08-15T08:14:44Z</time>
      </trkpt>
      <trkpt lat="44.21958" lon="6.91724">
        <ele>1779</ele>
        <time>2010-08-15T08:14:45Z</time>
      </trkpt>
      <trkpt lat="44.21957" lon="6.91724">
        <ele>1780</ele>
        <time>2010-08-15T08:14:46Z</time>
      </trkpt>
      <trkpt lat="44.21955" lon="6.91725">
        <ele>1780</ele>
        <time>2010-08-15T08:14:47Z</time>
      </trkpt>
      <trkpt lat="44.21953" lon="6.91725">
        <ele>1780</ele>
        <time>2010-08-15T08:14:48Z</time>
      </trkpt>
      <trkpt lat="44.21951" lon="6.91726">
        <ele>1780</ele>
        <time>2010-08-15T08:14:49Z</time>
      </trkpt>
      <trkpt lat="44.2195" lon="6.91725">
        <ele>1780</ele>
        <time>2010-08-15T08:14:50Z</time>
      </trkpt>
      <trkpt lat="44.21948" lon="6.91725">
        <ele>1781</ele>
        <time>2010-08-15T08:14:51Z</time>
      </trkpt>
      <trkpt lat="44.21946" lon="6.91725">
        <ele>1781</ele>
        <time>2010-08-15T08:14:52Z</time>
      </trkpt>
      <trkpt lat="44.21945" lon="6.91725">
        <ele>1781</ele>
        <time>2010-08-15T08:14:53Z</time>
      </trkpt>
      <trkpt lat="44.21944" lon="6.91725">
        <ele>1781</ele>
        <time>2010-08-15T08:14:54Z</time>
      </trkpt>
      <trkpt lat="44.21942" lon="6.91725">
        <ele>1781</ele>
        <time>2010-08-15T08:14:55Z</time>
      </trkpt>
      <trkpt lat="44.21941" lon="6.91726">
        <ele>1781</ele>
        <time>2010-08-15T08:14:56Z</time>
      </trkpt>
      <trkpt lat="44.2194" lon="6.91727">
        <ele>1782</ele>
        <time>2010-08-15T08:14:57Z</time>
      </trkpt>
      <trkpt lat="44.21938" lon="6.91728">
        <ele>1782</ele>
        <time>2010-08-15T08:14:58Z</time>
      </trkpt>
      <trkpt lat="44.21937" lon="6.91729">
        <ele>1782</ele>
        <time>2010-08-15T08:14:59Z</time>
      </trkpt>
      <trkpt lat="44.21936" lon="6.9173">
        <ele>1782</ele>
        <time>2010-08-15T08:15:00Z</time>
      </trkpt>
      <trkpt lat="44.21935" lon="6.91731">
        <ele>1782</ele>
        <time>2010-08-15T08:15:01Z</time>
      </trkpt>
      <trkpt lat="44.21933" lon="6.91732">
        <ele>1782</ele>
        <time>2010-08-15T08:15:02Z</time>
      </trkpt>
      <trkpt lat="44.21932" lon="6.91734">
        <ele>1782</ele>
        <time>2010-08-15T08:15:03Z</time>
      </trkpt>
      <trkpt lat="44.21932" lon="6.91735">
        <ele>1782</ele>
        <time>2010-08-15T08:15:04Z</time>
      </trkpt>
      <trkpt lat="44.21931" lon="6.91737">
        <ele>1782</ele>
        <time>2010-08-15T08:15:05Z</time>
      </trkpt>
      <trkpt lat="44.21931" lon="6.91738">
        <ele>1783</ele>
        <time>2010-08-15T08:15:06Z</time>
      </trkpt>
      <trkpt lat="44.2193" lon="6.91739">
        <ele>1783</ele>
        <time>2010-08-15T08:15:07Z</time>
      </trkpt>
      <trkpt lat="44.21929" lon="6.9174">
        <ele>1783</ele>
        <time>2010-08-15T08:15:08Z</time>
      </trkpt>
      <trkpt lat="44.21928" lon="6.91741">
        <ele>1783</ele>
        <time>2010-08-15T08:15:09Z</time>
      </trkpt>
      <trkpt lat="44.21928" lon="6.91742">
        <ele>1783</ele>
        <time>2010-08-15T08:15:10Z</time>
      </trkpt>
      <trkpt lat="44.21927" lon="6.91744">
        <ele>1783</ele>
        <time>2010-08-15T08:15:11Z</time>
      </trkpt>
      <trkpt lat="44.21926" lon="6.91745">
        <ele>1783</ele>
        <time>2010-08-15T08:15:12Z</time>
      </trkpt>
      <trkpt lat="44.21925" lon="6.91746">
        <ele>1783</ele>
        <time>2010-08-15T08:15:13Z</time>
      </trkpt>
      <trkpt lat="44.21924" lon="6.91747">
        <ele>1784</ele>
        <time>2010-08-15T08:15:14Z</time>
      </trkpt>
      <trkpt lat="44.21923" lon="6.91749">
        <ele>1784</ele>
        <time>2010-08-15T08:15:15Z</time>
      </trkpt>
      <trkpt lat="44.21921" lon="6.9175">
        <ele>1783</ele>
        <time>2010-08-15T08:15:16Z</time>
      </trkpt>
      <trkpt lat="44.2192" lon="6.91752">
        <ele>1783</ele>
        <time>2010-08-15T08:15:17Z</time>
      </trkpt>
      <trkpt lat="44.21919" lon="6.91753">
        <ele>1783</ele>
        <time>2010-08-15T08:15:18Z</time>
      </trkpt>
      <trkpt lat="44.21918" lon="6.91754">
        <ele>1783</ele>
        <time>2010-08-15T08:15:19Z</time>
      </trkpt>
      <trkpt lat="44.21917" lon="6.91755">
        <ele>1785</ele>
        <time>2010-08-15T08:15:20Z</time>
      </trkpt>
      <trkpt lat="44.21915" lon="6.91757">
        <ele>1785</ele>
        <time>2010-08-15T08:15:21Z</time>
      </trkpt>
      <trkpt lat="44.21914" lon="6.91758">
        <ele>1785</ele>
        <time>2010-08-15T08:15:22Z</time>
      </trkpt>
      <trkpt lat="44.21913" lon="6.91759">
        <ele>1785</ele>
        <time>2010-08-15T08:15:23Z</time>
      </trkpt>
      <trkpt lat="44.21912" lon="6.91761">
        <ele>1785</ele>
        <time>2010-08-15T08:15:24Z</time>
      </trkpt>
      <trkpt lat="44.2191" lon="6.91762">
        <ele>1785</ele>
        <time>2010-08-15T08:15:25Z</time>
      </trkpt>
      <trkpt lat="44.21909" lon="6.91764">
        <ele>1785</ele>
        <time>2010-08-15T08:15:26Z</time>
      </trkpt>
      <trkpt lat="44.21907" lon="6.91765">
        <ele>1785</ele>
        <time>2010-08-15T08:15:27Z</time>
      </trkpt>
      <trkpt lat="44.21906" lon="6.91766">
        <ele>1785</ele>
        <time>2010-08-15T08:15:28Z</time>
      </trkpt>
      <trkpt lat="44.21904" lon="6.91767">
        <ele>1785</ele>
        <time>2010-08-15T08:15:29Z</time>
      </trkpt>
      <trkpt lat="44.21902" lon="6.91768">
        <ele>1785</ele>
        <time>2010-08-15T08:15:30Z</time>
      </trkpt>
      <trkpt lat="44.219" lon="6.91768">
        <ele>1785</ele>
        <time>2010-08-15T08:15:31Z</time>
      </trkpt>
      <trkpt lat="44.21897" lon="6.91768">
        <ele>1786</ele>
        <time>2010-08-15T08:15:32Z</time>
      </trkpt>
      <trkpt lat="44.21895" lon="6.91768">
        <ele>1786</ele>
        <time>2010-08-15T08:15:33Z</time>
      </trkpt>
      <trkpt lat="44.21893" lon="6.91768">
        <ele>1786</ele>
        <time>2010-08-15T08:15:34Z</time>
      </trkpt>
      <trkpt lat="44.2189" lon="6.91768">
        <ele>1786</ele>
        <time>2010-08-15T08:15:35Z</time>
      </trkpt>
      <trkpt lat="44.21888" lon="6.91767">
        <ele>1786</ele>
        <time>2010-08-15T08:15:36Z</time>
      </trkpt>
      <trkpt lat="44.21885" lon="6.91767">
        <ele>1786</ele>
        <time>2010-08-15T08:15:37Z</time>
      </trkpt>
      <trkpt lat="44.21883" lon="6.91767">
        <ele>1787</ele>
        <time>2010-08-15T08:15:38Z</time>
      </trkpt>
      <trkpt lat="44.2188" lon="6.91767">
        <ele>1787</ele>
        <time>2010-08-15T08:15:39Z</time>
      </trkpt>
      <trkpt lat="44.21878" lon="6.91767">
        <ele>1787</ele>
        <time>2010-08-15T08:15:40Z</time>
      </trkpt>
      <trkpt lat="44.21875" lon="6.91767">
        <ele>1787</ele>
        <time>2010-08-15T08:15:41Z</time>
      </trkpt>
      <trkpt lat="44.21872" lon="6.91766">
        <ele>1788</ele>
        <time>2010-08-15T08:15:42Z</time>
      </trkpt>
      <trkpt lat="44.2187" lon="6.91766">
        <ele>1788</ele>
        <time>2010-08-15T08:15:43Z</time>
      </trkpt>
      <trkpt lat="44.21867" lon="6.91766">
        <ele>1788</ele>
        <time>2010-08-15T08:15:44Z</time>
      </trkpt>
      <trkpt lat="44.21864" lon="6.91766">
        <ele>1789</ele>
        <time>2010-08-15T08:15:45Z</time>
      </trkpt>
      <trkpt lat="44.21862" lon="6.91766">
        <ele>1789</ele>
        <time>2010-08-15T08:15:46Z</time>
      </trkpt>
      <trkpt lat="44.21859" lon="6.91765">
        <ele>1789</ele>
        <time>2010-08-15T08:15:47Z</time>
      </trkpt>
      <trkpt lat="44.21856" lon="6.91764">
        <ele>1790</ele>
        <time>2010-08-15T08:15:48Z</time>
      </trkpt>
      <trkpt lat="44.21854" lon="6.91764">
        <ele>1790</ele>
        <time>2010-08-15T08:15:49Z</time>
      </trkpt>
      <trkpt lat="44.21852" lon="6.91763">
        <ele>1791</ele>
        <time>2010-08-15T08:15:50Z</time>
      </trkpt>
      <trkpt lat="44.2185" lon="6.91763">
        <ele>1791</ele>
        <time>2010-08-15T08:15:51Z</time>
      </trkpt>
      <trkpt lat="44.21848" lon="6.91763">
        <ele>1792</ele>
        <time>2010-08-15T08:15:52Z</time>
      </trkpt>
      <trkpt lat="44.21845" lon="6.91764">
        <ele>1792</ele>
        <time>2010-08-15T08:15:53Z</time>
      </trkpt>
      <trkpt lat="44.21844" lon="6.91764">
        <ele>1792</ele>
        <time>2010-08-15T08:15:54Z</time>
      </trkpt>
      <trkpt lat="44.21842" lon="6.91764">
        <ele>1792</ele>
        <time>2010-08-15T08:15:55Z</time>
      </trkpt>
      <trkpt lat="44.21841" lon="6.91765">
        <ele>1792</ele>
        <time>2010-08-15T08:15:56Z</time>
      </trkpt>
      <trkpt lat="44.2184" lon="6.91765">
        <ele>1792</ele>
        <time>2010-08-15T08:15:57Z</time>
      </trkpt>
      <trkpt lat="44.21838" lon="6.91765">
        <ele>1793</ele>
        <time>2010-08-15T08:15:58Z</time>
      </trkpt>
      <trkpt lat="44.21837" lon="6.91765">
        <ele>1793</ele>
        <time>2010-08-15T08:15:59Z</time>
      </trkpt>
      <trkpt lat="44.21836" lon="6.91765">
        <ele>1793</ele>
        <time>2010-08-15T08:16:00Z</time>
      </trkpt>
      <trkpt lat="44.21834" lon="6.91764">
        <ele>1793</ele>
        <time>2010-08-15T08:16:01Z</time>
      </trkpt>
      <trkpt lat="44.21833" lon="6.91764">
        <ele>1794</ele>
        <time>2010-08-15T08:16:02Z</time>
      </trkpt>
      <trkpt lat="44.21832" lon="6.91763">
        <ele>1794</ele>
        <time>2010-08-15T08:16:03Z</time>
      </trkpt>
      <trkpt lat="44.21831" lon="6.91763">
        <ele>1794</ele>
        <time>2010-08-15T08:16:04Z</time>
      </trkpt>
      <trkpt lat="44.2183" lon="6.91762">
        <ele>1794</ele>
        <time>2010-08-15T08:16:05Z</time>
      </trkpt>
      <trkpt lat="44.21828" lon="6.91761">
        <ele>1794</ele>
        <time>2010-08-15T08:16:06Z</time>
      </trkpt>
      <trkpt lat="44.21827" lon="6.91761">
        <ele>1794</ele>
        <time>2010-08-15T08:16:07Z</time>
      </trkpt>
      <trkpt lat="44.21826" lon="6.91761">
        <ele>1794</ele>
        <time>2010-08-15T08:16:08Z</time>
      </trkpt>
      <trkpt lat="44.21824" lon="6.9176">
        <ele>1794</ele>
        <time>2010-08-15T08:16:09Z</time>
      </trkpt>
      <trkpt lat="44.21823" lon="6.91759">
        <ele>1794</ele>
        <time>2010-08-15T08:16:10Z</time>
      </trkpt>
      <trkpt lat="44.21822" lon="6.91759">
        <ele>1793</ele>
        <time>2010-08-15T08:16:11Z</time>
      </trkpt>
      <trkpt lat="44.21821" lon="6.91758">
        <ele>1793</ele>
        <time>2010-08-15T08:16:12Z</time>
      </trkpt>
      <trkpt lat="44.2182" lon="6.91757">
        <ele>1793</ele>
        <time>2010-08-15T08:16:13Z</time>
      </trkpt>
      <trkpt lat="44.21819" lon="6.91756">
        <ele>1793</ele>
        <time>2010-08-15T08:16:14Z</time>
      </trkpt>
      <trkpt lat="44.21817" lon="6.91754">
        <ele>1793</ele>
        <time>2010-08-15T08:16:15Z</time>
      </trkpt>
      <trkpt lat="44.21816" lon="6.91752">
        <ele>1793</ele>
        <time>2010-08-15T08:16:16Z</time>
      </trkpt>
      <trkpt lat="44.21815" lon="6.9175">
        <ele>1793</ele>
        <time>2010-08-15T08:16:17Z</time>
      </trkpt>
      <trkpt lat="44.21814" lon="6.91748">
        <ele>1802</ele>
        <time>2010-08-15T08:16:18Z</time>
      </trkpt>
      <trkpt lat="44.21813" lon="6.91747">
        <ele>1802</ele>
        <time>2010-08-15T08:16:19Z</time>
      </trkpt>
      <trkpt lat="44.21812" lon="6.91746">
        <ele>1802</ele>
        <time>2010-08-15T08:16:20Z</time>
      </trkpt>
      <trkpt lat="44.21811" lon="6.91744">
        <ele>1802</ele>
        <time>2010-08-15T08:16:21Z</time>
      </trkpt>
      <trkpt lat="44.21809" lon="6.91743">
        <ele>1802</ele>
        <time>2010-08-15T08:16:22Z</time>
      </trkpt>
      <trkpt lat="44.21808" lon="6.91742">
        <ele>1802</ele>
        <time>2010-08-15T08:16:23Z</time>
      </trkpt>
      <trkpt lat="44.21807" lon="6.91741">
        <ele>1802</ele>
        <time>2010-08-15T08:16:24Z</time>
      </trkpt>
      <trkpt lat="44.21805" lon="6.9174">
        <ele>1803</ele>
        <time>2010-08-15T08:16:25Z</time>
      </trkpt>
      <trkpt lat="44.21804" lon="6.91738">
        <ele>1803</ele>
        <time>2010-08-15T08:16:26Z</time>
      </trkpt>
      <trkpt lat="44.21803" lon="6.91737">
        <ele>1803</ele>
        <time>2010-08-15T08:16:27Z</time>
      </trkpt>
      <trkpt lat="44.21801" lon="6.91736">
        <ele>1803</ele>
        <time>2010-08-15T08:16:28Z</time>
      </trkpt>
      <trkpt lat="44.21799" lon="6.91736">
        <ele>1803</ele>
        <time>2010-08-15T08:16:29Z</time>
      </trkpt>
      <trkpt lat="44.21798" lon="6.91735">
        <ele>1803</ele>
        <time>2010-08-15T08:16:30Z</time>
      </trkpt>
      <trkpt lat="44.21797" lon="6.91734">
        <ele>1803</ele>
        <time>2010-08-15T08:16:31Z</time>
      </trkpt>
      <trkpt lat="44.21796" lon="6.91733">
        <ele>1803</ele>
        <time>2010-08-15T08:16:32Z</time>
      </trkpt>
      <trkpt lat="44.21794" lon="6.91732">
        <ele>1803</ele>
        <time>2010-08-15T08:16:33Z</time>
      </trkpt>
      <trkpt lat="44.21793" lon="6.9173">
        <ele>1803</ele>
        <time>2010-08-15T08:16:34Z</time>
      </trkpt>
      <trkpt lat="44.21791" lon="6.91729">
        <ele>1803</ele>
        <time>2010-08-15T08:16:35Z</time>
      </trkpt>
      <trkpt lat="44.2179" lon="6.91728">
        <ele>1803</ele>
        <time>2010-08-15T08:16:36Z</time>
      </trkpt>
      <trkpt lat="44.21788" lon="6.91726">
        <ele>1803</ele>
        <time>2010-08-15T08:16:37Z</time>
      </trkpt>
      <trkpt lat="44.21787" lon="6.91725">
        <ele>1803</ele>
        <time>2010-08-15T08:16:38Z</time>
      </trkpt>
      <trkpt lat="44.21786" lon="6.91724">
        <ele>1803</ele>
        <time>2010-08-15T08:16:39Z</time>
      </trkpt>
      <trkpt lat="44.21785" lon="6.91723">
        <ele>1804</ele>
        <time>2010-08-15T08:16:40Z</time>
      </trkpt>
      <trkpt lat="44.21783" lon="6.91721">
        <ele>1804</ele>
        <time>2010-08-15T08:16:41Z</time>
      </trkpt>
      <trkpt lat="44.21782" lon="6.9172">
        <ele>1804</ele>
        <time>2010-08-15T08:16:42Z</time>
      </trkpt>
      <trkpt lat="44.21781" lon="6.91718">
        <ele>1804</ele>
        <time>2010-08-15T08:16:43Z</time>
      </trkpt>
      <trkpt lat="44.21779" lon="6.91717">
        <ele>1804</ele>
        <time>2010-08-15T08:16:44Z</time>
      </trkpt>
      <trkpt lat="44.21778" lon="6.91716">
        <ele>1804</ele>
        <time>2010-08-15T08:16:45Z</time>
      </trkpt>
      <trkpt lat="44.21777" lon="6.91715">
        <ele>1804</ele>
        <time>2010-08-15T08:16:46Z</time>
      </trkpt>
      <trkpt lat="44.21775" lon="6.91713">
        <ele>1804</ele>
        <time>2010-08-15T08:16:47Z</time>
      </trkpt>
      <trkpt lat="44.21774" lon="6.91713">
        <ele>1804</ele>
        <time>2010-08-15T08:16:48Z</time>
      </trkpt>
      <trkpt lat="44.21772" lon="6.91712">
        <ele>1805</ele>
        <time>2010-08-15T08:16:49Z</time>
      </trkpt>
      <trkpt lat="44.21771" lon="6.9171">
        <ele>1805</ele>
        <time>2010-08-15T08:16:50Z</time>
      </trkpt>
      <trkpt lat="44.21769" lon="6.91708">
        <ele>1805</ele>
        <time>2010-08-15T08:16:51Z</time>
      </trkpt>
      <trkpt lat="44.21767" lon="6.91706">
        <ele>1805</ele>
        <time>2010-08-15T08:16:52Z</time>
      </trkpt>
      <trkpt lat="44.21765" lon="6.91703">
        <ele>1806</ele>
        <time>2010-08-15T08:16:53Z</time>
      </trkpt>
      <trkpt lat="44.21763" lon="6.91701">
        <ele>1806</ele>
        <time>2010-08-15T08:16:54Z</time>
      </trkpt>
      <trkpt lat="44.21762" lon="6.91699">
        <ele>1806</ele>
        <time>2010-08-15T08:16:55Z</time>
      </trkpt>
      <trkpt lat="44.2176" lon="6.91696">
        <ele>1807</ele>
        <time>2010-08-15T08:16:56Z</time>
      </trkpt>
      <trkpt lat="44.21758" lon="6.91694">
        <ele>1807</ele>
        <time>2010-08-15T08:16:57Z</time>
      </trkpt>
      <trkpt lat="44.21756" lon="6.91691">
        <ele>1808</ele>
        <time>2010-08-15T08:16:58Z</time>
      </trkpt>
      <trkpt lat="44.21754" lon="6.91689">
        <ele>1808</ele>
        <time>2010-08-15T08:16:59Z</time>
      </trkpt>
      <trkpt lat="44.21752" lon="6.91687">
        <ele>1809</ele>
        <time>2010-08-15T08:17:00Z</time>
      </trkpt>
      <trkpt lat="44.21751" lon="6.91684">
        <ele>1809</ele>
        <time>2010-08-15T08:17:01Z</time>
      </trkpt>
      <trkpt lat="44.21749" lon="6.91682">
        <ele>1810</ele>
        <time>2010-08-15T08:17:02Z</time>
      </trkpt>
      <trkpt lat="44.21748" lon="6.9168">
        <ele>1810</ele>
        <time>2010-08-15T08:17:03Z</time>
      </trkpt>
      <trkpt lat="44.21746" lon="6.91678">
        <ele>1810</ele>
        <time>2010-08-15T08:17:04Z</time>
      </trkpt>
      <trkpt lat="44.21744" lon="6.91676">
        <ele>1811</ele>
        <time>2010-08-15T08:17:05Z</time>
      </trkpt>
      <trkpt lat="44.21743" lon="6.91674">
        <ele>1811</ele>
        <time>2010-08-15T08:17:06Z</time>
      </trkpt>
      <trkpt lat="44.21741" lon="6.91673">
        <ele>1811</ele>
        <time>2010-08-15T08:17:07Z</time>
      </trkpt>
      <trkpt lat="44.21739" lon="6.91671">
        <ele>1811</ele>
        <time>2010-08-15T08:17:08Z</time>
      </trkpt>
      <trkpt lat="44.21738" lon="6.91669">
        <ele>1811</ele>
        <time>2010-08-15T08:17:09Z</time>
      </trkpt>
      <trkpt lat="44.21737" lon="6.91667">
        <ele>1818</ele>
        <time>2010-08-15T08:17:10Z</time>
      </trkpt>
      <trkpt lat="44.21735" lon="6.91664">
        <ele>1818</ele>
        <time>2010-08-15T08:17:11Z</time>
      </trkpt>
      <trkpt lat="44.21734" lon="6.91663">
        <ele>1818</ele>
        <time>2010-08-15T08:17:12Z</time>
      </trkpt>
      <trkpt lat="44.21732" lon="6.91661">
        <ele>1819</ele>
        <time>2010-08-15T08:17:13Z</time>
      </trkpt>
      <trkpt lat="44.21731" lon="6.91659">
        <ele>1819</ele>
        <time>2010-08-15T08:17:14Z</time>
      </trkpt>
      <trkpt lat="44.21729" lon="6.91657">
        <ele>1819</ele>
        <time>2010-08-15T08:17:15Z</time>
      </trkpt>
      <trkpt lat="44.21728" lon="6.91655">
        <ele>1820</ele>
        <time>2010-08-15T08:17:16Z</time>
      </trkpt>
      <trkpt lat="44.21727" lon="6.91653">
        <ele>1820</ele>
        <time>2010-08-15T08:17:17Z</time>
      </trkpt>
      <trkpt lat="44.21726" lon="6.91651">
        <ele>1820</ele>
        <time>2010-08-15T08:17:18Z</time>
      </trkpt>
      <trkpt lat="44.21724" lon="6.91649">
        <ele>1821</ele>
        <time>2010-08-15T08:17:19Z</time>
      </trkpt>
      <trkpt lat="44.21723" lon="6.91646">
        <ele>1821</ele>
        <time>2010-08-15T08:17:20Z</time>
      </trkpt>
      <trkpt lat="44.21722" lon="6.91644">
        <ele>1821</ele>
        <time>2010-08-15T08:17:21Z</time>
      </trkpt>
      <trkpt lat="44.21721" lon="6.91642">
        <ele>1822</ele>
        <time>2010-08-15T08:17:22Z</time>
      </trkpt>
      <trkpt lat="44.21719" lon="6.91641">
        <ele>1822</ele>
        <time>2010-08-15T08:17:23Z</time>
      </trkpt>
      <trkpt lat="44.21717" lon="6.91639">
        <ele>1822</ele>
        <time>2010-08-15T08:17:24Z</time>
      </trkpt>
      <trkpt lat="44.21716" lon="6.91637">
        <ele>1822</ele>
        <time>2010-08-15T08:17:25Z</time>
      </trkpt>
      <trkpt lat="44.21714" lon="6.91635">
        <ele>1823</ele>
        <time>2010-08-15T08:17:26Z</time>
      </trkpt>
      <trkpt lat="44.21713" lon="6.91633">
        <ele>1823</ele>
        <time>2010-08-15T08:17:27Z</time>
      </trkpt>
      <trkpt lat="44.21711" lon="6.91631">
        <ele>1823</ele>
        <time>2010-08-15T08:17:28Z</time>
      </trkpt>
      <trkpt lat="44.21709" lon="6.9163">
        <ele>1823</ele>
        <time>2010-08-15T08:17:29Z</time>
      </trkpt>
      <trkpt lat="44.21708" lon="6.91628">
        <ele>1824</ele>
        <time>2010-08-15T08:17:30Z</time>
      </trkpt>
      <trkpt lat="44.21706" lon="6.91626">
        <ele>1824</ele>
        <time>2010-08-15T08:17:31Z</time>
      </trkpt>
      <trkpt lat="44.21705" lon="6.91624">
        <ele>1824</ele>
        <time>2010-08-15T08:17:32Z</time>
      </trkpt>
      <trkpt lat="44.21703" lon="6.91623">
        <ele>1825</ele>
        <time>2010-08-15T08:17:33Z</time>
      </trkpt>
      <trkpt lat="44.21702" lon="6.91621">
        <ele>1825</ele>
        <time>2010-08-15T08:17:34Z</time>
      </trkpt>
      <trkpt lat="44.217" lon="6.91619">
        <ele>1825</ele>
        <time>2010-08-15T08:17:35Z</time>
      </trkpt>
      <trkpt lat="44.21699" lon="6.91618">
        <ele>1825</ele>
        <time>2010-08-15T08:17:36Z</time>
      </trkpt>
      <trkpt lat="44.21697" lon="6.91616">
        <ele>1826</ele>
        <time>2010-08-15T08:17:37Z</time>
      </trkpt>
      <trkpt lat="44.21695" lon="6.91615">
        <ele>1826</ele>
        <time>2010-08-15T08:17:38Z</time>
      </trkpt>
      <trkpt lat="44.21693" lon="6.91614">
        <ele>1826</ele>
        <time>2010-08-15T08:17:39Z</time>
      </trkpt>
      <trkpt lat="44.21692" lon="6.91613">
        <ele>1827</ele>
        <time>2010-08-15T08:17:40Z</time>
      </trkpt>
      <trkpt lat="44.2169" lon="6.91612">
        <ele>1827</ele>
        <time>2010-08-15T08:17:41Z</time>
      </trkpt>
      <trkpt lat="44.21689" lon="6.91612">
        <ele>1827</ele>
        <time>2010-08-15T08:17:42Z</time>
      </trkpt>
      <trkpt lat="44.21687" lon="6.91611">
        <ele>1827</ele>
        <time>2010-08-15T08:17:43Z</time>
      </trkpt>
      <trkpt lat="44.21686" lon="6.91611">
        <ele>1828</ele>
        <time>2010-08-15T08:17:44Z</time>
      </trkpt>
      <trkpt lat="44.21685" lon="6.91609">
        <ele>1828</ele>
        <time>2010-08-15T08:17:45Z</time>
      </trkpt>
      <trkpt lat="44.21684" lon="6.91608">
        <ele>1828</ele>
        <time>2010-08-15T08:17:46Z</time>
      </trkpt>
      <trkpt lat="44.21683" lon="6.91606">
        <ele>1829</ele>
        <time>2010-08-15T08:17:47Z</time>
      </trkpt>
      <trkpt lat="44.21683" lon="6.91605">
        <ele>1829</ele>
        <time>2010-08-15T08:17:48Z</time>
      </trkpt>
      <trkpt lat="44.21683" lon="6.91603">
        <ele>1830</ele>
        <time>2010-08-15T08:17:49Z</time>
      </trkpt>
      <trkpt lat="44.21683" lon="6.91602">
        <ele>1830</ele>
        <time>2010-08-15T08:17:50Z</time>
      </trkpt>
      <trkpt lat="44.21683" lon="6.916">
        <ele>1830</ele>
        <time>2010-08-15T08:17:51Z</time>
      </trkpt>
      <trkpt lat="44.21684" lon="6.91598">
        <ele>1831</ele>
        <time>2010-08-15T08:17:52Z</time>
      </trkpt>
      <trkpt lat="44.21684" lon="6.91597">
        <ele>1831</ele>
        <time>2010-08-15T08:17:53Z</time>
      </trkpt>
      <trkpt lat="44.21685" lon="6.91596">
        <ele>1831</ele>
        <time>2010-08-15T08:17:54Z</time>
      </trkpt>
      <trkpt lat="44.21686" lon="6.91594">
        <ele>1831</ele>
        <time>2010-08-15T08:17:55Z</time>
      </trkpt>
      <trkpt lat="44.21687" lon="6.91593">
        <ele>1831</ele>
        <time>2010-08-15T08:17:56Z</time>
      </trkpt>
      <trkpt lat="44.21689" lon="6.91592">
        <ele>1830</ele>
        <time>2010-08-15T08:17:57Z</time>
      </trkpt>
      <trkpt lat="44.2169" lon="6.91591">
        <ele>1830</ele>
        <time>2010-08-15T08:17:58Z</time>
      </trkpt>
      <trkpt lat="44.21692" lon="6.9159">
        <ele>1830</ele>
        <time>2010-08-15T08:17:59Z</time>
      </trkpt>
      <trkpt lat="44.21693" lon="6.91589">
        <ele>1830</ele>
        <time>2010-08-15T08:18:00Z</time>
      </trkpt>
      <trkpt lat="44.21694" lon="6.91588">
        <ele>1830</ele>
        <time>2010-08-15T08:18:01Z</time>
      </trkpt>
      <trkpt lat="44.21695" lon="6.91587">
        <ele>1830</ele>
        <time>2010-08-15T08:18:02Z</time>
      </trkpt>
      <trkpt lat="44.21696" lon="6.91586">
        <ele>1830</ele>
        <time>2010-08-15T08:18:03Z</time>
      </trkpt>
      <trkpt lat="44.21697" lon="6.91584">
        <ele>1829</ele>
        <time>2010-08-15T08:18:04Z</time>
      </trkpt>
      <trkpt lat="44.21697" lon="6.91583">
        <ele>1837</ele>
        <time>2010-08-15T08:18:05Z</time>
      </trkpt>
      <trkpt lat="44.21698" lon="6.91581">
        <ele>1837</ele>
        <time>2010-08-15T08:18:06Z</time>
      </trkpt>
      <trkpt lat="44.21699" lon="6.91579">
        <ele>1837</ele>
        <time>2010-08-15T08:18:07Z</time>
      </trkpt>
      <trkpt lat="44.217" lon="6.91578">
        <ele>1837</ele>
        <time>2010-08-15T08:18:08Z</time>
      </trkpt>
      <trkpt lat="44.21701" lon="6.91576">
        <ele>1837</ele>
        <time>2010-08-15T08:18:09Z</time>
      </trkpt>
      <trkpt lat="44.21702" lon="6.91575">
        <ele>1836</ele>
        <time>2010-08-15T08:18:10Z</time>
      </trkpt>
      <trkpt lat="44.21703" lon="6.91573">
        <ele>1836</ele>
        <time>2010-08-15T08:18:11Z</time>
      </trkpt>
      <trkpt lat="44.21703" lon="6.91571">
        <ele>1836</ele>
        <time>2010-08-15T08:18:12Z</time>
      </trkpt>
      <trkpt lat="44.21704" lon="6.91569">
        <ele>1836</ele>
        <time>2010-08-15T08:18:13Z</time>
      </trkpt>
      <trkpt lat="44.21704" lon="6.91568">
        <ele>1836</ele>
        <time>2010-08-15T08:18:14Z</time>
      </trkpt>
      <trkpt lat="44.21704" lon="6.91566">
        <ele>1836</ele>
        <time>2010-08-15T08:18:15Z</time>
      </trkpt>
      <trkpt lat="44.21704" lon="6.91565">
        <ele>1836</ele>
        <time>2010-08-15T08:18:16Z</time>
      </trkpt>
      <trkpt lat="44.21704" lon="6.91563">
        <ele>1836</ele>
        <time>2010-08-15T08:18:17Z</time>
      </trkpt>
      <trkpt lat="44.21704" lon="6.91561">
        <ele>1837</ele>
        <time>2010-08-15T08:18:18Z</time>
      </trkpt>
      <trkpt lat="44.21703" lon="6.91559">
        <ele>1837</ele>
        <time>2010-08-15T08:18:19Z</time>
      </trkpt>
      <trkpt lat="44.21703" lon="6.91557">
        <ele>1837</ele>
        <time>2010-08-15T08:18:20Z</time>
      </trkpt>
      <trkpt lat="44.21703" lon="6.91555">
        <ele>1837</ele>
        <time>2010-08-15T08:18:21Z</time>
      </trkpt>
      <trkpt lat="44.21702" lon="6.91554">
        <ele>1837</ele>
        <time>2010-08-15T08:18:22Z</time>
      </trkpt>
      <trkpt lat="44.21702" lon="6.91552">
        <ele>1837</ele>
        <time>2010-08-15T08:18:23Z</time>
      </trkpt>
      <trkpt lat="44.21701" lon="6.9155">
        <ele>1837</ele>
        <time>2010-08-15T08:18:24Z</time>
      </trkpt>
      <trkpt lat="44.217" lon="6.91548">
        <ele>1837</ele>
        <time>2010-08-15T08:18:25Z</time>
      </trkpt>
      <trkpt lat="44.21699" lon="6.91547">
        <ele>1837</ele>
        <time>2010-08-15T08:18:26Z</time>
      </trkpt>
      <trkpt lat="44.21698" lon="6.91545">
        <ele>1838</ele>
        <time>2010-08-15T08:18:27Z</time>
      </trkpt>
      <trkpt lat="44.21698" lon="6.91544">
        <ele>1838</ele>
        <time>2010-08-15T08:18:28Z</time>
      </trkpt>
      <trkpt lat="44.21697" lon="6.91542">
        <ele>1838</ele>
        <time>2010-08-15T08:18:29Z</time>
      </trkpt>
      <trkpt lat="44.21696" lon="6.9154">
        <ele>1838</ele>
        <time>2010-08-15T08:18:30Z</time>
      </trkpt>
      <trkpt lat="44.21695" lon="6.91539">
        <ele>1838</ele>
        <time>2010-08-15T08:18:31Z</time>
      </trkpt>
      <trkpt lat="44.21694" lon="6.91538">
        <ele>1838</ele>
        <time>2010-08-15T08:18:32Z</time>
      </trkpt>
      <trkpt lat="44.21693" lon="6.91536">
        <ele>1838</ele>
        <time>2010-08-15T08:18:33Z</time>
      </trkpt>
      <trkpt lat="44.21692" lon="6.91535">
        <ele>1839</ele>
        <time>2010-08-15T08:18:34Z</time>
      </trkpt>
      <trkpt lat="44.21691" lon="6.91534">
        <ele>1839</ele>
        <time>2010-08-15T08:18:35Z</time>
      </trkpt>
      <trkpt lat="44.2169" lon="6.91532">
        <ele>1839</ele>
        <time>2010-08-15T08:18:36Z</time>
      </trkpt>
      <trkpt lat="44.21689" lon="6.91531">
        <ele>1839</ele>
        <time>2010-08-15T08:18:37Z</time>
      </trkpt>
      <trkpt lat="44.21688" lon="6.9153">
        <ele>1839</ele>
        <time>2010-08-15T08:18:38Z</time>
      </trkpt>
      <trkpt lat="44.21687" lon="6.91529">
        <ele>1839</ele>
        <time>2010-08-15T08:18:39Z</time>
      </trkpt>
      <trkpt lat="44.21686" lon="6.91529">
        <ele>1840</ele>
        <time>2010-08-15T08:18:40Z</time>
      </trkpt>
      <trkpt lat="44.21685" lon="6.91528">
        <ele>1840</ele>
        <time>2010-08-15T08:18:41Z</time>
      </trkpt>
      <trkpt lat="44.21684" lon="6.91527">
        <ele>1840</ele>
        <time>2010-08-15T08:18:42Z</time>
      </trkpt>
      <trkpt lat="44.21682" lon="6.91526">
        <ele>1840</ele>
        <time>2010-08-15T08:18:43Z</time>
      </trkpt>
      <trkpt lat="44.21681" lon="6.91526">
        <ele>1840</ele>
        <time>2010-08-15T08:18:44Z</time>
      </trkpt>
      <trkpt lat="44.2168" lon="6.91526">
        <ele>1840</ele>
        <time>2010-08-15T08:18:45Z</time>
      </trkpt>
      <trkpt lat="44.21678" lon="6.91526">
        <ele>1841</ele>
        <time>2010-08-15T08:18:46Z</time>
      </trkpt>
      <trkpt lat="44.21677" lon="6.91526">
        <ele>1841</ele>
        <time>2010-08-15T08:18:47Z</time>
      </trkpt>
      <trkpt lat="44.21676" lon="6.91525">
        <ele>1841</ele>
        <time>2010-08-15T08:18:48Z</time>
      </trkpt>
      <trkpt lat="44.21674" lon="6.91525">
        <ele>1841</ele>
        <time>2010-08-15T08:18:49Z</time>
      </trkpt>
      <trkpt lat="44.21673" lon="6.91525">
        <ele>1841</ele>
        <time>2010-08-15T08:18:50Z</time>
      </trkpt>
      <trkpt lat="44.21672" lon="6.91525">
        <ele>1841</ele>
        <time>2010-08-15T08:18:51Z</time>
      </trkpt>
      <trkpt lat="44.2167" lon="6.91525">
        <ele>1841</ele>
        <time>2010-08-15T08:18:52Z</time>
      </trkpt>
      <trkpt lat="44.21669" lon="6.91525">
        <ele>1841</ele>
        <time>2010-08-15T08:18:53Z</time>
      </trkpt>
      <trkpt lat="44.21668" lon="6.91525">
        <ele>1841</ele>
        <time>2010-08-15T08:18:54Z</time>
      </trkpt>
      <trkpt lat="44.21667" lon="6.91525">
        <ele>1850</ele>
        <time>2010-08-15T08:18:55Z</time>
      </trkpt>
      <trkpt lat="44.21665" lon="6.91524">
        <ele>1850</ele>
        <time>2010-08-15T08:18:56Z</time>
      </trkpt>
      <trkpt lat="44.21664" lon="6.91523">
        <ele>1850</ele>
        <time>2010-08-15T08:18:57Z</time>
      </trkpt>
      <trkpt lat="44.21663" lon="6.91523">
        <ele>1850</ele>
        <time>2010-08-15T08:18:58Z</time>
      </trkpt>
      <trkpt lat="44.21662" lon="6.91522">
        <ele>1850</ele>
        <time>2010-08-15T08:18:59Z</time>
      </trkpt>
      <trkpt lat="44.2166" lon="6.91522">
        <ele>1850</ele>
        <time>2010-08-15T08:19:00Z</time>
      </trkpt>
      <trkpt lat="44.21659" lon="6.91522">
        <ele>1850</ele>
        <time>2010-08-15T08:19:01Z</time>
      </trkpt>
      <trkpt lat="44.21658" lon="6.91522">
        <ele>1850</ele>
        <time>2010-08-15T08:19:02Z</time>
      </trkpt>
      <trkpt lat="44.21656" lon="6.91522">
        <ele>1850</ele>
        <time>2010-08-15T08:19:03Z</time>
      </trkpt>
      <trkpt lat="44.21655" lon="6.91522">
        <ele>1851</ele>
        <time>2010-08-15T08:19:04Z</time>
      </trkpt>
      <trkpt lat="44.21654" lon="6.91522">
        <ele>1851</ele>
        <time>2010-08-15T08:19:05Z</time>
      </trkpt>
      <trkpt lat="44.21653" lon="6.91521">
        <ele>1851</ele>
        <time>2010-08-15T08:19:06Z</time>
      </trkpt>
      <trkpt lat="44.21652" lon="6.91521">
        <ele>1851</ele>
        <time>2010-08-15T08:19:07Z</time>
      </trkpt>
      <trkpt lat="44.2165" lon="6.91521">
        <ele>1851</ele>
        <time>2010-08-15T08:19:08Z</time>
      </trkpt>
      <trkpt lat="44.21649" lon="6.91521">
        <ele>1851</ele>
        <time>2010-08-15T08:19:09Z</time>
      </trkpt>
      <trkpt lat="44.21647" lon="6.9152">
        <ele>1851</ele>
        <time>2010-08-15T08:19:10Z</time>
      </trkpt>
      <trkpt lat="44.21646" lon="6.9152">
        <ele>1851</ele>
        <time>2010-08-15T08:19:11Z</time>
      </trkpt>
      <trkpt lat="44.21645" lon="6.9152">
        <ele>1851</ele>
        <time>2010-08-15T08:19:12Z</time>
      </trkpt>
      <trkpt lat="44.21643" lon="6.91519">
        <ele>1851</ele>
        <time>2010-08-15T08:19:13Z</time>
      </trkpt>
      <trkpt lat="44.21642" lon="6.91519">
        <ele>1852</ele>
        <time>2010-08-15T08:19:14Z</time>
      </trkpt>
      <trkpt lat="44.21641" lon="6.91519">
        <ele>1852</ele>
        <time>2010-08-15T08:19:15Z</time>
      </trkpt>
      <trkpt lat="44.21639" lon="6.91518">
        <ele>1852</ele>
        <time>2010-08-15T08:19:16Z</time>
      </trkpt>
      <trkpt lat="44.21638" lon="6.91518">
        <ele>1852</ele>
        <time>2010-08-15T08:19:17Z</time>
      </trkpt>
      <trkpt lat="44.21637" lon="6.91517">
        <ele>1852</ele>
        <time>2010-08-15T08:19:18Z</time>
      </trkpt>
      <trkpt lat="44.21636" lon="6.91517">
        <ele>1852</ele>
        <time>2010-08-15T08:19:19Z</time>
      </trkpt>
      <trkpt lat="44.21634" lon="6.91516">
        <ele>1852</ele>
        <time>2010-08-15T08:19:20Z</time>
      </trkpt>
      <trkpt lat="44.21633" lon="6.91516">
        <ele>1852</ele>
        <time>2010-08-15T08:19:21Z</time>
      </trkpt>
      <trkpt lat="44.21632" lon="6.91515">
        <ele>1853</ele>
        <time>2010-08-15T08:19:22Z</time>
      </trkpt>
      <trkpt lat="44.21631" lon="6.91515">
        <ele>1853</ele>
        <time>2010-08-15T08:19:23Z</time>
      </trkpt>
      <trkpt lat="44.21629" lon="6.91514">
        <ele>1853</ele>
        <time>2010-08-15T08:19:24Z</time>
      </trkpt>
      <trkpt lat="44.21628" lon="6.91514">
        <ele>1853</ele>
        <time>2010-08-15T08:19:25Z</time>
      </trkpt>
      <trkpt lat="44.21627" lon="6.91514">
        <ele>1853</ele>
        <time>2010-08-15T08:19:26Z</time>
      </trkpt>
      <trkpt lat="44.21626" lon="6.91514">
        <ele>1853</ele>
        <time>2010-08-15T08:19:27Z</time>
      </trkpt>
      <trkpt lat="44.21624" lon="6.91514">
        <ele>1854</ele>
        <time>2010-08-15T08:19:28Z</time>
      </trkpt>
      <trkpt lat="44.21623" lon="6.91514">
        <ele>1854</ele>
        <time>2010-08-15T08:19:29Z</time>
      </trkpt>
      <trkpt lat="44.21622" lon="6.91514">
        <ele>1854</ele>
        <time>2010-08-15T08:19:30Z</time>
      </trkpt>
      <trkpt lat="44.2162" lon="6.91514">
        <ele>1854</ele>
        <time>2010-08-15T08:19:31Z</time>
      </trkpt>
      <trkpt lat="44.21619" lon="6.91514">
        <ele>1854</ele>
        <time>2010-08-15T08:19:32Z</time>
      </trkpt>
      <trkpt lat="44.21618" lon="6.91515">
        <ele>1854</ele>
        <time>2010-08-15T08:19:33Z</time>
      </trkpt>
      <trkpt lat="44.21616" lon="6.91515">
        <ele>1854</ele>
        <time>2010-08-15T08:19:34Z</time>
      </trkpt>
      <trkpt lat="44.21615" lon="6.91515">
        <ele>1855</ele>
        <time>2010-08-15T08:19:35Z</time>
      </trkpt>
      <trkpt lat="44.21614" lon="6.91515">
        <ele>1855</ele>
        <time>2010-08-15T08:19:36Z</time>
      </trkpt>
      <trkpt lat="44.21612" lon="6.91515">
        <ele>1855</ele>
        <time>2010-08-15T08:19:37Z</time>
      </trkpt>
      <trkpt lat="44.21611" lon="6.91515">
        <ele>1855</ele>
        <time>2010-08-15T08:19:38Z</time>
      </trkpt>
      <trkpt lat="44.2161" lon="6.91515">
        <ele>1855</ele>
        <time>2010-08-15T08:19:39Z</time>
      </trkpt>
      <trkpt lat="44.21608" lon="6.91515">
        <ele>1855</ele>
        <time>2010-08-15T08:19:40Z</time>
      </trkpt>
      <trkpt lat="44.21607" lon="6.91515">
        <ele>1856</ele>
        <time>2010-08-15T08:19:41Z</time>
      </trkpt>
      <trkpt lat="44.21606" lon="6.91515">
        <ele>1856</ele>
        <time>2010-08-15T08:19:42Z</time>
      </trkpt>
      <trkpt lat="44.21604" lon="6.91515">
        <ele>1856</ele>
        <time>2010-08-15T08:19:43Z</time>
      </trkpt>
      <trkpt lat="44.21603" lon="6.91514">
        <ele>1856</ele>
        <time>2010-08-15T08:19:44Z</time>
      </trkpt>
      <trkpt lat="44.21602" lon="6.91514">
        <ele>1856</ele>
        <time>2010-08-15T08:19:45Z</time>
      </trkpt>
      <trkpt lat="44.216" lon="6.91513">
        <ele>1857</ele>
        <time>2010-08-15T08:19:46Z</time>
      </trkpt>
      <trkpt lat="44.21599" lon="6.91513">
        <ele>1857</ele>
        <time>2010-08-15T08:19:47Z</time>
      </trkpt>
      <trkpt lat="44.21598" lon="6.91512">
        <ele>1857</ele>
        <time>2010-08-15T08:19:48Z</time>
      </trkpt>
      <trkpt lat="44.21596" lon="6.91511">
        <ele>1857</ele>
        <time>2010-08-15T08:19:49Z</time>
      </trkpt>
      <trkpt lat="44.21595" lon="6.9151">
        <ele>1858</ele>
        <time>2010-08-15T08:19:50Z</time>
      </trkpt>
      <trkpt lat="44.21594" lon="6.9151">
        <ele>1858</ele>
        <time>2010-08-15T08:19:51Z</time>
      </trkpt>
      <trkpt lat="44.21593" lon="6.91509">
        <ele>1858</ele>
        <time>2010-08-15T08:19:52Z</time>
      </trkpt>
      <trkpt lat="44.21592" lon="6.91508">
        <ele>1859</ele>
        <time>2010-08-15T08:19:53Z</time>
      </trkpt>
      <trkpt lat="44.2159" lon="6.91507">
        <ele>1859</ele>
        <time>2010-08-15T08:19:54Z</time>
      </trkpt>
      <trkpt lat="44.21589" lon="6.91507">
        <ele>1859</ele>
        <time>2010-08-15T08:19:55Z</time>
      </trkpt>
      <trkpt lat="44.21588" lon="6.91506">
        <ele>1860</ele>
        <time>2010-08-15T08:19:56Z</time>
      </trkpt>
      <trkpt lat="44.21587" lon="6.91505">
        <ele>1860</ele>
        <time>2010-08-15T08:19:57Z</time>
      </trkpt>
      <trkpt lat="44.21585" lon="6.91504">
        <ele>1860</ele>
        <time>2010-08-15T08:19:58Z</time>
      </trkpt>
      <trkpt lat="44.21584" lon="6.91504">
        <ele>1861</ele>
        <time>2010-08-15T08:19:59Z</time>
      </trkpt>
      <trkpt lat="44.21583" lon="6.91503">
        <ele>1864</ele>
        <time>2010-08-15T08:20:00Z</time>
      </trkpt>
      <trkpt lat="44.21582" lon="6.91502">
        <ele>1864</ele>
        <time>2010-08-15T08:20:01Z</time>
      </trkpt>
      <trkpt lat="44.2158" lon="6.91502">
        <ele>1864</ele>
        <time>2010-08-15T08:20:02Z</time>
      </trkpt>
      <trkpt lat="44.21579" lon="6.91501">
        <ele>1865</ele>
        <time>2010-08-15T08:20:03Z</time>
      </trkpt>
      <trkpt lat="44.21578" lon="6.915">
        <ele>1865</ele>
        <time>2010-08-15T08:20:04Z</time>
      </trkpt>
      <trkpt lat="44.21576" lon="6.915">
        <ele>1866</ele>
        <time>2010-08-15T08:20:05Z</time>
      </trkpt>
      <trkpt lat="44.21575" lon="6.91499">
        <ele>1866</ele>
        <time>2010-08-15T08:20:06Z</time>
      </trkpt>
      <trkpt lat="44.21574" lon="6.91499">
        <ele>1867</ele>
        <time>2010-08-15T08:20:07Z</time>
      </trkpt>
      <trkpt lat="44.21573" lon="6.91498">
        <ele>1867</ele>
        <time>2010-08-15T08:20:08Z</time>
      </trkpt>
      <trkpt lat="44.21571" lon="6.91498">
        <ele>1868</ele>
        <time>2010-08-15T08:20:09Z</time>
      </trkpt>
      <trkpt lat="44.2157" lon="6.91497">
        <ele>1869</ele>
        <time>2010-08-15T08:20:10Z</time>
      </trkpt>
      <trkpt lat="44.21568" lon="6.91496">
        <ele>1869</ele>
        <time>2010-08-15T08:20:11Z</time>
      </trkpt>
      <trkpt lat="44.21567" lon="6.91496">
        <ele>1870</ele>
        <time>2010-08-15T08:20:12Z</time>
      </trkpt>
      <trkpt lat="44.21566" lon="6.91496">
        <ele>1870</ele>
        <time>2010-08-15T08:20:13Z</time>
      </trkpt>
      <trkpt lat="44.21564" lon="6.91495">
        <ele>1871</ele>
        <time>2010-08-15T08:20:14Z</time>
      </trkpt>
      <trkpt lat="44.21563" lon="6.91495">
        <ele>1871</ele>
        <time>2010-08-15T08:20:15Z</time>
      </trkpt>
      <trkpt lat="44.21561" lon="6.91494">
        <ele>1871</ele>
        <time>2010-08-15T08:20:16Z</time>
      </trkpt>
      <trkpt lat="44.2156" lon="6.91494">
        <ele>1872</ele>
        <time>2010-08-15T08:20:17Z</time>
      </trkpt>
      <trkpt lat="44.21558" lon="6.91493">
        <ele>1872</ele>
        <time>2010-08-15T08:20:18Z</time>
      </trkpt>
      <trkpt lat="44.21556" lon="6.91493">
        <ele>1873</ele>
        <time>2010-08-15T08:20:19Z</time>
      </trkpt>
      <trkpt lat="44.21555" lon="6.91493">
        <ele>1873</ele>
        <time>2010-08-15T08:20:20Z</time>
      </trkpt>
      <trkpt lat="44.21553" lon="6.91492">
        <ele>1874</ele>
        <time>2010-08-15T08:20:21Z</time>
      </trkpt>
      <trkpt lat="44.21552" lon="6.91492">
        <ele>1874</ele>
        <time>2010-08-15T08:20:22Z</time>
      </trkpt>
      <trkpt lat="44.2155" lon="6.91492">
        <ele>1875</ele>
        <time>2010-08-15T08:20:23Z</time>
      </trkpt>
      <trkpt lat="44.21548" lon="6.91492">
        <ele>1875</ele>
        <time>2010-08-15T08:20:24Z</time>
      </trkpt>
      <trkpt lat="44.21547" lon="6.91492">
        <ele>1875</ele>
        <time>2010-08-15T08:20:25Z</time>
      </trkpt>
      <trkpt lat="44.21546" lon="6.91491">
        <ele>1876</ele>
        <time>2010-08-15T08:20:26Z</time>
      </trkpt>
      <trkpt lat="44.21544" lon="6.91491">
        <ele>1876</ele>
        <time>2010-08-15T08:20:27Z</time>
      </trkpt>
      <trkpt lat="44.21543" lon="6.91491">
        <ele>1876</ele>
        <time>2010-08-15T08:20:28Z</time>
      </trkpt>
      <trkpt lat="44.21541" lon="6.9149">
        <ele>1877</ele>
        <time>2010-08-15T08:20:29Z</time>
      </trkpt>
      <trkpt lat="44.2154" lon="6.91489">
        <ele>1877</ele>
        <time>2010-08-15T08:20:30Z</time>
      </trkpt>
      <trkpt lat="44.21539" lon="6.91489">
        <ele>1877</ele>
        <time>2010-08-15T08:20:31Z</time>
      </trkpt>
      <trkpt lat="44.21538" lon="6.91488">
        <ele>1878</ele>
        <time>2010-08-15T08:20:32Z</time>
      </trkpt>
      <trkpt lat="44.21537" lon="6.91486">
        <ele>1878</ele>
        <time>2010-08-15T08:20:33Z</time>
      </trkpt>
      <trkpt lat="44.21536" lon="6.91485">
        <ele>1878</ele>
        <time>2010-08-15T08:20:34Z</time>
      </trkpt>
      <trkpt lat="44.21535" lon="6.91484">
        <ele>1878</ele>
        <time>2010-08-15T08:20:35Z</time>
      </trkpt>
      <trkpt lat="44.21534" lon="6.91482">
        <ele>1878</ele>
        <time>2010-08-15T08:20:36Z</time>
      </trkpt>
      <trkpt lat="44.21533" lon="6.91481">
        <ele>1878</ele>
        <time>2010-08-15T08:20:37Z</time>
      </trkpt>
      <trkpt lat="44.21532" lon="6.91479">
        <ele>1879</ele>
        <time>2010-08-15T08:20:38Z</time>
      </trkpt>
      <trkpt lat="44.21531" lon="6.91478">
        <ele>1879</ele>
        <time>2010-08-15T08:20:39Z</time>
      </trkpt>
      <trkpt lat="44.21529" lon="6.91477">
        <ele>1879</ele>
        <time>2010-08-15T08:20:40Z</time>
      </trkpt>
      <trkpt lat="44.21528" lon="6.91476">
        <ele>1879</ele>
        <time>2010-08-15T08:20:41Z</time>
      </trkpt>
      <trkpt lat="44.21527" lon="6.91475">
        <ele>1879</ele>
        <time>2010-08-15T08:20:42Z</time>
      </trkpt>
      <trkpt lat="44.21526" lon="6.91473">
        <ele>1879</ele>
        <time>2010-08-15T08:20:43Z</time>
      </trkpt>
      <trkpt lat="44.21524" lon="6.91471">
        <ele>1880</ele>
        <time>2010-08-15T08:20:44Z</time>
      </trkpt>
      <trkpt lat="44.21523" lon="6.9147">
        <ele>1880</ele>
        <time>2010-08-15T08:20:45Z</time>
      </trkpt>
      <trkpt lat="44.21522" lon="6.91468">
        <ele>1880</ele>
        <time>2010-08-15T08:20:46Z</time>
      </trkpt>
      <trkpt lat="44.21521" lon="6.91467">
        <ele>1880</ele>
        <time>2010-08-15T08:20:47Z</time>
      </trkpt>
      <trkpt lat="44.21521" lon="6.91466">
        <ele>1880</ele>
        <time>2010-08-15T08:20:48Z</time>
      </trkpt>
      <trkpt lat="44.21519" lon="6.91464">
        <ele>1880</ele>
        <time>2010-08-15T08:20:49Z</time>
      </trkpt>
      <trkpt lat="44.21519" lon="6.91462">
        <ele>1880</ele>
        <time>2010-08-15T08:20:50Z</time>
      </trkpt>
      <trkpt lat="44.21518" lon="6.91461">
        <ele>1880</ele>
        <time>2010-08-15T08:20:51Z</time>
      </trkpt>
      <trkpt lat="44.21518" lon="6.91459">
        <ele>1880</ele>
        <time>2010-08-15T08:20:52Z</time>
      </trkpt>
      <trkpt lat="44.21517" lon="6.91458">
        <ele>1880</ele>
        <time>2010-08-15T08:20:53Z</time>
      </trkpt>
      <trkpt lat="44.21517" lon="6.91457">
        <ele>1880</ele>
        <time>2010-08-15T08:20:54Z</time>
      </trkpt>
      <trkpt lat="44.21517" lon="6.91455">
        <ele>1880</ele>
        <time>2010-08-15T08:20:55Z</time>
      </trkpt>
      <trkpt lat="44.21516" lon="6.91454">
        <ele>1880</ele>
        <time>2010-08-15T08:20:56Z</time>
      </trkpt>
      <trkpt lat="44.21516" lon="6.91452">
        <ele>1880</ele>
        <time>2010-08-15T08:20:57Z</time>
      </trkpt>
      <trkpt lat="44.21515" lon="6.9145">
        <ele>1880</ele>
        <time>2010-08-15T08:20:58Z</time>
      </trkpt>
      <trkpt lat="44.21514" lon="6.91448">
        <ele>1880</ele>
        <time>2010-08-15T08:20:59Z</time>
      </trkpt>
      <trkpt lat="44.21513" lon="6.91447">
        <ele>1880</ele>
        <time>2010-08-15T08:21:00Z</time>
      </trkpt>
      <trkpt lat="44.21513" lon="6.91445">
        <ele>1880</ele>
        <time>2010-08-15T08:21:01Z</time>
      </trkpt>
      <trkpt lat="44.21512" lon="6.91443">
        <ele>1880</ele>
        <time>2010-08-15T08:21:02Z</time>
      </trkpt>
      <trkpt lat="44.21512" lon="6.91442">
        <ele>1880</ele>
        <time>2010-08-15T08:21:03Z</time>
      </trkpt>
      <trkpt lat="44.21511" lon="6.9144">
        <ele>1880</ele>
        <time>2010-08-15T08:21:04Z</time>
      </trkpt>
      <trkpt lat="44.2151" lon="6.91439">
        <ele>1880</ele>
        <time>2010-08-15T08:21:05Z</time>
      </trkpt>
      <trkpt lat="44.2151" lon="6.91437">
        <ele>1881</ele>
        <time>2010-08-15T08:21:06Z</time>
      </trkpt>
      <trkpt lat="44.2151" lon="6.91436">
        <ele>1881</ele>
        <time>2010-08-15T08:21:07Z</time>
      </trkpt>
      <trkpt lat="44.2151" lon="6.91434">
        <ele>1881</ele>
        <time>2010-08-15T08:21:08Z</time>
      </trkpt>
      <trkpt lat="44.2151" lon="6.91433">
        <ele>1881</ele>
        <time>2010-08-15T08:21:09Z</time>
      </trkpt>
      <trkpt lat="44.2151" lon="6.91432">
        <ele>1881</ele>
        <time>2010-08-15T08:21:10Z</time>
      </trkpt>
      <trkpt lat="44.21509" lon="6.9143">
        <ele>1881</ele>
        <time>2010-08-15T08:21:11Z</time>
      </trkpt>
      <trkpt lat="44.21509" lon="6.91429">
        <ele>1881</ele>
        <time>2010-08-15T08:21:12Z</time>
      </trkpt>
      <trkpt lat="44.21509" lon="6.91427">
        <ele>1882</ele>
        <time>2010-08-15T08:21:13Z</time>
      </trkpt>
      <trkpt lat="44.21508" lon="6.91426">
        <ele>1882</ele>
        <time>2010-08-15T08:21:14Z</time>
      </trkpt>
      <trkpt lat="44.21508" lon="6.91425">
        <ele>1882</ele>
        <time>2010-08-15T08:21:15Z</time>
      </trkpt>
      <trkpt lat="44.21507" lon="6.91423">
        <ele>1882</ele>
        <time>2010-08-15T08:21:16Z</time>
      </trkpt>
      <trkpt lat="44.21506" lon="6.91422">
        <ele>1883</ele>
        <time>2010-08-15T08:21:17Z</time>
      </trkpt>
      <trkpt lat="44.21506" lon="6.9142">
        <ele>1883</ele>
        <time>2010-08-15T08:21:18Z</time>
      </trkpt>
      <trkpt lat="44.21505" lon="6.91418">
        <ele>1883</ele>
        <time>2010-08-15T08:21:19Z</time>
      </trkpt>
      <trkpt lat="44.21505" lon="6.91416">
        <ele>1884</ele>
        <time>2010-08-15T08:21:20Z</time>
      </trkpt>
      <trkpt lat="44.21505" lon="6.91413">
        <ele>1884</ele>
        <time>2010-08-15T08:21:21Z</time>
      </trkpt>
      <trkpt lat="44.21504" lon="6.91411">
        <ele>1883</ele>
        <time>2010-08-15T08:21:22Z</time>
      </trkpt>
      <trkpt lat="44.21504" lon="6.9141">
        <ele>1883</ele>
        <time>2010-08-15T08:21:23Z</time>
      </trkpt>
      <trkpt lat="44.21503" lon="6.91408">
        <ele>1883</ele>
        <time>2010-08-15T08:21:24Z</time>
      </trkpt>
      <trkpt lat="44.21503" lon="6.91406">
        <ele>1883</ele>
        <time>2010-08-15T08:21:25Z</time>
      </trkpt>
      <trkpt lat="44.21503" lon="6.91405">
        <ele>1883</ele>
        <time>2010-08-15T08:21:26Z</time>
      </trkpt>
      <trkpt lat="44.21502" lon="6.91402">
        <ele>1882</ele>
        <time>2010-08-15T08:21:27Z</time>
      </trkpt>
      <trkpt lat="44.21501" lon="6.914">
        <ele>1882</ele>
        <time>2010-08-15T08:21:28Z</time>
      </trkpt>
      <trkpt lat="44.21501" lon="6.91398">
        <ele>1882</ele>
        <time>2010-08-15T08:21:29Z</time>
      </trkpt>
      <trkpt lat="44.215" lon="6.91396">
        <ele>1882</ele>
        <time>2010-08-15T08:21:30Z</time>
      </trkpt>
      <trkpt lat="44.215" lon="6.91395">
        <ele>1895</ele>
        <time>2010-08-15T08:21:31Z</time>
      </trkpt>
      <trkpt lat="44.21498" lon="6.91392">
        <ele>1895</ele>
        <time>2010-08-15T08:21:32Z</time>
      </trkpt>
      <trkpt lat="44.21497" lon="6.91389">
        <ele>1896</ele>
        <time>2010-08-15T08:21:33Z</time>
      </trkpt>
      <trkpt lat="44.21496" lon="6.91387">
        <ele>1896</ele>
        <time>2010-08-15T08:21:34Z</time>
      </trkpt>
      <trkpt lat="44.21495" lon="6.91384">
        <ele>1897</ele>
        <time>2010-08-15T08:21:35Z</time>
      </trkpt>
      <trkpt lat="44.21494" lon="6.91381">
        <ele>1897</ele>
        <time>2010-08-15T08:21:36Z</time>
      </trkpt>
      <trkpt lat="44.21493" lon="6.91379">
        <ele>1897</ele>
        <time>2010-08-15T08:21:37Z</time>
      </trkpt>
      <trkpt lat="44.21492" lon="6.91376">
        <ele>1897</ele>
        <time>2010-08-15T08:21:38Z</time>
      </trkpt>
      <trkpt lat="44.21492" lon="6.91374">
        <ele>1897</ele>
        <time>2010-08-15T08:21:39Z</time>
      </trkpt>
      <trkpt lat="44.21492" lon="6.91372">
        <ele>1897</ele>
        <time>2010-08-15T08:21:40Z</time>
      </trkpt>
      <trkpt lat="44.21491" lon="6.9137">
        <ele>1897</ele>
        <time>2010-08-15T08:21:41Z</time>
      </trkpt>
      <trkpt lat="44.21491" lon="6.91368">
        <ele>1897</ele>
        <time>2010-08-15T08:21:42Z</time>
      </trkpt>
      <trkpt lat="44.21491" lon="6.91366">
        <ele>1897</ele>
        <time>2010-08-15T08:21:43Z</time>
      </trkpt>
      <trkpt lat="44.21491" lon="6.91364">
        <ele>1897</ele>
        <time>2010-08-15T08:21:44Z</time>
      </trkpt>
      <trkpt lat="44.2149" lon="6.91361">
        <ele>1897</ele>
        <time>2010-08-15T08:21:45Z</time>
      </trkpt>
      <trkpt lat="44.21489" lon="6.91359">
        <ele>1897</ele>
        <time>2010-08-15T08:21:46Z</time>
      </trkpt>
      <trkpt lat="44.21489" lon="6.91356">
        <ele>1897</ele>
        <time>2010-08-15T08:21:47Z</time>
      </trkpt>
      <trkpt lat="44.21488" lon="6.91354">
        <ele>1896</ele>
        <time>2010-08-15T08:21:48Z</time>
      </trkpt>
      <trkpt lat="44.21487" lon="6.91352">
        <ele>1896</ele>
        <time>2010-08-15T08:21:49Z</time>
      </trkpt>
      <trkpt lat="44.21487" lon="6.91349">
        <ele>1896</ele>
        <time>2010-08-15T08:21:50Z</time>
      </trkpt>
      <trkpt lat="44.21486" lon="6.91346">
        <ele>1895</ele>
        <time>2010-08-15T08:21:51Z</time>
      </trkpt>
      <trkpt lat="44.21486" lon="6.91344">
        <ele>1895</ele>
        <time>2010-08-15T08:21:52Z</time>
      </trkpt>
      <trkpt lat="44.21485" lon="6.91341">
        <ele>1895</ele>
        <time>2010-08-15T08:21:53Z</time>
      </trkpt>
      <trkpt lat="44.21484" lon="6.91339">
        <ele>1895</ele>
        <time>2010-08-15T08:21:54Z</time>
      </trkpt>
      <trkpt lat="44.21484" lon="6.91337">
        <ele>1895</ele>
        <time>2010-08-15T08:21:55Z</time>
      </trkpt>
      <trkpt lat="44.21483" lon="6.91335">
        <ele>1895</ele>
        <time>2010-08-15T08:21:56Z</time>
      </trkpt>
      <trkpt lat="44.21482" lon="6.91332">
        <ele>1895</ele>
        <time>2010-08-15T08:21:57Z</time>
      </trkpt>
      <trkpt lat="44.21481" lon="6.91331">
        <ele>1895</ele>
        <time>2010-08-15T08:21:58Z</time>
      </trkpt>
      <trkpt lat="44.2148" lon="6.91329">
        <ele>1895</ele>
        <time>2010-08-15T08:21:59Z</time>
      </trkpt>
      <trkpt lat="44.21479" lon="6.91327">
        <ele>1896</ele>
        <time>2010-08-15T08:22:00Z</time>
      </trkpt>
      <trkpt lat="44.21479" lon="6.91324">
        <ele>1896</ele>
        <time>2010-08-15T08:22:01Z</time>
      </trkpt>
      <trkpt lat="44.21478" lon="6.91322">
        <ele>1896</ele>
        <time>2010-08-15T08:22:02Z</time>
      </trkpt>
      <trkpt lat="44.21477" lon="6.9132">
        <ele>1897</ele>
        <time>2010-08-15T08:22:03Z</time>
      </trkpt>
      <trkpt lat="44.21475" lon="6.91318">
        <ele>1897</ele>
        <time>2010-08-15T08:22:04Z</time>
      </trkpt>
      <trkpt lat="44.21474" lon="6.91316">
        <ele>1898</ele>
        <time>2010-08-15T08:22:05Z</time>
      </trkpt>
      <trkpt lat="44.21473" lon="6.91314">
        <ele>1898</ele>
        <time>2010-08-15T08:22:06Z</time>
      </trkpt>
      <trkpt lat="44.21471" lon="6.91311">
        <ele>1899</ele>
        <time>2010-08-15T08:22:07Z</time>
      </trkpt>
      <trkpt lat="44.2147" lon="6.91309">
        <ele>1899</ele>
        <time>2010-08-15T08:22:08Z</time>
      </trkpt>
      <trkpt lat="44.21469" lon="6.91307">
        <ele>1899</ele>
        <time>2010-08-15T08:22:09Z</time>
      </trkpt>
      <trkpt lat="44.21467" lon="6.91305">
        <ele>1899</ele>
        <time>2010-08-15T08:22:10Z</time>
      </trkpt>
      <trkpt lat="44.21466" lon="6.91303">
        <ele>1900</ele>
        <time>2010-08-15T08:22:11Z</time>
      </trkpt>
      <trkpt lat="44.21465" lon="6.91301">
        <ele>1900</ele>
        <time>2010-08-15T08:22:12Z</time>
      </trkpt>
      <trkpt lat="44.21464" lon="6.913">
        <ele>1900</ele>
        <time>2010-08-15T08:22:13Z</time>
      </trkpt>
      <trkpt lat="44.21462" lon="6.91298">
        <ele>1900</ele>
        <time>2010-08-15T08:22:14Z</time>
      </trkpt>
      <trkpt lat="44.21461" lon="6.91296">
        <ele>1901</ele>
        <time>2010-08-15T08:22:15Z</time>
      </trkpt>
      <trkpt lat="44.2146" lon="6.91294">
        <ele>1901</ele>
        <time>2010-08-15T08:22:16Z</time>
      </trkpt>
      <trkpt lat="44.21459" lon="6.91292">
        <ele>1901</ele>
        <time>2010-08-15T08:22:17Z</time>
      </trkpt>
      <trkpt lat="44.21458" lon="6.91291">
        <ele>1901</ele>
        <time>2010-08-15T08:22:18Z</time>
      </trkpt>
      <trkpt lat="44.21457" lon="6.91289">
        <ele>1901</ele>
        <time>2010-08-15T08:22:19Z</time>
      </trkpt>
      <trkpt lat="44.21456" lon="6.91287">
        <ele>1901</ele>
        <time>2010-08-15T08:22:20Z</time>
      </trkpt>
      <trkpt lat="44.21455" lon="6.91284">
        <ele>1901</ele>
        <time>2010-08-15T08:22:21Z</time>
      </trkpt>
      <trkpt lat="44.21454" lon="6.91283">
        <ele>1902</ele>
        <time>2010-08-15T08:22:22Z</time>
      </trkpt>
      <trkpt lat="44.21453" lon="6.91281">
        <ele>1902</ele>
        <time>2010-08-15T08:22:23Z</time>
      </trkpt>
      <trkpt lat="44.21452" lon="6.91279">
        <ele>1902</ele>
        <time>2010-08-15T08:22:24Z</time>
      </trkpt>
      <trkpt lat="44.21451" lon="6.91277">
        <ele>1902</ele>
        <time>2010-08-15T08:22:25Z</time>
      </trkpt>
      <trkpt lat="44.2145" lon="6.91276">
        <ele>1902</ele>
        <time>2010-08-15T08:22:26Z</time>
      </trkpt>
      <trkpt lat="44.21448" lon="6.91274">
        <ele>1902</ele>
        <time>2010-08-15T08:22:27Z</time>
      </trkpt>
      <trkpt lat="44.21446" lon="6.91272">
        <ele>1903</ele>
        <time>2010-08-15T08:22:28Z</time>
      </trkpt>
      <trkpt lat="44.21445" lon="6.91271">
        <ele>1903</ele>
        <time>2010-08-15T08:22:29Z</time>
      </trkpt>
      <trkpt lat="44.21444" lon="6.9127">
        <ele>1903</ele>
        <time>2010-08-15T08:22:30Z</time>
      </trkpt>
      <trkpt lat="44.21442" lon="6.91269">
        <ele>1903</ele>
        <time>2010-08-15T08:22:31Z</time>
      </trkpt>
      <trkpt lat="44.2144" lon="6.91268">
        <ele>1904</ele>
        <time>2010-08-15T08:22:32Z</time>
      </trkpt>
      <trkpt lat="44.21438" lon="6.91268">
        <ele>1904</ele>
        <time>2010-08-15T08:22:33Z</time>
      </trkpt>
      <trkpt lat="44.21436" lon="6.91268">
        <ele>1904</ele>
        <time>2010-08-15T08:22:34Z</time>
      </trkpt>
      <trkpt lat="44.21434" lon="6.91269">
        <ele>1905</ele>
        <time>2010-08-15T08:22:35Z</time>
      </trkpt>
      <trkpt lat="44.21432" lon="6.9127">
        <ele>1905</ele>
        <time>2010-08-15T08:22:36Z</time>
      </trkpt>
      <trkpt lat="44.2143" lon="6.91272">
        <ele>1905</ele>
        <time>2010-08-15T08:22:37Z</time>
      </trkpt>
      <trkpt lat="44.2143" lon="6.91273">
        <ele>1905</ele>
        <time>2010-08-15T08:22:38Z</time>
      </trkpt>
      <trkpt lat="44.21429" lon="6.91276">
        <ele>1905</ele>
        <time>2010-08-15T08:22:39Z</time>
      </trkpt>
      <trkpt lat="44.21428" lon="6.91279">
        <ele>1905</ele>
        <time>2010-08-15T08:22:40Z</time>
      </trkpt>
      <trkpt lat="44.21428" lon="6.91281">
        <ele>1905</ele>
        <time>2010-08-15T08:22:41Z</time>
      </trkpt>
      <trkpt lat="44.21428" lon="6.91284">
        <ele>1905</ele>
        <time>2010-08-15T08:22:42Z</time>
      </trkpt>
      <trkpt lat="44.21428" lon="6.91287">
        <ele>1905</ele>
        <time>2010-08-15T08:22:43Z</time>
      </trkpt>
      <trkpt lat="44.21427" lon="6.91291">
        <ele>1905</ele>
        <time>2010-08-15T08:22:44Z</time>
      </trkpt>
      <trkpt lat="44.21427" lon="6.91294">
        <ele>1905</ele>
        <time>2010-08-15T08:22:45Z</time>
      </trkpt>
      <trkpt lat="44.21425" lon="6.91298">
        <ele>1905</ele>
        <time>2010-08-15T08:22:46Z</time>
      </trkpt>
      <trkpt lat="44.21424" lon="6.91301">
        <ele>1906</ele>
        <time>2010-08-15T08:22:47Z</time>
      </trkpt>
      <trkpt lat="44.21423" lon="6.91305">
        <ele>1906</ele>
        <time>2010-08-15T08:22:48Z</time>
      </trkpt>
      <trkpt lat="44.21423" lon="6.9131">
        <ele>1907</ele>
        <time>2010-08-15T08:22:49Z</time>
      </trkpt>
      <trkpt lat="44.21422" lon="6.91314">
        <ele>1908</ele>
        <time>2010-08-15T08:22:50Z</time>
      </trkpt>
      <trkpt lat="44.21421" lon="6.91318">
        <ele>1909</ele>
        <time>2010-08-15T08:22:51Z</time>
      </trkpt>
      <trkpt lat="44.21421" lon="6.91322">
        <ele>1910</ele>
        <time>2010-08-15T08:22:52Z</time>
      </trkpt>
      <trkpt lat="44.21421" lon="6.91326">
        <ele>1911</ele>
        <time>2010-08-15T08:22:53Z</time>
      </trkpt>
      <trkpt lat="44.21421" lon="6.9133">
        <ele>1912</ele>
        <time>2010-08-15T08:22:54Z</time>
      </trkpt>
      <trkpt lat="44.21421" lon="6.91334">
        <ele>1913</ele>
        <time>2010-08-15T08:22:55Z</time>
      </trkpt>
      <trkpt lat="44.21421" lon="6.91337">
        <ele>1913</ele>
        <time>2010-08-15T08:22:56Z</time>
      </trkpt>
      <trkpt lat="44.21421" lon="6.91341">
        <ele>1912</ele>
        <time>2010-08-15T08:22:57Z</time>
      </trkpt>
      <trkpt lat="44.21422" lon="6.91344">
        <ele>1911</ele>
        <time>2010-08-15T08:22:58Z</time>
      </trkpt>
      <trkpt lat="44.21423" lon="6.91348">
        <ele>1910</ele>
        <time>2010-08-15T08:22:59Z</time>
      </trkpt>
      <trkpt lat="44.21425" lon="6.91351">
        <ele>1909</ele>
        <time>2010-08-15T08:23:00Z</time>
      </trkpt>
      <trkpt lat="44.21426" lon="6.91355">
        <ele>1909</ele>
        <time>2010-08-15T08:23:01Z</time>
      </trkpt>
      <trkpt lat="44.21427" lon="6.91357">
        <ele>1909</ele>
        <time>2010-08-15T08:23:02Z</time>
      </trkpt>
      <trkpt lat="44.21429" lon="6.91359">
        <ele>1908</ele>
        <time>2010-08-15T08:23:03Z</time>
      </trkpt>
      <trkpt lat="44.2143" lon="6.91363">
        <ele>1908</ele>
        <time>2010-08-15T08:23:04Z</time>
      </trkpt>
      <trkpt lat="44.21432" lon="6.91366">
        <ele>1908</ele>
        <time>2010-08-15T08:23:05Z</time>
      </trkpt>
      <trkpt lat="44.21433" lon="6.91369">
        <ele>1908</ele>
        <time>2010-08-15T08:23:06Z</time>
      </trkpt>
      <trkpt lat="44.21435" lon="6.91372">
        <ele>1908</ele>
        <time>2010-08-15T08:23:07Z</time>
      </trkpt>
      <trkpt lat="44.21436" lon="6.91375">
        <ele>1908</ele>
        <time>2010-08-15T08:23:08Z</time>
      </trkpt>
      <trkpt lat="44.21438" lon="6.91378">
        <ele>1907</ele>
        <time>2010-08-15T08:23:09Z</time>
      </trkpt>
      <trkpt lat="44.21439" lon="6.91381">
        <ele>1907</ele>
        <time>2010-08-15T08:23:10Z</time>
      </trkpt>
      <trkpt lat="44.21441" lon="6.91384">
        <ele>1907</ele>
        <time>2010-08-15T08:23:11Z</time>
      </trkpt>
      <trkpt lat="44.21441" lon="6.91387">
        <ele>1908</ele>
        <time>2010-08-15T08:23:12Z</time>
      </trkpt>
      <trkpt lat="44.21442" lon="6.91391">
        <ele>1908</ele>
        <time>2010-08-15T08:23:13Z</time>
      </trkpt>
      <trkpt lat="44.21441" lon="6.91394">
        <ele>1909</ele>
        <time>2010-08-15T08:23:14Z</time>
      </trkpt>
      <trkpt lat="44.2144" lon="6.91398">
        <ele>1909</ele>
        <time>2010-08-15T08:23:15Z</time>
      </trkpt>
      <trkpt lat="44.2144" lon="6.91401">
        <ele>1910</ele>
        <time>2010-08-15T08:23:16Z</time>
      </trkpt>
      <trkpt lat="44.21439" lon="6.91404">
        <ele>1910</ele>
        <time>2010-08-15T08:23:17Z</time>
      </trkpt>
      <trkpt lat="44.21439" lon="6.91407">
        <ele>1911</ele>
        <time>2010-08-15T08:23:18Z</time>
      </trkpt>
      <trkpt lat="44.21439" lon="6.9141">
        <ele>1911</ele>
        <time>2010-08-15T08:23:19Z</time>
      </trkpt>
      <trkpt lat="44.2144" lon="6.91413">
        <ele>1911</ele>
        <time>2010-08-15T08:23:20Z</time>
      </trkpt>
      <trkpt lat="44.2144" lon="6.91417">
        <ele>1911</ele>
        <time>2010-08-15T08:23:21Z</time>
      </trkpt>
      <trkpt lat="44.2144" lon="6.9142">
        <ele>1916</ele>
        <time>2010-08-15T08:23:22Z</time>
      </trkpt>
      <trkpt lat="44.2144" lon="6.91423">
        <ele>1916</ele>
        <time>2010-08-15T08:23:23Z</time>
      </trkpt>
      <trkpt lat="44.2144" lon="6.91427">
        <ele>1916</ele>
        <time>2010-08-15T08:23:24Z</time>
      </trkpt>
      <trkpt lat="44.2144" lon="6.9143">
        <ele>1916</ele>
        <time>2010-08-15T08:23:25Z</time>
      </trkpt>
      <trkpt lat="44.21441" lon="6.91432">
        <ele>1915</ele>
        <time>2010-08-15T08:23:26Z</time>
      </trkpt>
      <trkpt lat="44.21442" lon="6.91434">
        <ele>1915</ele>
        <time>2010-08-15T08:23:27Z</time>
      </trkpt>
      <trkpt lat="44.21442" lon="6.91437">
        <ele>1915</ele>
        <time>2010-08-15T08:23:28Z</time>
      </trkpt>
      <trkpt lat="44.21442" lon="6.91439">
        <ele>1915</ele>
        <time>2010-08-15T08:23:29Z</time>
      </trkpt>
      <trkpt lat="44.21443" lon="6.91442">
        <ele>1915</ele>
        <time>2010-08-15T08:23:30Z</time>
      </trkpt>
      <trkpt lat="44.21443" lon="6.91444">
        <ele>1915</ele>
        <time>2010-08-15T08:23:31Z</time>
      </trkpt>
      <trkpt lat="44.21444" lon="6.91446">
        <ele>1915</ele>
        <time>2010-08-15T08:23:32Z</time>
      </trkpt>
      <trkpt lat="44.21444" lon="6.91448">
        <ele>1915</ele>
        <time>2010-08-15T08:23:33Z</time>
      </trkpt>
      <trkpt lat="44.21445" lon="6.9145">
        <ele>1914</ele>
        <time>2010-08-15T08:23:34Z</time>
      </trkpt>
      <trkpt lat="44.21445" lon="6.91452">
        <ele>1915</ele>
        <time>2010-08-15T08:23:35Z</time>
      </trkpt>
      <trkpt lat="44.21445" lon="6.91454">
        <ele>1915</ele>
        <time>2010-08-15T08:23:36Z</time>
      </trkpt>
      <trkpt lat="44.21445" lon="6.91456">
        <ele>1915</ele>
        <time>2010-08-15T08:23:37Z</time>
      </trkpt>
      <trkpt lat="44.21445" lon="6.91458">
        <ele>1915</ele>
        <time>2010-08-15T08:23:38Z</time>
      </trkpt>
      <trkpt lat="44.21444" lon="6.9146">
        <ele>1915</ele>
        <time>2010-08-15T08:23:39Z</time>
      </trkpt>
      <trkpt lat="44.21445" lon="6.91462">
        <ele>1915</ele>
        <time>2010-08-15T08:23:40Z</time>
      </trkpt>
      <trkpt lat="44.21446" lon="6.91464">
        <ele>1915</ele>
        <time>2010-08-15T08:23:41Z</time>
      </trkpt>
      <trkpt lat="44.21446" lon="6.91466">
        <ele>1916</ele>
        <time>2010-08-15T08:23:42Z</time>
      </trkpt>
      <trkpt lat="44.21447" lon="6.91468">
        <ele>1916</ele>
        <time>2010-08-15T08:23:43Z</time>
      </trkpt>
      <trkpt lat="44.21447" lon="6.91471">
        <ele>1916</ele>
        <time>2010-08-15T08:23:44Z</time>
      </trkpt>
      <trkpt lat="44.21447" lon="6.91473">
        <ele>1916</ele>
        <time>2010-08-15T08:23:45Z</time>
      </trkpt>
      <trkpt lat="44.21447" lon="6.91475">
        <ele>1916</ele>
        <time>2010-08-15T08:23:46Z</time>
      </trkpt>
      <trkpt lat="44.21448" lon="6.91476">
        <ele>1917</ele>
        <time>2010-08-15T08:23:47Z</time>
      </trkpt>
      <trkpt lat="44.21447" lon="6.91478">
        <ele>1917</ele>
        <time>2010-08-15T08:23:48Z</time>
      </trkpt>
      <trkpt lat="44.21448" lon="6.9148">
        <ele>1917</ele>
        <time>2010-08-15T08:23:49Z</time>
      </trkpt>
      <trkpt lat="44.21448" lon="6.91482">
        <ele>1917</ele>
        <time>2010-08-15T08:23:50Z</time>
      </trkpt>
      <trkpt lat="44.21448" lon="6.91484">
        <ele>1917</ele>
        <time>2010-08-15T08:23:51Z</time>
      </trkpt>
      <trkpt lat="44.21449" lon="6.91486">
        <ele>1917</ele>
        <time>2010-08-15T08:23:52Z</time>
      </trkpt>
      <trkpt lat="44.21449" lon="6.91488">
        <ele>1917</ele>
        <time>2010-08-15T08:23:53Z</time>
      </trkpt>
      <trkpt lat="44.21449" lon="6.9149">
        <ele>1918</ele>
        <time>2010-08-15T08:23:54Z</time>
      </trkpt>
      <trkpt lat="44.21449" lon="6.91491">
        <ele>1918</ele>
        <time>2010-08-15T08:23:55Z</time>
      </trkpt>
      <trkpt lat="44.21449" lon="6.91493">
        <ele>1918</ele>
        <time>2010-08-15T08:23:56Z</time>
      </trkpt>
      <trkpt lat="44.21449" lon="6.91494">
        <ele>1918</ele>
        <time>2010-08-15T08:23:57Z</time>
      </trkpt>
      <trkpt lat="44.21449" lon="6.91496">
        <ele>1918</ele>
        <time>2010-08-15T08:23:58Z</time>
      </trkpt>
      <trkpt lat="44.21449" lon="6.91498">
        <ele>1918</ele>
        <time>2010-08-15T08:23:59Z</time>
      </trkpt>
      <trkpt lat="44.21449" lon="6.91501">
        <ele>1925</ele>
        <time>2010-08-15T08:24:00Z</time>
      </trkpt>
      <trkpt lat="44.21449" lon="6.91503">
        <ele>1925</ele>
        <time>2010-08-15T08:24:01Z</time>
      </trkpt>
      <trkpt lat="44.21449" lon="6.91505">
        <ele>1925</ele>
        <time>2010-08-15T08:24:02Z</time>
      </trkpt>
      <trkpt lat="44.2145" lon="6.91507">
        <ele>1925</ele>
        <time>2010-08-15T08:24:03Z</time>
      </trkpt>
      <trkpt lat="44.2145" lon="6.9151">
        <ele>1924</ele>
        <time>2010-08-15T08:24:04Z</time>
      </trkpt>
      <trkpt lat="44.2145" lon="6.91512">
        <ele>1924</ele>
        <time>2010-08-15T08:24:05Z</time>
      </trkpt>
      <trkpt lat="44.2145" lon="6.91514">
        <ele>1925</ele>
        <time>2010-08-15T08:24:06Z</time>
      </trkpt>
      <trkpt lat="44.21449" lon="6.91516">
        <ele>1925</ele>
        <time>2010-08-15T08:24:07Z</time>
      </trkpt>
      <trkpt lat="44.21449" lon="6.91518">
        <ele>1925</ele>
        <time>2010-08-15T08:24:08Z</time>
      </trkpt>
      <trkpt lat="44.21449" lon="6.9152">
        <ele>1925</ele>
        <time>2010-08-15T08:24:09Z</time>
      </trkpt>
      <trkpt lat="44.21449" lon="6.91523">
        <ele>1925</ele>
        <time>2010-08-15T08:24:10Z</time>
      </trkpt>
      <trkpt lat="44.21448" lon="6.91525">
        <ele>1925</ele>
        <time>2010-08-15T08:24:11Z</time>
      </trkpt>
      <trkpt lat="44.21448" lon="6.91527">
        <ele>1925</ele>
        <time>2010-08-15T08:24:12Z</time>
      </trkpt>
      <trkpt lat="44.21448" lon="6.91529">
        <ele>1925</ele>
        <time>2010-08-15T08:24:13Z</time>
      </trkpt>
      <trkpt lat="44.21448" lon="6.91531">
        <ele>1925</ele>
        <time>2010-08-15T08:24:14Z</time>
      </trkpt>
      <trkpt lat="44.21448" lon="6.91533">
        <ele>1925</ele>
        <time>2010-08-15T08:24:15Z</time>
      </trkpt>
      <trkpt lat="44.21447" lon="6.91535">
        <ele>1926</ele>
        <time>2010-08-15T08:24:16Z</time>
      </trkpt>
      <trkpt lat="44.21447" lon="6.91538">
        <ele>1926</ele>
        <time>2010-08-15T08:24:17Z</time>
      </trkpt>
      <trkpt lat="44.21447" lon="6.9154">
        <ele>1926</ele>
        <time>2010-08-15T08:24:18Z</time>
      </trkpt>
      <trkpt lat="44.21447" lon="6.91542">
        <ele>1926</ele>
        <time>2010-08-15T08:24:19Z</time>
      </trkpt>
      <trkpt lat="44.21446" lon="6.91543">
        <ele>1927</ele>
        <time>2010-08-15T08:24:20Z</time>
      </trkpt>
      <trkpt lat="44.21447" lon="6.91546">
        <ele>1927</ele>
        <time>2010-08-15T08:24:21Z</time>
      </trkpt>
      <trkpt lat="44.21447" lon="6.91548">
        <ele>1927</ele>
        <time>2010-08-15T08:24:22Z</time>
      </trkpt>
      <trkpt lat="44.21447" lon="6.9155">
        <ele>1927</ele>
        <time>2010-08-15T08:24:23Z</time>
      </trkpt>
      <trkpt lat="44.21447" lon="6.91552">
        <ele>1927</ele>
        <time>2010-08-15T08:24:24Z</time>
      </trkpt>
      <trkpt lat="44.21447" lon="6.91552">
        <ele>1927</ele>
        <time>2010-08-15T08:24:25Z</time>
      </trkpt>
      <trkpt lat="44.21448" lon="6.91554">
        <ele>1927</ele>
        <time>2010-08-15T08:24:26Z</time>
      </trkpt>
      <trkpt lat="44.21449" lon="6.91558">
        <ele>1927</ele>
        <time>2010-08-15T08:24:27Z</time>
      </trkpt>
      <trkpt lat="44.21449" lon="6.91562">
        <ele>1927</ele>
        <time>2010-08-15T08:24:28Z</time>
      </trkpt>
      <trkpt lat="44.2145" lon="6.91565">
        <ele>1927</ele>
        <time>2010-08-15T08:24:29Z</time>
      </trkpt>
      <trkpt lat="44.21449" lon="6.91568">
        <ele>1928</ele>
        <time>2010-08-15T08:24:30Z</time>
      </trkpt>
      <trkpt lat="44.21448" lon="6.91572">
        <ele>1929</ele>
        <time>2010-08-15T08:24:31Z</time>
      </trkpt>
      <trkpt lat="44.21447" lon="6.91574">
        <ele>1930</ele>
        <time>2010-08-15T08:24:32Z</time>
      </trkpt>
      <trkpt lat="44.21447" lon="6.91577">
        <ele>1930</ele>
        <time>2010-08-15T08:24:33Z</time>
      </trkpt>
      <trkpt lat="44.21447" lon="6.9158">
        <ele>1931</ele>
        <time>2010-08-15T08:24:34Z</time>
      </trkpt>
      <trkpt lat="44.21446" lon="6.91584">
        <ele>1934</ele>
        <time>2010-08-15T08:24:35Z</time>
      </trkpt>
      <trkpt lat="44.21445" lon="6.91587">
        <ele>1935</ele>
        <time>2010-08-15T08:24:36Z</time>
      </trkpt>
      <trkpt lat="44.21444" lon="6.91591">
        <ele>1935</ele>
        <time>2010-08-15T08:24:37Z</time>
      </trkpt>
      <trkpt lat="44.21444" lon="6.91594">
        <ele>1935</ele>
        <time>2010-08-15T08:24:38Z</time>
      </trkpt>
      <trkpt lat="44.21444" lon="6.91597">
        <ele>1935</ele>
        <time>2010-08-15T08:24:39Z</time>
      </trkpt>
      <trkpt lat="44.21443" lon="6.91601">
        <ele>1935</ele>
        <time>2010-08-15T08:24:40Z</time>
      </trkpt>
      <trkpt lat="44.21443" lon="6.91604">
        <ele>1934</ele>
        <time>2010-08-15T08:24:41Z</time>
      </trkpt>
      <trkpt lat="44.21442" lon="6.91607">
        <ele>1934</ele>
        <time>2010-08-15T08:24:42Z</time>
      </trkpt>
      <trkpt lat="44.21441" lon="6.91609">
        <ele>1934</ele>
        <time>2010-08-15T08:24:43Z</time>
      </trkpt>
      <trkpt lat="44.21441" lon="6.91612">
        <ele>1934</ele>
        <time>2010-08-15T08:24:44Z</time>
      </trkpt>
      <trkpt lat="44.21441" lon="6.91615">
        <ele>1934</ele>
        <time>2010-08-15T08:24:45Z</time>
      </trkpt>
      <trkpt lat="44.21441" lon="6.91619">
        <ele>1934</ele>
        <time>2010-08-15T08:24:46Z</time>
      </trkpt>
      <trkpt lat="44.2144" lon="6.91622">
        <ele>1934</ele>
        <time>2010-08-15T08:24:47Z</time>
      </trkpt>
      <trkpt lat="44.21439" lon="6.91625">
        <ele>1934</ele>
        <time>2010-08-15T08:24:48Z</time>
      </trkpt>
      <trkpt lat="44.21439" lon="6.91628">
        <ele>1935</ele>
        <time>2010-08-15T08:24:49Z</time>
      </trkpt>
      <trkpt lat="44.21438" lon="6.91631">
        <ele>1935</ele>
        <time>2010-08-15T08:24:50Z</time>
      </trkpt>
      <trkpt lat="44.21437" lon="6.91634">
        <ele>1935</ele>
        <time>2010-08-15T08:24:51Z</time>
      </trkpt>
      <trkpt lat="44.21437" lon="6.91637">
        <ele>1936</ele>
        <time>2010-08-15T08:24:52Z</time>
      </trkpt>
      <trkpt lat="44.21436" lon="6.9164">
        <ele>1936</ele>
        <time>2010-08-15T08:24:53Z</time>
      </trkpt>
      <trkpt lat="44.21435" lon="6.91643">
        <ele>1937</ele>
        <time>2010-08-15T08:24:54Z</time>
      </trkpt>
      <trkpt lat="44.21435" lon="6.91646">
        <ele>1938</ele>
        <time>2010-08-15T08:24:55Z</time>
      </trkpt>
      <trkpt lat="44.21433" lon="6.91649">
        <ele>1939</ele>
        <time>2010-08-15T08:24:56Z</time>
      </trkpt>
      <trkpt lat="44.21432" lon="6.91652">
        <ele>1940</ele>
        <time>2010-08-15T08:24:57Z</time>
      </trkpt>
      <trkpt lat="44.2143" lon="6.91656">
        <ele>1942</ele>
        <time>2010-08-15T08:24:58Z</time>
      </trkpt>
      <trkpt lat="44.21429" lon="6.91659">
        <ele>1944</ele>
        <time>2010-08-15T08:24:59Z</time>
      </trkpt>
      <trkpt lat="44.21428" lon="6.91663">
        <ele>1945</ele>
        <time>2010-08-15T08:25:00Z</time>
      </trkpt>
      <trkpt lat="44.21428" lon="6.91666">
        <ele>1946</ele>
        <time>2010-08-15T08:25:01Z</time>
      </trkpt>
      <trkpt lat="44.21427" lon="6.9167">
        <ele>1946</ele>
        <time>2010-08-15T08:25:02Z</time>
      </trkpt>
      <trkpt lat="44.21427" lon="6.91674">
        <ele>1946</ele>
        <time>2010-08-15T08:25:03Z</time>
      </trkpt>
      <trkpt lat="44.21426" lon="6.91677">
        <ele>1945</ele>
        <time>2010-08-15T08:25:04Z</time>
      </trkpt>
      <trkpt lat="44.21426" lon="6.9168">
        <ele>1944</ele>
        <time>2010-08-15T08:25:05Z</time>
      </trkpt>
      <trkpt lat="44.21425" lon="6.91683">
        <ele>1944</ele>
        <time>2010-08-15T08:25:06Z</time>
      </trkpt>
      <trkpt lat="44.21424" lon="6.91685">
        <ele>1943</ele>
        <time>2010-08-15T08:25:07Z</time>
      </trkpt>
      <trkpt lat="44.21425" lon="6.91688">
        <ele>1942</ele>
        <time>2010-08-15T08:25:08Z</time>
      </trkpt>
      <trkpt lat="44.21424" lon="6.91691">
        <ele>1941</ele>
        <time>2010-08-15T08:25:09Z</time>
      </trkpt>
      <trkpt lat="44.21424" lon="6.91694">
        <ele>1941</ele>
        <time>2010-08-15T08:25:10Z</time>
      </trkpt>
      <trkpt lat="44.21424" lon="6.91697">
        <ele>1940</ele>
        <time>2010-08-15T08:25:11Z</time>
      </trkpt>
      <trkpt lat="44.21424" lon="6.917">
        <ele>1940</ele>
        <time>2010-08-15T08:25:12Z</time>
      </trkpt>
      <trkpt lat="44.21425" lon="6.91703">
        <ele>1939</ele>
        <time>2010-08-15T08:25:13Z</time>
      </trkpt>
      <trkpt lat="44.21425" lon="6.91706">
        <ele>1939</ele>
        <time>2010-08-15T08:25:14Z</time>
      </trkpt>
      <trkpt lat="44.21424" lon="6.91709">
        <ele>1939</ele>
        <time>2010-08-15T08:25:15Z</time>
      </trkpt>
      <trkpt lat="44.21424" lon="6.91712">
        <ele>1939</ele>
        <time>2010-08-15T08:25:16Z</time>
      </trkpt>
      <trkpt lat="44.21424" lon="6.91715">
        <ele>1940</ele>
        <time>2010-08-15T08:25:17Z</time>
      </trkpt>
      <trkpt lat="44.21424" lon="6.91718">
        <ele>1940</ele>
        <time>2010-08-15T08:25:18Z</time>
      </trkpt>
      <trkpt lat="44.21424" lon="6.91721">
        <ele>1940</ele>
        <time>2010-08-15T08:25:19Z</time>
      </trkpt>
      <trkpt lat="44.21424" lon="6.91725">
        <ele>1941</ele>
        <time>2010-08-15T08:25:20Z</time>
      </trkpt>
      <trkpt lat="44.21424" lon="6.91728">
        <ele>1942</ele>
        <time>2010-08-15T08:25:21Z</time>
      </trkpt>
      <trkpt lat="44.21423" lon="6.91731">
        <ele>1943</ele>
        <time>2010-08-15T08:25:22Z</time>
      </trkpt>
      <trkpt lat="44.21423" lon="6.91734">
        <ele>1944</ele>
        <time>2010-08-15T08:25:23Z</time>
      </trkpt>
      <trkpt lat="44.21422" lon="6.91738">
        <ele>1945</ele>
        <time>2010-08-15T08:25:24Z</time>
      </trkpt>
      <trkpt lat="44.21421" lon="6.91741">
        <ele>1947</ele>
        <time>2010-08-15T08:25:25Z</time>
      </trkpt>
      <trkpt lat="44.2142" lon="6.91744">
        <ele>1949</ele>
        <time>2010-08-15T08:25:26Z</time>
      </trkpt>
      <trkpt lat="44.2142" lon="6.91747">
        <ele>1951</ele>
        <time>2010-08-15T08:25:27Z</time>
      </trkpt>
      <trkpt lat="44.2142" lon="6.9175">
        <ele>1952</ele>
        <time>2010-08-15T08:25:28Z</time>
      </trkpt>
      <trkpt lat="44.21421" lon="6.91752">
        <ele>1951</ele>
        <time>2010-08-15T08:25:29Z</time>
      </trkpt>
      <trkpt lat="44.21421" lon="6.91755">
        <ele>1950</ele>
        <time>2010-08-15T08:25:30Z</time>
      </trkpt>
      <trkpt lat="44.21422" lon="6.91758">
        <ele>1948</ele>
        <time>2010-08-15T08:25:31Z</time>
      </trkpt>
      <trkpt lat="44.21422" lon="6.9176">
        <ele>1947</ele>
        <time>2010-08-15T08:25:32Z</time>
      </trkpt>
      <trkpt lat="44.21423" lon="6.91763">
        <ele>1945</ele>
        <time>2010-08-15T08:25:33Z</time>
      </trkpt>
      <trkpt lat="44.21424" lon="6.91766">
        <ele>1944</ele>
        <time>2010-08-15T08:25:34Z</time>
      </trkpt>
      <trkpt lat="44.21425" lon="6.9177">
        <ele>1943</ele>
        <time>2010-08-15T08:25:35Z</time>
      </trkpt>
      <trkpt lat="44.21426" lon="6.91773">
        <ele>1942</ele>
        <time>2010-08-15T08:25:36Z</time>
      </trkpt>
      <trkpt lat="44.21427" lon="6.91776">
        <ele>1941</ele>
        <time>2010-08-15T08:25:37Z</time>
      </trkpt>
      <trkpt lat="44.21428" lon="6.91779">
        <ele>1940</ele>
        <time>2010-08-15T08:25:38Z</time>
      </trkpt>
      <trkpt lat="44.21428" lon="6.91783">
        <ele>1940</ele>
        <time>2010-08-15T08:25:39Z</time>
      </trkpt>
      <trkpt lat="44.21428" lon="6.91786">
        <ele>1940</ele>
        <time>2010-08-15T08:25:40Z</time>
      </trkpt>
      <trkpt lat="44.21429" lon="6.91789">
        <ele>1939</ele>
        <time>2010-08-15T08:25:41Z</time>
      </trkpt>
      <trkpt lat="44.21429" lon="6.91791">
        <ele>1939</ele>
        <time>2010-08-15T08:25:42Z</time>
      </trkpt>
      <trkpt lat="44.21429" lon="6.91794">
        <ele>1939</ele>
        <time>2010-08-15T08:25:43Z</time>
      </trkpt>
      <trkpt lat="44.21429" lon="6.91797">
        <ele>1939</ele>
        <time>2010-08-15T08:25:44Z</time>
      </trkpt>
      <trkpt lat="44.21429" lon="6.91799">
        <ele>1940</ele>
        <time>2010-08-15T08:25:45Z</time>
      </trkpt>
      <trkpt lat="44.21428" lon="6.91802">
        <ele>1940</ele>
        <time>2010-08-15T08:25:46Z</time>
      </trkpt>
      <trkpt lat="44.21428" lon="6.91805">
        <ele>1940</ele>
        <time>2010-08-15T08:25:47Z</time>
      </trkpt>
      <trkpt lat="44.21428" lon="6.91807">
        <ele>1941</ele>
        <time>2010-08-15T08:25:48Z</time>
      </trkpt>
      <trkpt lat="44.21428" lon="6.9181">
        <ele>1941</ele>
        <time>2010-08-15T08:25:49Z</time>
      </trkpt>
      <trkpt lat="44.21428" lon="6.91813">
        <ele>1942</ele>
        <time>2010-08-15T08:25:50Z</time>
      </trkpt>
      <trkpt lat="44.21427" lon="6.91816">
        <ele>1943</ele>
        <time>2010-08-15T08:25:51Z</time>
      </trkpt>
      <trkpt lat="44.21426" lon="6.91818">
        <ele>1944</ele>
        <time>2010-08-15T08:25:52Z</time>
      </trkpt>
      <trkpt lat="44.21426" lon="6.91821">
        <ele>1945</ele>
        <time>2010-08-15T08:25:53Z</time>
      </trkpt>
      <trkpt lat="44.21426" lon="6.91824">
        <ele>1946</ele>
        <time>2010-08-15T08:25:54Z</time>
      </trkpt>
      <trkpt lat="44.21425" lon="6.91827">
        <ele>1947</ele>
        <time>2010-08-15T08:25:55Z</time>
      </trkpt>
      <trkpt lat="44.21425" lon="6.9183">
        <ele>1949</ele>
        <time>2010-08-15T08:25:56Z</time>
      </trkpt>
      <trkpt lat="44.21424" lon="6.91832">
        <ele>1950</ele>
        <time>2010-08-15T08:25:57Z</time>
      </trkpt>
      <trkpt lat="44.21423" lon="6.91835">
        <ele>1950</ele>
        <time>2010-08-15T08:25:58Z</time>
      </trkpt>
      <trkpt lat="44.21421" lon="6.91838">
        <ele>1950</ele>
        <time>2010-08-15T08:25:59Z</time>
      </trkpt>
      <trkpt lat="44.2142" lon="6.91841">
        <ele>1949</ele>
        <time>2010-08-15T08:26:00Z</time>
      </trkpt>
      <trkpt lat="44.21419" lon="6.91844">
        <ele>1947</ele>
        <time>2010-08-15T08:26:01Z</time>
      </trkpt>
      <trkpt lat="44.21418" lon="6.91847">
        <ele>1946</ele>
        <time>2010-08-15T08:26:02Z</time>
      </trkpt>
      <trkpt lat="44.21417" lon="6.9185">
        <ele>1944</ele>
        <time>2010-08-15T08:26:03Z</time>
      </trkpt>
      <trkpt lat="44.21416" lon="6.91853">
        <ele>1961</ele>
        <time>2010-08-15T08:26:04Z</time>
      </trkpt>
      <trkpt lat="44.21415" lon="6.91856">
        <ele>1961</ele>
        <time>2010-08-15T08:26:05Z</time>
      </trkpt>
      <trkpt lat="44.21415" lon="6.91858">
        <ele>1962</ele>
        <time>2010-08-15T08:26:06Z</time>
      </trkpt>
      <trkpt lat="44.21414" lon="6.91861">
        <ele>1962</ele>
        <time>2010-08-15T08:26:07Z</time>
      </trkpt>
      <trkpt lat="44.21413" lon="6.91864">
        <ele>1962</ele>
        <time>2010-08-15T08:26:08Z</time>
      </trkpt>
      <trkpt lat="44.21412" lon="6.91866">
        <ele>1962</ele>
        <time>2010-08-15T08:26:09Z</time>
      </trkpt>
      <trkpt lat="44.21411" lon="6.91868">
        <ele>1962</ele>
        <time>2010-08-15T08:26:10Z</time>
      </trkpt>
      <trkpt lat="44.2141" lon="6.9187">
        <ele>1962</ele>
        <time>2010-08-15T08:26:11Z</time>
      </trkpt>
      <trkpt lat="44.21409" lon="6.91873">
        <ele>1962</ele>
        <time>2010-08-15T08:26:12Z</time>
      </trkpt>
      <trkpt lat="44.21408" lon="6.91875">
        <ele>1962</ele>
        <time>2010-08-15T08:26:13Z</time>
      </trkpt>
      <trkpt lat="44.21407" lon="6.91878">
        <ele>1962</ele>
        <time>2010-08-15T08:26:14Z</time>
      </trkpt>
      <trkpt lat="44.21406" lon="6.9188">
        <ele>1962</ele>
        <time>2010-08-15T08:26:15Z</time>
      </trkpt>
      <trkpt lat="44.21405" lon="6.91883">
        <ele>1962</ele>
        <time>2010-08-15T08:26:16Z</time>
      </trkpt>
      <trkpt lat="44.21404" lon="6.91885">
        <ele>1962</ele>
        <time>2010-08-15T08:26:17Z</time>
      </trkpt>
      <trkpt lat="44.21403" lon="6.91887">
        <ele>1962</ele>
        <time>2010-08-15T08:26:18Z</time>
      </trkpt>
      <trkpt lat="44.21402" lon="6.9189">
        <ele>1962</ele>
        <time>2010-08-15T08:26:19Z</time>
      </trkpt>
      <trkpt lat="44.21401" lon="6.91892">
        <ele>1962</ele>
        <time>2010-08-15T08:26:20Z</time>
      </trkpt>
      <trkpt lat="44.21399" lon="6.91894">
        <ele>1962</ele>
        <time>2010-08-15T08:26:21Z</time>
      </trkpt>
      <trkpt lat="44.21398" lon="6.91897">
        <ele>1962</ele>
        <time>2010-08-15T08:26:22Z</time>
      </trkpt>
      <trkpt lat="44.21396" lon="6.91899">
        <ele>1962</ele>
        <time>2010-08-15T08:26:23Z</time>
      </trkpt>
      <trkpt lat="44.21395" lon="6.91901">
        <ele>1962</ele>
        <time>2010-08-15T08:26:24Z</time>
      </trkpt>
      <trkpt lat="44.21393" lon="6.91903">
        <ele>1962</ele>
        <time>2010-08-15T08:26:25Z</time>
      </trkpt>
      <trkpt lat="44.21391" lon="6.91904">
        <ele>1963</ele>
        <time>2010-08-15T08:26:26Z</time>
      </trkpt>
      <trkpt lat="44.21389" lon="6.91906">
        <ele>1963</ele>
        <time>2010-08-15T08:26:27Z</time>
      </trkpt>
      <trkpt lat="44.21388" lon="6.91907">
        <ele>1963</ele>
        <time>2010-08-15T08:26:28Z</time>
      </trkpt>
      <trkpt lat="44.21387" lon="6.91909">
        <ele>1963</ele>
        <time>2010-08-15T08:26:29Z</time>
      </trkpt>
      <trkpt lat="44.21385" lon="6.91911">
        <ele>1963</ele>
        <time>2010-08-15T08:26:30Z</time>
      </trkpt>
      <trkpt lat="44.21384" lon="6.91913">
        <ele>1963</ele>
        <time>2010-08-15T08:26:31Z</time>
      </trkpt>
      <trkpt lat="44.21382" lon="6.91914">
        <ele>1963</ele>
        <time>2010-08-15T08:26:32Z</time>
      </trkpt>
      <trkpt lat="44.21381" lon="6.91916">
        <ele>1964</ele>
        <time>2010-08-15T08:26:33Z</time>
      </trkpt>
      <trkpt lat="44.21379" lon="6.91918">
        <ele>1953</ele>
        <time>2010-08-15T08:26:34Z</time>
      </trkpt>
      <trkpt lat="44.21377" lon="6.9192">
        <ele>1953</ele>
        <time>2010-08-15T08:26:35Z</time>
      </trkpt>
      <trkpt lat="44.21376" lon="6.91921">
        <ele>1953</ele>
        <time>2010-08-15T08:26:36Z</time>
      </trkpt>
      <trkpt lat="44.21374" lon="6.91922">
        <ele>1953</ele>
        <time>2010-08-15T08:26:37Z</time>
      </trkpt>
      <trkpt lat="44.21372" lon="6.91924">
        <ele>1953</ele>
        <time>2010-08-15T08:26:38Z</time>
      </trkpt>
      <trkpt lat="44.2137" lon="6.91925">
        <ele>1953</ele>
        <time>2010-08-15T08:26:39Z</time>
      </trkpt>
      <trkpt lat="44.21368" lon="6.91927">
        <ele>1954</ele>
        <time>2010-08-15T08:26:40Z</time>
      </trkpt>
      <trkpt lat="44.21366" lon="6.91928">
        <ele>1954</ele>
        <time>2010-08-15T08:26:41Z</time>
      </trkpt>
      <trkpt lat="44.21364" lon="6.9193">
        <ele>1954</ele>
        <time>2010-08-15T08:26:42Z</time>
      </trkpt>
      <trkpt lat="44.21362" lon="6.91931">
        <ele>1954</ele>
        <time>2010-08-15T08:26:43Z</time>
      </trkpt>
      <trkpt lat="44.2136" lon="6.91931">
        <ele>1954</ele>
        <time>2010-08-15T08:26:44Z</time>
      </trkpt>
      <trkpt lat="44.21358" lon="6.91932">
        <ele>1955</ele>
        <time>2010-08-15T08:26:45Z</time>
      </trkpt>
      <trkpt lat="44.21356" lon="6.91933">
        <ele>1955</ele>
        <time>2010-08-15T08:26:46Z</time>
      </trkpt>
      <trkpt lat="44.21355" lon="6.91935">
        <ele>1955</ele>
        <time>2010-08-15T08:26:47Z</time>
      </trkpt>
      <trkpt lat="44.21353" lon="6.91935">
        <ele>1955</ele>
        <time>2010-08-15T08:26:48Z</time>
      </trkpt>
      <trkpt lat="44.21351" lon="6.91936">
        <ele>1955</ele>
        <time>2010-08-15T08:26:49Z</time>
      </trkpt>
      <trkpt lat="44.21349" lon="6.91936">
        <ele>1955</ele>
        <time>2010-08-15T08:26:50Z</time>
      </trkpt>
      <trkpt lat="44.21347" lon="6.91936">
        <ele>1956</ele>
        <time>2010-08-15T08:26:51Z</time>
      </trkpt>
      <trkpt lat="44.21345" lon="6.91935">
        <ele>1956</ele>
        <time>2010-08-15T08:26:52Z</time>
      </trkpt>
      <trkpt lat="44.21343" lon="6.91935">
        <ele>1957</ele>
        <time>2010-08-15T08:26:53Z</time>
      </trkpt>
      <trkpt lat="44.21341" lon="6.91934">
        <ele>1957</ele>
        <time>2010-08-15T08:26:54Z</time>
      </trkpt>
      <trkpt lat="44.21339" lon="6.91933">
        <ele>1958</ele>
        <time>2010-08-15T08:26:55Z</time>
      </trkpt>
      <trkpt lat="44.21338" lon="6.91933">
        <ele>1958</ele>
        <time>2010-08-15T08:26:56Z</time>
      </trkpt>
      <trkpt lat="44.21336" lon="6.91933">
        <ele>1959</ele>
        <time>2010-08-15T08:26:57Z</time>
      </trkpt>
      <trkpt lat="44.21334" lon="6.91933">
        <ele>1959</ele>
        <time>2010-08-15T08:26:58Z</time>
      </trkpt>
      <trkpt lat="44.21332" lon="6.91932">
        <ele>1962</ele>
        <time>2010-08-15T08:26:59Z</time>
      </trkpt>
      <trkpt lat="44.2133" lon="6.91932">
        <ele>1962</ele>
        <time>2010-08-15T08:27:00Z</time>
      </trkpt>
      <trkpt lat="44.21328" lon="6.91932">
        <ele>1962</ele>
        <time>2010-08-15T08:27:01Z</time>
      </trkpt>
      <trkpt lat="44.21326" lon="6.91931">
        <ele>1962</ele>
        <time>2010-08-15T08:27:02Z</time>
      </trkpt>
      <trkpt lat="44.21325" lon="6.9193">
        <ele>1962</ele>
        <time>2010-08-15T08:27:03Z</time>
      </trkpt>
      <trkpt lat="44.21323" lon="6.91929">
        <ele>1962</ele>
        <time>2010-08-15T08:27:04Z</time>
      </trkpt>
      <trkpt lat="44.21322" lon="6.91929">
        <ele>1962</ele>
        <time>2010-08-15T08:27:05Z</time>
      </trkpt>
      <trkpt lat="44.21321" lon="6.91928">
        <ele>1962</ele>
        <time>2010-08-15T08:27:06Z</time>
      </trkpt>
      <trkpt lat="44.2132" lon="6.91927">
        <ele>1962</ele>
        <time>2010-08-15T08:27:07Z</time>
      </trkpt>
      <trkpt lat="44.21318" lon="6.91927">
        <ele>1961</ele>
        <time>2010-08-15T08:27:08Z</time>
      </trkpt>
      <trkpt lat="44.21317" lon="6.91926">
        <ele>1961</ele>
        <time>2010-08-15T08:27:09Z</time>
      </trkpt>
      <trkpt lat="44.21316" lon="6.91926">
        <ele>1961</ele>
        <time>2010-08-15T08:27:10Z</time>
      </trkpt>
      <trkpt lat="44.21314" lon="6.91925">
        <ele>1961</ele>
        <time>2010-08-15T08:27:11Z</time>
      </trkpt>
      <trkpt lat="44.21313" lon="6.91924">
        <ele>1961</ele>
        <time>2010-08-15T08:27:12Z</time>
      </trkpt>
      <trkpt lat="44.21311" lon="6.91923">
        <ele>1961</ele>
        <time>2010-08-15T08:27:13Z</time>
      </trkpt>
      <trkpt lat="44.21309" lon="6.91922">
        <ele>1961</ele>
        <time>2010-08-15T08:27:14Z</time>
      </trkpt>
      <trkpt lat="44.21308" lon="6.91922">
        <ele>1961</ele>
        <time>2010-08-15T08:27:15Z</time>
      </trkpt>
      <trkpt lat="44.21306" lon="6.91921">
        <ele>1961</ele>
        <time>2010-08-15T08:27:16Z</time>
      </trkpt>
      <trkpt lat="44.21305" lon="6.91921">
        <ele>1960</ele>
        <time>2010-08-15T08:27:17Z</time>
      </trkpt>
      <trkpt lat="44.21303" lon="6.9192">
        <ele>1960</ele>
        <time>2010-08-15T08:27:18Z</time>
      </trkpt>
      <trkpt lat="44.21302" lon="6.91919">
        <ele>1960</ele>
        <time>2010-08-15T08:27:19Z</time>
      </trkpt>
      <trkpt lat="44.21301" lon="6.91919">
        <ele>1960</ele>
        <time>2010-08-15T08:27:20Z</time>
      </trkpt>
      <trkpt lat="44.21299" lon="6.91918">
        <ele>1960</ele>
        <time>2010-08-15T08:27:21Z</time>
      </trkpt>
      <trkpt lat="44.21298" lon="6.91918">
        <ele>1960</ele>
        <time>2010-08-15T08:27:22Z</time>
      </trkpt>
      <trkpt lat="44.21296" lon="6.91917">
        <ele>1960</ele>
        <time>2010-08-15T08:27:23Z</time>
      </trkpt>
      <trkpt lat="44.21295" lon="6.91917">
        <ele>1974</ele>
        <time>2010-08-15T08:27:24Z</time>
      </trkpt>
      <trkpt lat="44.21293" lon="6.91916">
        <ele>1974</ele>
        <time>2010-08-15T08:27:25Z</time>
      </trkpt>
      <trkpt lat="44.21291" lon="6.91915">
        <ele>1974</ele>
        <time>2010-08-15T08:27:26Z</time>
      </trkpt>
      <trkpt lat="44.2129" lon="6.91914">
        <ele>1974</ele>
        <time>2010-08-15T08:27:27Z</time>
      </trkpt>
      <trkpt lat="44.21288" lon="6.91914">
        <ele>1974</ele>
        <time>2010-08-15T08:27:28Z</time>
      </trkpt>
      <trkpt lat="44.21287" lon="6.91913">
        <ele>1974</ele>
        <time>2010-08-15T08:27:29Z</time>
      </trkpt>
      <trkpt lat="44.21286" lon="6.91912">
        <ele>1975</ele>
        <time>2010-08-15T08:27:30Z</time>
      </trkpt>
      <trkpt lat="44.21284" lon="6.91911">
        <ele>1975</ele>
        <time>2010-08-15T08:27:31Z</time>
      </trkpt>
      <trkpt lat="44.21283" lon="6.91911">
        <ele>1975</ele>
        <time>2010-08-15T08:27:32Z</time>
      </trkpt>
      <trkpt lat="44.21281" lon="6.9191">
        <ele>1975</ele>
        <time>2010-08-15T08:27:33Z</time>
      </trkpt>
      <trkpt lat="44.2128" lon="6.91909">
        <ele>1974</ele>
        <time>2010-08-15T08:27:34Z</time>
      </trkpt>
      <trkpt lat="44.21278" lon="6.91909">
        <ele>1974</ele>
        <time>2010-08-15T08:27:35Z</time>
      </trkpt>
      <trkpt lat="44.21277" lon="6.91908">
        <ele>1974</ele>
        <time>2010-08-15T08:27:36Z</time>
      </trkpt>
      <trkpt lat="44.21275" lon="6.91907">
        <ele>1974</ele>
        <time>2010-08-15T08:27:37Z</time>
      </trkpt>
      <trkpt lat="44.21274" lon="6.91906">
        <ele>1974</ele>
        <time>2010-08-15T08:27:38Z</time>
      </trkpt>
      <trkpt lat="44.21272" lon="6.91905">
        <ele>1974</ele>
        <time>2010-08-15T08:27:39Z</time>
      </trkpt>
      <trkpt lat="44.21271" lon="6.91905">
        <ele>1974</ele>
        <time>2010-08-15T08:27:40Z</time>
      </trkpt>
      <trkpt lat="44.2127" lon="6.91904">
        <ele>1974</ele>
        <time>2010-08-15T08:27:41Z</time>
      </trkpt>
      <trkpt lat="44.21269" lon="6.91903">
        <ele>1974</ele>
        <time>2010-08-15T08:27:42Z</time>
      </trkpt>
      <trkpt lat="44.21268" lon="6.91902">
        <ele>1974</ele>
        <time>2010-08-15T08:27:43Z</time>
      </trkpt>
      <trkpt lat="44.21266" lon="6.91901">
        <ele>1974</ele>
        <time>2010-08-15T08:27:44Z</time>
      </trkpt>
      <trkpt lat="44.21265" lon="6.919">
        <ele>1974</ele>
        <time>2010-08-15T08:27:45Z</time>
      </trkpt>
      <trkpt lat="44.21264" lon="6.91899">
        <ele>1975</ele>
        <time>2010-08-15T08:27:46Z</time>
      </trkpt>
      <trkpt lat="44.21263" lon="6.91898">
        <ele>1975</ele>
        <time>2010-08-15T08:27:47Z</time>
      </trkpt>
      <trkpt lat="44.21262" lon="6.91897">
        <ele>1975</ele>
        <time>2010-08-15T08:27:48Z</time>
      </trkpt>
      <trkpt lat="44.2126" lon="6.91896">
        <ele>1975</ele>
        <time>2010-08-15T08:27:49Z</time>
      </trkpt>
      <trkpt lat="44.21259" lon="6.91896">
        <ele>1975</ele>
        <time>2010-08-15T08:27:50Z</time>
      </trkpt>
      <trkpt lat="44.21258" lon="6.91895">
        <ele>1975</ele>
        <time>2010-08-15T08:27:51Z</time>
      </trkpt>
      <trkpt lat="44.21257" lon="6.91894">
        <ele>1975</ele>
        <time>2010-08-15T08:27:52Z</time>
      </trkpt>
      <trkpt lat="44.21257" lon="6.91893">
        <ele>1975</ele>
        <time>2010-08-15T08:27:53Z</time>
      </trkpt>
      <trkpt lat="44.21256" lon="6.91892">
        <ele>1976</ele>
        <time>2010-08-15T08:27:54Z</time>
      </trkpt>
      <trkpt lat="44.21254" lon="6.91891">
        <ele>1976</ele>
        <time>2010-08-15T08:27:55Z</time>
      </trkpt>
      <trkpt lat="44.21253" lon="6.91891">
        <ele>1976</ele>
        <time>2010-08-15T08:27:56Z</time>
      </trkpt>
      <trkpt lat="44.21251" lon="6.9189">
        <ele>1976</ele>
        <time>2010-08-15T08:27:57Z</time>
      </trkpt>
      <trkpt lat="44.2125" lon="6.9189">
        <ele>1978</ele>
        <time>2010-08-15T08:27:58Z</time>
      </trkpt>
      <trkpt lat="44.21249" lon="6.91889">
        <ele>1978</ele>
        <time>2010-08-15T08:27:59Z</time>
      </trkpt>
      <trkpt lat="44.21247" lon="6.91889">
        <ele>1978</ele>
        <time>2010-08-15T08:28:00Z</time>
      </trkpt>
      <trkpt lat="44.21246" lon="6.91889">
        <ele>1979</ele>
        <time>2010-08-15T08:28:01Z</time>
      </trkpt>
      <trkpt lat="44.21245" lon="6.91888">
        <ele>1979</ele>
        <time>2010-08-15T08:28:02Z</time>
      </trkpt>
      <trkpt lat="44.21244" lon="6.91887">
        <ele>1979</ele>
        <time>2010-08-15T08:28:03Z</time>
      </trkpt>
      <trkpt lat="44.21243" lon="6.91886">
        <ele>1979</ele>
        <time>2010-08-15T08:28:04Z</time>
      </trkpt>
      <trkpt lat="44.21241" lon="6.91885">
        <ele>1980</ele>
        <time>2010-08-15T08:28:05Z</time>
      </trkpt>
      <trkpt lat="44.2124" lon="6.91884">
        <ele>1980</ele>
        <time>2010-08-15T08:28:06Z</time>
      </trkpt>
      <trkpt lat="44.21239" lon="6.91884">
        <ele>1980</ele>
        <time>2010-08-15T08:28:07Z</time>
      </trkpt>
      <trkpt lat="44.21238" lon="6.91883">
        <ele>1980</ele>
        <time>2010-08-15T08:28:08Z</time>
      </trkpt>
      <trkpt lat="44.21237" lon="6.91882">
        <ele>1981</ele>
        <time>2010-08-15T08:28:09Z</time>
      </trkpt>
      <trkpt lat="44.21236" lon="6.91881">
        <ele>1981</ele>
        <time>2010-08-15T08:28:10Z</time>
      </trkpt>
      <trkpt lat="44.21235" lon="6.9188">
        <ele>1981</ele>
        <time>2010-08-15T08:28:11Z</time>
      </trkpt>
      <trkpt lat="44.21233" lon="6.9188">
        <ele>1981</ele>
        <time>2010-08-15T08:28:12Z</time>
      </trkpt>
      <trkpt lat="44.21232" lon="6.91879">
        <ele>1981</ele>
        <time>2010-08-15T08:28:13Z</time>
      </trkpt>
      <trkpt lat="44.21231" lon="6.91878">
        <ele>1982</ele>
        <time>2010-08-15T08:28:14Z</time>
      </trkpt>
      <trkpt lat="44.2123" lon="6.91877">
        <ele>1982</ele>
        <time>2010-08-15T08:28:15Z</time>
      </trkpt>
      <trkpt lat="44.21229" lon="6.91877">
        <ele>1982</ele>
        <time>2010-08-15T08:28:16Z</time>
      </trkpt>
      <trkpt lat="44.21228" lon="6.91876">
        <ele>1982</ele>
        <time>2010-08-15T08:28:17Z</time>
      </trkpt>
      <trkpt lat="44.21227" lon="6.91875">
        <ele>1982</ele>
        <time>2010-08-15T08:28:18Z</time>
      </trkpt>
      <trkpt lat="44.21225" lon="6.91874">
        <ele>1982</ele>
        <time>2010-08-15T08:28:19Z</time>
      </trkpt>
      <trkpt lat="44.21224" lon="6.91874">
        <ele>1982</ele>
        <time>2010-08-15T08:28:20Z</time>
      </trkpt>
      <trkpt lat="44.21223" lon="6.91873">
        <ele>1983</ele>
        <time>2010-08-15T08:28:21Z</time>
      </trkpt>
      <trkpt lat="44.21222" lon="6.91873">
        <ele>1983</ele>
        <time>2010-08-15T08:28:22Z</time>
      </trkpt>
      <trkpt lat="44.21221" lon="6.91872">
        <ele>1983</ele>
        <time>2010-08-15T08:28:23Z</time>
      </trkpt>
      <trkpt lat="44.2122" lon="6.91872">
        <ele>1983</ele>
        <time>2010-08-15T08:28:24Z</time>
      </trkpt>
      <trkpt lat="44.21218" lon="6.91871">
        <ele>1983</ele>
        <time>2010-08-15T08:28:25Z</time>
      </trkpt>
      <trkpt lat="44.21217" lon="6.9187">
        <ele>1983</ele>
        <time>2010-08-15T08:28:26Z</time>
      </trkpt>
      <trkpt lat="44.21216" lon="6.91869">
        <ele>1983</ele>
        <time>2010-08-15T08:28:27Z</time>
      </trkpt>
      <trkpt lat="44.21215" lon="6.91869">
        <ele>1983</ele>
        <time>2010-08-15T08:28:28Z</time>
      </trkpt>
      <trkpt lat="44.21213" lon="6.91868">
        <ele>1984</ele>
        <time>2010-08-15T08:28:29Z</time>
      </trkpt>
      <trkpt lat="44.21212" lon="6.91867">
        <ele>1984</ele>
        <time>2010-08-15T08:28:30Z</time>
      </trkpt>
      <trkpt lat="44.21211" lon="6.91866">
        <ele>1984</ele>
        <time>2010-08-15T08:28:31Z</time>
      </trkpt>
      <trkpt lat="44.21209" lon="6.91865">
        <ele>1984</ele>
        <time>2010-08-15T08:28:32Z</time>
      </trkpt>
      <trkpt lat="44.21208" lon="6.91864">
        <ele>1984</ele>
        <time>2010-08-15T08:28:33Z</time>
      </trkpt>
      <trkpt lat="44.21207" lon="6.91863">
        <ele>1984</ele>
        <time>2010-08-15T08:28:34Z</time>
      </trkpt>
      <trkpt lat="44.21206" lon="6.91862">
        <ele>1985</ele>
        <time>2010-08-15T08:28:35Z</time>
      </trkpt>
      <trkpt lat="44.21205" lon="6.91861">
        <ele>1985</ele>
        <time>2010-08-15T08:28:36Z</time>
      </trkpt>
      <trkpt lat="44.21204" lon="6.9186">
        <ele>1985</ele>
        <time>2010-08-15T08:28:37Z</time>
      </trkpt>
      <trkpt lat="44.21202" lon="6.91859">
        <ele>1985</ele>
        <time>2010-08-15T08:28:38Z</time>
      </trkpt>
      <trkpt lat="44.21201" lon="6.91858">
        <ele>1985</ele>
        <time>2010-08-15T08:28:39Z</time>
      </trkpt>
      <trkpt lat="44.212" lon="6.91856">
        <ele>1986</ele>
        <time>2010-08-15T08:28:40Z</time>
      </trkpt>
      <trkpt lat="44.21199" lon="6.91855">
        <ele>1986</ele>
        <time>2010-08-15T08:28:41Z</time>
      </trkpt>
      <trkpt lat="44.21198" lon="6.91854">
        <ele>1986</ele>
        <time>2010-08-15T08:28:42Z</time>
      </trkpt>
      <trkpt lat="44.21196" lon="6.91853">
        <ele>1986</ele>
        <time>2010-08-15T08:28:43Z</time>
      </trkpt>
      <trkpt lat="44.21195" lon="6.91852">
        <ele>1987</ele>
        <time>2010-08-15T08:28:44Z</time>
      </trkpt>
      <trkpt lat="44.21194" lon="6.91852">
        <ele>1987</ele>
        <time>2010-08-15T08:28:45Z</time>
      </trkpt>
      <trkpt lat="44.21192" lon="6.91851">
        <ele>1987</ele>
        <time>2010-08-15T08:28:46Z</time>
      </trkpt>
      <trkpt lat="44.21191" lon="6.9185">
        <ele>1987</ele>
        <time>2010-08-15T08:28:47Z</time>
      </trkpt>
      <trkpt lat="44.2119" lon="6.9185">
        <ele>1988</ele>
        <time>2010-08-15T08:28:48Z</time>
      </trkpt>
      <trkpt lat="44.21188" lon="6.91849">
        <ele>1988</ele>
        <time>2010-08-15T08:28:49Z</time>
      </trkpt>
      <trkpt lat="44.21187" lon="6.91848">
        <ele>1988</ele>
        <time>2010-08-15T08:28:50Z</time>
      </trkpt>
      <trkpt lat="44.21185" lon="6.91848">
        <ele>1989</ele>
        <time>2010-08-15T08:28:51Z</time>
      </trkpt>
      <trkpt lat="44.21184" lon="6.91847">
        <ele>1989</ele>
        <time>2010-08-15T08:28:52Z</time>
      </trkpt>
      <trkpt lat="44.21182" lon="6.91846">
        <ele>1989</ele>
        <time>2010-08-15T08:28:53Z</time>
      </trkpt>
      <trkpt lat="44.21181" lon="6.91845">
        <ele>1990</ele>
        <time>2010-08-15T08:28:54Z</time>
      </trkpt>
      <trkpt lat="44.21179" lon="6.91845">
        <ele>1990</ele>
        <time>2010-08-15T08:28:55Z</time>
      </trkpt>
      <trkpt lat="44.21178" lon="6.91844">
        <ele>1991</ele>
        <time>2010-08-15T08:28:56Z</time>
      </trkpt>
      <trkpt lat="44.21176" lon="6.91843">
        <ele>1992</ele>
        <time>2010-08-15T08:28:57Z</time>
      </trkpt>
      <trkpt lat="44.21175" lon="6.91841">
        <ele>1992</ele>
        <time>2010-08-15T08:28:58Z</time>
      </trkpt>
      <trkpt lat="44.21173" lon="6.9184">
        <ele>1993</ele>
        <time>2010-08-15T08:28:59Z</time>
      </trkpt>
      <trkpt lat="44.21171" lon="6.91839">
        <ele>1994</ele>
        <time>2010-08-15T08:29:00Z</time>
      </trkpt>
      <trkpt lat="44.21169" lon="6.91838">
        <ele>1995</ele>
        <time>2010-08-15T08:29:01Z</time>
      </trkpt>
      <trkpt lat="44.21167" lon="6.91837">
        <ele>1996</ele>
        <time>2010-08-15T08:29:02Z</time>
      </trkpt>
      <trkpt lat="44.21165" lon="6.91836">
        <ele>1997</ele>
        <time>2010-08-15T08:29:03Z</time>
      </trkpt>
      <trkpt lat="44.21164" lon="6.91835">
        <ele>1997</ele>
        <time>2010-08-15T08:29:04Z</time>
      </trkpt>
      <trkpt lat="44.21162" lon="6.91833">
        <ele>2001</ele>
        <time>2010-08-15T08:29:05Z</time>
      </trkpt>
      <trkpt lat="44.21161" lon="6.91832">
        <ele>2002</ele>
        <time>2010-08-15T08:29:06Z</time>
      </trkpt>
      <trkpt lat="44.21159" lon="6.9183">
        <ele>2004</ele>
        <time>2010-08-15T08:29:07Z</time>
      </trkpt>
      <trkpt lat="44.21157" lon="6.9183">
        <ele>2005</ele>
        <time>2010-08-15T08:29:08Z</time>
      </trkpt>
      <trkpt lat="44.21155" lon="6.91829">
        <ele>2006</ele>
        <time>2010-08-15T08:29:09Z</time>
      </trkpt>
      <trkpt lat="44.21153" lon="6.91828">
        <ele>2007</ele>
        <time>2010-08-15T08:29:10Z</time>
      </trkpt>
      <trkpt lat="44.21151" lon="6.91827">
        <ele>2008</ele>
        <time>2010-08-15T08:29:11Z</time>
      </trkpt>
      <trkpt lat="44.2115" lon="6.91826">
        <ele>2008</ele>
        <time>2010-08-15T08:29:12Z</time>
      </trkpt>
      <trkpt lat="44.21148" lon="6.91825">
        <ele>2009</ele>
        <time>2010-08-15T08:29:13Z</time>
      </trkpt>
      <trkpt lat="44.21146" lon="6.91824">
        <ele>2010</ele>
        <time>2010-08-15T08:29:14Z</time>
      </trkpt>
      <trkpt lat="44.21144" lon="6.91824">
        <ele>2010</ele>
        <time>2010-08-15T08:29:15Z</time>
      </trkpt>
      <trkpt lat="44.21142" lon="6.91823">
        <ele>2011</ele>
        <time>2010-08-15T08:29:16Z</time>
      </trkpt>
      <trkpt lat="44.21141" lon="6.91823">
        <ele>2011</ele>
        <time>2010-08-15T08:29:17Z</time>
      </trkpt>
      <trkpt lat="44.21139" lon="6.91821">
        <ele>2012</ele>
        <time>2010-08-15T08:29:18Z</time>
      </trkpt>
      <trkpt lat="44.21137" lon="6.91821">
        <ele>2012</ele>
        <time>2010-08-15T08:29:19Z</time>
      </trkpt>
      <trkpt lat="44.21135" lon="6.9182">
        <ele>2012</ele>
        <time>2010-08-15T08:29:20Z</time>
      </trkpt>
      <trkpt lat="44.21133" lon="6.91819">
        <ele>2013</ele>
        <time>2010-08-15T08:29:21Z</time>
      </trkpt>
      <trkpt lat="44.21131" lon="6.91818">
        <ele>2013</ele>
        <time>2010-08-15T08:29:22Z</time>
      </trkpt>
      <trkpt lat="44.21129" lon="6.91818">
        <ele>2013</ele>
        <time>2010-08-15T08:29:23Z</time>
      </trkpt>
      <trkpt lat="44.21127" lon="6.91817">
        <ele>2014</ele>
        <time>2010-08-15T08:29:24Z</time>
      </trkpt>
      <trkpt lat="44.21126" lon="6.91817">
        <ele>2014</ele>
        <time>2010-08-15T08:29:25Z</time>
      </trkpt>
      <trkpt lat="44.21124" lon="6.91816">
        <ele>2014</ele>
        <time>2010-08-15T08:29:26Z</time>
      </trkpt>
      <trkpt lat="44.21122" lon="6.91816">
        <ele>2014</ele>
        <time>2010-08-15T08:29:27Z</time>
      </trkpt>
      <trkpt lat="44.2112" lon="6.91816">
        <ele>2014</ele>
        <time>2010-08-15T08:29:28Z</time>
      </trkpt>
      <trkpt lat="44.21118" lon="6.91816">
        <ele>2014</ele>
        <time>2010-08-15T08:29:29Z</time>
      </trkpt>
      <trkpt lat="44.21116" lon="6.91816">
        <ele>2014</ele>
        <time>2010-08-15T08:29:30Z</time>
      </trkpt>
      <trkpt lat="44.21113" lon="6.91816">
        <ele>2014</ele>
        <time>2010-08-15T08:29:31Z</time>
      </trkpt>
      <trkpt lat="44.21111" lon="6.91815">
        <ele>2014</ele>
        <time>2010-08-15T08:29:32Z</time>
      </trkpt>
      <trkpt lat="44.21109" lon="6.91816">
        <ele>2014</ele>
        <time>2010-08-15T08:29:33Z</time>
      </trkpt>
      <trkpt lat="44.21107" lon="6.91817">
        <ele>2014</ele>
        <time>2010-08-15T08:29:34Z</time>
      </trkpt>
      <trkpt lat="44.21105" lon="6.91817">
        <ele>2014</ele>
        <time>2010-08-15T08:29:35Z</time>
      </trkpt>
      <trkpt lat="44.21103" lon="6.91817">
        <ele>2014</ele>
        <time>2010-08-15T08:29:36Z</time>
      </trkpt>
      <trkpt lat="44.211" lon="6.91817">
        <ele>2013</ele>
        <time>2010-08-15T08:29:37Z</time>
      </trkpt>
      <trkpt lat="44.21098" lon="6.91818">
        <ele>2013</ele>
        <time>2010-08-15T08:29:38Z</time>
      </trkpt>
      <trkpt lat="44.21096" lon="6.91818">
        <ele>2013</ele>
        <time>2010-08-15T08:29:39Z</time>
      </trkpt>
      <trkpt lat="44.21095" lon="6.91819">
        <ele>2012</ele>
        <time>2010-08-15T08:29:40Z</time>
      </trkpt>
      <trkpt lat="44.21093" lon="6.9182">
        <ele>2012</ele>
        <time>2010-08-15T08:29:41Z</time>
      </trkpt>
      <trkpt lat="44.21091" lon="6.91821">
        <ele>2012</ele>
        <time>2010-08-15T08:29:42Z</time>
      </trkpt>
      <trkpt lat="44.21089" lon="6.91822">
        <ele>2011</ele>
        <time>2010-08-15T08:29:43Z</time>
      </trkpt>
      <trkpt lat="44.21088" lon="6.91822">
        <ele>2011</ele>
        <time>2010-08-15T08:29:44Z</time>
      </trkpt>
      <trkpt lat="44.21087" lon="6.91823">
        <ele>2010</ele>
        <time>2010-08-15T08:29:45Z</time>
      </trkpt>
      <trkpt lat="44.21085" lon="6.91824">
        <ele>2010</ele>
        <time>2010-08-15T08:29:46Z</time>
      </trkpt>
      <trkpt lat="44.21084" lon="6.91825">
        <ele>2010</ele>
        <time>2010-08-15T08:29:47Z</time>
      </trkpt>
      <trkpt lat="44.21082" lon="6.91826">
        <ele>2013</ele>
        <time>2010-08-15T08:29:48Z</time>
      </trkpt>
      <trkpt lat="44.21081" lon="6.91827">
        <ele>2013</ele>
        <time>2010-08-15T08:29:49Z</time>
      </trkpt>
      <trkpt lat="44.21079" lon="6.91827">
        <ele>2013</ele>
        <time>2010-08-15T08:29:50Z</time>
      </trkpt>
      <trkpt lat="44.21078" lon="6.91828">
        <ele>2013</ele>
        <time>2010-08-15T08:29:51Z</time>
      </trkpt>
      <trkpt lat="44.21077" lon="6.91829">
        <ele>2014</ele>
        <time>2010-08-15T08:29:52Z</time>
      </trkpt>
      <trkpt lat="44.21076" lon="6.9183">
        <ele>2014</ele>
        <time>2010-08-15T08:29:53Z</time>
      </trkpt>
      <trkpt lat="44.21074" lon="6.9183">
        <ele>2015</ele>
        <time>2010-08-15T08:29:54Z</time>
      </trkpt>
      <trkpt lat="44.21073" lon="6.91831">
        <ele>2016</ele>
        <time>2010-08-15T08:29:55Z</time>
      </trkpt>
      <trkpt lat="44.21071" lon="6.91832">
        <ele>2017</ele>
        <time>2010-08-15T08:29:56Z</time>
      </trkpt>
      <trkpt lat="44.2107" lon="6.91833">
        <ele>2018</ele>
        <time>2010-08-15T08:29:57Z</time>
      </trkpt>
      <trkpt lat="44.21068" lon="6.91833">
        <ele>2018</ele>
        <time>2010-08-15T08:29:58Z</time>
      </trkpt>
      <trkpt lat="44.21067" lon="6.91834">
        <ele>2009</ele>
        <time>2010-08-15T08:29:59Z</time>
      </trkpt>
      <trkpt lat="44.21066" lon="6.91835">
        <ele>2009</ele>
        <time>2010-08-15T08:30:00Z</time>
      </trkpt>
      <trkpt lat="44.21065" lon="6.91835">
        <ele>2009</ele>
        <time>2010-08-15T08:30:01Z</time>
      </trkpt>
      <trkpt lat="44.21064" lon="6.91836">
        <ele>2009</ele>
        <time>2010-08-15T08:30:02Z</time>
      </trkpt>
      <trkpt lat="44.21062" lon="6.91836">
        <ele>2009</ele>
        <time>2010-08-15T08:30:03Z</time>
      </trkpt>
      <trkpt lat="44.21061" lon="6.91837">
        <ele>2010</ele>
        <time>2010-08-15T08:30:04Z</time>
      </trkpt>
      <trkpt lat="44.2106" lon="6.91837">
        <ele>2010</ele>
        <time>2010-08-15T08:30:05Z</time>
      </trkpt>
      <trkpt lat="44.21058" lon="6.91838">
        <ele>2010</ele>
        <time>2010-08-15T08:30:06Z</time>
      </trkpt>
      <trkpt lat="44.21057" lon="6.91838">
        <ele>2010</ele>
        <time>2010-08-15T08:30:07Z</time>
      </trkpt>
      <trkpt lat="44.21056" lon="6.91839">
        <ele>2011</ele>
        <time>2010-08-15T08:30:08Z</time>
      </trkpt>
      <trkpt lat="44.21055" lon="6.91839">
        <ele>2011</ele>
        <time>2010-08-15T08:30:09Z</time>
      </trkpt>
      <trkpt lat="44.21053" lon="6.91841">
        <ele>2011</ele>
        <time>2010-08-15T08:30:10Z</time>
      </trkpt>
      <trkpt lat="44.21052" lon="6.91841">
        <ele>2011</ele>
        <time>2010-08-15T08:30:11Z</time>
      </trkpt>
      <trkpt lat="44.21051" lon="6.91843">
        <ele>2011</ele>
        <time>2010-08-15T08:30:12Z</time>
      </trkpt>
      <trkpt lat="44.2105" lon="6.91844">
        <ele>2011</ele>
        <time>2010-08-15T08:30:13Z</time>
      </trkpt>
      <trkpt lat="44.21048" lon="6.91845">
        <ele>2012</ele>
        <time>2010-08-15T08:30:14Z</time>
      </trkpt>
      <trkpt lat="44.21047" lon="6.91846">
        <ele>2012</ele>
        <time>2010-08-15T08:30:15Z</time>
      </trkpt>
      <trkpt lat="44.21046" lon="6.91846">
        <ele>2012</ele>
        <time>2010-08-15T08:30:16Z</time>
      </trkpt>
      <trkpt lat="44.21044" lon="6.91847">
        <ele>2012</ele>
        <time>2010-08-15T08:30:17Z</time>
      </trkpt>
      <trkpt lat="44.21043" lon="6.91848">
        <ele>2013</ele>
        <time>2010-08-15T08:30:18Z</time>
      </trkpt>
      <trkpt lat="44.21042" lon="6.91849">
        <ele>2013</ele>
        <time>2010-08-15T08:30:19Z</time>
      </trkpt>
      <trkpt lat="44.21041" lon="6.9185">
        <ele>2013</ele>
        <time>2010-08-15T08:30:20Z</time>
      </trkpt>
      <trkpt lat="44.2104" lon="6.91851">
        <ele>2013</ele>
        <time>2010-08-15T08:30:21Z</time>
      </trkpt>
      <trkpt lat="44.21039" lon="6.91852">
        <ele>2013</ele>
        <time>2010-08-15T08:30:22Z</time>
      </trkpt>
      <trkpt lat="44.21038" lon="6.91853">
        <ele>2013</ele>
        <time>2010-08-15T08:30:23Z</time>
      </trkpt>
      <trkpt lat="44.21037" lon="6.91854">
        <ele>2014</ele>
        <time>2010-08-15T08:30:24Z</time>
      </trkpt>
      <trkpt lat="44.21035" lon="6.91855">
        <ele>2014</ele>
        <time>2010-08-15T08:30:25Z</time>
      </trkpt>
      <trkpt lat="44.21034" lon="6.91856">
        <ele>2014</ele>
        <time>2010-08-15T08:30:26Z</time>
      </trkpt>
      <trkpt lat="44.21033" lon="6.91857">
        <ele>2014</ele>
        <time>2010-08-15T08:30:27Z</time>
      </trkpt>
      <trkpt lat="44.21032" lon="6.91858">
        <ele>2014</ele>
        <time>2010-08-15T08:30:28Z</time>
      </trkpt>
      <trkpt lat="44.21031" lon="6.91859">
        <ele>2014</ele>
        <time>2010-08-15T08:30:29Z</time>
      </trkpt>
      <trkpt lat="44.21029" lon="6.9186">
        <ele>2015</ele>
        <time>2010-08-15T08:30:30Z</time>
      </trkpt>
      <trkpt lat="44.21028" lon="6.91861">
        <ele>2015</ele>
        <time>2010-08-15T08:30:31Z</time>
      </trkpt>
      <trkpt lat="44.21027" lon="6.91862">
        <ele>2015</ele>
        <time>2010-08-15T08:30:32Z</time>
      </trkpt>
      <trkpt lat="44.21025" lon="6.91863">
        <ele>2015</ele>
        <time>2010-08-15T08:30:33Z</time>
      </trkpt>
      <trkpt lat="44.21024" lon="6.91864">
        <ele>2015</ele>
        <time>2010-08-15T08:30:34Z</time>
      </trkpt>
      <trkpt lat="44.21023" lon="6.91865">
        <ele>2015</ele>
        <time>2010-08-15T08:30:35Z</time>
      </trkpt>
      <trkpt lat="44.21022" lon="6.91866">
        <ele>2015</ele>
        <time>2010-08-15T08:30:36Z</time>
      </trkpt>
      <trkpt lat="44.21021" lon="6.91867">
        <ele>2015</ele>
        <time>2010-08-15T08:30:37Z</time>
      </trkpt>
      <trkpt lat="44.2102" lon="6.91869">
        <ele>2015</ele>
        <time>2010-08-15T08:30:38Z</time>
      </trkpt>
      <trkpt lat="44.21019" lon="6.9187">
        <ele>2015</ele>
        <time>2010-08-15T08:30:39Z</time>
      </trkpt>
      <trkpt lat="44.21017" lon="6.91871">
        <ele>2015</ele>
        <time>2010-08-15T08:30:40Z</time>
      </trkpt>
      <trkpt lat="44.21016" lon="6.91873">
        <ele>2015</ele>
        <time>2010-08-15T08:30:41Z</time>
      </trkpt>
      <trkpt lat="44.21015" lon="6.91874">
        <ele>2015</ele>
        <time>2010-08-15T08:30:42Z</time>
      </trkpt>
      <trkpt lat="44.21014" lon="6.91876">
        <ele>2015</ele>
        <time>2010-08-15T08:30:43Z</time>
      </trkpt>
      <trkpt lat="44.21013" lon="6.91878">
        <ele>2015</ele>
        <time>2010-08-15T08:30:44Z</time>
      </trkpt>
      <trkpt lat="44.21012" lon="6.91879">
        <ele>2015</ele>
        <time>2010-08-15T08:30:45Z</time>
      </trkpt>
      <trkpt lat="44.21011" lon="6.91881">
        <ele>2015</ele>
        <time>2010-08-15T08:30:46Z</time>
      </trkpt>
      <trkpt lat="44.2101" lon="6.91882">
        <ele>2015</ele>
        <time>2010-08-15T08:30:47Z</time>
      </trkpt>
      <trkpt lat="44.21009" lon="6.91884">
        <ele>2015</ele>
        <time>2010-08-15T08:30:48Z</time>
      </trkpt>
      <trkpt lat="44.21008" lon="6.91885">
        <ele>2016</ele>
        <time>2010-08-15T08:30:49Z</time>
      </trkpt>
      <trkpt lat="44.21007" lon="6.91887">
        <ele>2016</ele>
        <time>2010-08-15T08:30:50Z</time>
      </trkpt>
      <trkpt lat="44.21006" lon="6.91888">
        <ele>2016</ele>
        <time>2010-08-15T08:30:51Z</time>
      </trkpt>
      <trkpt lat="44.21005" lon="6.9189">
        <ele>2016</ele>
        <time>2010-08-15T08:30:52Z</time>
      </trkpt>
      <trkpt lat="44.21004" lon="6.91891">
        <ele>2016</ele>
        <time>2010-08-15T08:30:53Z</time>
      </trkpt>
      <trkpt lat="44.21002" lon="6.91893">
        <ele>2016</ele>
        <time>2010-08-15T08:30:54Z</time>
      </trkpt>
      <trkpt lat="44.21001" lon="6.91894">
        <ele>2016</ele>
        <time>2010-08-15T08:30:55Z</time>
      </trkpt>
      <trkpt lat="44.21" lon="6.91895">
        <ele>2017</ele>
        <time>2010-08-15T08:30:56Z</time>
      </trkpt>
      <trkpt lat="44.20999" lon="6.91896">
        <ele>2034</ele>
        <time>2010-08-15T08:30:57Z</time>
      </trkpt>
      <trkpt lat="44.20998" lon="6.91897">
        <ele>2034</ele>
        <time>2010-08-15T08:30:58Z</time>
      </trkpt>
      <trkpt lat="44.20997" lon="6.91899">
        <ele>2033</ele>
        <time>2010-08-15T08:30:59Z</time>
      </trkpt>
      <trkpt lat="44.20996" lon="6.91901">
        <ele>2033</ele>
        <time>2010-08-15T08:31:00Z</time>
      </trkpt>
      <trkpt lat="44.20995" lon="6.91902">
        <ele>2032</ele>
        <time>2010-08-15T08:31:01Z</time>
      </trkpt>
      <trkpt lat="44.20994" lon="6.91904">
        <ele>2032</ele>
        <time>2010-08-15T08:31:02Z</time>
      </trkpt>
      <trkpt lat="44.20993" lon="6.91905">
        <ele>2031</ele>
        <time>2010-08-15T08:31:03Z</time>
      </trkpt>
      <trkpt lat="44.20992" lon="6.91906">
        <ele>2031</ele>
        <time>2010-08-15T08:31:04Z</time>
      </trkpt>
      <trkpt lat="44.20991" lon="6.91908">
        <ele>2031</ele>
        <time>2010-08-15T08:31:05Z</time>
      </trkpt>
      <trkpt lat="44.2099" lon="6.91909">
        <ele>2031</ele>
        <time>2010-08-15T08:31:06Z</time>
      </trkpt>
      <trkpt lat="44.20989" lon="6.9191">
        <ele>2031</ele>
        <time>2010-08-15T08:31:07Z</time>
      </trkpt>
      <trkpt lat="44.20988" lon="6.91912">
        <ele>2031</ele>
        <time>2010-08-15T08:31:08Z</time>
      </trkpt>
      <trkpt lat="44.20986" lon="6.91913">
        <ele>2032</ele>
        <time>2010-08-15T08:31:09Z</time>
      </trkpt>
      <trkpt lat="44.20985" lon="6.91915">
        <ele>2032</ele>
        <time>2010-08-15T08:31:10Z</time>
      </trkpt>
      <trkpt lat="44.20984" lon="6.91916">
        <ele>2033</ele>
        <time>2010-08-15T08:31:11Z</time>
      </trkpt>
      <trkpt lat="44.20983" lon="6.91917">
        <ele>2027</ele>
        <time>2010-08-15T08:31:12Z</time>
      </trkpt>
      <trkpt lat="44.20982" lon="6.91919">
        <ele>2027</ele>
        <time>2010-08-15T08:31:13Z</time>
      </trkpt>
      <trkpt lat="44.20981" lon="6.9192">
        <ele>2028</ele>
        <time>2010-08-15T08:31:14Z</time>
      </trkpt>
      <trkpt lat="44.2098" lon="6.91921">
        <ele>2028</ele>
        <time>2010-08-15T08:31:15Z</time>
      </trkpt>
      <trkpt lat="44.20979" lon="6.91923">
        <ele>2028</ele>
        <time>2010-08-15T08:31:16Z</time>
      </trkpt>
      <trkpt lat="44.20978" lon="6.91924">
        <ele>2028</ele>
        <time>2010-08-15T08:31:17Z</time>
      </trkpt>
      <trkpt lat="44.20978" lon="6.91926">
        <ele>2029</ele>
        <time>2010-08-15T08:31:18Z</time>
      </trkpt>
      <trkpt lat="44.20977" lon="6.91927">
        <ele>2029</ele>
        <time>2010-08-15T08:31:19Z</time>
      </trkpt>
      <trkpt lat="44.20976" lon="6.91929">
        <ele>2029</ele>
        <time>2010-08-15T08:31:20Z</time>
      </trkpt>
      <trkpt lat="44.20975" lon="6.91931">
        <ele>2029</ele>
        <time>2010-08-15T08:31:21Z</time>
      </trkpt>
      <trkpt lat="44.20975" lon="6.91933">
        <ele>2029</ele>
        <time>2010-08-15T08:31:22Z</time>
      </trkpt>
      <trkpt lat="44.20974" lon="6.91935">
        <ele>2029</ele>
        <time>2010-08-15T08:31:23Z</time>
      </trkpt>
      <trkpt lat="44.20974" lon="6.91936">
        <ele>2029</ele>
        <time>2010-08-15T08:31:24Z</time>
      </trkpt>
      <trkpt lat="44.20974" lon="6.91938">
        <ele>2029</ele>
        <time>2010-08-15T08:31:25Z</time>
      </trkpt>
      <trkpt lat="44.20973" lon="6.9194">
        <ele>2029</ele>
        <time>2010-08-15T08:31:26Z</time>
      </trkpt>
      <trkpt lat="44.20972" lon="6.91942">
        <ele>2029</ele>
        <time>2010-08-15T08:31:27Z</time>
      </trkpt>
      <trkpt lat="44.20971" lon="6.91944">
        <ele>2030</ele>
        <time>2010-08-15T08:31:28Z</time>
      </trkpt>
      <trkpt lat="44.2097" lon="6.91946">
        <ele>2030</ele>
        <time>2010-08-15T08:31:29Z</time>
      </trkpt>
      <trkpt lat="44.20969" lon="6.91948">
        <ele>2030</ele>
        <time>2010-08-15T08:31:30Z</time>
      </trkpt>
      <trkpt lat="44.20968" lon="6.9195">
        <ele>2030</ele>
        <time>2010-08-15T08:31:31Z</time>
      </trkpt>
      <trkpt lat="44.20966" lon="6.91952">
        <ele>2030</ele>
        <time>2010-08-15T08:31:32Z</time>
      </trkpt>
      <trkpt lat="44.20966" lon="6.91954">
        <ele>2030</ele>
        <time>2010-08-15T08:31:33Z</time>
      </trkpt>
      <trkpt lat="44.20964" lon="6.91955">
        <ele>2030</ele>
        <time>2010-08-15T08:31:34Z</time>
      </trkpt>
      <trkpt lat="44.20963" lon="6.91957">
        <ele>2030</ele>
        <time>2010-08-15T08:31:35Z</time>
      </trkpt>
      <trkpt lat="44.20962" lon="6.91958">
        <ele>2030</ele>
        <time>2010-08-15T08:31:36Z</time>
      </trkpt>
      <trkpt lat="44.20961" lon="6.9196">
        <ele>2030</ele>
        <time>2010-08-15T08:31:37Z</time>
      </trkpt>
      <trkpt lat="44.2096" lon="6.91961">
        <ele>2030</ele>
        <time>2010-08-15T08:31:38Z</time>
      </trkpt>
      <trkpt lat="44.20959" lon="6.91963">
        <ele>2030</ele>
        <time>2010-08-15T08:31:39Z</time>
      </trkpt>
      <trkpt lat="44.20958" lon="6.91965">
        <ele>2031</ele>
        <time>2010-08-15T08:31:40Z</time>
      </trkpt>
      <trkpt lat="44.20957" lon="6.91966">
        <ele>2031</ele>
        <time>2010-08-15T08:31:41Z</time>
      </trkpt>
      <trkpt lat="44.20955" lon="6.91967">
        <ele>2031</ele>
        <time>2010-08-15T08:31:42Z</time>
      </trkpt>
      <trkpt lat="44.20954" lon="6.91969">
        <ele>2031</ele>
        <time>2010-08-15T08:31:43Z</time>
      </trkpt>
      <trkpt lat="44.20953" lon="6.9197">
        <ele>2031</ele>
        <time>2010-08-15T08:31:44Z</time>
      </trkpt>
      <trkpt lat="44.20952" lon="6.91972">
        <ele>2031</ele>
        <time>2010-08-15T08:31:45Z</time>
      </trkpt>
      <trkpt lat="44.20951" lon="6.91973">
        <ele>2031</ele>
        <time>2010-08-15T08:31:46Z</time>
      </trkpt>
      <trkpt lat="44.20949" lon="6.91975">
        <ele>2032</ele>
        <time>2010-08-15T08:31:47Z</time>
      </trkpt>
      <trkpt lat="44.20948" lon="6.91977">
        <ele>2032</ele>
        <time>2010-08-15T08:31:48Z</time>
      </trkpt>
      <trkpt lat="44.20947" lon="6.91978">
        <ele>2032</ele>
        <time>2010-08-15T08:31:49Z</time>
      </trkpt>
      <trkpt lat="44.20946" lon="6.9198">
        <ele>2032</ele>
        <time>2010-08-15T08:31:50Z</time>
      </trkpt>
      <trkpt lat="44.20944" lon="6.91981">
        <ele>2032</ele>
        <time>2010-08-15T08:31:51Z</time>
      </trkpt>
      <trkpt lat="44.20943" lon="6.91982">
        <ele>2033</ele>
        <time>2010-08-15T08:31:52Z</time>
      </trkpt>
      <trkpt lat="44.20942" lon="6.91983">
        <ele>2033</ele>
        <time>2010-08-15T08:31:53Z</time>
      </trkpt>
      <trkpt lat="44.2094" lon="6.91985">
        <ele>2033</ele>
        <time>2010-08-15T08:31:54Z</time>
      </trkpt>
      <trkpt lat="44.20939" lon="6.91986">
        <ele>2034</ele>
        <time>2010-08-15T08:31:55Z</time>
      </trkpt>
      <trkpt lat="44.20937" lon="6.91987">
        <ele>2034</ele>
        <time>2010-08-15T08:31:56Z</time>
      </trkpt>
      <trkpt lat="44.20936" lon="6.91988">
        <ele>2034</ele>
        <time>2010-08-15T08:31:57Z</time>
      </trkpt>
      <trkpt lat="44.20934" lon="6.91989">
        <ele>2035</ele>
        <time>2010-08-15T08:31:58Z</time>
      </trkpt>
      <trkpt lat="44.20933" lon="6.9199">
        <ele>2035</ele>
        <time>2010-08-15T08:31:59Z</time>
      </trkpt>
      <trkpt lat="44.20932" lon="6.91991">
        <ele>2035</ele>
        <time>2010-08-15T08:32:00Z</time>
      </trkpt>
      <trkpt lat="44.2093" lon="6.91991">
        <ele>2035</ele>
        <time>2010-08-15T08:32:01Z</time>
      </trkpt>
      <trkpt lat="44.20929" lon="6.91992">
        <ele>2036</ele>
        <time>2010-08-15T08:32:02Z</time>
      </trkpt>
      <trkpt lat="44.20928" lon="6.91993">
        <ele>2036</ele>
        <time>2010-08-15T08:32:03Z</time>
      </trkpt>
      <trkpt lat="44.20927" lon="6.91994">
        <ele>2036</ele>
        <time>2010-08-15T08:32:04Z</time>
      </trkpt>
      <trkpt lat="44.20926" lon="6.91995">
        <ele>2037</ele>
        <time>2010-08-15T08:32:05Z</time>
      </trkpt>
      <trkpt lat="44.20925" lon="6.91995">
        <ele>2037</ele>
        <time>2010-08-15T08:32:06Z</time>
      </trkpt>
      <trkpt lat="44.20923" lon="6.91996">
        <ele>2038</ele>
        <time>2010-08-15T08:32:07Z</time>
      </trkpt>
      <trkpt lat="44.20922" lon="6.91997">
        <ele>2038</ele>
        <time>2010-08-15T08:32:08Z</time>
      </trkpt>
      <trkpt lat="44.20921" lon="6.91997">
        <ele>2038</ele>
        <time>2010-08-15T08:32:09Z</time>
      </trkpt>
      <trkpt lat="44.20919" lon="6.91998">
        <ele>2039</ele>
        <time>2010-08-15T08:32:10Z</time>
      </trkpt>
      <trkpt lat="44.20918" lon="6.91998">
        <ele>2039</ele>
        <time>2010-08-15T08:32:11Z</time>
      </trkpt>
      <trkpt lat="44.20916" lon="6.91999">
        <ele>2041</ele>
        <time>2010-08-15T08:32:12Z</time>
      </trkpt>
      <trkpt lat="44.20915" lon="6.92">
        <ele>2042</ele>
        <time>2010-08-15T08:32:13Z</time>
      </trkpt>
      <trkpt lat="44.20914" lon="6.92">
        <ele>2042</ele>
        <time>2010-08-15T08:32:14Z</time>
      </trkpt>
      <trkpt lat="44.20912" lon="6.92001">
        <ele>2043</ele>
        <time>2010-08-15T08:32:15Z</time>
      </trkpt>
      <trkpt lat="44.20911" lon="6.92002">
        <ele>2044</ele>
        <time>2010-08-15T08:32:16Z</time>
      </trkpt>
      <trkpt lat="44.2091" lon="6.92003">
        <ele>2045</ele>
        <time>2010-08-15T08:32:17Z</time>
      </trkpt>
      <trkpt lat="44.20909" lon="6.92004">
        <ele>2045</ele>
        <time>2010-08-15T08:32:18Z</time>
      </trkpt>
      <trkpt lat="44.20907" lon="6.92004">
        <ele>2046</ele>
        <time>2010-08-15T08:32:19Z</time>
      </trkpt>
      <trkpt lat="44.20906" lon="6.92005">
        <ele>2047</ele>
        <time>2010-08-15T08:32:20Z</time>
      </trkpt>
      <trkpt lat="44.20905" lon="6.92006">
        <ele>2047</ele>
        <time>2010-08-15T08:32:21Z</time>
      </trkpt>
      <trkpt lat="44.20903" lon="6.92006">
        <ele>2048</ele>
        <time>2010-08-15T08:32:22Z</time>
      </trkpt>
      <trkpt lat="44.20902" lon="6.92007">
        <ele>2049</ele>
        <time>2010-08-15T08:32:23Z</time>
      </trkpt>
      <trkpt lat="44.209" lon="6.92007">
        <ele>2049</ele>
        <time>2010-08-15T08:32:24Z</time>
      </trkpt>
      <trkpt lat="44.20899" lon="6.92008">
        <ele>2050</ele>
        <time>2010-08-15T08:32:25Z</time>
      </trkpt>
      <trkpt lat="44.20897" lon="6.92009">
        <ele>2051</ele>
        <time>2010-08-15T08:32:26Z</time>
      </trkpt>
      <trkpt lat="44.20896" lon="6.9201">
        <ele>2051</ele>
        <time>2010-08-15T08:32:27Z</time>
      </trkpt>
      <trkpt lat="44.20895" lon="6.92011">
        <ele>2052</ele>
        <time>2010-08-15T08:32:28Z</time>
      </trkpt>
      <trkpt lat="44.20893" lon="6.92012">
        <ele>2052</ele>
        <time>2010-08-15T08:32:29Z</time>
      </trkpt>
      <trkpt lat="44.20892" lon="6.92013">
        <ele>2053</ele>
        <time>2010-08-15T08:32:30Z</time>
      </trkpt>
      <trkpt lat="44.20891" lon="6.92014">
        <ele>2053</ele>
        <time>2010-08-15T08:32:31Z</time>
      </trkpt>
      <trkpt lat="44.2089" lon="6.92015">
        <ele>2054</ele>
        <time>2010-08-15T08:32:32Z</time>
      </trkpt>
      <trkpt lat="44.20888" lon="6.92016">
        <ele>2054</ele>
        <time>2010-08-15T08:32:33Z</time>
      </trkpt>
      <trkpt lat="44.20887" lon="6.92017">
        <ele>2055</ele>
        <time>2010-08-15T08:32:34Z</time>
      </trkpt>
      <trkpt lat="44.20886" lon="6.92018">
        <ele>2055</ele>
        <time>2010-08-15T08:32:35Z</time>
      </trkpt>
      <trkpt lat="44.20884" lon="6.92019">
        <ele>2055</ele>
        <time>2010-08-15T08:32:36Z</time>
      </trkpt>
      <trkpt lat="44.20883" lon="6.9202">
        <ele>2056</ele>
        <time>2010-08-15T08:32:37Z</time>
      </trkpt>
      <trkpt lat="44.20881" lon="6.92021">
        <ele>2056</ele>
        <time>2010-08-15T08:32:38Z</time>
      </trkpt>
      <trkpt lat="44.2088" lon="6.92022">
        <ele>2057</ele>
        <time>2010-08-15T08:32:39Z</time>
      </trkpt>
      <trkpt lat="44.20879" lon="6.92023">
        <ele>2057</ele>
        <time>2010-08-15T08:32:40Z</time>
      </trkpt>
      <trkpt lat="44.20877" lon="6.92025">
        <ele>2057</ele>
        <time>2010-08-15T08:32:41Z</time>
      </trkpt>
      <trkpt lat="44.20876" lon="6.92026">
        <ele>2058</ele>
        <time>2010-08-15T08:32:42Z</time>
      </trkpt>
      <trkpt lat="44.20875" lon="6.92028">
        <ele>2058</ele>
        <time>2010-08-15T08:32:43Z</time>
      </trkpt>
      <trkpt lat="44.20875" lon="6.9203">
        <ele>2058</ele>
        <time>2010-08-15T08:32:44Z</time>
      </trkpt>
      <trkpt lat="44.20874" lon="6.92031">
        <ele>2058</ele>
        <time>2010-08-15T08:32:45Z</time>
      </trkpt>
      <trkpt lat="44.20873" lon="6.92032">
        <ele>2058</ele>
        <time>2010-08-15T08:32:46Z</time>
      </trkpt>
      <trkpt lat="44.20872" lon="6.92034">
        <ele>2059</ele>
        <time>2010-08-15T08:32:47Z</time>
      </trkpt>
      <trkpt lat="44.20871" lon="6.92036">
        <ele>2059</ele>
        <time>2010-08-15T08:32:48Z</time>
      </trkpt>
      <trkpt lat="44.2087" lon="6.92037">
        <ele>2059</ele>
        <time>2010-08-15T08:32:49Z</time>
      </trkpt>
      <trkpt lat="44.20869" lon="6.92039">
        <ele>2059</ele>
        <time>2010-08-15T08:32:50Z</time>
      </trkpt>
      <trkpt lat="44.20868" lon="6.92041">
        <ele>2059</ele>
        <time>2010-08-15T08:32:51Z</time>
      </trkpt>
      <trkpt lat="44.20867" lon="6.92043">
        <ele>2060</ele>
        <time>2010-08-15T08:32:52Z</time>
      </trkpt>
      <trkpt lat="44.20866" lon="6.92045">
        <ele>2060</ele>
        <time>2010-08-15T08:32:53Z</time>
      </trkpt>
      <trkpt lat="44.20866" lon="6.92047">
        <ele>2060</ele>
        <time>2010-08-15T08:32:54Z</time>
      </trkpt>
      <trkpt lat="44.20865" lon="6.92049">
        <ele>2060</ele>
        <time>2010-08-15T08:32:55Z</time>
      </trkpt>
      <trkpt lat="44.20865" lon="6.92051">
        <ele>2060</ele>
        <time>2010-08-15T08:32:56Z</time>
      </trkpt>
      <trkpt lat="44.20864" lon="6.92052">
        <ele>2060</ele>
        <time>2010-08-15T08:32:57Z</time>
      </trkpt>
      <trkpt lat="44.20863" lon="6.92055">
        <ele>2060</ele>
        <time>2010-08-15T08:32:58Z</time>
      </trkpt>
      <trkpt lat="44.20863" lon="6.92057">
        <ele>2061</ele>
        <time>2010-08-15T08:32:59Z</time>
      </trkpt>
      <trkpt lat="44.20862" lon="6.92059">
        <ele>2061</ele>
        <time>2010-08-15T08:33:00Z</time>
      </trkpt>
      <trkpt lat="44.20862" lon="6.92061">
        <ele>2061</ele>
        <time>2010-08-15T08:33:01Z</time>
      </trkpt>
      <trkpt lat="44.20861" lon="6.92063">
        <ele>2061</ele>
        <time>2010-08-15T08:33:02Z</time>
      </trkpt>
      <trkpt lat="44.20861" lon="6.92065">
        <ele>2062</ele>
        <time>2010-08-15T08:33:03Z</time>
      </trkpt>
      <trkpt lat="44.2086" lon="6.92067">
        <ele>2062</ele>
        <time>2010-08-15T08:33:04Z</time>
      </trkpt>
      <trkpt lat="44.2086" lon="6.92069">
        <ele>2062</ele>
        <time>2010-08-15T08:33:05Z</time>
      </trkpt>
      <trkpt lat="44.2086" lon="6.92071">
        <ele>2062</ele>
        <time>2010-08-15T08:33:06Z</time>
      </trkpt>
      <trkpt lat="44.20859" lon="6.92073">
        <ele>2063</ele>
        <time>2010-08-15T08:33:07Z</time>
      </trkpt>
      <trkpt lat="44.20859" lon="6.92075">
        <ele>2063</ele>
        <time>2010-08-15T08:33:08Z</time>
      </trkpt>
      <trkpt lat="44.20859" lon="6.92078">
        <ele>2063</ele>
        <time>2010-08-15T08:33:09Z</time>
      </trkpt>
      <trkpt lat="44.20859" lon="6.9208">
        <ele>2063</ele>
        <time>2010-08-15T08:33:10Z</time>
      </trkpt>
      <trkpt lat="44.20859" lon="6.92082">
        <ele>2063</ele>
        <time>2010-08-15T08:33:11Z</time>
      </trkpt>
      <trkpt lat="44.20859" lon="6.92084">
        <ele>2066</ele>
        <time>2010-08-15T08:33:12Z</time>
      </trkpt>
      <trkpt lat="44.20859" lon="6.92086">
        <ele>2065</ele>
        <time>2010-08-15T08:33:13Z</time>
      </trkpt>
      <trkpt lat="44.20859" lon="6.92088">
        <ele>2065</ele>
        <time>2010-08-15T08:33:14Z</time>
      </trkpt>
      <trkpt lat="44.20859" lon="6.9209">
        <ele>2065</ele>
        <time>2010-08-15T08:33:15Z</time>
      </trkpt>
      <trkpt lat="44.2086" lon="6.92092">
        <ele>2065</ele>
        <time>2010-08-15T08:33:16Z</time>
      </trkpt>
      <trkpt lat="44.2086" lon="6.92094">
        <ele>2065</ele>
        <time>2010-08-15T08:33:17Z</time>
      </trkpt>
      <trkpt lat="44.20861" lon="6.92096">
        <ele>2065</ele>
        <time>2010-08-15T08:33:18Z</time>
      </trkpt>
      <trkpt lat="44.20861" lon="6.92098">
        <ele>2065</ele>
        <time>2010-08-15T08:33:19Z</time>
      </trkpt>
      <trkpt lat="44.20861" lon="6.921">
        <ele>2065</ele>
        <time>2010-08-15T08:33:20Z</time>
      </trkpt>
      <trkpt lat="44.20862" lon="6.92102">
        <ele>2064</ele>
        <time>2010-08-15T08:33:21Z</time>
      </trkpt>
      <trkpt lat="44.20862" lon="6.92104">
        <ele>2064</ele>
        <time>2010-08-15T08:33:22Z</time>
      </trkpt>
      <trkpt lat="44.20862" lon="6.92106">
        <ele>2064</ele>
        <time>2010-08-15T08:33:23Z</time>
      </trkpt>
      <trkpt lat="44.20862" lon="6.92108">
        <ele>2064</ele>
        <time>2010-08-15T08:33:24Z</time>
      </trkpt>
      <trkpt lat="44.20863" lon="6.9211">
        <ele>2064</ele>
        <time>2010-08-15T08:33:25Z</time>
      </trkpt>
      <trkpt lat="44.20863" lon="6.92112">
        <ele>2064</ele>
        <time>2010-08-15T08:33:26Z</time>
      </trkpt>
      <trkpt lat="44.20863" lon="6.92114">
        <ele>2064</ele>
        <time>2010-08-15T08:33:27Z</time>
      </trkpt>
      <trkpt lat="44.20863" lon="6.92116">
        <ele>2064</ele>
        <time>2010-08-15T08:33:28Z</time>
      </trkpt>
      <trkpt lat="44.20864" lon="6.92118">
        <ele>2064</ele>
        <time>2010-08-15T08:33:29Z</time>
      </trkpt>
      <trkpt lat="44.20864" lon="6.9212">
        <ele>2064</ele>
        <time>2010-08-15T08:33:30Z</time>
      </trkpt>
      <trkpt lat="44.20865" lon="6.92122">
        <ele>2064</ele>
        <time>2010-08-15T08:33:31Z</time>
      </trkpt>
      <trkpt lat="44.20865" lon="6.92124">
        <ele>2064</ele>
        <time>2010-08-15T08:33:32Z</time>
      </trkpt>
      <trkpt lat="44.20865" lon="6.92126">
        <ele>2064</ele>
        <time>2010-08-15T08:33:33Z</time>
      </trkpt>
      <trkpt lat="44.20865" lon="6.92129">
        <ele>2064</ele>
        <time>2010-08-15T08:33:34Z</time>
      </trkpt>
      <trkpt lat="44.20865" lon="6.92131">
        <ele>2065</ele>
        <time>2010-08-15T08:33:35Z</time>
      </trkpt>
      <trkpt lat="44.20866" lon="6.92133">
        <ele>2065</ele>
        <time>2010-08-15T08:33:36Z</time>
      </trkpt>
      <trkpt lat="44.20866" lon="6.92135">
        <ele>2065</ele>
        <time>2010-08-15T08:33:37Z</time>
      </trkpt>
      <trkpt lat="44.20866" lon="6.92137">
        <ele>2065</ele>
        <time>2010-08-15T08:33:38Z</time>
      </trkpt>
      <trkpt lat="44.20867" lon="6.92139">
        <ele>2065</ele>
        <time>2010-08-15T08:33:39Z</time>
      </trkpt>
      <trkpt lat="44.20867" lon="6.9214">
        <ele>2065</ele>
        <time>2010-08-15T08:33:40Z</time>
      </trkpt>
      <trkpt lat="44.20868" lon="6.92141">
        <ele>2065</ele>
        <time>2010-08-15T08:33:41Z</time>
      </trkpt>
      <trkpt lat="44.20869" lon="6.92143">
        <ele>2065</ele>
        <time>2010-08-15T08:33:42Z</time>
      </trkpt>
      <trkpt lat="44.20869" lon="6.92145">
        <ele>2065</ele>
        <time>2010-08-15T08:33:43Z</time>
      </trkpt>
      <trkpt lat="44.20869" lon="6.92147">
        <ele>2065</ele>
        <time>2010-08-15T08:33:44Z</time>
      </trkpt>
      <trkpt lat="44.2087" lon="6.9215">
        <ele>2065</ele>
        <time>2010-08-15T08:33:45Z</time>
      </trkpt>
      <trkpt lat="44.20869" lon="6.92152">
        <ele>2065</ele>
        <time>2010-08-15T08:33:46Z</time>
      </trkpt>
      <trkpt lat="44.20869" lon="6.92154">
        <ele>2066</ele>
        <time>2010-08-15T08:33:47Z</time>
      </trkpt>
      <trkpt lat="44.20869" lon="6.92156">
        <ele>2066</ele>
        <time>2010-08-15T08:33:48Z</time>
      </trkpt>
      <trkpt lat="44.20869" lon="6.92158">
        <ele>2066</ele>
        <time>2010-08-15T08:33:49Z</time>
      </trkpt>
      <trkpt lat="44.2087" lon="6.9216">
        <ele>2066</ele>
        <time>2010-08-15T08:33:50Z</time>
      </trkpt>
      <trkpt lat="44.2087" lon="6.92162">
        <ele>2066</ele>
        <time>2010-08-15T08:33:51Z</time>
      </trkpt>
      <trkpt lat="44.20871" lon="6.92165">
        <ele>2066</ele>
        <time>2010-08-15T08:33:52Z</time>
      </trkpt>
      <trkpt lat="44.20871" lon="6.92167">
        <ele>2071</ele>
        <time>2010-08-15T08:33:53Z</time>
      </trkpt>
      <trkpt lat="44.20871" lon="6.9217">
        <ele>2071</ele>
        <time>2010-08-15T08:33:54Z</time>
      </trkpt>
      <trkpt lat="44.20872" lon="6.92172">
        <ele>2071</ele>
        <time>2010-08-15T08:33:55Z</time>
      </trkpt>
      <trkpt lat="44.20872" lon="6.92175">
        <ele>2071</ele>
        <time>2010-08-15T08:33:56Z</time>
      </trkpt>
      <trkpt lat="44.20873" lon="6.92176">
        <ele>2071</ele>
        <time>2010-08-15T08:33:57Z</time>
      </trkpt>
      <trkpt lat="44.20873" lon="6.92178">
        <ele>2071</ele>
        <time>2010-08-15T08:33:58Z</time>
      </trkpt>
      <trkpt lat="44.20874" lon="6.92181">
        <ele>2071</ele>
        <time>2010-08-15T08:33:59Z</time>
      </trkpt>
      <trkpt lat="44.20874" lon="6.92184">
        <ele>2071</ele>
        <time>2010-08-15T08:34:00Z</time>
      </trkpt>
      <trkpt lat="44.20875" lon="6.92187">
        <ele>2071</ele>
        <time>2010-08-15T08:34:01Z</time>
      </trkpt>
      <trkpt lat="44.20875" lon="6.92189">
        <ele>2071</ele>
        <time>2010-08-15T08:34:02Z</time>
      </trkpt>
      <trkpt lat="44.20875" lon="6.92192">
        <ele>2071</ele>
        <time>2010-08-15T08:34:03Z</time>
      </trkpt>
      <trkpt lat="44.20875" lon="6.92195">
        <ele>2071</ele>
        <time>2010-08-15T08:34:04Z</time>
      </trkpt>
      <trkpt lat="44.20876" lon="6.92198">
        <ele>2071</ele>
        <time>2010-08-15T08:34:05Z</time>
      </trkpt>
      <trkpt lat="44.20876" lon="6.92201">
        <ele>2071</ele>
        <time>2010-08-15T08:34:06Z</time>
      </trkpt>
      <trkpt lat="44.20876" lon="6.92205">
        <ele>2071</ele>
        <time>2010-08-15T08:34:07Z</time>
      </trkpt>
      <trkpt lat="44.20877" lon="6.92208">
        <ele>2071</ele>
        <time>2010-08-15T08:34:08Z</time>
      </trkpt>
      <trkpt lat="44.20877" lon="6.92211">
        <ele>2071</ele>
        <time>2010-08-15T08:34:09Z</time>
      </trkpt>
      <trkpt lat="44.20877" lon="6.92214">
        <ele>2071</ele>
        <time>2010-08-15T08:34:10Z</time>
      </trkpt>
      <trkpt lat="44.20876" lon="6.92217">
        <ele>2071</ele>
        <time>2010-08-15T08:34:11Z</time>
      </trkpt>
      <trkpt lat="44.20876" lon="6.92219">
        <ele>2071</ele>
        <time>2010-08-15T08:34:12Z</time>
      </trkpt>
      <trkpt lat="44.20876" lon="6.92222">
        <ele>2072</ele>
        <time>2010-08-15T08:34:13Z</time>
      </trkpt>
      <trkpt lat="44.20877" lon="6.92224">
        <ele>2072</ele>
        <time>2010-08-15T08:34:14Z</time>
      </trkpt>
      <trkpt lat="44.20876" lon="6.92227">
        <ele>2072</ele>
        <time>2010-08-15T08:34:15Z</time>
      </trkpt>
      <trkpt lat="44.20876" lon="6.92229">
        <ele>2072</ele>
        <time>2010-08-15T08:34:16Z</time>
      </trkpt>
      <trkpt lat="44.20876" lon="6.92232">
        <ele>2072</ele>
        <time>2010-08-15T08:34:17Z</time>
      </trkpt>
      <trkpt lat="44.20876" lon="6.92235">
        <ele>2072</ele>
        <time>2010-08-15T08:34:18Z</time>
      </trkpt>
      <trkpt lat="44.20875" lon="6.92238">
        <ele>2072</ele>
        <time>2010-08-15T08:34:19Z</time>
      </trkpt>
      <trkpt lat="44.20874" lon="6.92241">
        <ele>2072</ele>
        <time>2010-08-15T08:34:20Z</time>
      </trkpt>
      <trkpt lat="44.20874" lon="6.92243">
        <ele>2073</ele>
        <time>2010-08-15T08:34:21Z</time>
      </trkpt>
      <trkpt lat="44.20872" lon="6.92246">
        <ele>2073</ele>
        <time>2010-08-15T08:34:22Z</time>
      </trkpt>
      <trkpt lat="44.20871" lon="6.92249">
        <ele>2073</ele>
        <time>2010-08-15T08:34:23Z</time>
      </trkpt>
      <trkpt lat="44.2087" lon="6.92251">
        <ele>2077</ele>
        <time>2010-08-15T08:34:24Z</time>
      </trkpt>
      <trkpt lat="44.20868" lon="6.92254">
        <ele>2077</ele>
        <time>2010-08-15T08:34:25Z</time>
      </trkpt>
      <trkpt lat="44.20867" lon="6.92257">
        <ele>2077</ele>
        <time>2010-08-15T08:34:26Z</time>
      </trkpt>
      <trkpt lat="44.20866" lon="6.92259">
        <ele>2078</ele>
        <time>2010-08-15T08:34:27Z</time>
      </trkpt>
      <trkpt lat="44.20865" lon="6.92262">
        <ele>2078</ele>
        <time>2010-08-15T08:34:28Z</time>
      </trkpt>
      <trkpt lat="44.20864" lon="6.92264">
        <ele>2078</ele>
        <time>2010-08-15T08:34:29Z</time>
      </trkpt>
      <trkpt lat="44.20863" lon="6.92267">
        <ele>2078</ele>
        <time>2010-08-15T08:34:30Z</time>
      </trkpt>
      <trkpt lat="44.20862" lon="6.9227">
        <ele>2078</ele>
        <time>2010-08-15T08:34:31Z</time>
      </trkpt>
      <trkpt lat="44.20862" lon="6.92273">
        <ele>2078</ele>
        <time>2010-08-15T08:34:32Z</time>
      </trkpt>
      <trkpt lat="44.20861" lon="6.92276">
        <ele>2078</ele>
        <time>2010-08-15T08:34:33Z</time>
      </trkpt>
      <trkpt lat="44.2086" lon="6.92279">
        <ele>2078</ele>
        <time>2010-08-15T08:34:34Z</time>
      </trkpt>
      <trkpt lat="44.20859" lon="6.92282">
        <ele>2078</ele>
        <time>2010-08-15T08:34:35Z</time>
      </trkpt>
      <trkpt lat="44.20859" lon="6.92285">
        <ele>2078</ele>
        <time>2010-08-15T08:34:36Z</time>
      </trkpt>
      <trkpt lat="44.20858" lon="6.92287">
        <ele>2079</ele>
        <time>2010-08-15T08:34:37Z</time>
      </trkpt>
      <trkpt lat="44.20857" lon="6.9229">
        <ele>2079</ele>
        <time>2010-08-15T08:34:38Z</time>
      </trkpt>
      <trkpt lat="44.20857" lon="6.92293">
        <ele>2079</ele>
        <time>2010-08-15T08:34:39Z</time>
      </trkpt>
      <trkpt lat="44.20855" lon="6.92296">
        <ele>2079</ele>
        <time>2010-08-15T08:34:40Z</time>
      </trkpt>
      <trkpt lat="44.20854" lon="6.92298">
        <ele>2079</ele>
        <time>2010-08-15T08:34:41Z</time>
      </trkpt>
      <trkpt lat="44.20854" lon="6.92301">
        <ele>2080</ele>
        <time>2010-08-15T08:34:42Z</time>
      </trkpt>
      <trkpt lat="44.20853" lon="6.92303">
        <ele>2080</ele>
        <time>2010-08-15T08:34:43Z</time>
      </trkpt>
      <trkpt lat="44.20853" lon="6.92306">
        <ele>2080</ele>
        <time>2010-08-15T08:34:44Z</time>
      </trkpt>
      <trkpt lat="44.20852" lon="6.92309">
        <ele>2080</ele>
        <time>2010-08-15T08:34:45Z</time>
      </trkpt>
      <trkpt lat="44.20852" lon="6.92311">
        <ele>2081</ele>
        <time>2010-08-15T08:34:46Z</time>
      </trkpt>
      <trkpt lat="44.20851" lon="6.92314">
        <ele>2081</ele>
        <time>2010-08-15T08:34:47Z</time>
      </trkpt>
      <trkpt lat="44.20851" lon="6.92317">
        <ele>2081</ele>
        <time>2010-08-15T08:34:48Z</time>
      </trkpt>
      <trkpt lat="44.2085" lon="6.92319">
        <ele>2082</ele>
        <time>2010-08-15T08:34:49Z</time>
      </trkpt>
      <trkpt lat="44.20849" lon="6.92322">
        <ele>2082</ele>
        <time>2010-08-15T08:34:50Z</time>
      </trkpt>
      <trkpt lat="44.20848" lon="6.92325">
        <ele>2083</ele>
        <time>2010-08-15T08:34:51Z</time>
      </trkpt>
      <trkpt lat="44.20848" lon="6.92328">
        <ele>2083</ele>
        <time>2010-08-15T08:34:52Z</time>
      </trkpt>
      <trkpt lat="44.20847" lon="6.9233">
        <ele>2083</ele>
        <time>2010-08-15T08:34:53Z</time>
      </trkpt>
      <trkpt lat="44.20847" lon="6.92332">
        <ele>2084</ele>
        <time>2010-08-15T08:34:54Z</time>
      </trkpt>
      <trkpt lat="44.20846" lon="6.92335">
        <ele>2084</ele>
        <time>2010-08-15T08:34:55Z</time>
      </trkpt>
      <trkpt lat="44.20846" lon="6.92338">
        <ele>2084</ele>
        <time>2010-08-15T08:34:56Z</time>
      </trkpt>
      <trkpt lat="44.20845" lon="6.92341">
        <ele>2084</ele>
        <time>2010-08-15T08:34:57Z</time>
      </trkpt>
      <trkpt lat="44.20845" lon="6.92344">
        <ele>2083</ele>
        <time>2010-08-15T08:34:58Z</time>
      </trkpt>
      <trkpt lat="44.20845" lon="6.92347">
        <ele>2083</ele>
        <time>2010-08-15T08:34:59Z</time>
      </trkpt>
      <trkpt lat="44.20844" lon="6.9235">
        <ele>2082</ele>
        <time>2010-08-15T08:35:00Z</time>
      </trkpt>
      <trkpt lat="44.20844" lon="6.92354">
        <ele>2082</ele>
        <time>2010-08-15T08:35:01Z</time>
      </trkpt>
      <trkpt lat="44.20843" lon="6.92357">
        <ele>2082</ele>
        <time>2010-08-15T08:35:02Z</time>
      </trkpt>
      <trkpt lat="44.20842" lon="6.9236">
        <ele>2081</ele>
        <time>2010-08-15T08:35:03Z</time>
      </trkpt>
      <trkpt lat="44.20841" lon="6.92363">
        <ele>2081</ele>
        <time>2010-08-15T08:35:04Z</time>
      </trkpt>
      <trkpt lat="44.2084" lon="6.92366">
        <ele>2081</ele>
        <time>2010-08-15T08:35:05Z</time>
      </trkpt>
      <trkpt lat="44.2084" lon="6.92369">
        <ele>2081</ele>
        <time>2010-08-15T08:35:06Z</time>
      </trkpt>
      <trkpt lat="44.20839" lon="6.92372">
        <ele>2081</ele>
        <time>2010-08-15T08:35:07Z</time>
      </trkpt>
      <trkpt lat="44.20837" lon="6.92375">
        <ele>2081</ele>
        <time>2010-08-15T08:35:08Z</time>
      </trkpt>
      <trkpt lat="44.20836" lon="6.92378">
        <ele>2081</ele>
        <time>2010-08-15T08:35:09Z</time>
      </trkpt>
      <trkpt lat="44.20835" lon="6.92381">
        <ele>2081</ele>
        <time>2010-08-15T08:35:10Z</time>
      </trkpt>
      <trkpt lat="44.20834" lon="6.92384">
        <ele>2081</ele>
        <time>2010-08-15T08:35:11Z</time>
      </trkpt>
      <trkpt lat="44.20833" lon="6.92387">
        <ele>2096</ele>
        <time>2010-08-15T08:35:12Z</time>
      </trkpt>
      <trkpt lat="44.20831" lon="6.92389">
        <ele>2096</ele>
        <time>2010-08-15T08:35:13Z</time>
      </trkpt>
      <trkpt lat="44.2083" lon="6.92391">
        <ele>2095</ele>
        <time>2010-08-15T08:35:14Z</time>
      </trkpt>
      <trkpt lat="44.20829" lon="6.92394">
        <ele>2095</ele>
        <time>2010-08-15T08:35:15Z</time>
      </trkpt>
      <trkpt lat="44.20827" lon="6.92396">
        <ele>2095</ele>
        <time>2010-08-15T08:35:16Z</time>
      </trkpt>
      <trkpt lat="44.20826" lon="6.92398">
        <ele>2095</ele>
        <time>2010-08-15T08:35:17Z</time>
      </trkpt>
      <trkpt lat="44.20825" lon="6.92401">
        <ele>2095</ele>
        <time>2010-08-15T08:35:18Z</time>
      </trkpt>
      <trkpt lat="44.20823" lon="6.92403">
        <ele>2094</ele>
        <time>2010-08-15T08:35:19Z</time>
      </trkpt>
      <trkpt lat="44.20822" lon="6.92405">
        <ele>2094</ele>
        <time>2010-08-15T08:35:20Z</time>
      </trkpt>
      <trkpt lat="44.20821" lon="6.92408">
        <ele>2094</ele>
        <time>2010-08-15T08:35:21Z</time>
      </trkpt>
      <trkpt lat="44.20819" lon="6.92411">
        <ele>2094</ele>
        <time>2010-08-15T08:35:22Z</time>
      </trkpt>
      <trkpt lat="44.20817" lon="6.92413">
        <ele>2094</ele>
        <time>2010-08-15T08:35:23Z</time>
      </trkpt>
      <trkpt lat="44.20816" lon="6.92416">
        <ele>2095</ele>
        <time>2010-08-15T08:35:24Z</time>
      </trkpt>
      <trkpt lat="44.20814" lon="6.92419">
        <ele>2093</ele>
        <time>2010-08-15T08:35:25Z</time>
      </trkpt>
      <trkpt lat="44.20812" lon="6.92421">
        <ele>2094</ele>
        <time>2010-08-15T08:35:26Z</time>
      </trkpt>
      <trkpt lat="44.20811" lon="6.92423">
        <ele>2094</ele>
        <time>2010-08-15T08:35:27Z</time>
      </trkpt>
      <trkpt lat="44.20809" lon="6.92426">
        <ele>2094</ele>
        <time>2010-08-15T08:35:28Z</time>
      </trkpt>
      <trkpt lat="44.20808" lon="6.92428">
        <ele>2095</ele>
        <time>2010-08-15T08:35:29Z</time>
      </trkpt>
      <trkpt lat="44.20807" lon="6.92431">
        <ele>2095</ele>
        <time>2010-08-15T08:35:30Z</time>
      </trkpt>
      <trkpt lat="44.20805" lon="6.92433">
        <ele>2095</ele>
        <time>2010-08-15T08:35:31Z</time>
      </trkpt>
      <trkpt lat="44.20804" lon="6.92435">
        <ele>2095</ele>
        <time>2010-08-15T08:35:32Z</time>
      </trkpt>
      <trkpt lat="44.20802" lon="6.92438">
        <ele>2096</ele>
        <time>2010-08-15T08:35:33Z</time>
      </trkpt>
      <trkpt lat="44.208" lon="6.92441">
        <ele>2096</ele>
        <time>2010-08-15T08:35:34Z</time>
      </trkpt>
      <trkpt lat="44.208" lon="6.92443">
        <ele>2096</ele>
        <time>2010-08-15T08:35:35Z</time>
      </trkpt>
      <trkpt lat="44.20798" lon="6.92446">
        <ele>2096</ele>
        <time>2010-08-15T08:35:36Z</time>
      </trkpt>
      <trkpt lat="44.20797" lon="6.92449">
        <ele>2096</ele>
        <time>2010-08-15T08:35:37Z</time>
      </trkpt>
      <trkpt lat="44.20797" lon="6.92451">
        <ele>2096</ele>
        <time>2010-08-15T08:35:38Z</time>
      </trkpt>
      <trkpt lat="44.20795" lon="6.92454">
        <ele>2096</ele>
        <time>2010-08-15T08:35:39Z</time>
      </trkpt>
      <trkpt lat="44.20794" lon="6.92457">
        <ele>2096</ele>
        <time>2010-08-15T08:35:40Z</time>
      </trkpt>
      <trkpt lat="44.20793" lon="6.92459">
        <ele>2097</ele>
        <time>2010-08-15T08:35:41Z</time>
      </trkpt>
      <trkpt lat="44.20792" lon="6.92462">
        <ele>2097</ele>
        <time>2010-08-15T08:35:42Z</time>
      </trkpt>
      <trkpt lat="44.2079" lon="6.92464">
        <ele>2097</ele>
        <time>2010-08-15T08:35:43Z</time>
      </trkpt>
      <trkpt lat="44.20788" lon="6.92466">
        <ele>2097</ele>
        <time>2010-08-15T08:35:44Z</time>
      </trkpt>
      <trkpt lat="44.20787" lon="6.92468">
        <ele>2097</ele>
        <time>2010-08-15T08:35:45Z</time>
      </trkpt>
      <trkpt lat="44.20785" lon="6.9247">
        <ele>2097</ele>
        <time>2010-08-15T08:35:46Z</time>
      </trkpt>
      <trkpt lat="44.20785" lon="6.92473">
        <ele>2097</ele>
        <time>2010-08-15T08:35:47Z</time>
      </trkpt>
      <trkpt lat="44.20784" lon="6.92476">
        <ele>2097</ele>
        <time>2010-08-15T08:35:48Z</time>
      </trkpt>
      <trkpt lat="44.20782" lon="6.9248">
        <ele>2097</ele>
        <time>2010-08-15T08:35:49Z</time>
      </trkpt>
      <trkpt lat="44.20781" lon="6.92483">
        <ele>2098</ele>
        <time>2010-08-15T08:35:50Z</time>
      </trkpt>
      <trkpt lat="44.2078" lon="6.92486">
        <ele>2098</ele>
        <time>2010-08-15T08:35:51Z</time>
      </trkpt>
      <trkpt lat="44.20778" lon="6.92489">
        <ele>2098</ele>
        <time>2010-08-15T08:35:52Z</time>
      </trkpt>
      <trkpt lat="44.20777" lon="6.92491">
        <ele>2098</ele>
        <time>2010-08-15T08:35:53Z</time>
      </trkpt>
      <trkpt lat="44.20775" lon="6.92495">
        <ele>2099</ele>
        <time>2010-08-15T08:35:54Z</time>
      </trkpt>
      <trkpt lat="44.20774" lon="6.92498">
        <ele>2099</ele>
        <time>2010-08-15T08:35:55Z</time>
      </trkpt>
      <trkpt lat="44.20773" lon="6.92501">
        <ele>2096</ele>
        <time>2010-08-15T08:35:56Z</time>
      </trkpt>
      <trkpt lat="44.20772" lon="6.92504">
        <ele>2097</ele>
        <time>2010-08-15T08:35:57Z</time>
      </trkpt>
      <trkpt lat="44.20771" lon="6.92508">
        <ele>2097</ele>
        <time>2010-08-15T08:35:58Z</time>
      </trkpt>
      <trkpt lat="44.2077" lon="6.92512">
        <ele>2097</ele>
        <time>2010-08-15T08:35:59Z</time>
      </trkpt>
      <trkpt lat="44.20769" lon="6.92516">
        <ele>2096</ele>
        <time>2010-08-15T08:36:00Z</time>
      </trkpt>
      <trkpt lat="44.20768" lon="6.92519">
        <ele>2096</ele>
        <time>2010-08-15T08:36:01Z</time>
      </trkpt>
      <trkpt lat="44.20767" lon="6.92522">
        <ele>2096</ele>
        <time>2010-08-15T08:36:02Z</time>
      </trkpt>
      <trkpt lat="44.20767" lon="6.92526">
        <ele>2096</ele>
        <time>2010-08-15T08:36:03Z</time>
      </trkpt>
      <trkpt lat="44.20766" lon="6.92528">
        <ele>2096</ele>
        <time>2010-08-15T08:36:04Z</time>
      </trkpt>
      <trkpt lat="44.20765" lon="6.92531">
        <ele>2095</ele>
        <time>2010-08-15T08:36:05Z</time>
      </trkpt>
      <trkpt lat="44.20765" lon="6.92534">
        <ele>2095</ele>
        <time>2010-08-15T08:36:06Z</time>
      </trkpt>
      <trkpt lat="44.20764" lon="6.92537">
        <ele>2095</ele>
        <time>2010-08-15T08:36:07Z</time>
      </trkpt>
      <trkpt lat="44.20764" lon="6.92541">
        <ele>2095</ele>
        <time>2010-08-15T08:36:08Z</time>
      </trkpt>
      <trkpt lat="44.20764" lon="6.92544">
        <ele>2095</ele>
        <time>2010-08-15T08:36:09Z</time>
      </trkpt>
      <trkpt lat="44.20763" lon="6.92547">
        <ele>2095</ele>
        <time>2010-08-15T08:36:10Z</time>
      </trkpt>
      <trkpt lat="44.20763" lon="6.92551">
        <ele>2095</ele>
        <time>2010-08-15T08:36:11Z</time>
      </trkpt>
      <trkpt lat="44.20763" lon="6.92555">
        <ele>2095</ele>
        <time>2010-08-15T08:36:12Z</time>
      </trkpt>
      <trkpt lat="44.20762" lon="6.92558">
        <ele>2095</ele>
        <time>2010-08-15T08:36:13Z</time>
      </trkpt>
      <trkpt lat="44.20761" lon="6.92562">
        <ele>2095</ele>
        <time>2010-08-15T08:36:14Z</time>
      </trkpt>
      <trkpt lat="44.2076" lon="6.92566">
        <ele>2096</ele>
        <time>2010-08-15T08:36:15Z</time>
      </trkpt>
      <trkpt lat="44.2076" lon="6.9257">
        <ele>2096</ele>
        <time>2010-08-15T08:36:16Z</time>
      </trkpt>
      <trkpt lat="44.20759" lon="6.92574">
        <ele>2097</ele>
        <time>2010-08-15T08:36:17Z</time>
      </trkpt>
      <trkpt lat="44.20758" lon="6.92577">
        <ele>2097</ele>
        <time>2010-08-15T08:36:18Z</time>
      </trkpt>
      <trkpt lat="44.20757" lon="6.92581">
        <ele>2098</ele>
        <time>2010-08-15T08:36:19Z</time>
      </trkpt>
      <trkpt lat="44.20757" lon="6.92584">
        <ele>2098</ele>
        <time>2010-08-15T08:36:20Z</time>
      </trkpt>
      <trkpt lat="44.20757" lon="6.92588">
        <ele>2098</ele>
        <time>2010-08-15T08:36:21Z</time>
      </trkpt>
      <trkpt lat="44.20757" lon="6.92591">
        <ele>2097</ele>
        <time>2010-08-15T08:36:22Z</time>
      </trkpt>
      <trkpt lat="44.20757" lon="6.92595">
        <ele>2097</ele>
        <time>2010-08-15T08:36:23Z</time>
      </trkpt>
      <trkpt lat="44.20758" lon="6.92598">
        <ele>2096</ele>
        <time>2010-08-15T08:36:24Z</time>
      </trkpt>
      <trkpt lat="44.20758" lon="6.92602">
        <ele>2096</ele>
        <time>2010-08-15T08:36:25Z</time>
      </trkpt>
      <trkpt lat="44.20758" lon="6.92606">
        <ele>2095</ele>
        <time>2010-08-15T08:36:26Z</time>
      </trkpt>
      <trkpt lat="44.20759" lon="6.92611">
        <ele>2095</ele>
        <time>2010-08-15T08:36:27Z</time>
      </trkpt>
      <trkpt lat="44.20759" lon="6.92615">
        <ele>2095</ele>
        <time>2010-08-15T08:36:28Z</time>
      </trkpt>
      <trkpt lat="44.2076" lon="6.92619">
        <ele>2095</ele>
        <time>2010-08-15T08:36:29Z</time>
      </trkpt>
      <trkpt lat="44.2076" lon="6.92622">
        <ele>2095</ele>
        <time>2010-08-15T08:36:30Z</time>
      </trkpt>
      <trkpt lat="44.20761" lon="6.92626">
        <ele>2095</ele>
        <time>2010-08-15T08:36:31Z</time>
      </trkpt>
      <trkpt lat="44.20761" lon="6.9263">
        <ele>2095</ele>
        <time>2010-08-15T08:36:32Z</time>
      </trkpt>
      <trkpt lat="44.20761" lon="6.92634">
        <ele>2095</ele>
        <time>2010-08-15T08:36:33Z</time>
      </trkpt>
      <trkpt lat="44.20762" lon="6.92637">
        <ele>2095</ele>
        <time>2010-08-15T08:36:34Z</time>
      </trkpt>
      <trkpt lat="44.20763" lon="6.92641">
        <ele>2095</ele>
        <time>2010-08-15T08:36:35Z</time>
      </trkpt>
      <trkpt lat="44.20763" lon="6.92645">
        <ele>2096</ele>
        <time>2010-08-15T08:36:36Z</time>
      </trkpt>
      <trkpt lat="44.20764" lon="6.92649">
        <ele>2096</ele>
        <time>2010-08-15T08:36:37Z</time>
      </trkpt>
      <trkpt lat="44.20765" lon="6.92652">
        <ele>2096</ele>
        <time>2010-08-15T08:36:38Z</time>
      </trkpt>
      <trkpt lat="44.20765" lon="6.92655">
        <ele>2096</ele>
        <time>2010-08-15T08:36:39Z</time>
      </trkpt>
      <trkpt lat="44.20766" lon="6.92659">
        <ele>2097</ele>
        <time>2010-08-15T08:36:40Z</time>
      </trkpt>
      <trkpt lat="44.20768" lon="6.92662">
        <ele>2096</ele>
        <time>2010-08-15T08:36:41Z</time>
      </trkpt>
      <trkpt lat="44.20769" lon="6.92666">
        <ele>2096</ele>
        <time>2010-08-15T08:36:42Z</time>
      </trkpt>
      <trkpt lat="44.2077" lon="6.9267">
        <ele>2097</ele>
        <time>2010-08-15T08:36:43Z</time>
      </trkpt>
      <trkpt lat="44.20771" lon="6.92674">
        <ele>2097</ele>
        <time>2010-08-15T08:36:44Z</time>
      </trkpt>
      <trkpt lat="44.20772" lon="6.92678">
        <ele>2097</ele>
        <time>2010-08-15T08:36:45Z</time>
      </trkpt>
      <trkpt lat="44.20772" lon="6.92682">
        <ele>2096</ele>
        <time>2010-08-15T08:36:46Z</time>
      </trkpt>
      <trkpt lat="44.20772" lon="6.92686">
        <ele>2096</ele>
        <time>2010-08-15T08:36:47Z</time>
      </trkpt>
      <trkpt lat="44.20772" lon="6.9269">
        <ele>2096</ele>
        <time>2010-08-15T08:36:48Z</time>
      </trkpt>
      <trkpt lat="44.20772" lon="6.92694">
        <ele>2096</ele>
        <time>2010-08-15T08:36:49Z</time>
      </trkpt>
      <trkpt lat="44.20772" lon="6.92699">
        <ele>2096</ele>
        <time>2010-08-15T08:36:50Z</time>
      </trkpt>
      <trkpt lat="44.20773" lon="6.92703">
        <ele>2096</ele>
        <time>2010-08-15T08:36:51Z</time>
      </trkpt>
      <trkpt lat="44.20773" lon="6.92707">
        <ele>2096</ele>
        <time>2010-08-15T08:36:52Z</time>
      </trkpt>
      <trkpt lat="44.20773" lon="6.92711">
        <ele>2096</ele>
        <time>2010-08-15T08:36:53Z</time>
      </trkpt>
      <trkpt lat="44.20773" lon="6.92716">
        <ele>2096</ele>
        <time>2010-08-15T08:36:54Z</time>
      </trkpt>
      <trkpt lat="44.20772" lon="6.92721">
        <ele>2096</ele>
        <time>2010-08-15T08:36:55Z</time>
      </trkpt>
      <trkpt lat="44.20771" lon="6.92725">
        <ele>2096</ele>
        <time>2010-08-15T08:36:56Z</time>
      </trkpt>
      <trkpt lat="44.20771" lon="6.92729">
        <ele>2097</ele>
        <time>2010-08-15T08:36:57Z</time>
      </trkpt>
      <trkpt lat="44.20771" lon="6.92734">
        <ele>2097</ele>
        <time>2010-08-15T08:36:58Z</time>
      </trkpt>
      <trkpt lat="44.2077" lon="6.92738">
        <ele>2097</ele>
        <time>2010-08-15T08:36:59Z</time>
      </trkpt>
      <trkpt lat="44.2077" lon="6.92742">
        <ele>2098</ele>
        <time>2010-08-15T08:37:00Z</time>
      </trkpt>
      <trkpt lat="44.20769" lon="6.92746">
        <ele>2098</ele>
        <time>2010-08-15T08:37:01Z</time>
      </trkpt>
      <trkpt lat="44.20769" lon="6.9275">
        <ele>2098</ele>
        <time>2010-08-15T08:37:02Z</time>
      </trkpt>
      <trkpt lat="44.20769" lon="6.92754">
        <ele>2098</ele>
        <time>2010-08-15T08:37:03Z</time>
      </trkpt>
      <trkpt lat="44.20769" lon="6.92758">
        <ele>2098</ele>
        <time>2010-08-15T08:37:04Z</time>
      </trkpt>
      <trkpt lat="44.20768" lon="6.92762">
        <ele>2098</ele>
        <time>2010-08-15T08:37:05Z</time>
      </trkpt>
      <trkpt lat="44.20768" lon="6.92766">
        <ele>2098</ele>
        <time>2010-08-15T08:37:06Z</time>
      </trkpt>
      <trkpt lat="44.20768" lon="6.9277">
        <ele>2098</ele>
        <time>2010-08-15T08:37:07Z</time>
      </trkpt>
      <trkpt lat="44.20767" lon="6.92773">
        <ele>2098</ele>
        <time>2010-08-15T08:37:08Z</time>
      </trkpt>
      <trkpt lat="44.20767" lon="6.92777">
        <ele>2098</ele>
        <time>2010-08-15T08:37:09Z</time>
      </trkpt>
      <trkpt lat="44.20766" lon="6.92779">
        <ele>2097</ele>
        <time>2010-08-15T08:37:10Z</time>
      </trkpt>
      <trkpt lat="44.20765" lon="6.92781">
        <ele>2097</ele>
        <time>2010-08-15T08:37:11Z</time>
      </trkpt>
      <trkpt lat="44.20765" lon="6.92782">
        <ele>2097</ele>
        <time>2010-08-15T08:37:12Z</time>
      </trkpt>
      <trkpt lat="44.20765" lon="6.92783">
        <ele>2097</ele>
        <time>2010-08-15T08:37:13Z</time>
      </trkpt>
      <trkpt lat="44.20765" lon="6.92784">
        <ele>2097</ele>
        <time>2010-08-15T08:37:14Z</time>
      </trkpt>
      <trkpt lat="44.20764" lon="6.92785">
        <ele>2097</ele>
        <time>2010-08-15T08:37:15Z</time>
      </trkpt>
      <trkpt lat="44.20764" lon="6.92786">
        <ele>2097</ele>
        <time>2010-08-15T08:37:16Z</time>
      </trkpt>
    </trkseg>
  </trk>
</gpx>